<?xml version="1.0" encoding="UTF-8" standalone="no" ?>
<gpx xmlns="http://www.topografix.com/GPX/1/1" xmlns:xsi="http://www.w3.org/2001/XMLSchema-instance" xsi:schemaLocation="http://www.topografix.com/GPX/1/1 http://www.topografix.com/GPX/1/1/gpx.xsd" version="1.1" creator="VisuGPX - https://www.visugpx.com">
  <metadata>
    <name>Pornichet 08/04/2021</name>
    <desc><![CDATA[Sortie VTT du jeudi 08 avril 2021]]></desc>
  </metadata>
  <trk>
    <name><![CDATA[Pornichet Cyclisme]]></name>
    <trkseg>
      <trkpt lat="47.2633" lon="-2.31579">
        <ele>6.9</ele>
        <time>2021-04-08T07:15:16.000Z</time>
      </trkpt>
      <trkpt lat="47.26333" lon="-2.3159">
        <ele>7</ele>
        <time>2021-04-08T07:15:19.000Z</time>
      </trkpt>
      <trkpt lat="47.26333" lon="-2.31594">
        <ele>-0.60000002384186</ele>
        <time>2021-04-08T07:15:20.000Z</time>
      </trkpt>
      <trkpt lat="47.26333" lon="-2.316">
        <ele>-0.60000002384186</ele>
        <time>2021-04-08T07:15:22.000Z</time>
      </trkpt>
      <trkpt lat="47.26333" lon="-2.31622">
        <ele>-0.60000002384186</ele>
        <time>2021-04-08T07:15:27.000Z</time>
      </trkpt>
      <trkpt lat="47.26336" lon="-2.31656">
        <ele>-0.60000002384186</ele>
        <time>2021-04-08T07:15:33.000Z</time>
      </trkpt>
      <trkpt lat="47.26339" lon="-2.31681">
        <ele>-0.60000002384186</ele>
        <time>2021-04-08T07:15:37.000Z</time>
      </trkpt>
      <trkpt lat="47.2633" lon="-2.31688">
        <ele>-0.60000002384186</ele>
        <time>2021-04-08T07:15:41.000Z</time>
      </trkpt>
      <trkpt lat="47.26313" lon="-2.31698">
        <ele>-0.60000002384186</ele>
        <time>2021-04-08T07:15:46.000Z</time>
      </trkpt>
      <trkpt lat="47.26308" lon="-2.31699">
        <ele>-0.60000002384186</ele>
        <time>2021-04-08T07:15:47.000Z</time>
      </trkpt>
      <trkpt lat="47.26287" lon="-2.31709">
        <ele>-0.60000002384186</ele>
        <time>2021-04-08T07:15:52.000Z</time>
      </trkpt>
      <trkpt lat="47.26271" lon="-2.31717">
        <ele>-1</ele>
        <time>2021-04-08T07:15:56.000Z</time>
      </trkpt>
      <trkpt lat="47.26268" lon="-2.3172">
        <ele>-1.3999999761581</ele>
        <time>2021-04-08T07:15:57.000Z</time>
      </trkpt>
      <trkpt lat="47.26267" lon="-2.31725">
        <ele>-1.7999999523163</ele>
        <time>2021-04-08T07:15:58.000Z</time>
      </trkpt>
      <trkpt lat="47.26266" lon="-2.31729">
        <ele>-2.2000000476837</ele>
        <time>2021-04-08T07:15:59.000Z</time>
      </trkpt>
      <trkpt lat="47.26264" lon="-2.31733">
        <ele>-2.5999999046326</ele>
        <time>2021-04-08T07:16:00.000Z</time>
      </trkpt>
      <trkpt lat="47.26251" lon="-2.31742">
        <ele>-2.5999999046326</ele>
        <time>2021-04-08T07:16:04.000Z</time>
      </trkpt>
      <trkpt lat="47.26244" lon="-2.31748">
        <ele>-3</ele>
        <time>2021-04-08T07:16:06.000Z</time>
      </trkpt>
      <trkpt lat="47.26241" lon="-2.31752">
        <ele>-3.4000000953674</ele>
        <time>2021-04-08T07:16:07.000Z</time>
      </trkpt>
      <trkpt lat="47.26239" lon="-2.31758">
        <ele>-4</ele>
        <time>2021-04-08T07:16:08.000Z</time>
      </trkpt>
      <trkpt lat="47.26238" lon="-2.31764">
        <ele>-4.4000000953674</ele>
        <time>2021-04-08T07:16:09.000Z</time>
      </trkpt>
      <trkpt lat="47.26238" lon="-2.3177">
        <ele>-4.8000001907349</ele>
        <time>2021-04-08T07:16:10.000Z</time>
      </trkpt>
      <trkpt lat="47.26238" lon="-2.31775">
        <ele>-4.8000001907349</ele>
        <time>2021-04-08T07:16:11.000Z</time>
      </trkpt>
      <trkpt lat="47.26239" lon="-2.31781">
        <ele>-4.8000001907349</ele>
        <time>2021-04-08T07:16:12.000Z</time>
      </trkpt>
      <trkpt lat="47.2624" lon="-2.318">
        <ele>-4.8000001907349</ele>
        <time>2021-04-08T07:16:15.000Z</time>
      </trkpt>
      <trkpt lat="47.26241" lon="-2.31806">
        <ele>-4.8000001907349</ele>
        <time>2021-04-08T07:16:16.000Z</time>
      </trkpt>
      <trkpt lat="47.26242" lon="-2.3182">
        <ele>-4.8000001907349</ele>
        <time>2021-04-08T07:16:18.000Z</time>
      </trkpt>
      <trkpt lat="47.26241" lon="-2.3186">
        <ele>-4.8000001907349</ele>
        <time>2021-04-08T07:16:24.000Z</time>
      </trkpt>
      <trkpt lat="47.26242" lon="-2.31906">
        <ele>-4.8000001907349</ele>
        <time>2021-04-08T07:16:32.000Z</time>
      </trkpt>
      <trkpt lat="47.26236" lon="-2.31923">
        <ele>-4.8000001907349</ele>
        <time>2021-04-08T07:16:36.000Z</time>
      </trkpt>
      <trkpt lat="47.26233" lon="-2.31926">
        <ele>-5.1999998092651</ele>
        <time>2021-04-08T07:16:37.000Z</time>
      </trkpt>
      <trkpt lat="47.26231" lon="-2.31929">
        <ele>-5.5999999046326</ele>
        <time>2021-04-08T07:16:38.000Z</time>
      </trkpt>
      <trkpt lat="47.26228" lon="-2.31932">
        <ele>-6</ele>
        <time>2021-04-08T07:16:39.000Z</time>
      </trkpt>
      <trkpt lat="47.26226" lon="-2.31935">
        <ele>-6.4000000953674</ele>
        <time>2021-04-08T07:16:40.000Z</time>
      </trkpt>
      <trkpt lat="47.26223" lon="-2.31938">
        <ele>-6.8000001907349</ele>
        <time>2021-04-08T07:16:41.000Z</time>
      </trkpt>
      <trkpt lat="47.26221" lon="-2.31942">
        <ele>-6.8000001907349</ele>
        <time>2021-04-08T07:16:42.000Z</time>
      </trkpt>
      <trkpt lat="47.26207" lon="-2.3197">
        <ele>-6.8000001907349</ele>
        <time>2021-04-08T07:16:48.000Z</time>
      </trkpt>
      <trkpt lat="47.262" lon="-2.31985">
        <ele>-6.8000001907349</ele>
        <time>2021-04-08T07:16:51.000Z</time>
      </trkpt>
      <trkpt lat="47.26197" lon="-2.31995">
        <ele>-6.8000001907349</ele>
        <time>2021-04-08T07:16:53.000Z</time>
      </trkpt>
      <trkpt lat="47.26188" lon="-2.32002">
        <ele>-6.8000001907349</ele>
        <time>2021-04-08T07:16:56.000Z</time>
      </trkpt>
      <trkpt lat="47.26182" lon="-2.32005">
        <ele>-6.8000001907349</ele>
        <time>2021-04-08T07:16:58.000Z</time>
      </trkpt>
      <trkpt lat="47.26176" lon="-2.3201">
        <ele>-6.8000001907349</ele>
        <time>2021-04-08T07:17:00.000Z</time>
      </trkpt>
      <trkpt lat="47.26174" lon="-2.32014">
        <ele>-6.8000001907349</ele>
        <time>2021-04-08T07:17:01.000Z</time>
      </trkpt>
      <trkpt lat="47.26155" lon="-2.32033">
        <ele>-6.8000001907349</ele>
        <time>2021-04-08T07:17:08.000Z</time>
      </trkpt>
      <trkpt lat="47.26153" lon="-2.32036">
        <ele>-6.8000001907349</ele>
        <time>2021-04-08T07:17:09.000Z</time>
      </trkpt>
      <trkpt lat="47.2615" lon="-2.32049">
        <ele>-6.8000001907349</ele>
        <time>2021-04-08T07:17:12.000Z</time>
      </trkpt>
      <trkpt lat="47.26148" lon="-2.32053">
        <ele>-6.8000001907349</ele>
        <time>2021-04-08T07:17:14.000Z</time>
      </trkpt>
      <trkpt lat="47.26145" lon="-2.32052">
        <ele>-6.8000001907349</ele>
        <time>2021-04-08T07:17:16.000Z</time>
      </trkpt>
      <trkpt lat="47.26133" lon="-2.32054">
        <ele>-6.8000001907349</ele>
        <time>2021-04-08T07:17:21.000Z</time>
      </trkpt>
      <trkpt lat="47.26121" lon="-2.32066">
        <ele>-6.8000001907349</ele>
        <time>2021-04-08T07:17:25.000Z</time>
      </trkpt>
      <trkpt lat="47.26119" lon="-2.3207">
        <ele>-6.8000001907349</ele>
        <time>2021-04-08T07:17:26.000Z</time>
      </trkpt>
      <trkpt lat="47.26112" lon="-2.32093">
        <ele>-6.8000001907349</ele>
        <time>2021-04-08T07:17:32.000Z</time>
      </trkpt>
      <trkpt lat="47.26106" lon="-2.3212">
        <ele>-6.8000001907349</ele>
        <time>2021-04-08T07:17:37.000Z</time>
      </trkpt>
      <trkpt lat="47.26105" lon="-2.32127">
        <ele>-6.8000001907349</ele>
        <time>2021-04-08T07:17:38.000Z</time>
      </trkpt>
      <trkpt lat="47.26095" lon="-2.32172">
        <ele>-6.8000001907349</ele>
        <time>2021-04-08T07:17:46.000Z</time>
      </trkpt>
      <trkpt lat="47.26081" lon="-2.32209">
        <ele>-6.8000001907349</ele>
        <time>2021-04-08T07:17:53.000Z</time>
      </trkpt>
      <trkpt lat="47.2608" lon="-2.32215">
        <ele>-6.8000001907349</ele>
        <time>2021-04-08T07:17:54.000Z</time>
      </trkpt>
      <trkpt lat="47.26068" lon="-2.32239">
        <ele>-6.8000001907349</ele>
        <time>2021-04-08T07:17:59.000Z</time>
      </trkpt>
      <trkpt lat="47.2605" lon="-2.32263">
        <ele>-6.8000001907349</ele>
        <time>2021-04-08T07:18:05.000Z</time>
      </trkpt>
      <trkpt lat="47.26044" lon="-2.32272">
        <ele>-6.8000001907349</ele>
        <time>2021-04-08T07:18:07.000Z</time>
      </trkpt>
      <trkpt lat="47.26029" lon="-2.32287">
        <ele>-6.8000001907349</ele>
        <time>2021-04-08T07:18:11.000Z</time>
      </trkpt>
      <trkpt lat="47.26005" lon="-2.32316">
        <ele>-6.8000001907349</ele>
        <time>2021-04-08T07:18:18.000Z</time>
      </trkpt>
      <trkpt lat="47.25987" lon="-2.32341">
        <ele>-6.8000001907349</ele>
        <time>2021-04-08T07:18:24.000Z</time>
      </trkpt>
      <trkpt lat="47.25973" lon="-2.32359">
        <ele>-6.8000001907349</ele>
        <time>2021-04-08T07:18:28.000Z</time>
      </trkpt>
      <trkpt lat="47.2597" lon="-2.32363">
        <ele>-6.8000001907349</ele>
        <time>2021-04-08T07:18:29.000Z</time>
      </trkpt>
      <trkpt lat="47.2596" lon="-2.32376">
        <ele>-6.8000001907349</ele>
        <time>2021-04-08T07:18:32.000Z</time>
      </trkpt>
      <trkpt lat="47.25938" lon="-2.32406">
        <ele>-6.8000001907349</ele>
        <time>2021-04-08T07:18:39.000Z</time>
      </trkpt>
      <trkpt lat="47.25912" lon="-2.32441">
        <ele>-6.8000001907349</ele>
        <time>2021-04-08T07:18:47.000Z</time>
      </trkpt>
      <trkpt lat="47.25895" lon="-2.32465">
        <ele>-6.8000001907349</ele>
        <time>2021-04-08T07:18:53.000Z</time>
      </trkpt>
      <trkpt lat="47.25899" lon="-2.32477">
        <ele>-6.8000001907349</ele>
        <time>2021-04-08T07:18:56.000Z</time>
      </trkpt>
      <trkpt lat="47.25905" lon="-2.32482">
        <ele>-6.8000001907349</ele>
        <time>2021-04-08T07:18:58.000Z</time>
      </trkpt>
      <trkpt lat="47.25912" lon="-2.32489">
        <ele>-6.8000001907349</ele>
        <time>2021-04-08T07:19:00.000Z</time>
      </trkpt>
      <trkpt lat="47.25915" lon="-2.32493">
        <ele>-6.8000001907349</ele>
        <time>2021-04-08T07:19:01.000Z</time>
      </trkpt>
      <trkpt lat="47.25924" lon="-2.32517">
        <ele>-6.8000001907349</ele>
        <time>2021-04-08T07:19:05.000Z</time>
      </trkpt>
      <trkpt lat="47.25926" lon="-2.32523">
        <ele>-6.8000001907349</ele>
        <time>2021-04-08T07:19:06.000Z</time>
      </trkpt>
      <trkpt lat="47.25942" lon="-2.32575">
        <ele>-6.8000001907349</ele>
        <time>2021-04-08T07:19:15.000Z</time>
      </trkpt>
      <trkpt lat="47.25949" lon="-2.32605">
        <ele>-7.1999998092651</ele>
        <time>2021-04-08T07:19:20.000Z</time>
      </trkpt>
      <trkpt lat="47.25951" lon="-2.32611">
        <ele>-7.5999999046326</ele>
        <time>2021-04-08T07:19:21.000Z</time>
      </trkpt>
      <trkpt lat="47.25952" lon="-2.32617">
        <ele>-8.3999996185303</ele>
        <time>2021-04-08T07:19:22.000Z</time>
      </trkpt>
      <trkpt lat="47.25953" lon="-2.32623">
        <ele>-8.8000001907349</ele>
        <time>2021-04-08T07:19:23.000Z</time>
      </trkpt>
      <trkpt lat="47.25955" lon="-2.32634">
        <ele>-8.8000001907349</ele>
        <time>2021-04-08T07:19:25.000Z</time>
      </trkpt>
      <trkpt lat="47.25955" lon="-2.32641">
        <ele>-8.8000001907349</ele>
        <time>2021-04-08T07:19:26.000Z</time>
      </trkpt>
      <trkpt lat="47.25958" lon="-2.32661">
        <ele>-8.8000001907349</ele>
        <time>2021-04-08T07:19:30.000Z</time>
      </trkpt>
      <trkpt lat="47.25968" lon="-2.32663">
        <ele>-8.8000001907349</ele>
        <time>2021-04-08T07:19:33.000Z</time>
      </trkpt>
      <trkpt lat="47.25979" lon="-2.32665">
        <ele>-8.8000001907349</ele>
        <time>2021-04-08T07:19:36.000Z</time>
      </trkpt>
      <trkpt lat="47.25991" lon="-2.32663">
        <ele>-8.8000001907349</ele>
        <time>2021-04-08T07:19:39.000Z</time>
      </trkpt>
      <trkpt lat="47.26028" lon="-2.32657">
        <ele>-8.8000001907349</ele>
        <time>2021-04-08T07:19:48.000Z</time>
      </trkpt>
      <trkpt lat="47.2606" lon="-2.32651">
        <ele>-8.8000001907349</ele>
        <time>2021-04-08T07:19:56.000Z</time>
      </trkpt>
      <trkpt lat="47.26076" lon="-2.32648">
        <ele>-8.3999996185303</ele>
        <time>2021-04-08T07:20:00.000Z</time>
      </trkpt>
      <trkpt lat="47.2608" lon="-2.32647">
        <ele>-8</ele>
        <time>2021-04-08T07:20:01.000Z</time>
      </trkpt>
      <trkpt lat="47.26084" lon="-2.32646">
        <ele>-7.5999999046326</ele>
        <time>2021-04-08T07:20:02.000Z</time>
      </trkpt>
      <trkpt lat="47.26088" lon="-2.32646">
        <ele>-7.1999998092651</ele>
        <time>2021-04-08T07:20:03.000Z</time>
      </trkpt>
      <trkpt lat="47.26092" lon="-2.32645">
        <ele>-6.5999999046326</ele>
        <time>2021-04-08T07:20:04.000Z</time>
      </trkpt>
      <trkpt lat="47.26119" lon="-2.32644">
        <ele>-6.5999999046326</ele>
        <time>2021-04-08T07:20:11.000Z</time>
      </trkpt>
      <trkpt lat="47.26147" lon="-2.32653">
        <ele>-6.5999999046326</ele>
        <time>2021-04-08T07:20:18.000Z</time>
      </trkpt>
      <trkpt lat="47.26178" lon="-2.32672">
        <ele>-6.5999999046326</ele>
        <time>2021-04-08T07:20:26.000Z</time>
      </trkpt>
      <trkpt lat="47.26207" lon="-2.32702">
        <ele>-6.5999999046326</ele>
        <time>2021-04-08T07:20:34.000Z</time>
      </trkpt>
      <trkpt lat="47.26216" lon="-2.32711">
        <ele>-6.5999999046326</ele>
        <time>2021-04-08T07:20:36.000Z</time>
      </trkpt>
      <trkpt lat="47.2622" lon="-2.32716">
        <ele>-6.5999999046326</ele>
        <time>2021-04-08T07:20:37.000Z</time>
      </trkpt>
      <trkpt lat="47.26236" lon="-2.32736">
        <ele>-6.5999999046326</ele>
        <time>2021-04-08T07:20:41.000Z</time>
      </trkpt>
      <trkpt lat="47.26265" lon="-2.3278">
        <ele>-6.5999999046326</ele>
        <time>2021-04-08T07:20:49.000Z</time>
      </trkpt>
      <trkpt lat="47.26274" lon="-2.32798">
        <ele>-6.5999999046326</ele>
        <time>2021-04-08T07:20:52.000Z</time>
      </trkpt>
      <trkpt lat="47.26282" lon="-2.32818">
        <ele>-6.5999999046326</ele>
        <time>2021-04-08T07:20:55.000Z</time>
      </trkpt>
      <trkpt lat="47.26283" lon="-2.32826">
        <ele>-6.5999999046326</ele>
        <time>2021-04-08T07:20:56.000Z</time>
      </trkpt>
      <trkpt lat="47.26286" lon="-2.3284">
        <ele>-7.1999998092651</ele>
        <time>2021-04-08T07:20:58.000Z</time>
      </trkpt>
      <trkpt lat="47.26287" lon="-2.32848">
        <ele>-7.5999999046326</ele>
        <time>2021-04-08T07:20:59.000Z</time>
      </trkpt>
      <trkpt lat="47.26289" lon="-2.32854">
        <ele>-8</ele>
        <time>2021-04-08T07:21:00.000Z</time>
      </trkpt>
      <trkpt lat="47.26292" lon="-2.3286">
        <ele>-8.8000001907349</ele>
        <time>2021-04-08T07:21:01.000Z</time>
      </trkpt>
      <trkpt lat="47.26301" lon="-2.32866">
        <ele>-8.8000001907349</ele>
        <time>2021-04-08T07:21:03.000Z</time>
      </trkpt>
      <trkpt lat="47.26306" lon="-2.32867">
        <ele>-8.8000001907349</ele>
        <time>2021-04-08T07:21:04.000Z</time>
      </trkpt>
      <trkpt lat="47.26311" lon="-2.3287">
        <ele>-8.8000001907349</ele>
        <time>2021-04-08T07:21:05.000Z</time>
      </trkpt>
      <trkpt lat="47.26317" lon="-2.32879">
        <ele>-8.8000001907349</ele>
        <time>2021-04-08T07:21:07.000Z</time>
      </trkpt>
      <trkpt lat="47.26322" lon="-2.32892">
        <ele>-8.8000001907349</ele>
        <time>2021-04-08T07:21:09.000Z</time>
      </trkpt>
      <trkpt lat="47.26331" lon="-2.32919">
        <ele>-8.8000001907349</ele>
        <time>2021-04-08T07:21:13.000Z</time>
      </trkpt>
      <trkpt lat="47.26349" lon="-2.3297">
        <ele>-8.8000001907349</ele>
        <time>2021-04-08T07:21:21.000Z</time>
      </trkpt>
      <trkpt lat="47.26363" lon="-2.32985">
        <ele>-8.8000001907349</ele>
        <time>2021-04-08T07:21:25.000Z</time>
      </trkpt>
      <trkpt lat="47.26368" lon="-2.33003">
        <ele>-8.8000001907349</ele>
        <time>2021-04-08T07:21:28.000Z</time>
      </trkpt>
      <trkpt lat="47.26368" lon="-2.33016">
        <ele>-8.8000001907349</ele>
        <time>2021-04-08T07:21:30.000Z</time>
      </trkpt>
      <trkpt lat="47.26369" lon="-2.33044">
        <ele>-8.8000001907349</ele>
        <time>2021-04-08T07:21:34.000Z</time>
      </trkpt>
      <trkpt lat="47.2637" lon="-2.33092">
        <ele>-8.8000001907349</ele>
        <time>2021-04-08T07:21:41.000Z</time>
      </trkpt>
      <trkpt lat="47.26372" lon="-2.33113">
        <ele>-8.8000001907349</ele>
        <time>2021-04-08T07:21:44.000Z</time>
      </trkpt>
      <trkpt lat="47.26375" lon="-2.33133">
        <ele>-8.8000001907349</ele>
        <time>2021-04-08T07:21:47.000Z</time>
      </trkpt>
      <trkpt lat="47.26378" lon="-2.33193">
        <ele>-8.8000001907349</ele>
        <time>2021-04-08T07:21:56.000Z</time>
      </trkpt>
      <trkpt lat="47.2638" lon="-2.33233">
        <ele>-8.8000001907349</ele>
        <time>2021-04-08T07:22:02.000Z</time>
      </trkpt>
      <trkpt lat="47.26381" lon="-2.3324">
        <ele>-8.8000001907349</ele>
        <time>2021-04-08T07:22:03.000Z</time>
      </trkpt>
      <trkpt lat="47.26383" lon="-2.33246">
        <ele>-8.8000001907349</ele>
        <time>2021-04-08T07:22:04.000Z</time>
      </trkpt>
      <trkpt lat="47.26395" lon="-2.33265">
        <ele>-8.8000001907349</ele>
        <time>2021-04-08T07:22:08.000Z</time>
      </trkpt>
      <trkpt lat="47.26413" lon="-2.33268">
        <ele>-8.8000001907349</ele>
        <time>2021-04-08T07:22:12.000Z</time>
      </trkpt>
      <trkpt lat="47.26453" lon="-2.33273">
        <ele>-8.8000001907349</ele>
        <time>2021-04-08T07:22:21.000Z</time>
      </trkpt>
      <trkpt lat="47.26486" lon="-2.3328">
        <ele>-8.8000001907349</ele>
        <time>2021-04-08T07:22:29.000Z</time>
      </trkpt>
      <trkpt lat="47.26498" lon="-2.33281">
        <ele>-8.8000001907349</ele>
        <time>2021-04-08T07:22:32.000Z</time>
      </trkpt>
      <trkpt lat="47.26509" lon="-2.33287">
        <ele>-8.8000001907349</ele>
        <time>2021-04-08T07:22:35.000Z</time>
      </trkpt>
      <trkpt lat="47.2652" lon="-2.3329">
        <ele>-8.8000001907349</ele>
        <time>2021-04-08T07:22:38.000Z</time>
      </trkpt>
      <trkpt lat="47.26524" lon="-2.3329">
        <ele>-8.8000001907349</ele>
        <time>2021-04-08T07:22:39.000Z</time>
      </trkpt>
      <trkpt lat="47.26535" lon="-2.33297">
        <ele>-8.8000001907349</ele>
        <time>2021-04-08T07:22:43.000Z</time>
      </trkpt>
      <trkpt lat="47.26544" lon="-2.33298">
        <ele>-8.8000001907349</ele>
        <time>2021-04-08T07:22:46.000Z</time>
      </trkpt>
      <trkpt lat="47.26549" lon="-2.3329">
        <ele>-8.8000001907349</ele>
        <time>2021-04-08T07:22:48.000Z</time>
      </trkpt>
      <trkpt lat="47.26563" lon="-2.33275">
        <ele>-8.8000001907349</ele>
        <time>2021-04-08T07:22:52.000Z</time>
      </trkpt>
      <trkpt lat="47.26592" lon="-2.33244">
        <ele>-8.8000001907349</ele>
        <time>2021-04-08T07:23:00.000Z</time>
      </trkpt>
      <trkpt lat="47.26627" lon="-2.3321">
        <ele>-8.8000001907349</ele>
        <time>2021-04-08T07:23:09.000Z</time>
      </trkpt>
      <trkpt lat="47.26648" lon="-2.33188">
        <ele>-8.8000001907349</ele>
        <time>2021-04-08T07:23:15.000Z</time>
      </trkpt>
      <trkpt lat="47.2667" lon="-2.33166">
        <ele>-8.8000001907349</ele>
        <time>2021-04-08T07:23:21.000Z</time>
      </trkpt>
      <trkpt lat="47.26702" lon="-2.33132">
        <ele>-8.8000001907349</ele>
        <time>2021-04-08T07:23:30.000Z</time>
      </trkpt>
      <trkpt lat="47.2671" lon="-2.33125">
        <ele>-8.8000001907349</ele>
        <time>2021-04-08T07:23:32.000Z</time>
      </trkpt>
      <trkpt lat="47.26724" lon="-2.3311">
        <ele>-8.8000001907349</ele>
        <time>2021-04-08T07:23:36.000Z</time>
      </trkpt>
      <trkpt lat="47.2674" lon="-2.33094">
        <ele>-8.8000001907349</ele>
        <time>2021-04-08T07:23:41.000Z</time>
      </trkpt>
      <trkpt lat="47.26753" lon="-2.33087">
        <ele>-8.8000001907349</ele>
        <time>2021-04-08T07:23:45.000Z</time>
      </trkpt>
      <trkpt lat="47.26757" lon="-2.3309">
        <ele>-8.8000001907349</ele>
        <time>2021-04-08T07:23:46.000Z</time>
      </trkpt>
      <trkpt lat="47.26764" lon="-2.3311">
        <ele>-8.8000001907349</ele>
        <time>2021-04-08T07:23:49.000Z</time>
      </trkpt>
      <trkpt lat="47.26764" lon="-2.33137">
        <ele>-8.8000001907349</ele>
        <time>2021-04-08T07:23:53.000Z</time>
      </trkpt>
      <trkpt lat="47.26761" lon="-2.33151">
        <ele>-8.8000001907349</ele>
        <time>2021-04-08T07:23:55.000Z</time>
      </trkpt>
      <trkpt lat="47.26756" lon="-2.3317">
        <ele>-8.8000001907349</ele>
        <time>2021-04-08T07:23:58.000Z</time>
      </trkpt>
      <trkpt lat="47.26754" lon="-2.33176">
        <ele>-8.8000001907349</ele>
        <time>2021-04-08T07:23:59.000Z</time>
      </trkpt>
      <trkpt lat="47.26748" lon="-2.332">
        <ele>-8.8000001907349</ele>
        <time>2021-04-08T07:24:03.000Z</time>
      </trkpt>
      <trkpt lat="47.26746" lon="-2.33206">
        <ele>-8.8000001907349</ele>
        <time>2021-04-08T07:24:04.000Z</time>
      </trkpt>
      <trkpt lat="47.26737" lon="-2.33236">
        <ele>-8.8000001907349</ele>
        <time>2021-04-08T07:24:09.000Z</time>
      </trkpt>
      <trkpt lat="47.26735" lon="-2.33242">
        <ele>-8.8000001907349</ele>
        <time>2021-04-08T07:24:10.000Z</time>
      </trkpt>
      <trkpt lat="47.26732" lon="-2.33262">
        <ele>-8.8000001907349</ele>
        <time>2021-04-08T07:24:13.000Z</time>
      </trkpt>
      <trkpt lat="47.26732" lon="-2.33269">
        <ele>-8.8000001907349</ele>
        <time>2021-04-08T07:24:14.000Z</time>
      </trkpt>
      <trkpt lat="47.2674" lon="-2.33302">
        <ele>-8.8000001907349</ele>
        <time>2021-04-08T07:24:19.000Z</time>
      </trkpt>
      <trkpt lat="47.26753" lon="-2.33357">
        <ele>-8.8000001907349</ele>
        <time>2021-04-08T07:24:27.000Z</time>
      </trkpt>
      <trkpt lat="47.26757" lon="-2.334">
        <ele>-8.8000001907349</ele>
        <time>2021-04-08T07:24:33.000Z</time>
      </trkpt>
      <trkpt lat="47.26757" lon="-2.33407">
        <ele>-8.8000001907349</ele>
        <time>2021-04-08T07:24:34.000Z</time>
      </trkpt>
      <trkpt lat="47.26762" lon="-2.33464">
        <ele>-8.8000001907349</ele>
        <time>2021-04-08T07:24:42.000Z</time>
      </trkpt>
      <trkpt lat="47.26772" lon="-2.33519">
        <ele>-8.8000001907349</ele>
        <time>2021-04-08T07:24:50.000Z</time>
      </trkpt>
      <trkpt lat="47.26777" lon="-2.33546">
        <ele>-8.8000001907349</ele>
        <time>2021-04-08T07:24:54.000Z</time>
      </trkpt>
      <trkpt lat="47.2678" lon="-2.33565">
        <ele>-8.8000001907349</ele>
        <time>2021-04-08T07:24:57.000Z</time>
      </trkpt>
      <trkpt lat="47.26792" lon="-2.3357">
        <ele>-8.8000001907349</ele>
        <time>2021-04-08T07:25:00.000Z</time>
      </trkpt>
      <trkpt lat="47.26805" lon="-2.33563">
        <ele>-8.8000001907349</ele>
        <time>2021-04-08T07:25:03.000Z</time>
      </trkpt>
      <trkpt lat="47.26813" lon="-2.33558">
        <ele>-8.8000001907349</ele>
        <time>2021-04-08T07:25:05.000Z</time>
      </trkpt>
      <trkpt lat="47.26833" lon="-2.3355">
        <ele>-8.8000001907349</ele>
        <time>2021-04-08T07:25:09.000Z</time>
      </trkpt>
      <trkpt lat="47.26841" lon="-2.33548">
        <ele>-8.8000001907349</ele>
        <time>2021-04-08T07:25:11.000Z</time>
      </trkpt>
      <trkpt lat="47.2685" lon="-2.33545">
        <ele>-8.8000001907349</ele>
        <time>2021-04-08T07:25:13.000Z</time>
      </trkpt>
      <trkpt lat="47.2686" lon="-2.33541">
        <ele>-8.8000001907349</ele>
        <time>2021-04-08T07:25:15.000Z</time>
      </trkpt>
      <trkpt lat="47.26864" lon="-2.33539">
        <ele>-8.8000001907349</ele>
        <time>2021-04-08T07:25:16.000Z</time>
      </trkpt>
      <trkpt lat="47.26881" lon="-2.33537">
        <ele>-8.8000001907349</ele>
        <time>2021-04-08T07:25:20.000Z</time>
      </trkpt>
      <trkpt lat="47.26889" lon="-2.3354">
        <ele>-8.8000001907349</ele>
        <time>2021-04-08T07:25:22.000Z</time>
      </trkpt>
      <trkpt lat="47.26895" lon="-2.33546">
        <ele>-8.3999996185303</ele>
        <time>2021-04-08T07:25:24.000Z</time>
      </trkpt>
      <trkpt lat="47.26898" lon="-2.3355">
        <ele>-8</ele>
        <time>2021-04-08T07:25:25.000Z</time>
      </trkpt>
      <trkpt lat="47.269" lon="-2.33555">
        <ele>-7.5999999046326</ele>
        <time>2021-04-08T07:25:26.000Z</time>
      </trkpt>
      <trkpt lat="47.26902" lon="-2.33559">
        <ele>-7.1999998092651</ele>
        <time>2021-04-08T07:25:27.000Z</time>
      </trkpt>
      <trkpt lat="47.26905" lon="-2.33564">
        <ele>-6.8000001907349</ele>
        <time>2021-04-08T07:25:28.000Z</time>
      </trkpt>
      <trkpt lat="47.26914" lon="-2.33585">
        <ele>-6.8000001907349</ele>
        <time>2021-04-08T07:25:32.000Z</time>
      </trkpt>
      <trkpt lat="47.26916" lon="-2.3359">
        <ele>-6.8000001907349</ele>
        <time>2021-04-08T07:25:33.000Z</time>
      </trkpt>
      <trkpt lat="47.2692" lon="-2.33607">
        <ele>-6.4000000953674</ele>
        <time>2021-04-08T07:25:36.000Z</time>
      </trkpt>
      <trkpt lat="47.26922" lon="-2.33612">
        <ele>-6</ele>
        <time>2021-04-08T07:25:37.000Z</time>
      </trkpt>
      <trkpt lat="47.26923" lon="-2.33617">
        <ele>-5.5999999046326</ele>
        <time>2021-04-08T07:25:38.000Z</time>
      </trkpt>
      <trkpt lat="47.26924" lon="-2.33623">
        <ele>-5.1999998092651</ele>
        <time>2021-04-08T07:25:39.000Z</time>
      </trkpt>
      <trkpt lat="47.26926" lon="-2.33628">
        <ele>-4.8000001907349</ele>
        <time>2021-04-08T07:25:40.000Z</time>
      </trkpt>
      <trkpt lat="47.26931" lon="-2.33657">
        <ele>-4.8000001907349</ele>
        <time>2021-04-08T07:25:45.000Z</time>
      </trkpt>
      <trkpt lat="47.26933" lon="-2.33669">
        <ele>-4.8000001907349</ele>
        <time>2021-04-08T07:25:47.000Z</time>
      </trkpt>
      <trkpt lat="47.26939" lon="-2.33691">
        <ele>-4.8000001907349</ele>
        <time>2021-04-08T07:25:51.000Z</time>
      </trkpt>
      <trkpt lat="47.26941" lon="-2.33726">
        <ele>-4.8000001907349</ele>
        <time>2021-04-08T07:25:57.000Z</time>
      </trkpt>
      <trkpt lat="47.26934" lon="-2.33766">
        <ele>-4.8000001907349</ele>
        <time>2021-04-08T07:26:03.000Z</time>
      </trkpt>
      <trkpt lat="47.26932" lon="-2.3378">
        <ele>-4.8000001907349</ele>
        <time>2021-04-08T07:26:05.000Z</time>
      </trkpt>
      <trkpt lat="47.26935" lon="-2.33801">
        <ele>-4.8000001907349</ele>
        <time>2021-04-08T07:26:08.000Z</time>
      </trkpt>
      <trkpt lat="47.26948" lon="-2.33819">
        <ele>-4.8000001907349</ele>
        <time>2021-04-08T07:26:12.000Z</time>
      </trkpt>
      <trkpt lat="47.26955" lon="-2.33825">
        <ele>-4.4000000953674</ele>
        <time>2021-04-08T07:26:14.000Z</time>
      </trkpt>
      <trkpt lat="47.26959" lon="-2.33828">
        <ele>-4</ele>
        <time>2021-04-08T07:26:15.000Z</time>
      </trkpt>
      <trkpt lat="47.26963" lon="-2.3383">
        <ele>-3.4000000953674</ele>
        <time>2021-04-08T07:26:16.000Z</time>
      </trkpt>
      <trkpt lat="47.26968" lon="-2.33833">
        <ele>-3</ele>
        <time>2021-04-08T07:26:17.000Z</time>
      </trkpt>
      <trkpt lat="47.26972" lon="-2.33835">
        <ele>-2.5999999046326</ele>
        <time>2021-04-08T07:26:18.000Z</time>
      </trkpt>
      <trkpt lat="47.2699" lon="-2.33845">
        <ele>-2.2000000476837</ele>
        <time>2021-04-08T07:26:23.000Z</time>
      </trkpt>
      <trkpt lat="47.26993" lon="-2.33847">
        <ele>-1.7999999523163</ele>
        <time>2021-04-08T07:26:24.000Z</time>
      </trkpt>
      <trkpt lat="47.26997" lon="-2.33849">
        <ele>-1.3999999761581</ele>
        <time>2021-04-08T07:26:25.000Z</time>
      </trkpt>
      <trkpt lat="47.27" lon="-2.33851">
        <ele>-1</ele>
        <time>2021-04-08T07:26:26.000Z</time>
      </trkpt>
      <trkpt lat="47.27004" lon="-2.33853">
        <ele>-0.60000002384186</ele>
        <time>2021-04-08T07:26:27.000Z</time>
      </trkpt>
      <trkpt lat="47.27017" lon="-2.33863">
        <ele>-0.20000000298023</ele>
        <time>2021-04-08T07:26:31.000Z</time>
      </trkpt>
      <trkpt lat="47.2702" lon="-2.33865">
        <ele>0.20000000298023</ele>
        <time>2021-04-08T07:26:32.000Z</time>
      </trkpt>
      <trkpt lat="47.27023" lon="-2.33867">
        <ele>0.60000002384186</ele>
        <time>2021-04-08T07:26:33.000Z</time>
      </trkpt>
      <trkpt lat="47.27027" lon="-2.3387">
        <ele>1</ele>
        <time>2021-04-08T07:26:34.000Z</time>
      </trkpt>
      <trkpt lat="47.2703" lon="-2.33873">
        <ele>1.3999999761581</ele>
        <time>2021-04-08T07:26:35.000Z</time>
      </trkpt>
      <trkpt lat="47.2704" lon="-2.33881">
        <ele>1.3999999761581</ele>
        <time>2021-04-08T07:26:38.000Z</time>
      </trkpt>
      <trkpt lat="47.27065" lon="-2.33904">
        <ele>1.3999999761581</ele>
        <time>2021-04-08T07:26:45.000Z</time>
      </trkpt>
      <trkpt lat="47.27069" lon="-2.33907">
        <ele>2</ele>
        <time>2021-04-08T07:26:46.000Z</time>
      </trkpt>
      <trkpt lat="47.27072" lon="-2.3391">
        <ele>2.7999999523163</ele>
        <time>2021-04-08T07:26:47.000Z</time>
      </trkpt>
      <trkpt lat="47.27075" lon="-2.33913">
        <ele>3.2000000476837</ele>
        <time>2021-04-08T07:26:48.000Z</time>
      </trkpt>
      <trkpt lat="47.27078" lon="-2.33915">
        <ele>3.5999999046326</ele>
        <time>2021-04-08T07:26:49.000Z</time>
      </trkpt>
      <trkpt lat="47.27083" lon="-2.3392">
        <ele>3.5999999046326</ele>
        <time>2021-04-08T07:26:51.000Z</time>
      </trkpt>
      <trkpt lat="47.27089" lon="-2.33926">
        <ele>4</ele>
        <time>2021-04-08T07:26:53.000Z</time>
      </trkpt>
      <trkpt lat="47.27091" lon="-2.33929">
        <ele>4.4000000953674</ele>
        <time>2021-04-08T07:26:54.000Z</time>
      </trkpt>
      <trkpt lat="47.27094" lon="-2.33932">
        <ele>5</ele>
        <time>2021-04-08T07:26:55.000Z</time>
      </trkpt>
      <trkpt lat="47.27097" lon="-2.33935">
        <ele>5.4000000953674</ele>
        <time>2021-04-08T07:26:56.000Z</time>
      </trkpt>
      <trkpt lat="47.27099" lon="-2.33937">
        <ele>5.8000001907349</ele>
        <time>2021-04-08T07:26:57.000Z</time>
      </trkpt>
      <trkpt lat="47.27102" lon="-2.33939">
        <ele>5.8000001907349</ele>
        <time>2021-04-08T07:26:58.000Z</time>
      </trkpt>
      <trkpt lat="47.27114" lon="-2.3395">
        <ele>6.1999998092651</ele>
        <time>2021-04-08T07:27:02.000Z</time>
      </trkpt>
      <trkpt lat="47.27117" lon="-2.33953">
        <ele>6.5999999046326</ele>
        <time>2021-04-08T07:27:03.000Z</time>
      </trkpt>
      <trkpt lat="47.27119" lon="-2.33955">
        <ele>7</ele>
        <time>2021-04-08T07:27:04.000Z</time>
      </trkpt>
      <trkpt lat="47.27122" lon="-2.33958">
        <ele>7.4000000953674</ele>
        <time>2021-04-08T07:27:05.000Z</time>
      </trkpt>
      <trkpt lat="47.27125" lon="-2.33961">
        <ele>7.8000001907349</ele>
        <time>2021-04-08T07:27:06.000Z</time>
      </trkpt>
      <trkpt lat="47.27147" lon="-2.33983">
        <ele>7.8000001907349</ele>
        <time>2021-04-08T07:27:13.000Z</time>
      </trkpt>
      <trkpt lat="47.27164" lon="-2.34002">
        <ele>7.8000001907349</ele>
        <time>2021-04-08T07:27:19.000Z</time>
      </trkpt>
      <trkpt lat="47.27177" lon="-2.34014">
        <ele>8.1999998092651</ele>
        <time>2021-04-08T07:27:23.000Z</time>
      </trkpt>
      <trkpt lat="47.2718" lon="-2.34016">
        <ele>8.6000003814697</ele>
        <time>2021-04-08T07:27:24.000Z</time>
      </trkpt>
      <trkpt lat="47.27184" lon="-2.34019">
        <ele>9</ele>
        <time>2021-04-08T07:27:25.000Z</time>
      </trkpt>
      <trkpt lat="47.27187" lon="-2.34022">
        <ele>9.3999996185303</ele>
        <time>2021-04-08T07:27:26.000Z</time>
      </trkpt>
      <trkpt lat="47.2719" lon="-2.34025">
        <ele>9.8000001907349</ele>
        <time>2021-04-08T07:27:27.000Z</time>
      </trkpt>
      <trkpt lat="47.2721" lon="-2.34045">
        <ele>9.8000001907349</ele>
        <time>2021-04-08T07:27:33.000Z</time>
      </trkpt>
      <trkpt lat="47.27229" lon="-2.34055">
        <ele>9.8000001907349</ele>
        <time>2021-04-08T07:27:38.000Z</time>
      </trkpt>
      <trkpt lat="47.2724" lon="-2.34054">
        <ele>10.199999809265</ele>
        <time>2021-04-08T07:27:41.000Z</time>
      </trkpt>
      <trkpt lat="47.27244" lon="-2.34052">
        <ele>10.60000038147</ele>
        <time>2021-04-08T07:27:42.000Z</time>
      </trkpt>
      <trkpt lat="47.27248" lon="-2.34051">
        <ele>11</ele>
        <time>2021-04-08T07:27:43.000Z</time>
      </trkpt>
      <trkpt lat="47.27252" lon="-2.34051">
        <ele>11.39999961853</ele>
        <time>2021-04-08T07:27:44.000Z</time>
      </trkpt>
      <trkpt lat="47.27255" lon="-2.34052">
        <ele>12</ele>
        <time>2021-04-08T07:27:45.000Z</time>
      </trkpt>
      <trkpt lat="47.2727" lon="-2.34061">
        <ele>12</ele>
        <time>2021-04-08T07:27:49.000Z</time>
      </trkpt>
      <trkpt lat="47.27273" lon="-2.34065">
        <ele>12</ele>
        <time>2021-04-08T07:27:50.000Z</time>
      </trkpt>
      <trkpt lat="47.27278" lon="-2.3408">
        <ele>12</ele>
        <time>2021-04-08T07:27:53.000Z</time>
      </trkpt>
      <trkpt lat="47.27279" lon="-2.34086">
        <ele>12</ele>
        <time>2021-04-08T07:27:54.000Z</time>
      </trkpt>
      <trkpt lat="47.2728" lon="-2.34093">
        <ele>12</ele>
        <time>2021-04-08T07:27:55.000Z</time>
      </trkpt>
      <trkpt lat="47.27282" lon="-2.34106">
        <ele>12</ele>
        <time>2021-04-08T07:27:57.000Z</time>
      </trkpt>
      <trkpt lat="47.27287" lon="-2.34117">
        <ele>12</ele>
        <time>2021-04-08T07:27:59.000Z</time>
      </trkpt>
      <trkpt lat="47.27302" lon="-2.34132">
        <ele>12</ele>
        <time>2021-04-08T07:28:03.000Z</time>
      </trkpt>
      <trkpt lat="47.27306" lon="-2.34135">
        <ele>12</ele>
        <time>2021-04-08T07:28:04.000Z</time>
      </trkpt>
      <trkpt lat="47.27331" lon="-2.34153">
        <ele>12</ele>
        <time>2021-04-08T07:28:10.000Z</time>
      </trkpt>
      <trkpt lat="47.27354" lon="-2.34165">
        <ele>12</ele>
        <time>2021-04-08T07:28:15.000Z</time>
      </trkpt>
      <trkpt lat="47.27367" lon="-2.34173">
        <ele>12</ele>
        <time>2021-04-08T07:28:18.000Z</time>
      </trkpt>
      <trkpt lat="47.27379" lon="-2.34181">
        <ele>12</ele>
        <time>2021-04-08T07:28:21.000Z</time>
      </trkpt>
      <trkpt lat="47.2739" lon="-2.3419">
        <ele>12</ele>
        <time>2021-04-08T07:28:24.000Z</time>
      </trkpt>
      <trkpt lat="47.27401" lon="-2.34209">
        <ele>12</ele>
        <time>2021-04-08T07:28:29.000Z</time>
      </trkpt>
      <trkpt lat="47.27404" lon="-2.34233">
        <ele>12</ele>
        <time>2021-04-08T07:28:34.000Z</time>
      </trkpt>
      <trkpt lat="47.27405" lon="-2.34236">
        <ele>12</ele>
        <time>2021-04-08T07:28:36.000Z</time>
      </trkpt>
      <trkpt lat="47.27406" lon="-2.34238">
        <ele>11.60000038147</ele>
        <time>2021-04-08T07:28:37.000Z</time>
      </trkpt>
      <trkpt lat="47.27407" lon="-2.34239">
        <ele>11.199999809265</ele>
        <time>2021-04-08T07:28:38.000Z</time>
      </trkpt>
      <trkpt lat="47.27409" lon="-2.34241">
        <ele>10.800000190735</ele>
        <time>2021-04-08T07:28:39.000Z</time>
      </trkpt>
      <trkpt lat="47.27412" lon="-2.34242">
        <ele>10.39999961853</ele>
        <time>2021-04-08T07:28:40.000Z</time>
      </trkpt>
      <trkpt lat="47.27414" lon="-2.34245">
        <ele>10</ele>
        <time>2021-04-08T07:28:41.000Z</time>
      </trkpt>
      <trkpt lat="47.27416" lon="-2.3425">
        <ele>10</ele>
        <time>2021-04-08T07:28:42.000Z</time>
      </trkpt>
      <trkpt lat="47.27418" lon="-2.34267">
        <ele>10</ele>
        <time>2021-04-08T07:28:45.000Z</time>
      </trkpt>
      <trkpt lat="47.27419" lon="-2.34274">
        <ele>10</ele>
        <time>2021-04-08T07:28:46.000Z</time>
      </trkpt>
      <trkpt lat="47.27419" lon="-2.3428">
        <ele>10</ele>
        <time>2021-04-08T07:28:47.000Z</time>
      </trkpt>
      <trkpt lat="47.27418" lon="-2.34315">
        <ele>10</ele>
        <time>2021-04-08T07:28:52.000Z</time>
      </trkpt>
      <trkpt lat="47.27417" lon="-2.34356">
        <ele>10.39999961853</ele>
        <time>2021-04-08T07:28:58.000Z</time>
      </trkpt>
      <trkpt lat="47.27417" lon="-2.34363">
        <ele>10.800000190735</ele>
        <time>2021-04-08T07:28:59.000Z</time>
      </trkpt>
      <trkpt lat="47.27418" lon="-2.3437">
        <ele>11.199999809265</ele>
        <time>2021-04-08T07:29:00.000Z</time>
      </trkpt>
      <trkpt lat="47.27418" lon="-2.34377">
        <ele>11.60000038147</ele>
        <time>2021-04-08T07:29:01.000Z</time>
      </trkpt>
      <trkpt lat="47.27419" lon="-2.34384">
        <ele>12</ele>
        <time>2021-04-08T07:29:02.000Z</time>
      </trkpt>
      <trkpt lat="47.27424" lon="-2.3441">
        <ele>12</ele>
        <time>2021-04-08T07:29:06.000Z</time>
      </trkpt>
      <trkpt lat="47.27426" lon="-2.34429">
        <ele>12</ele>
        <time>2021-04-08T07:29:09.000Z</time>
      </trkpt>
      <trkpt lat="47.27426" lon="-2.3445">
        <ele>12</ele>
        <time>2021-04-08T07:29:12.000Z</time>
      </trkpt>
      <trkpt lat="47.27432" lon="-2.34498">
        <ele>12</ele>
        <time>2021-04-08T07:29:19.000Z</time>
      </trkpt>
      <trkpt lat="47.27433" lon="-2.34504">
        <ele>12</ele>
        <time>2021-04-08T07:29:20.000Z</time>
      </trkpt>
      <trkpt lat="47.27438" lon="-2.34528">
        <ele>12.39999961853</ele>
        <time>2021-04-08T07:29:24.000Z</time>
      </trkpt>
      <trkpt lat="47.2744" lon="-2.34533">
        <ele>12.800000190735</ele>
        <time>2021-04-08T07:29:25.000Z</time>
      </trkpt>
      <trkpt lat="47.27441" lon="-2.34539">
        <ele>13.199999809265</ele>
        <time>2021-04-08T07:29:26.000Z</time>
      </trkpt>
      <trkpt lat="47.27442" lon="-2.34545">
        <ele>13.60000038147</ele>
        <time>2021-04-08T07:29:27.000Z</time>
      </trkpt>
      <trkpt lat="47.27443" lon="-2.34551">
        <ele>14</ele>
        <time>2021-04-08T07:29:28.000Z</time>
      </trkpt>
      <trkpt lat="47.27448" lon="-2.34577">
        <ele>14</ele>
        <time>2021-04-08T07:29:32.000Z</time>
      </trkpt>
      <trkpt lat="47.27455" lon="-2.34622">
        <ele>14</ele>
        <time>2021-04-08T07:29:38.000Z</time>
      </trkpt>
      <trkpt lat="47.27459" lon="-2.34667">
        <ele>14</ele>
        <time>2021-04-08T07:29:44.000Z</time>
      </trkpt>
      <trkpt lat="47.2746" lon="-2.34683">
        <ele>14</ele>
        <time>2021-04-08T07:29:46.000Z</time>
      </trkpt>
      <trkpt lat="47.27461" lon="-2.34705">
        <ele>14</ele>
        <time>2021-04-08T07:29:49.000Z</time>
      </trkpt>
      <trkpt lat="47.2746" lon="-2.34721">
        <ele>14</ele>
        <time>2021-04-08T07:29:51.000Z</time>
      </trkpt>
      <trkpt lat="47.2746" lon="-2.34774">
        <ele>13.60000038147</ele>
        <time>2021-04-08T07:29:57.000Z</time>
      </trkpt>
      <trkpt lat="47.2746" lon="-2.34783">
        <ele>13.199999809265</ele>
        <time>2021-04-08T07:29:58.000Z</time>
      </trkpt>
      <trkpt lat="47.27461" lon="-2.34792">
        <ele>12.800000190735</ele>
        <time>2021-04-08T07:29:59.000Z</time>
      </trkpt>
      <trkpt lat="47.27461" lon="-2.34802">
        <ele>12.39999961853</ele>
        <time>2021-04-08T07:30:00.000Z</time>
      </trkpt>
      <trkpt lat="47.27462" lon="-2.34811">
        <ele>12</ele>
        <time>2021-04-08T07:30:01.000Z</time>
      </trkpt>
      <trkpt lat="47.27463" lon="-2.34859">
        <ele>12</ele>
        <time>2021-04-08T07:30:06.000Z</time>
      </trkpt>
      <trkpt lat="47.27462" lon="-2.34897">
        <ele>11.60000038147</ele>
        <time>2021-04-08T07:30:10.000Z</time>
      </trkpt>
      <trkpt lat="47.27463" lon="-2.34905">
        <ele>11.199999809265</ele>
        <time>2021-04-08T07:30:11.000Z</time>
      </trkpt>
      <trkpt lat="47.27466" lon="-2.34913">
        <ele>10.800000190735</ele>
        <time>2021-04-08T07:30:12.000Z</time>
      </trkpt>
      <trkpt lat="47.2747" lon="-2.34917">
        <ele>10.199999809265</ele>
        <time>2021-04-08T07:30:13.000Z</time>
      </trkpt>
      <trkpt lat="47.27475" lon="-2.34918">
        <ele>9.8000001907349</ele>
        <time>2021-04-08T07:30:14.000Z</time>
      </trkpt>
      <trkpt lat="47.27492" lon="-2.34919">
        <ele>9.8000001907349</ele>
        <time>2021-04-08T07:30:17.000Z</time>
      </trkpt>
      <trkpt lat="47.27497" lon="-2.34918">
        <ele>9.8000001907349</ele>
        <time>2021-04-08T07:30:18.000Z</time>
      </trkpt>
      <trkpt lat="47.27519" lon="-2.34904">
        <ele>9.8000001907349</ele>
        <time>2021-04-08T07:30:23.000Z</time>
      </trkpt>
      <trkpt lat="47.27524" lon="-2.34902">
        <ele>9.8000001907349</ele>
        <time>2021-04-08T07:30:24.000Z</time>
      </trkpt>
      <trkpt lat="47.27529" lon="-2.34901">
        <ele>10.199999809265</ele>
        <time>2021-04-08T07:30:25.000Z</time>
      </trkpt>
      <trkpt lat="47.27534" lon="-2.349">
        <ele>10.60000038147</ele>
        <time>2021-04-08T07:30:26.000Z</time>
      </trkpt>
      <trkpt lat="47.27539" lon="-2.349">
        <ele>11.199999809265</ele>
        <time>2021-04-08T07:30:27.000Z</time>
      </trkpt>
      <trkpt lat="47.27545" lon="-2.34902">
        <ele>11.60000038147</ele>
        <time>2021-04-08T07:30:28.000Z</time>
      </trkpt>
      <trkpt lat="47.27551" lon="-2.34903">
        <ele>12</ele>
        <time>2021-04-08T07:30:29.000Z</time>
      </trkpt>
      <trkpt lat="47.27584" lon="-2.34909">
        <ele>12</ele>
        <time>2021-04-08T07:30:35.000Z</time>
      </trkpt>
      <trkpt lat="47.27628" lon="-2.34915">
        <ele>12</ele>
        <time>2021-04-08T07:30:43.000Z</time>
      </trkpt>
      <trkpt lat="47.27643" lon="-2.34915">
        <ele>12</ele>
        <time>2021-04-08T07:30:46.000Z</time>
      </trkpt>
      <trkpt lat="47.27659" lon="-2.3491">
        <ele>12</ele>
        <time>2021-04-08T07:30:49.000Z</time>
      </trkpt>
      <trkpt lat="47.27669" lon="-2.3491">
        <ele>12</ele>
        <time>2021-04-08T07:30:51.000Z</time>
      </trkpt>
      <trkpt lat="47.27677" lon="-2.34919">
        <ele>12</ele>
        <time>2021-04-08T07:30:53.000Z</time>
      </trkpt>
      <trkpt lat="47.27686" lon="-2.34949">
        <ele>12</ele>
        <time>2021-04-08T07:30:57.000Z</time>
      </trkpt>
      <trkpt lat="47.27686" lon="-2.34966">
        <ele>12</ele>
        <time>2021-04-08T07:30:59.000Z</time>
      </trkpt>
      <trkpt lat="47.27686" lon="-2.34984">
        <ele>12</ele>
        <time>2021-04-08T07:31:01.000Z</time>
      </trkpt>
      <trkpt lat="47.27686" lon="-2.34992">
        <ele>12</ele>
        <time>2021-04-08T07:31:02.000Z</time>
      </trkpt>
      <trkpt lat="47.27687" lon="-2.35009">
        <ele>11.60000038147</ele>
        <time>2021-04-08T07:31:04.000Z</time>
      </trkpt>
      <trkpt lat="47.27688" lon="-2.35018">
        <ele>11.199999809265</ele>
        <time>2021-04-08T07:31:05.000Z</time>
      </trkpt>
      <trkpt lat="47.27689" lon="-2.35026">
        <ele>10.800000190735</ele>
        <time>2021-04-08T07:31:06.000Z</time>
      </trkpt>
      <trkpt lat="47.27692" lon="-2.35033">
        <ele>10.199999809265</ele>
        <time>2021-04-08T07:31:07.000Z</time>
      </trkpt>
      <trkpt lat="47.27696" lon="-2.35037">
        <ele>9.8000001907349</ele>
        <time>2021-04-08T07:31:08.000Z</time>
      </trkpt>
      <trkpt lat="47.27707" lon="-2.35039">
        <ele>9.8000001907349</ele>
        <time>2021-04-08T07:31:10.000Z</time>
      </trkpt>
      <trkpt lat="47.2773" lon="-2.35032">
        <ele>9.8000001907349</ele>
        <time>2021-04-08T07:31:14.000Z</time>
      </trkpt>
      <trkpt lat="47.27758" lon="-2.35026">
        <ele>9.3999996185303</ele>
        <time>2021-04-08T07:31:19.000Z</time>
      </trkpt>
      <trkpt lat="47.27761" lon="-2.35028">
        <ele>9</ele>
        <time>2021-04-08T07:31:20.000Z</time>
      </trkpt>
      <trkpt lat="47.27763" lon="-2.35032">
        <ele>8.6000003814697</ele>
        <time>2021-04-08T07:31:21.000Z</time>
      </trkpt>
      <trkpt lat="47.27765" lon="-2.35036">
        <ele>8</ele>
        <time>2021-04-08T07:31:22.000Z</time>
      </trkpt>
      <trkpt lat="47.27767" lon="-2.35043">
        <ele>7.4000000953674</ele>
        <time>2021-04-08T07:31:23.000Z</time>
      </trkpt>
      <trkpt lat="47.27768" lon="-2.3505">
        <ele>7</ele>
        <time>2021-04-08T07:31:24.000Z</time>
      </trkpt>
      <trkpt lat="47.27769" lon="-2.35059">
        <ele>6.4000000953674</ele>
        <time>2021-04-08T07:31:25.000Z</time>
      </trkpt>
      <trkpt lat="47.27769" lon="-2.35067">
        <ele>5.8000001907349</ele>
        <time>2021-04-08T07:31:26.000Z</time>
      </trkpt>
      <trkpt lat="47.27769" lon="-2.35076">
        <ele>5.8000001907349</ele>
        <time>2021-04-08T07:31:27.000Z</time>
      </trkpt>
      <trkpt lat="47.27773" lon="-2.35151">
        <ele>5.8000001907349</ele>
        <time>2021-04-08T07:31:35.000Z</time>
      </trkpt>
      <trkpt lat="47.2778" lon="-2.35238">
        <ele>5.8000001907349</ele>
        <time>2021-04-08T07:31:44.000Z</time>
      </trkpt>
      <trkpt lat="47.27782" lon="-2.35247">
        <ele>5.8000001907349</ele>
        <time>2021-04-08T07:31:45.000Z</time>
      </trkpt>
      <trkpt lat="47.27794" lon="-2.35311">
        <ele>5.8000001907349</ele>
        <time>2021-04-08T07:31:52.000Z</time>
      </trkpt>
      <trkpt lat="47.27808" lon="-2.35361">
        <ele>5.8000001907349</ele>
        <time>2021-04-08T07:31:58.000Z</time>
      </trkpt>
      <trkpt lat="47.27824" lon="-2.35367">
        <ele>5.8000001907349</ele>
        <time>2021-04-08T07:32:01.000Z</time>
      </trkpt>
      <trkpt lat="47.27836" lon="-2.35366">
        <ele>5.8000001907349</ele>
        <time>2021-04-08T07:32:03.000Z</time>
      </trkpt>
      <trkpt lat="47.27857" lon="-2.35364">
        <ele>5.8000001907349</ele>
        <time>2021-04-08T07:32:07.000Z</time>
      </trkpt>
      <trkpt lat="47.27872" lon="-2.35365">
        <ele>5.8000001907349</ele>
        <time>2021-04-08T07:32:10.000Z</time>
      </trkpt>
      <trkpt lat="47.2788" lon="-2.35371">
        <ele>5.8000001907349</ele>
        <time>2021-04-08T07:32:12.000Z</time>
      </trkpt>
      <trkpt lat="47.27889" lon="-2.3538">
        <ele>5.8000001907349</ele>
        <time>2021-04-08T07:32:14.000Z</time>
      </trkpt>
      <trkpt lat="47.27903" lon="-2.354">
        <ele>5.8000001907349</ele>
        <time>2021-04-08T07:32:18.000Z</time>
      </trkpt>
      <trkpt lat="47.27929" lon="-2.35436">
        <ele>5.8000001907349</ele>
        <time>2021-04-08T07:32:25.000Z</time>
      </trkpt>
      <trkpt lat="47.27941" lon="-2.3545">
        <ele>5.8000001907349</ele>
        <time>2021-04-08T07:32:28.000Z</time>
      </trkpt>
      <trkpt lat="47.27955" lon="-2.3546">
        <ele>5.8000001907349</ele>
        <time>2021-04-08T07:32:31.000Z</time>
      </trkpt>
      <trkpt lat="47.27974" lon="-2.35473">
        <ele>5.8000001907349</ele>
        <time>2021-04-08T07:32:35.000Z</time>
      </trkpt>
      <trkpt lat="47.27983" lon="-2.35485">
        <ele>5.8000001907349</ele>
        <time>2021-04-08T07:32:37.000Z</time>
      </trkpt>
      <trkpt lat="47.27992" lon="-2.35502">
        <ele>5.8000001907349</ele>
        <time>2021-04-08T07:32:40.000Z</time>
      </trkpt>
      <trkpt lat="47.27997" lon="-2.35514">
        <ele>5.8000001907349</ele>
        <time>2021-04-08T07:32:42.000Z</time>
      </trkpt>
      <trkpt lat="47.28002" lon="-2.35526">
        <ele>5.8000001907349</ele>
        <time>2021-04-08T07:32:44.000Z</time>
      </trkpt>
      <trkpt lat="47.28005" lon="-2.35542">
        <ele>5.8000001907349</ele>
        <time>2021-04-08T07:32:47.000Z</time>
      </trkpt>
      <trkpt lat="47.2801" lon="-2.35554">
        <ele>5.8000001907349</ele>
        <time>2021-04-08T07:32:50.000Z</time>
      </trkpt>
      <trkpt lat="47.28012" lon="-2.35558">
        <ele>5.8000001907349</ele>
        <time>2021-04-08T07:32:51.000Z</time>
      </trkpt>
      <trkpt lat="47.28019" lon="-2.35565">
        <ele>5.8000001907349</ele>
        <time>2021-04-08T07:32:54.000Z</time>
      </trkpt>
      <trkpt lat="47.28023" lon="-2.35566">
        <ele>5.8000001907349</ele>
        <time>2021-04-08T07:32:55.000Z</time>
      </trkpt>
      <trkpt lat="47.28027" lon="-2.35566">
        <ele>6.1999998092651</ele>
        <time>2021-04-08T07:32:56.000Z</time>
      </trkpt>
      <trkpt lat="47.28031" lon="-2.35568">
        <ele>6.5999999046326</ele>
        <time>2021-04-08T07:32:57.000Z</time>
      </trkpt>
      <trkpt lat="47.28034" lon="-2.3557">
        <ele>7.4000000953674</ele>
        <time>2021-04-08T07:32:58.000Z</time>
      </trkpt>
      <trkpt lat="47.28038" lon="-2.35573">
        <ele>7.8000001907349</ele>
        <time>2021-04-08T07:32:59.000Z</time>
      </trkpt>
      <trkpt lat="47.28041" lon="-2.35575">
        <ele>7.8000001907349</ele>
        <time>2021-04-08T07:33:00.000Z</time>
      </trkpt>
      <trkpt lat="47.28061" lon="-2.35583">
        <ele>7.8000001907349</ele>
        <time>2021-04-08T07:33:06.000Z</time>
      </trkpt>
      <trkpt lat="47.28073" lon="-2.35596">
        <ele>7.8000001907349</ele>
        <time>2021-04-08T07:33:11.000Z</time>
      </trkpt>
      <trkpt lat="47.28079" lon="-2.35611">
        <ele>7.8000001907349</ele>
        <time>2021-04-08T07:33:16.000Z</time>
      </trkpt>
      <trkpt lat="47.2808" lon="-2.35612">
        <ele>8.1999998092651</ele>
        <time>2021-04-08T07:33:17.000Z</time>
      </trkpt>
      <trkpt lat="47.28082" lon="-2.35613">
        <ele>8.6000003814697</ele>
        <time>2021-04-08T07:33:18.000Z</time>
      </trkpt>
      <trkpt lat="47.28083" lon="-2.35614">
        <ele>9</ele>
        <time>2021-04-08T07:33:19.000Z</time>
      </trkpt>
      <trkpt lat="47.28083" lon="-2.35615">
        <ele>9.6000003814697</ele>
        <time>2021-04-08T07:33:20.000Z</time>
      </trkpt>
      <trkpt lat="47.28083" lon="-2.35615">
        <ele>10</ele>
        <time>2021-04-08T07:33:21.000Z</time>
      </trkpt>
      <trkpt lat="47.28083" lon="-2.35615">
        <ele>10</ele>
        <time>2021-04-08T07:33:22.000Z</time>
      </trkpt>
      <trkpt lat="47.2808" lon="-2.3561">
        <ele>10</ele>
        <time>2021-04-08T07:36:06.000Z</time>
      </trkpt>
      <trkpt lat="47.28078" lon="-2.35608">
        <ele>10</ele>
        <time>2021-04-08T07:36:08.000Z</time>
      </trkpt>
      <trkpt lat="47.28073" lon="-2.35615">
        <ele>10</ele>
        <time>2021-04-08T07:36:11.000Z</time>
      </trkpt>
      <trkpt lat="47.28075" lon="-2.35629">
        <ele>10</ele>
        <time>2021-04-08T07:36:15.000Z</time>
      </trkpt>
      <trkpt lat="47.28078" lon="-2.35642">
        <ele>10.39999961853</ele>
        <time>2021-04-08T07:36:20.000Z</time>
      </trkpt>
      <trkpt lat="47.28079" lon="-2.35645">
        <ele>10.800000190735</ele>
        <time>2021-04-08T07:36:21.000Z</time>
      </trkpt>
      <trkpt lat="47.2808" lon="-2.35647">
        <ele>11.199999809265</ele>
        <time>2021-04-08T07:36:22.000Z</time>
      </trkpt>
      <trkpt lat="47.28081" lon="-2.35649">
        <ele>11.60000038147</ele>
        <time>2021-04-08T07:36:23.000Z</time>
      </trkpt>
      <trkpt lat="47.28082" lon="-2.35652">
        <ele>12.199999809265</ele>
        <time>2021-04-08T07:36:24.000Z</time>
      </trkpt>
      <trkpt lat="47.28084" lon="-2.35664">
        <ele>12.60000038147</ele>
        <time>2021-04-08T07:36:28.000Z</time>
      </trkpt>
      <trkpt lat="47.28085" lon="-2.35667">
        <ele>13</ele>
        <time>2021-04-08T07:36:29.000Z</time>
      </trkpt>
      <trkpt lat="47.28085" lon="-2.3567">
        <ele>13.39999961853</ele>
        <time>2021-04-08T07:36:30.000Z</time>
      </trkpt>
      <trkpt lat="47.28086" lon="-2.35672">
        <ele>13.800000190735</ele>
        <time>2021-04-08T07:36:31.000Z</time>
      </trkpt>
      <trkpt lat="47.28087" lon="-2.35673">
        <ele>14.199999809265</ele>
        <time>2021-04-08T07:36:32.000Z</time>
      </trkpt>
      <trkpt lat="47.28091" lon="-2.35683">
        <ele>14.199999809265</ele>
        <time>2021-04-08T07:36:36.000Z</time>
      </trkpt>
      <trkpt lat="47.28095" lon="-2.35691">
        <ele>14.199999809265</ele>
        <time>2021-04-08T07:36:40.000Z</time>
      </trkpt>
      <trkpt lat="47.28098" lon="-2.35693">
        <ele>14.800000190735</ele>
        <time>2021-04-08T07:36:42.000Z</time>
      </trkpt>
      <trkpt lat="47.28098" lon="-2.35691">
        <ele>15.199999809265</ele>
        <time>2021-04-08T07:36:43.000Z</time>
      </trkpt>
      <trkpt lat="47.28099" lon="-2.3569">
        <ele>15.60000038147</ele>
        <time>2021-04-08T07:36:44.000Z</time>
      </trkpt>
      <trkpt lat="47.281" lon="-2.35688">
        <ele>16</ele>
        <time>2021-04-08T07:36:45.000Z</time>
      </trkpt>
      <trkpt lat="47.28101" lon="-2.35687">
        <ele>16.60000038147</ele>
        <time>2021-04-08T07:36:46.000Z</time>
      </trkpt>
      <trkpt lat="47.28102" lon="-2.35686">
        <ele>16.60000038147</ele>
        <time>2021-04-08T07:36:47.000Z</time>
      </trkpt>
      <trkpt lat="47.28106" lon="-2.35683">
        <ele>16.60000038147</ele>
        <time>2021-04-08T07:36:51.000Z</time>
      </trkpt>
      <trkpt lat="47.28111" lon="-2.35682">
        <ele>18.60000038147</ele>
        <time>2021-04-08T07:37:09.000Z</time>
      </trkpt>
      <trkpt lat="47.28113" lon="-2.35682">
        <ele>18.60000038147</ele>
        <time>2021-04-08T07:37:10.000Z</time>
      </trkpt>
      <trkpt lat="47.28116" lon="-2.35682">
        <ele>19</ele>
        <time>2021-04-08T07:37:13.000Z</time>
      </trkpt>
      <trkpt lat="47.28117" lon="-2.35682">
        <ele>19.39999961853</ele>
        <time>2021-04-08T07:37:14.000Z</time>
      </trkpt>
      <trkpt lat="47.28119" lon="-2.35681">
        <ele>20</ele>
        <time>2021-04-08T07:37:15.000Z</time>
      </trkpt>
      <trkpt lat="47.28121" lon="-2.3568">
        <ele>20.39999961853</ele>
        <time>2021-04-08T07:37:16.000Z</time>
      </trkpt>
      <trkpt lat="47.28123" lon="-2.35679">
        <ele>20.799999237061</ele>
        <time>2021-04-08T07:37:17.000Z</time>
      </trkpt>
      <trkpt lat="47.28131" lon="-2.35673">
        <ele>20.799999237061</ele>
        <time>2021-04-08T07:37:24.000Z</time>
      </trkpt>
      <trkpt lat="47.28134" lon="-2.35673">
        <ele>21.200000762939</ele>
        <time>2021-04-08T07:37:26.000Z</time>
      </trkpt>
      <trkpt lat="47.28136" lon="-2.35672">
        <ele>21.60000038147</ele>
        <time>2021-04-08T07:37:27.000Z</time>
      </trkpt>
      <trkpt lat="47.28138" lon="-2.35671">
        <ele>22</ele>
        <time>2021-04-08T07:37:28.000Z</time>
      </trkpt>
      <trkpt lat="47.28139" lon="-2.3567">
        <ele>22.39999961853</ele>
        <time>2021-04-08T07:37:29.000Z</time>
      </trkpt>
      <trkpt lat="47.28141" lon="-2.35669">
        <ele>23</ele>
        <time>2021-04-08T07:37:30.000Z</time>
      </trkpt>
      <trkpt lat="47.28142" lon="-2.35667">
        <ele>23</ele>
        <time>2021-04-08T07:37:31.000Z</time>
      </trkpt>
      <trkpt lat="47.28146" lon="-2.35667">
        <ele>23</ele>
        <time>2021-04-08T07:37:33.000Z</time>
      </trkpt>
      <trkpt lat="47.28152" lon="-2.35671">
        <ele>23</ele>
        <time>2021-04-08T07:37:36.000Z</time>
      </trkpt>
      <trkpt lat="47.28154" lon="-2.35673">
        <ele>23</ele>
        <time>2021-04-08T07:37:37.000Z</time>
      </trkpt>
      <trkpt lat="47.2816" lon="-2.35678">
        <ele>22.39999961853</ele>
        <time>2021-04-08T07:37:41.000Z</time>
      </trkpt>
      <trkpt lat="47.28161" lon="-2.35678">
        <ele>22</ele>
        <time>2021-04-08T07:37:42.000Z</time>
      </trkpt>
      <trkpt lat="47.28162" lon="-2.35677">
        <ele>21.60000038147</ele>
        <time>2021-04-08T07:37:43.000Z</time>
      </trkpt>
      <trkpt lat="47.28164" lon="-2.35679">
        <ele>20.799999237061</ele>
        <time>2021-04-08T07:37:45.000Z</time>
      </trkpt>
      <trkpt lat="47.28167" lon="-2.35684">
        <ele>20.799999237061</ele>
        <time>2021-04-08T07:37:47.000Z</time>
      </trkpt>
      <trkpt lat="47.28172" lon="-2.35692">
        <ele>20.39999961853</ele>
        <time>2021-04-08T07:37:49.000Z</time>
      </trkpt>
      <trkpt lat="47.28175" lon="-2.35694">
        <ele>20</ele>
        <time>2021-04-08T07:37:50.000Z</time>
      </trkpt>
      <trkpt lat="47.28177" lon="-2.35697">
        <ele>19.60000038147</ele>
        <time>2021-04-08T07:37:51.000Z</time>
      </trkpt>
      <trkpt lat="47.28177" lon="-2.35699">
        <ele>19.200000762939</ele>
        <time>2021-04-08T07:37:52.000Z</time>
      </trkpt>
      <trkpt lat="47.28178" lon="-2.357">
        <ele>18.60000038147</ele>
        <time>2021-04-08T07:37:53.000Z</time>
      </trkpt>
      <trkpt lat="47.28179" lon="-2.35701">
        <ele>18.200000762939</ele>
        <time>2021-04-08T07:37:54.000Z</time>
      </trkpt>
      <trkpt lat="47.28179" lon="-2.35702">
        <ele>17.200000762939</ele>
        <time>2021-04-08T07:37:55.000Z</time>
      </trkpt>
      <trkpt lat="47.28179" lon="-2.35702">
        <ele>16.60000038147</ele>
        <time>2021-04-08T07:37:56.000Z</time>
      </trkpt>
      <trkpt lat="47.28188" lon="-2.35708">
        <ele>14.60000038147</ele>
        <time>2021-04-08T07:38:27.000Z</time>
      </trkpt>
      <trkpt lat="47.28189" lon="-2.3571">
        <ele>14.60000038147</ele>
        <time>2021-04-08T07:38:28.000Z</time>
      </trkpt>
      <trkpt lat="47.2819" lon="-2.3571">
        <ele>14.60000038147</ele>
        <time>2021-04-08T07:38:29.000Z</time>
      </trkpt>
      <trkpt lat="47.28194" lon="-2.35715">
        <ele>14.60000038147</ele>
        <time>2021-04-08T07:38:56.000Z</time>
      </trkpt>
      <trkpt lat="47.28197" lon="-2.35719">
        <ele>14.60000038147</ele>
        <time>2021-04-08T07:38:58.000Z</time>
      </trkpt>
      <trkpt lat="47.28198" lon="-2.3572">
        <ele>14.60000038147</ele>
        <time>2021-04-08T07:38:59.000Z</time>
      </trkpt>
      <trkpt lat="47.28206" lon="-2.35721">
        <ele>14.60000038147</ele>
        <time>2021-04-08T07:39:02.000Z</time>
      </trkpt>
      <trkpt lat="47.2822" lon="-2.35724">
        <ele>14.60000038147</ele>
        <time>2021-04-08T07:39:08.000Z</time>
      </trkpt>
      <trkpt lat="47.28221" lon="-2.35725">
        <ele>14.60000038147</ele>
        <time>2021-04-08T07:39:09.000Z</time>
      </trkpt>
      <trkpt lat="47.28227" lon="-2.35735">
        <ele>14.60000038147</ele>
        <time>2021-04-08T07:39:14.000Z</time>
      </trkpt>
      <trkpt lat="47.28227" lon="-2.35742">
        <ele>14.60000038147</ele>
        <time>2021-04-08T07:39:17.000Z</time>
      </trkpt>
      <trkpt lat="47.2823" lon="-2.3575">
        <ele>14.60000038147</ele>
        <time>2021-04-08T07:39:20.000Z</time>
      </trkpt>
      <trkpt lat="47.28233" lon="-2.35755">
        <ele>14.60000038147</ele>
        <time>2021-04-08T07:39:22.000Z</time>
      </trkpt>
      <trkpt lat="47.28239" lon="-2.35764">
        <ele>15</ele>
        <time>2021-04-08T07:39:26.000Z</time>
      </trkpt>
      <trkpt lat="47.28241" lon="-2.35766">
        <ele>15.39999961853</ele>
        <time>2021-04-08T07:39:27.000Z</time>
      </trkpt>
      <trkpt lat="47.28244" lon="-2.35768">
        <ele>15.800000190735</ele>
        <time>2021-04-08T07:39:28.000Z</time>
      </trkpt>
      <trkpt lat="47.28248" lon="-2.35769">
        <ele>16.200000762939</ele>
        <time>2021-04-08T07:39:29.000Z</time>
      </trkpt>
      <trkpt lat="47.28252" lon="-2.35768">
        <ele>16.799999237061</ele>
        <time>2021-04-08T07:39:30.000Z</time>
      </trkpt>
      <trkpt lat="47.28256" lon="-2.35771">
        <ele>16.799999237061</ele>
        <time>2021-04-08T07:39:32.000Z</time>
      </trkpt>
      <trkpt lat="47.28259" lon="-2.35777">
        <ele>16.799999237061</ele>
        <time>2021-04-08T07:39:34.000Z</time>
      </trkpt>
      <trkpt lat="47.28258" lon="-2.35789">
        <ele>16.799999237061</ele>
        <time>2021-04-08T07:39:37.000Z</time>
      </trkpt>
      <trkpt lat="47.28259" lon="-2.35798">
        <ele>16.799999237061</ele>
        <time>2021-04-08T07:39:39.000Z</time>
      </trkpt>
      <trkpt lat="47.28265" lon="-2.35816">
        <ele>16.799999237061</ele>
        <time>2021-04-08T07:39:45.000Z</time>
      </trkpt>
      <trkpt lat="47.28272" lon="-2.35821">
        <ele>16.799999237061</ele>
        <time>2021-04-08T07:39:51.000Z</time>
      </trkpt>
      <trkpt lat="47.28277" lon="-2.35817">
        <ele>16.799999237061</ele>
        <time>2021-04-08T07:39:57.000Z</time>
      </trkpt>
      <trkpt lat="47.28278" lon="-2.35816">
        <ele>16.799999237061</ele>
        <time>2021-04-08T07:39:58.000Z</time>
      </trkpt>
      <trkpt lat="47.2829" lon="-2.35805">
        <ele>16.799999237061</ele>
        <time>2021-04-08T07:40:04.000Z</time>
      </trkpt>
      <trkpt lat="47.28299" lon="-2.35801">
        <ele>17.200000762939</ele>
        <time>2021-04-08T07:40:08.000Z</time>
      </trkpt>
      <trkpt lat="47.28301" lon="-2.35801">
        <ele>17.60000038147</ele>
        <time>2021-04-08T07:40:09.000Z</time>
      </trkpt>
      <trkpt lat="47.28303" lon="-2.35801">
        <ele>18</ele>
        <time>2021-04-08T07:40:10.000Z</time>
      </trkpt>
      <trkpt lat="47.28305" lon="-2.35801">
        <ele>18.39999961853</ele>
        <time>2021-04-08T07:40:11.000Z</time>
      </trkpt>
      <trkpt lat="47.28307" lon="-2.35803">
        <ele>18.799999237061</ele>
        <time>2021-04-08T07:40:12.000Z</time>
      </trkpt>
      <trkpt lat="47.28313" lon="-2.35809">
        <ele>18.799999237061</ele>
        <time>2021-04-08T07:40:16.000Z</time>
      </trkpt>
      <trkpt lat="47.28319" lon="-2.35816">
        <ele>18.799999237061</ele>
        <time>2021-04-08T07:40:21.000Z</time>
      </trkpt>
      <trkpt lat="47.2832" lon="-2.35818">
        <ele>18.799999237061</ele>
        <time>2021-04-08T07:40:22.000Z</time>
      </trkpt>
      <trkpt lat="47.28324" lon="-2.35834">
        <ele>18.799999237061</ele>
        <time>2021-04-08T07:40:28.000Z</time>
      </trkpt>
      <trkpt lat="47.28321" lon="-2.35837">
        <ele>18.799999237061</ele>
        <time>2021-04-08T07:40:30.000Z</time>
      </trkpt>
      <trkpt lat="47.2832" lon="-2.35838">
        <ele>18.799999237061</ele>
        <time>2021-04-08T07:40:32.000Z</time>
      </trkpt>
      <trkpt lat="47.28325" lon="-2.35832">
        <ele>18.799999237061</ele>
        <time>2021-04-08T07:40:39.000Z</time>
      </trkpt>
      <trkpt lat="47.2834" lon="-2.35814">
        <ele>18.799999237061</ele>
        <time>2021-04-08T07:40:46.000Z</time>
      </trkpt>
      <trkpt lat="47.28358" lon="-2.35798">
        <ele>18.799999237061</ele>
        <time>2021-04-08T07:40:53.000Z</time>
      </trkpt>
      <trkpt lat="47.28369" lon="-2.35792">
        <ele>18.799999237061</ele>
        <time>2021-04-08T07:40:58.000Z</time>
      </trkpt>
      <trkpt lat="47.28387" lon="-2.35804">
        <ele>18.799999237061</ele>
        <time>2021-04-08T07:41:04.000Z</time>
      </trkpt>
      <trkpt lat="47.28406" lon="-2.3582">
        <ele>18.799999237061</ele>
        <time>2021-04-08T07:41:11.000Z</time>
      </trkpt>
      <trkpt lat="47.28418" lon="-2.35836">
        <ele>18.799999237061</ele>
        <time>2021-04-08T07:41:17.000Z</time>
      </trkpt>
      <trkpt lat="47.28426" lon="-2.35833">
        <ele>18.799999237061</ele>
        <time>2021-04-08T07:41:22.000Z</time>
      </trkpt>
      <trkpt lat="47.28438" lon="-2.3583">
        <ele>18.799999237061</ele>
        <time>2021-04-08T07:41:29.000Z</time>
      </trkpt>
      <trkpt lat="47.28453" lon="-2.35835">
        <ele>18.799999237061</ele>
        <time>2021-04-08T07:41:36.000Z</time>
      </trkpt>
      <trkpt lat="47.28461" lon="-2.3583">
        <ele>18.799999237061</ele>
        <time>2021-04-08T07:41:39.000Z</time>
      </trkpt>
      <trkpt lat="47.28463" lon="-2.35829">
        <ele>18.799999237061</ele>
        <time>2021-04-08T07:41:40.000Z</time>
      </trkpt>
      <trkpt lat="47.28477" lon="-2.35808">
        <ele>18.799999237061</ele>
        <time>2021-04-08T07:41:46.000Z</time>
      </trkpt>
      <trkpt lat="47.28474" lon="-2.35796">
        <ele>18.799999237061</ele>
        <time>2021-04-08T07:41:49.000Z</time>
      </trkpt>
      <trkpt lat="47.2847" lon="-2.3577">
        <ele>18.799999237061</ele>
        <time>2021-04-08T07:41:55.000Z</time>
      </trkpt>
      <trkpt lat="47.28472" lon="-2.35767">
        <ele>18.799999237061</ele>
        <time>2021-04-08T07:41:56.000Z</time>
      </trkpt>
      <trkpt lat="47.28475" lon="-2.35759">
        <ele>18.799999237061</ele>
        <time>2021-04-08T07:41:59.000Z</time>
      </trkpt>
      <trkpt lat="47.28484" lon="-2.35745">
        <ele>18.799999237061</ele>
        <time>2021-04-08T07:42:03.000Z</time>
      </trkpt>
      <trkpt lat="47.28492" lon="-2.35731">
        <ele>18.799999237061</ele>
        <time>2021-04-08T07:42:06.000Z</time>
      </trkpt>
      <trkpt lat="47.28497" lon="-2.35723">
        <ele>18.799999237061</ele>
        <time>2021-04-08T07:42:08.000Z</time>
      </trkpt>
      <trkpt lat="47.28502" lon="-2.35711">
        <ele>18.799999237061</ele>
        <time>2021-04-08T07:42:11.000Z</time>
      </trkpt>
      <trkpt lat="47.285" lon="-2.35702">
        <ele>18.799999237061</ele>
        <time>2021-04-08T07:42:13.000Z</time>
      </trkpt>
      <trkpt lat="47.28493" lon="-2.35692">
        <ele>18.799999237061</ele>
        <time>2021-04-08T07:42:16.000Z</time>
      </trkpt>
      <trkpt lat="47.28489" lon="-2.35685">
        <ele>18.799999237061</ele>
        <time>2021-04-08T07:42:18.000Z</time>
      </trkpt>
      <trkpt lat="47.2848" lon="-2.35673">
        <ele>18.799999237061</ele>
        <time>2021-04-08T07:42:23.000Z</time>
      </trkpt>
      <trkpt lat="47.28465" lon="-2.35657">
        <ele>18.799999237061</ele>
        <time>2021-04-08T07:42:30.000Z</time>
      </trkpt>
      <trkpt lat="47.28452" lon="-2.35642">
        <ele>18.799999237061</ele>
        <time>2021-04-08T07:42:36.000Z</time>
      </trkpt>
      <trkpt lat="47.28442" lon="-2.35629">
        <ele>18.799999237061</ele>
        <time>2021-04-08T07:42:42.000Z</time>
      </trkpt>
      <trkpt lat="47.28431" lon="-2.35601">
        <ele>18.799999237061</ele>
        <time>2021-04-08T07:42:48.000Z</time>
      </trkpt>
      <trkpt lat="47.28416" lon="-2.35564">
        <ele>18.799999237061</ele>
        <time>2021-04-08T07:42:55.000Z</time>
      </trkpt>
      <trkpt lat="47.28405" lon="-2.35534">
        <ele>18.799999237061</ele>
        <time>2021-04-08T07:43:01.000Z</time>
      </trkpt>
      <trkpt lat="47.28405" lon="-2.35511">
        <ele>18.799999237061</ele>
        <time>2021-04-08T07:43:05.000Z</time>
      </trkpt>
      <trkpt lat="47.28403" lon="-2.35478">
        <ele>18.799999237061</ele>
        <time>2021-04-08T07:43:11.000Z</time>
      </trkpt>
      <trkpt lat="47.28403" lon="-2.35455">
        <ele>18.799999237061</ele>
        <time>2021-04-08T07:43:16.000Z</time>
      </trkpt>
      <trkpt lat="47.28403" lon="-2.35444">
        <ele>19.200000762939</ele>
        <time>2021-04-08T07:43:20.000Z</time>
      </trkpt>
      <trkpt lat="47.28403" lon="-2.35442">
        <ele>19.60000038147</ele>
        <time>2021-04-08T07:43:21.000Z</time>
      </trkpt>
      <trkpt lat="47.28409" lon="-2.3543">
        <ele>20.799999237061</ele>
        <time>2021-04-08T07:43:49.000Z</time>
      </trkpt>
      <trkpt lat="47.28417" lon="-2.35418">
        <ele>20.799999237061</ele>
        <time>2021-04-08T07:43:53.000Z</time>
      </trkpt>
      <trkpt lat="47.28419" lon="-2.35416">
        <ele>20.799999237061</ele>
        <time>2021-04-08T07:43:54.000Z</time>
      </trkpt>
      <trkpt lat="47.28424" lon="-2.35415">
        <ele>21.200000762939</ele>
        <time>2021-04-08T07:43:56.000Z</time>
      </trkpt>
      <trkpt lat="47.28427" lon="-2.35413">
        <ele>21.799999237061</ele>
        <time>2021-04-08T07:43:57.000Z</time>
      </trkpt>
      <trkpt lat="47.2843" lon="-2.35411">
        <ele>22.200000762939</ele>
        <time>2021-04-08T07:43:58.000Z</time>
      </trkpt>
      <trkpt lat="47.28432" lon="-2.35411">
        <ele>22.60000038147</ele>
        <time>2021-04-08T07:43:59.000Z</time>
      </trkpt>
      <trkpt lat="47.28435" lon="-2.3541">
        <ele>23.200000762939</ele>
        <time>2021-04-08T07:44:00.000Z</time>
      </trkpt>
      <trkpt lat="47.28442" lon="-2.3541">
        <ele>23.200000762939</ele>
        <time>2021-04-08T07:44:03.000Z</time>
      </trkpt>
      <trkpt lat="47.28444" lon="-2.35404">
        <ele>23.200000762939</ele>
        <time>2021-04-08T07:44:05.000Z</time>
      </trkpt>
      <trkpt lat="47.28444" lon="-2.35396">
        <ele>23.200000762939</ele>
        <time>2021-04-08T07:44:07.000Z</time>
      </trkpt>
      <trkpt lat="47.28444" lon="-2.35391">
        <ele>22.60000038147</ele>
        <time>2021-04-08T07:44:08.000Z</time>
      </trkpt>
      <trkpt lat="47.28444" lon="-2.35386">
        <ele>22.200000762939</ele>
        <time>2021-04-08T07:44:09.000Z</time>
      </trkpt>
      <trkpt lat="47.28445" lon="-2.35382">
        <ele>21.60000038147</ele>
        <time>2021-04-08T07:44:10.000Z</time>
      </trkpt>
      <trkpt lat="47.28446" lon="-2.35376">
        <ele>21.200000762939</ele>
        <time>2021-04-08T07:44:11.000Z</time>
      </trkpt>
      <trkpt lat="47.28448" lon="-2.35369">
        <ele>20.60000038147</ele>
        <time>2021-04-08T07:44:12.000Z</time>
      </trkpt>
      <trkpt lat="47.28448" lon="-2.35363">
        <ele>20</ele>
        <time>2021-04-08T07:44:13.000Z</time>
      </trkpt>
      <trkpt lat="47.2845" lon="-2.35358">
        <ele>19.200000762939</ele>
        <time>2021-04-08T07:44:14.000Z</time>
      </trkpt>
      <trkpt lat="47.28451" lon="-2.35353">
        <ele>18.60000038147</ele>
        <time>2021-04-08T07:44:15.000Z</time>
      </trkpt>
      <trkpt lat="47.28452" lon="-2.35349">
        <ele>18</ele>
        <time>2021-04-08T07:44:16.000Z</time>
      </trkpt>
      <trkpt lat="47.28454" lon="-2.35347">
        <ele>17.39999961853</ele>
        <time>2021-04-08T07:44:17.000Z</time>
      </trkpt>
      <trkpt lat="47.28455" lon="-2.35347">
        <ele>16.60000038147</ele>
        <time>2021-04-08T07:44:18.000Z</time>
      </trkpt>
      <trkpt lat="47.28458" lon="-2.35347">
        <ele>16</ele>
        <time>2021-04-08T07:44:19.000Z</time>
      </trkpt>
      <trkpt lat="47.28461" lon="-2.35351">
        <ele>15.60000038147</ele>
        <time>2021-04-08T07:44:20.000Z</time>
      </trkpt>
      <trkpt lat="47.28464" lon="-2.35354">
        <ele>15.199999809265</ele>
        <time>2021-04-08T07:44:21.000Z</time>
      </trkpt>
      <trkpt lat="47.28467" lon="-2.35357">
        <ele>14.800000190735</ele>
        <time>2021-04-08T07:44:22.000Z</time>
      </trkpt>
      <trkpt lat="47.28469" lon="-2.35361">
        <ele>14.199999809265</ele>
        <time>2021-04-08T07:44:23.000Z</time>
      </trkpt>
      <trkpt lat="47.28472" lon="-2.35365">
        <ele>13.800000190735</ele>
        <time>2021-04-08T07:44:24.000Z</time>
      </trkpt>
      <trkpt lat="47.28475" lon="-2.35373">
        <ele>13.800000190735</ele>
        <time>2021-04-08T07:44:26.000Z</time>
      </trkpt>
      <trkpt lat="47.28477" lon="-2.35378">
        <ele>13.800000190735</ele>
        <time>2021-04-08T07:44:27.000Z</time>
      </trkpt>
      <trkpt lat="47.2849" lon="-2.35414">
        <ele>13.800000190735</ele>
        <time>2021-04-08T07:44:33.000Z</time>
      </trkpt>
      <trkpt lat="47.28494" lon="-2.3542">
        <ele>14.199999809265</ele>
        <time>2021-04-08T07:44:35.000Z</time>
      </trkpt>
      <trkpt lat="47.28495" lon="-2.35421">
        <ele>14.60000038147</ele>
        <time>2021-04-08T07:44:36.000Z</time>
      </trkpt>
      <trkpt lat="47.28496" lon="-2.35421">
        <ele>15</ele>
        <time>2021-04-08T07:44:37.000Z</time>
      </trkpt>
      <trkpt lat="47.28498" lon="-2.35422">
        <ele>15.60000038147</ele>
        <time>2021-04-08T07:44:38.000Z</time>
      </trkpt>
      <trkpt lat="47.285" lon="-2.35422">
        <ele>16</ele>
        <time>2021-04-08T07:44:39.000Z</time>
      </trkpt>
      <trkpt lat="47.2851" lon="-2.3542">
        <ele>16</ele>
        <time>2021-04-08T07:44:44.000Z</time>
      </trkpt>
      <trkpt lat="47.28518" lon="-2.35417">
        <ele>16</ele>
        <time>2021-04-08T07:44:48.000Z</time>
      </trkpt>
      <trkpt lat="47.28522" lon="-2.3542">
        <ele>16</ele>
        <time>2021-04-08T07:44:50.000Z</time>
      </trkpt>
      <trkpt lat="47.28532" lon="-2.35429">
        <ele>16</ele>
        <time>2021-04-08T07:44:54.000Z</time>
      </trkpt>
      <trkpt lat="47.28535" lon="-2.35428">
        <ele>16</ele>
        <time>2021-04-08T07:44:55.000Z</time>
      </trkpt>
      <trkpt lat="47.28542" lon="-2.35424">
        <ele>16</ele>
        <time>2021-04-08T07:44:58.000Z</time>
      </trkpt>
      <trkpt lat="47.28545" lon="-2.35422">
        <ele>16</ele>
        <time>2021-04-08T07:45:00.000Z</time>
      </trkpt>
      <trkpt lat="47.28554" lon="-2.35419">
        <ele>16</ele>
        <time>2021-04-08T07:45:08.000Z</time>
      </trkpt>
      <trkpt lat="47.28558" lon="-2.35411">
        <ele>16</ele>
        <time>2021-04-08T07:45:15.000Z</time>
      </trkpt>
      <trkpt lat="47.28562" lon="-2.35411">
        <ele>16</ele>
        <time>2021-04-08T07:45:18.000Z</time>
      </trkpt>
      <trkpt lat="47.28564" lon="-2.35414">
        <ele>16</ele>
        <time>2021-04-08T07:45:20.000Z</time>
      </trkpt>
      <trkpt lat="47.28569" lon="-2.35424">
        <ele>16</ele>
        <time>2021-04-08T07:45:25.000Z</time>
      </trkpt>
      <trkpt lat="47.28575" lon="-2.35456">
        <ele>16</ele>
        <time>2021-04-08T07:45:32.000Z</time>
      </trkpt>
      <trkpt lat="47.2858" lon="-2.35479">
        <ele>16</ele>
        <time>2021-04-08T07:45:37.000Z</time>
      </trkpt>
      <trkpt lat="47.28585" lon="-2.35512">
        <ele>16</ele>
        <time>2021-04-08T07:45:43.000Z</time>
      </trkpt>
      <trkpt lat="47.28593" lon="-2.35556">
        <ele>16</ele>
        <time>2021-04-08T07:45:51.000Z</time>
      </trkpt>
      <trkpt lat="47.28597" lon="-2.35611">
        <ele>16</ele>
        <time>2021-04-08T07:46:00.000Z</time>
      </trkpt>
      <trkpt lat="47.28605" lon="-2.35677">
        <ele>16</ele>
        <time>2021-04-08T07:46:11.000Z</time>
      </trkpt>
      <trkpt lat="47.28609" lon="-2.35701">
        <ele>16.39999961853</ele>
        <time>2021-04-08T07:46:15.000Z</time>
      </trkpt>
      <trkpt lat="47.2861" lon="-2.35708">
        <ele>16.799999237061</ele>
        <time>2021-04-08T07:46:16.000Z</time>
      </trkpt>
      <trkpt lat="47.2861" lon="-2.35715">
        <ele>17.200000762939</ele>
        <time>2021-04-08T07:46:17.000Z</time>
      </trkpt>
      <trkpt lat="47.28611" lon="-2.35721">
        <ele>17.60000038147</ele>
        <time>2021-04-08T07:46:18.000Z</time>
      </trkpt>
      <trkpt lat="47.28613" lon="-2.35727">
        <ele>18</ele>
        <time>2021-04-08T07:46:19.000Z</time>
      </trkpt>
      <trkpt lat="47.28621" lon="-2.35741">
        <ele>18</ele>
        <time>2021-04-08T07:46:22.000Z</time>
      </trkpt>
      <trkpt lat="47.28628" lon="-2.35749">
        <ele>18</ele>
        <time>2021-04-08T07:46:24.000Z</time>
      </trkpt>
      <trkpt lat="47.28636" lon="-2.35776">
        <ele>18</ele>
        <time>2021-04-08T07:46:29.000Z</time>
      </trkpt>
      <trkpt lat="47.28644" lon="-2.35808">
        <ele>18</ele>
        <time>2021-04-08T07:46:36.000Z</time>
      </trkpt>
      <trkpt lat="47.28645" lon="-2.35829">
        <ele>18</ele>
        <time>2021-04-08T07:46:41.000Z</time>
      </trkpt>
      <trkpt lat="47.28653" lon="-2.35855">
        <ele>18.39999961853</ele>
        <time>2021-04-08T07:46:46.000Z</time>
      </trkpt>
      <trkpt lat="47.28655" lon="-2.3586">
        <ele>18.799999237061</ele>
        <time>2021-04-08T07:46:47.000Z</time>
      </trkpt>
      <trkpt lat="47.28657" lon="-2.35865">
        <ele>19.200000762939</ele>
        <time>2021-04-08T07:46:48.000Z</time>
      </trkpt>
      <trkpt lat="47.28659" lon="-2.35871">
        <ele>19.60000038147</ele>
        <time>2021-04-08T07:46:49.000Z</time>
      </trkpt>
      <trkpt lat="47.28661" lon="-2.35876">
        <ele>20</ele>
        <time>2021-04-08T07:46:50.000Z</time>
      </trkpt>
      <trkpt lat="47.28668" lon="-2.35898">
        <ele>20</ele>
        <time>2021-04-08T07:46:54.000Z</time>
      </trkpt>
      <trkpt lat="47.28677" lon="-2.35918">
        <ele>20</ele>
        <time>2021-04-08T07:46:59.000Z</time>
      </trkpt>
      <trkpt lat="47.28679" lon="-2.35918">
        <ele>20</ele>
        <time>2021-04-08T07:47:00.000Z</time>
      </trkpt>
      <trkpt lat="47.28683" lon="-2.35911">
        <ele>20</ele>
        <time>2021-04-08T07:47:02.000Z</time>
      </trkpt>
      <trkpt lat="47.2869" lon="-2.35902">
        <ele>20.39999961853</ele>
        <time>2021-04-08T07:47:04.000Z</time>
      </trkpt>
      <trkpt lat="47.28694" lon="-2.35897">
        <ele>20.799999237061</ele>
        <time>2021-04-08T07:47:05.000Z</time>
      </trkpt>
      <trkpt lat="47.28698" lon="-2.35891">
        <ele>21.200000762939</ele>
        <time>2021-04-08T07:47:06.000Z</time>
      </trkpt>
      <trkpt lat="47.28702" lon="-2.35886">
        <ele>21.60000038147</ele>
        <time>2021-04-08T07:47:07.000Z</time>
      </trkpt>
      <trkpt lat="47.28705" lon="-2.35881">
        <ele>22</ele>
        <time>2021-04-08T07:47:08.000Z</time>
      </trkpt>
      <trkpt lat="47.28719" lon="-2.35859">
        <ele>22</ele>
        <time>2021-04-08T07:47:12.000Z</time>
      </trkpt>
      <trkpt lat="47.28745" lon="-2.35811">
        <ele>22.60000038147</ele>
        <time>2021-04-08T07:47:20.000Z</time>
      </trkpt>
      <trkpt lat="47.28748" lon="-2.35805">
        <ele>23</ele>
        <time>2021-04-08T07:47:21.000Z</time>
      </trkpt>
      <trkpt lat="47.28751" lon="-2.35799">
        <ele>23.39999961853</ele>
        <time>2021-04-08T07:47:22.000Z</time>
      </trkpt>
      <trkpt lat="47.28755" lon="-2.35792">
        <ele>24.200000762939</ele>
        <time>2021-04-08T07:47:23.000Z</time>
      </trkpt>
      <trkpt lat="47.28771" lon="-2.35761">
        <ele>24.200000762939</ele>
        <time>2021-04-08T07:47:28.000Z</time>
      </trkpt>
      <trkpt lat="47.28793" lon="-2.35716">
        <ele>24.200000762939</ele>
        <time>2021-04-08T07:47:35.000Z</time>
      </trkpt>
      <trkpt lat="47.28817" lon="-2.35674">
        <ele>24.200000762939</ele>
        <time>2021-04-08T07:47:42.000Z</time>
      </trkpt>
      <trkpt lat="47.28825" lon="-2.35663">
        <ele>24.200000762939</ele>
        <time>2021-04-08T07:47:44.000Z</time>
      </trkpt>
      <trkpt lat="47.28842" lon="-2.35646">
        <ele>24.200000762939</ele>
        <time>2021-04-08T07:47:48.000Z</time>
      </trkpt>
      <trkpt lat="47.2887" lon="-2.35615">
        <ele>24.200000762939</ele>
        <time>2021-04-08T07:47:55.000Z</time>
      </trkpt>
      <trkpt lat="47.28903" lon="-2.35579">
        <ele>24.200000762939</ele>
        <time>2021-04-08T07:48:03.000Z</time>
      </trkpt>
      <trkpt lat="47.28923" lon="-2.35558">
        <ele>24.200000762939</ele>
        <time>2021-04-08T07:48:09.000Z</time>
      </trkpt>
      <trkpt lat="47.28926" lon="-2.35557">
        <ele>23.799999237061</ele>
        <time>2021-04-08T07:48:10.000Z</time>
      </trkpt>
      <trkpt lat="47.28929" lon="-2.35559">
        <ele>23.39999961853</ele>
        <time>2021-04-08T07:48:11.000Z</time>
      </trkpt>
      <trkpt lat="47.2893" lon="-2.35563">
        <ele>23</ele>
        <time>2021-04-08T07:48:12.000Z</time>
      </trkpt>
      <trkpt lat="47.28932" lon="-2.35567">
        <ele>22.200000762939</ele>
        <time>2021-04-08T07:48:13.000Z</time>
      </trkpt>
      <trkpt lat="47.28936" lon="-2.35578">
        <ele>22.200000762939</ele>
        <time>2021-04-08T07:48:15.000Z</time>
      </trkpt>
      <trkpt lat="47.28938" lon="-2.35583">
        <ele>22.200000762939</ele>
        <time>2021-04-08T07:48:16.000Z</time>
      </trkpt>
      <trkpt lat="47.28957" lon="-2.35628">
        <ele>22.200000762939</ele>
        <time>2021-04-08T07:48:24.000Z</time>
      </trkpt>
      <trkpt lat="47.28983" lon="-2.35687">
        <ele>22.200000762939</ele>
        <time>2021-04-08T07:48:34.000Z</time>
      </trkpt>
      <trkpt lat="47.28987" lon="-2.35692">
        <ele>22.200000762939</ele>
        <time>2021-04-08T07:48:35.000Z</time>
      </trkpt>
      <trkpt lat="47.29" lon="-2.35702">
        <ele>22.200000762939</ele>
        <time>2021-04-08T07:48:38.000Z</time>
      </trkpt>
      <trkpt lat="47.2901" lon="-2.35704">
        <ele>22.60000038147</ele>
        <time>2021-04-08T07:48:40.000Z</time>
      </trkpt>
      <trkpt lat="47.29015" lon="-2.35704">
        <ele>23</ele>
        <time>2021-04-08T07:48:41.000Z</time>
      </trkpt>
      <trkpt lat="47.2902" lon="-2.35702">
        <ele>23.39999961853</ele>
        <time>2021-04-08T07:48:42.000Z</time>
      </trkpt>
      <trkpt lat="47.29025" lon="-2.35699">
        <ele>23.799999237061</ele>
        <time>2021-04-08T07:48:43.000Z</time>
      </trkpt>
      <trkpt lat="47.2903" lon="-2.35696">
        <ele>24.39999961853</ele>
        <time>2021-04-08T07:48:44.000Z</time>
      </trkpt>
      <trkpt lat="47.29044" lon="-2.35683">
        <ele>24.39999961853</ele>
        <time>2021-04-08T07:48:47.000Z</time>
      </trkpt>
      <trkpt lat="47.29073" lon="-2.35652">
        <ele>24.39999961853</ele>
        <time>2021-04-08T07:48:54.000Z</time>
      </trkpt>
      <trkpt lat="47.29081" lon="-2.35645">
        <ele>24.39999961853</ele>
        <time>2021-04-08T07:48:56.000Z</time>
      </trkpt>
      <trkpt lat="47.29095" lon="-2.35635">
        <ele>24.39999961853</ele>
        <time>2021-04-08T07:49:00.000Z</time>
      </trkpt>
      <trkpt lat="47.29105" lon="-2.35624">
        <ele>24.39999961853</ele>
        <time>2021-04-08T07:49:03.000Z</time>
      </trkpt>
      <trkpt lat="47.29109" lon="-2.35614">
        <ele>24.39999961853</ele>
        <time>2021-04-08T07:49:05.000Z</time>
      </trkpt>
      <trkpt lat="47.2911" lon="-2.35601">
        <ele>24.39999961853</ele>
        <time>2021-04-08T07:49:07.000Z</time>
      </trkpt>
      <trkpt lat="47.29112" lon="-2.35576">
        <ele>24.39999961853</ele>
        <time>2021-04-08T07:49:11.000Z</time>
      </trkpt>
      <trkpt lat="47.29119" lon="-2.35543">
        <ele>24.39999961853</ele>
        <time>2021-04-08T07:49:17.000Z</time>
      </trkpt>
      <trkpt lat="47.29119" lon="-2.35524">
        <ele>24.39999961853</ele>
        <time>2021-04-08T07:49:21.000Z</time>
      </trkpt>
      <trkpt lat="47.29115" lon="-2.35496">
        <ele>24.39999961853</ele>
        <time>2021-04-08T07:49:26.000Z</time>
      </trkpt>
      <trkpt lat="47.29112" lon="-2.35473">
        <ele>24.39999961853</ele>
        <time>2021-04-08T07:49:30.000Z</time>
      </trkpt>
      <trkpt lat="47.29115" lon="-2.3547">
        <ele>24.39999961853</ele>
        <time>2021-04-08T07:49:31.000Z</time>
      </trkpt>
      <trkpt lat="47.29127" lon="-2.35465">
        <ele>24.39999961853</ele>
        <time>2021-04-08T07:49:34.000Z</time>
      </trkpt>
      <trkpt lat="47.29135" lon="-2.35462">
        <ele>24.39999961853</ele>
        <time>2021-04-08T07:49:36.000Z</time>
      </trkpt>
      <trkpt lat="47.29165" lon="-2.3545">
        <ele>24.39999961853</ele>
        <time>2021-04-08T07:49:43.000Z</time>
      </trkpt>
      <trkpt lat="47.29192" lon="-2.3544">
        <ele>24.39999961853</ele>
        <time>2021-04-08T07:49:49.000Z</time>
      </trkpt>
      <trkpt lat="47.29201" lon="-2.35437">
        <ele>24.39999961853</ele>
        <time>2021-04-08T07:49:51.000Z</time>
      </trkpt>
      <trkpt lat="47.29242" lon="-2.35421">
        <ele>24.39999961853</ele>
        <time>2021-04-08T07:50:00.000Z</time>
      </trkpt>
      <trkpt lat="47.29269" lon="-2.35406">
        <ele>24.39999961853</ele>
        <time>2021-04-08T07:50:06.000Z</time>
      </trkpt>
      <trkpt lat="47.293" lon="-2.3538">
        <ele>24.39999961853</ele>
        <time>2021-04-08T07:50:13.000Z</time>
      </trkpt>
      <trkpt lat="47.29327" lon="-2.35352">
        <ele>24.39999961853</ele>
        <time>2021-04-08T07:50:19.000Z</time>
      </trkpt>
      <trkpt lat="47.2936" lon="-2.35313">
        <ele>24.39999961853</ele>
        <time>2021-04-08T07:50:26.000Z</time>
      </trkpt>
      <trkpt lat="47.29399" lon="-2.35265">
        <ele>24.39999961853</ele>
        <time>2021-04-08T07:50:34.000Z</time>
      </trkpt>
      <trkpt lat="47.29421" lon="-2.35232">
        <ele>24</ele>
        <time>2021-04-08T07:50:39.000Z</time>
      </trkpt>
      <trkpt lat="47.29425" lon="-2.35225">
        <ele>23.60000038147</ele>
        <time>2021-04-08T07:50:40.000Z</time>
      </trkpt>
      <trkpt lat="47.29429" lon="-2.35218">
        <ele>22.60000038147</ele>
        <time>2021-04-08T07:50:41.000Z</time>
      </trkpt>
      <trkpt lat="47.29433" lon="-2.3521">
        <ele>22.200000762939</ele>
        <time>2021-04-08T07:50:42.000Z</time>
      </trkpt>
      <trkpt lat="47.29455" lon="-2.35156">
        <ele>22.200000762939</ele>
        <time>2021-04-08T07:50:49.000Z</time>
      </trkpt>
      <trkpt lat="47.2947" lon="-2.35112">
        <ele>22.200000762939</ele>
        <time>2021-04-08T07:50:55.000Z</time>
      </trkpt>
      <trkpt lat="47.29472" lon="-2.35105">
        <ele>22.200000762939</ele>
        <time>2021-04-08T07:50:56.000Z</time>
      </trkpt>
      <trkpt lat="47.29477" lon="-2.3509">
        <ele>21.799999237061</ele>
        <time>2021-04-08T07:50:58.000Z</time>
      </trkpt>
      <trkpt lat="47.29479" lon="-2.35082">
        <ele>21.39999961853</ele>
        <time>2021-04-08T07:50:59.000Z</time>
      </trkpt>
      <trkpt lat="47.29482" lon="-2.35074">
        <ele>21</ele>
        <time>2021-04-08T07:51:00.000Z</time>
      </trkpt>
      <trkpt lat="47.29484" lon="-2.35067">
        <ele>20.60000038147</ele>
        <time>2021-04-08T07:51:01.000Z</time>
      </trkpt>
      <trkpt lat="47.29487" lon="-2.35059">
        <ele>20.200000762939</ele>
        <time>2021-04-08T07:51:02.000Z</time>
      </trkpt>
      <trkpt lat="47.29493" lon="-2.35042">
        <ele>20.200000762939</ele>
        <time>2021-04-08T07:51:04.000Z</time>
      </trkpt>
      <trkpt lat="47.29514" lon="-2.34993">
        <ele>20.200000762939</ele>
        <time>2021-04-08T07:51:09.000Z</time>
      </trkpt>
      <trkpt lat="47.29524" lon="-2.34974">
        <ele>19.799999237061</ele>
        <time>2021-04-08T07:51:11.000Z</time>
      </trkpt>
      <trkpt lat="47.29529" lon="-2.34966">
        <ele>19.39999961853</ele>
        <time>2021-04-08T07:51:12.000Z</time>
      </trkpt>
      <trkpt lat="47.29534" lon="-2.34957">
        <ele>18.799999237061</ele>
        <time>2021-04-08T07:51:13.000Z</time>
      </trkpt>
      <trkpt lat="47.29538" lon="-2.34948">
        <ele>18.39999961853</ele>
        <time>2021-04-08T07:51:14.000Z</time>
      </trkpt>
      <trkpt lat="47.29543" lon="-2.3494">
        <ele>18</ele>
        <time>2021-04-08T07:51:15.000Z</time>
      </trkpt>
      <trkpt lat="47.29566" lon="-2.34909">
        <ele>18</ele>
        <time>2021-04-08T07:51:20.000Z</time>
      </trkpt>
      <trkpt lat="47.29571" lon="-2.34903">
        <ele>18</ele>
        <time>2021-04-08T07:51:21.000Z</time>
      </trkpt>
      <trkpt lat="47.29591" lon="-2.34877">
        <ele>18</ele>
        <time>2021-04-08T07:51:26.000Z</time>
      </trkpt>
      <trkpt lat="47.29611" lon="-2.34845">
        <ele>18</ele>
        <time>2021-04-08T07:51:32.000Z</time>
      </trkpt>
      <trkpt lat="47.29615" lon="-2.34842">
        <ele>18</ele>
        <time>2021-04-08T07:51:33.000Z</time>
      </trkpt>
      <trkpt lat="47.29631" lon="-2.34839">
        <ele>18</ele>
        <time>2021-04-08T07:51:36.000Z</time>
      </trkpt>
      <trkpt lat="47.29646" lon="-2.34852">
        <ele>18</ele>
        <time>2021-04-08T07:51:39.000Z</time>
      </trkpt>
      <trkpt lat="47.29651" lon="-2.34857">
        <ele>18</ele>
        <time>2021-04-08T07:51:40.000Z</time>
      </trkpt>
      <trkpt lat="47.29681" lon="-2.34893">
        <ele>18</ele>
        <time>2021-04-08T07:51:46.000Z</time>
      </trkpt>
      <trkpt lat="47.29692" lon="-2.34898">
        <ele>18</ele>
        <time>2021-04-08T07:51:48.000Z</time>
      </trkpt>
      <trkpt lat="47.29698" lon="-2.34898">
        <ele>18</ele>
        <time>2021-04-08T07:51:49.000Z</time>
      </trkpt>
      <trkpt lat="47.29721" lon="-2.34886">
        <ele>18</ele>
        <time>2021-04-08T07:51:53.000Z</time>
      </trkpt>
      <trkpt lat="47.29737" lon="-2.34877">
        <ele>18</ele>
        <time>2021-04-08T07:51:56.000Z</time>
      </trkpt>
      <trkpt lat="47.29749" lon="-2.34873">
        <ele>18</ele>
        <time>2021-04-08T07:51:58.000Z</time>
      </trkpt>
      <trkpt lat="47.29796" lon="-2.34859">
        <ele>18</ele>
        <time>2021-04-08T07:52:06.000Z</time>
      </trkpt>
      <trkpt lat="47.29838" lon="-2.3485">
        <ele>18</ele>
        <time>2021-04-08T07:52:13.000Z</time>
      </trkpt>
      <trkpt lat="47.29884" lon="-2.34838">
        <ele>18</ele>
        <time>2021-04-08T07:52:21.000Z</time>
      </trkpt>
      <trkpt lat="47.29916" lon="-2.34833">
        <ele>18</ele>
        <time>2021-04-08T07:52:27.000Z</time>
      </trkpt>
      <trkpt lat="47.29921" lon="-2.34833">
        <ele>18.39999961853</ele>
        <time>2021-04-08T07:52:28.000Z</time>
      </trkpt>
      <trkpt lat="47.29926" lon="-2.34832">
        <ele>18.799999237061</ele>
        <time>2021-04-08T07:52:29.000Z</time>
      </trkpt>
      <trkpt lat="47.29932" lon="-2.34831">
        <ele>19.200000762939</ele>
        <time>2021-04-08T07:52:30.000Z</time>
      </trkpt>
      <trkpt lat="47.29937" lon="-2.3483">
        <ele>19.60000038147</ele>
        <time>2021-04-08T07:52:31.000Z</time>
      </trkpt>
      <trkpt lat="47.29942" lon="-2.34829">
        <ele>20</ele>
        <time>2021-04-08T07:52:32.000Z</time>
      </trkpt>
      <trkpt lat="47.29952" lon="-2.34828">
        <ele>20</ele>
        <time>2021-04-08T07:52:34.000Z</time>
      </trkpt>
      <trkpt lat="47.29979" lon="-2.34827">
        <ele>20</ele>
        <time>2021-04-08T07:52:40.000Z</time>
      </trkpt>
      <trkpt lat="47.29985" lon="-2.34833">
        <ele>20</ele>
        <time>2021-04-08T07:52:42.000Z</time>
      </trkpt>
      <trkpt lat="47.29987" lon="-2.34839">
        <ele>20</ele>
        <time>2021-04-08T07:52:43.000Z</time>
      </trkpt>
      <trkpt lat="47.29992" lon="-2.34868">
        <ele>20</ele>
        <time>2021-04-08T07:52:47.000Z</time>
      </trkpt>
      <trkpt lat="47.29996" lon="-2.34919">
        <ele>20.39999961853</ele>
        <time>2021-04-08T07:52:53.000Z</time>
      </trkpt>
      <trkpt lat="47.29997" lon="-2.34927">
        <ele>20.799999237061</ele>
        <time>2021-04-08T07:52:54.000Z</time>
      </trkpt>
      <trkpt lat="47.29997" lon="-2.34935">
        <ele>21.200000762939</ele>
        <time>2021-04-08T07:52:55.000Z</time>
      </trkpt>
      <trkpt lat="47.29997" lon="-2.34944">
        <ele>21.60000038147</ele>
        <time>2021-04-08T07:52:56.000Z</time>
      </trkpt>
      <trkpt lat="47.29997" lon="-2.34953">
        <ele>22</ele>
        <time>2021-04-08T07:52:57.000Z</time>
      </trkpt>
      <trkpt lat="47.29997" lon="-2.34972">
        <ele>22</ele>
        <time>2021-04-08T07:52:59.000Z</time>
      </trkpt>
      <trkpt lat="47.29996" lon="-2.34981">
        <ele>22</ele>
        <time>2021-04-08T07:53:00.000Z</time>
      </trkpt>
      <trkpt lat="47.29992" lon="-2.35049">
        <ele>22</ele>
        <time>2021-04-08T07:53:07.000Z</time>
      </trkpt>
      <trkpt lat="47.29986" lon="-2.35131">
        <ele>22</ele>
        <time>2021-04-08T07:53:15.000Z</time>
      </trkpt>
      <trkpt lat="47.29988" lon="-2.35184">
        <ele>21.60000038147</ele>
        <time>2021-04-08T07:53:20.000Z</time>
      </trkpt>
      <trkpt lat="47.29989" lon="-2.35195">
        <ele>21.200000762939</ele>
        <time>2021-04-08T07:53:21.000Z</time>
      </trkpt>
      <trkpt lat="47.29991" lon="-2.35205">
        <ele>20.799999237061</ele>
        <time>2021-04-08T07:53:22.000Z</time>
      </trkpt>
      <trkpt lat="47.29994" lon="-2.35215">
        <ele>20.39999961853</ele>
        <time>2021-04-08T07:53:23.000Z</time>
      </trkpt>
      <trkpt lat="47.29996" lon="-2.35223">
        <ele>20</ele>
        <time>2021-04-08T07:53:24.000Z</time>
      </trkpt>
      <trkpt lat="47.30001" lon="-2.35237">
        <ele>20</ele>
        <time>2021-04-08T07:53:26.000Z</time>
      </trkpt>
      <trkpt lat="47.30008" lon="-2.35256">
        <ele>20</ele>
        <time>2021-04-08T07:53:30.000Z</time>
      </trkpt>
      <trkpt lat="47.30011" lon="-2.35257">
        <ele>20</ele>
        <time>2021-04-08T07:53:31.000Z</time>
      </trkpt>
      <trkpt lat="47.30014" lon="-2.35255">
        <ele>20</ele>
        <time>2021-04-08T07:53:33.000Z</time>
      </trkpt>
      <trkpt lat="47.30024" lon="-2.35248">
        <ele>20</ele>
        <time>2021-04-08T07:53:40.000Z</time>
      </trkpt>
      <trkpt lat="47.30027" lon="-2.35248">
        <ele>20</ele>
        <time>2021-04-08T07:53:42.000Z</time>
      </trkpt>
      <trkpt lat="47.30029" lon="-2.35246">
        <ele>20</ele>
        <time>2021-04-08T07:53:44.000Z</time>
      </trkpt>
      <trkpt lat="47.30041" lon="-2.35239">
        <ele>20</ele>
        <time>2021-04-08T07:53:48.000Z</time>
      </trkpt>
      <trkpt lat="47.30067" lon="-2.35225">
        <ele>20</ele>
        <time>2021-04-08T07:53:54.000Z</time>
      </trkpt>
      <trkpt lat="47.30071" lon="-2.35222">
        <ele>20</ele>
        <time>2021-04-08T07:53:55.000Z</time>
      </trkpt>
      <trkpt lat="47.3009" lon="-2.35213">
        <ele>20</ele>
        <time>2021-04-08T07:53:59.000Z</time>
      </trkpt>
      <trkpt lat="47.30095" lon="-2.3521">
        <ele>20</ele>
        <time>2021-04-08T07:54:00.000Z</time>
      </trkpt>
      <trkpt lat="47.30099" lon="-2.35208">
        <ele>20</ele>
        <time>2021-04-08T07:54:01.000Z</time>
      </trkpt>
      <trkpt lat="47.30112" lon="-2.35203">
        <ele>20</ele>
        <time>2021-04-08T07:54:04.000Z</time>
      </trkpt>
      <trkpt lat="47.30116" lon="-2.35201">
        <ele>20</ele>
        <time>2021-04-08T07:54:05.000Z</time>
      </trkpt>
      <trkpt lat="47.30125" lon="-2.35198">
        <ele>20</ele>
        <time>2021-04-08T07:54:08.000Z</time>
      </trkpt>
      <trkpt lat="47.30128" lon="-2.35197">
        <ele>20</ele>
        <time>2021-04-08T07:54:12.000Z</time>
      </trkpt>
      <trkpt lat="47.30151" lon="-2.35196">
        <ele>20</ele>
        <time>2021-04-08T07:54:46.000Z</time>
      </trkpt>
      <trkpt lat="47.30157" lon="-2.35187">
        <ele>20</ele>
        <time>2021-04-08T07:54:50.000Z</time>
      </trkpt>
      <trkpt lat="47.30168" lon="-2.35178">
        <ele>20</ele>
        <time>2021-04-08T07:54:54.000Z</time>
      </trkpt>
      <trkpt lat="47.30175" lon="-2.35177">
        <ele>20</ele>
        <time>2021-04-08T07:54:56.000Z</time>
      </trkpt>
      <trkpt lat="47.30181" lon="-2.35175">
        <ele>20</ele>
        <time>2021-04-08T07:54:58.000Z</time>
      </trkpt>
      <trkpt lat="47.30196" lon="-2.35167">
        <ele>20</ele>
        <time>2021-04-08T07:55:02.000Z</time>
      </trkpt>
      <trkpt lat="47.302" lon="-2.35163">
        <ele>20</ele>
        <time>2021-04-08T07:55:03.000Z</time>
      </trkpt>
      <trkpt lat="47.30205" lon="-2.35146">
        <ele>20</ele>
        <time>2021-04-08T07:55:06.000Z</time>
      </trkpt>
      <trkpt lat="47.30205" lon="-2.35139">
        <ele>20</ele>
        <time>2021-04-08T07:55:07.000Z</time>
      </trkpt>
      <trkpt lat="47.30208" lon="-2.35096">
        <ele>20.39999961853</ele>
        <time>2021-04-08T07:55:14.000Z</time>
      </trkpt>
      <trkpt lat="47.30209" lon="-2.3509">
        <ele>20.799999237061</ele>
        <time>2021-04-08T07:55:15.000Z</time>
      </trkpt>
      <trkpt lat="47.30209" lon="-2.35084">
        <ele>21.200000762939</ele>
        <time>2021-04-08T07:55:16.000Z</time>
      </trkpt>
      <trkpt lat="47.30208" lon="-2.35078">
        <ele>21.60000038147</ele>
        <time>2021-04-08T07:55:17.000Z</time>
      </trkpt>
      <trkpt lat="47.30208" lon="-2.35073">
        <ele>22.200000762939</ele>
        <time>2021-04-08T07:55:18.000Z</time>
      </trkpt>
      <trkpt lat="47.30209" lon="-2.35059">
        <ele>22.200000762939</ele>
        <time>2021-04-08T07:55:21.000Z</time>
      </trkpt>
      <trkpt lat="47.30209" lon="-2.3503">
        <ele>22.200000762939</ele>
        <time>2021-04-08T07:55:28.000Z</time>
      </trkpt>
      <trkpt lat="47.30208" lon="-2.34998">
        <ele>22.200000762939</ele>
        <time>2021-04-08T07:55:35.000Z</time>
      </trkpt>
      <trkpt lat="47.30208" lon="-2.34964">
        <ele>22.200000762939</ele>
        <time>2021-04-08T07:55:42.000Z</time>
      </trkpt>
      <trkpt lat="47.30208" lon="-2.34959">
        <ele>22.60000038147</ele>
        <time>2021-04-08T07:55:43.000Z</time>
      </trkpt>
      <trkpt lat="47.30208" lon="-2.34955">
        <ele>23</ele>
        <time>2021-04-08T07:55:44.000Z</time>
      </trkpt>
      <trkpt lat="47.30208" lon="-2.3495">
        <ele>23.39999961853</ele>
        <time>2021-04-08T07:55:45.000Z</time>
      </trkpt>
      <trkpt lat="47.30208" lon="-2.34945">
        <ele>23.799999237061</ele>
        <time>2021-04-08T07:55:46.000Z</time>
      </trkpt>
      <trkpt lat="47.30208" lon="-2.3494">
        <ele>24.200000762939</ele>
        <time>2021-04-08T07:55:47.000Z</time>
      </trkpt>
      <trkpt lat="47.30208" lon="-2.3493">
        <ele>24.200000762939</ele>
        <time>2021-04-08T07:55:49.000Z</time>
      </trkpt>
      <trkpt lat="47.3021" lon="-2.34911">
        <ele>24.200000762939</ele>
        <time>2021-04-08T07:55:53.000Z</time>
      </trkpt>
      <trkpt lat="47.30212" lon="-2.34908">
        <ele>24.200000762939</ele>
        <time>2021-04-08T07:55:54.000Z</time>
      </trkpt>
      <trkpt lat="47.3023" lon="-2.34887">
        <ele>24.200000762939</ele>
        <time>2021-04-08T07:56:00.000Z</time>
      </trkpt>
      <trkpt lat="47.30244" lon="-2.34878">
        <ele>24.200000762939</ele>
        <time>2021-04-08T07:56:04.000Z</time>
      </trkpt>
      <trkpt lat="47.30266" lon="-2.34865">
        <ele>24.200000762939</ele>
        <time>2021-04-08T07:56:10.000Z</time>
      </trkpt>
      <trkpt lat="47.30292" lon="-2.34844">
        <ele>24.200000762939</ele>
        <time>2021-04-08T07:56:18.000Z</time>
      </trkpt>
      <trkpt lat="47.3031" lon="-2.34822">
        <ele>24.200000762939</ele>
        <time>2021-04-08T07:56:25.000Z</time>
      </trkpt>
      <trkpt lat="47.30324" lon="-2.34798">
        <ele>24.200000762939</ele>
        <time>2021-04-08T07:56:30.000Z</time>
      </trkpt>
      <trkpt lat="47.3033" lon="-2.34789">
        <ele>24.60000038147</ele>
        <time>2021-04-08T07:56:32.000Z</time>
      </trkpt>
      <trkpt lat="47.30333" lon="-2.34785">
        <ele>25</ele>
        <time>2021-04-08T07:56:33.000Z</time>
      </trkpt>
      <trkpt lat="47.30336" lon="-2.34782">
        <ele>25.60000038147</ele>
        <time>2021-04-08T07:56:34.000Z</time>
      </trkpt>
      <trkpt lat="47.30341" lon="-2.34778">
        <ele>26</ele>
        <time>2021-04-08T07:56:35.000Z</time>
      </trkpt>
      <trkpt lat="47.30345" lon="-2.34775">
        <ele>26.39999961853</ele>
        <time>2021-04-08T07:56:36.000Z</time>
      </trkpt>
      <trkpt lat="47.30365" lon="-2.34763">
        <ele>26.39999961853</ele>
        <time>2021-04-08T07:56:41.000Z</time>
      </trkpt>
      <trkpt lat="47.30383" lon="-2.3475">
        <ele>26.39999961853</ele>
        <time>2021-04-08T07:56:45.000Z</time>
      </trkpt>
      <trkpt lat="47.30387" lon="-2.34746">
        <ele>26.39999961853</ele>
        <time>2021-04-08T07:56:46.000Z</time>
      </trkpt>
      <trkpt lat="47.30397" lon="-2.34737">
        <ele>26.39999961853</ele>
        <time>2021-04-08T07:56:49.000Z</time>
      </trkpt>
      <trkpt lat="47.30405" lon="-2.34731">
        <ele>26.39999961853</ele>
        <time>2021-04-08T07:56:51.000Z</time>
      </trkpt>
      <trkpt lat="47.30419" lon="-2.34723">
        <ele>26.39999961853</ele>
        <time>2021-04-08T07:56:54.000Z</time>
      </trkpt>
      <trkpt lat="47.30423" lon="-2.34718">
        <ele>26.39999961853</ele>
        <time>2021-04-08T07:56:55.000Z</time>
      </trkpt>
      <trkpt lat="47.30427" lon="-2.34713">
        <ele>26.39999961853</ele>
        <time>2021-04-08T07:56:56.000Z</time>
      </trkpt>
      <trkpt lat="47.30445" lon="-2.34696">
        <ele>26.39999961853</ele>
        <time>2021-04-08T07:57:00.000Z</time>
      </trkpt>
      <trkpt lat="47.3045" lon="-2.34691">
        <ele>26.39999961853</ele>
        <time>2021-04-08T07:57:01.000Z</time>
      </trkpt>
      <trkpt lat="47.30472" lon="-2.34669">
        <ele>26.39999961853</ele>
        <time>2021-04-08T07:57:06.000Z</time>
      </trkpt>
      <trkpt lat="47.3049" lon="-2.34648">
        <ele>26.39999961853</ele>
        <time>2021-04-08T07:57:11.000Z</time>
      </trkpt>
      <trkpt lat="47.30502" lon="-2.34629">
        <ele>26.39999961853</ele>
        <time>2021-04-08T07:57:15.000Z</time>
      </trkpt>
      <trkpt lat="47.30508" lon="-2.3462">
        <ele>26.39999961853</ele>
        <time>2021-04-08T07:57:17.000Z</time>
      </trkpt>
      <trkpt lat="47.30519" lon="-2.34605">
        <ele>26.39999961853</ele>
        <time>2021-04-08T07:57:20.000Z</time>
      </trkpt>
      <trkpt lat="47.30526" lon="-2.34594">
        <ele>26.39999961853</ele>
        <time>2021-04-08T07:57:22.000Z</time>
      </trkpt>
      <trkpt lat="47.30553" lon="-2.34559">
        <ele>26.39999961853</ele>
        <time>2021-04-08T07:57:29.000Z</time>
      </trkpt>
      <trkpt lat="47.30563" lon="-2.34542">
        <ele>26.39999961853</ele>
        <time>2021-04-08T07:57:33.000Z</time>
      </trkpt>
      <trkpt lat="47.30578" lon="-2.34515">
        <ele>26.39999961853</ele>
        <time>2021-04-08T07:57:39.000Z</time>
      </trkpt>
      <trkpt lat="47.30593" lon="-2.34485">
        <ele>26.799999237061</ele>
        <time>2021-04-08T07:57:46.000Z</time>
      </trkpt>
      <trkpt lat="47.30595" lon="-2.3448">
        <ele>27.200000762939</ele>
        <time>2021-04-08T07:57:47.000Z</time>
      </trkpt>
      <trkpt lat="47.30598" lon="-2.34476">
        <ele>27.60000038147</ele>
        <time>2021-04-08T07:57:48.000Z</time>
      </trkpt>
      <trkpt lat="47.306" lon="-2.34471">
        <ele>28</ele>
        <time>2021-04-08T07:57:49.000Z</time>
      </trkpt>
      <trkpt lat="47.30603" lon="-2.34467">
        <ele>28.39999961853</ele>
        <time>2021-04-08T07:57:50.000Z</time>
      </trkpt>
      <trkpt lat="47.30612" lon="-2.34453">
        <ele>28.39999961853</ele>
        <time>2021-04-08T07:57:53.000Z</time>
      </trkpt>
      <trkpt lat="47.30628" lon="-2.34433">
        <ele>28.39999961853</ele>
        <time>2021-04-08T07:57:58.000Z</time>
      </trkpt>
      <trkpt lat="47.30631" lon="-2.34428">
        <ele>28.39999961853</ele>
        <time>2021-04-08T07:57:59.000Z</time>
      </trkpt>
      <trkpt lat="47.30647" lon="-2.34403">
        <ele>28.39999961853</ele>
        <time>2021-04-08T07:58:04.000Z</time>
      </trkpt>
      <trkpt lat="47.30668" lon="-2.34373">
        <ele>28.39999961853</ele>
        <time>2021-04-08T07:58:10.000Z</time>
      </trkpt>
      <trkpt lat="47.30687" lon="-2.3434">
        <ele>28.39999961853</ele>
        <time>2021-04-08T07:58:15.000Z</time>
      </trkpt>
      <trkpt lat="47.30701" lon="-2.3431">
        <ele>28.39999961853</ele>
        <time>2021-04-08T07:58:20.000Z</time>
      </trkpt>
      <trkpt lat="47.30721" lon="-2.3428">
        <ele>28.39999961853</ele>
        <time>2021-04-08T07:58:25.000Z</time>
      </trkpt>
      <trkpt lat="47.30729" lon="-2.34251">
        <ele>28.39999961853</ele>
        <time>2021-04-08T07:58:30.000Z</time>
      </trkpt>
      <trkpt lat="47.30733" lon="-2.34229">
        <ele>28.39999961853</ele>
        <time>2021-04-08T07:58:35.000Z</time>
      </trkpt>
      <trkpt lat="47.3074" lon="-2.34226">
        <ele>28</ele>
        <time>2021-04-08T07:58:37.000Z</time>
      </trkpt>
      <trkpt lat="47.30744" lon="-2.34224">
        <ele>27.60000038147</ele>
        <time>2021-04-08T07:58:38.000Z</time>
      </trkpt>
      <trkpt lat="47.30748" lon="-2.34223">
        <ele>27.200000762939</ele>
        <time>2021-04-08T07:58:39.000Z</time>
      </trkpt>
      <trkpt lat="47.30752" lon="-2.34222">
        <ele>26.60000038147</ele>
        <time>2021-04-08T07:58:40.000Z</time>
      </trkpt>
      <trkpt lat="47.30757" lon="-2.34222">
        <ele>26.200000762939</ele>
        <time>2021-04-08T07:58:41.000Z</time>
      </trkpt>
      <trkpt lat="47.30764" lon="-2.34216">
        <ele>26.200000762939</ele>
        <time>2021-04-08T07:58:43.000Z</time>
      </trkpt>
      <trkpt lat="47.30768" lon="-2.34205">
        <ele>26.200000762939</ele>
        <time>2021-04-08T07:58:45.000Z</time>
      </trkpt>
      <trkpt lat="47.30769" lon="-2.34193">
        <ele>26.200000762939</ele>
        <time>2021-04-08T07:58:47.000Z</time>
      </trkpt>
      <trkpt lat="47.3077" lon="-2.34179">
        <ele>26.200000762939</ele>
        <time>2021-04-08T07:58:49.000Z</time>
      </trkpt>
      <trkpt lat="47.30771" lon="-2.34158">
        <ele>26.200000762939</ele>
        <time>2021-04-08T07:58:52.000Z</time>
      </trkpt>
      <trkpt lat="47.30772" lon="-2.34151">
        <ele>26.200000762939</ele>
        <time>2021-04-08T07:58:53.000Z</time>
      </trkpt>
      <trkpt lat="47.30776" lon="-2.34106">
        <ele>26.200000762939</ele>
        <time>2021-04-08T07:58:59.000Z</time>
      </trkpt>
      <trkpt lat="47.3078" lon="-2.34064">
        <ele>26.200000762939</ele>
        <time>2021-04-08T07:59:05.000Z</time>
      </trkpt>
      <trkpt lat="47.3078" lon="-2.34051">
        <ele>26.200000762939</ele>
        <time>2021-04-08T07:59:07.000Z</time>
      </trkpt>
      <trkpt lat="47.3078" lon="-2.34031">
        <ele>26.200000762939</ele>
        <time>2021-04-08T07:59:10.000Z</time>
      </trkpt>
      <trkpt lat="47.30781" lon="-2.34024">
        <ele>26.200000762939</ele>
        <time>2021-04-08T07:59:11.000Z</time>
      </trkpt>
      <trkpt lat="47.30782" lon="-2.33998">
        <ele>26.200000762939</ele>
        <time>2021-04-08T07:59:15.000Z</time>
      </trkpt>
      <trkpt lat="47.30787" lon="-2.33972">
        <ele>26.200000762939</ele>
        <time>2021-04-08T07:59:20.000Z</time>
      </trkpt>
      <trkpt lat="47.30802" lon="-2.33965">
        <ele>26.200000762939</ele>
        <time>2021-04-08T07:59:24.000Z</time>
      </trkpt>
      <trkpt lat="47.30807" lon="-2.33964">
        <ele>26.200000762939</ele>
        <time>2021-04-08T07:59:25.000Z</time>
      </trkpt>
      <trkpt lat="47.30835" lon="-2.33956">
        <ele>26.200000762939</ele>
        <time>2021-04-08T07:59:30.000Z</time>
      </trkpt>
      <trkpt lat="47.30871" lon="-2.3395">
        <ele>26.200000762939</ele>
        <time>2021-04-08T07:59:36.000Z</time>
      </trkpt>
      <trkpt lat="47.30912" lon="-2.33947">
        <ele>26.200000762939</ele>
        <time>2021-04-08T07:59:43.000Z</time>
      </trkpt>
      <trkpt lat="47.30954" lon="-2.33951">
        <ele>26.200000762939</ele>
        <time>2021-04-08T07:59:50.000Z</time>
      </trkpt>
      <trkpt lat="47.31001" lon="-2.33955">
        <ele>26.200000762939</ele>
        <time>2021-04-08T07:59:58.000Z</time>
      </trkpt>
      <trkpt lat="47.31035" lon="-2.33951">
        <ele>26.200000762939</ele>
        <time>2021-04-08T08:00:04.000Z</time>
      </trkpt>
      <trkpt lat="47.31044" lon="-2.33949">
        <ele>25.799999237061</ele>
        <time>2021-04-08T08:00:06.000Z</time>
      </trkpt>
      <trkpt lat="47.31047" lon="-2.33948">
        <ele>25.39999961853</ele>
        <time>2021-04-08T08:00:07.000Z</time>
      </trkpt>
      <trkpt lat="47.31051" lon="-2.33948">
        <ele>24.60000038147</ele>
        <time>2021-04-08T08:00:08.000Z</time>
      </trkpt>
      <trkpt lat="47.31054" lon="-2.33947">
        <ele>24.200000762939</ele>
        <time>2021-04-08T08:00:09.000Z</time>
      </trkpt>
      <trkpt lat="47.31062" lon="-2.33949">
        <ele>24.200000762939</ele>
        <time>2021-04-08T08:00:13.000Z</time>
      </trkpt>
      <trkpt lat="47.31067" lon="-2.33964">
        <ele>24.200000762939</ele>
        <time>2021-04-08T08:00:17.000Z</time>
      </trkpt>
      <trkpt lat="47.31067" lon="-2.33981">
        <ele>24.200000762939</ele>
        <time>2021-04-08T08:00:20.000Z</time>
      </trkpt>
      <trkpt lat="47.31068" lon="-2.33993">
        <ele>24.200000762939</ele>
        <time>2021-04-08T08:00:22.000Z</time>
      </trkpt>
      <trkpt lat="47.31071" lon="-2.34041">
        <ele>24.200000762939</ele>
        <time>2021-04-08T08:00:30.000Z</time>
      </trkpt>
      <trkpt lat="47.31076" lon="-2.34069">
        <ele>23.799999237061</ele>
        <time>2021-04-08T08:00:34.000Z</time>
      </trkpt>
      <trkpt lat="47.31078" lon="-2.34077">
        <ele>23.39999961853</ele>
        <time>2021-04-08T08:00:35.000Z</time>
      </trkpt>
      <trkpt lat="47.3108" lon="-2.34084">
        <ele>23</ele>
        <time>2021-04-08T08:00:36.000Z</time>
      </trkpt>
      <trkpt lat="47.31083" lon="-2.34091">
        <ele>22.60000038147</ele>
        <time>2021-04-08T08:00:37.000Z</time>
      </trkpt>
      <trkpt lat="47.31086" lon="-2.34099">
        <ele>22.200000762939</ele>
        <time>2021-04-08T08:00:38.000Z</time>
      </trkpt>
      <trkpt lat="47.31098" lon="-2.34123">
        <ele>22.200000762939</ele>
        <time>2021-04-08T08:00:41.000Z</time>
      </trkpt>
      <trkpt lat="47.31111" lon="-2.34148">
        <ele>21.60000038147</ele>
        <time>2021-04-08T08:00:44.000Z</time>
      </trkpt>
      <trkpt lat="47.31116" lon="-2.34158">
        <ele>21.200000762939</ele>
        <time>2021-04-08T08:00:45.000Z</time>
      </trkpt>
      <trkpt lat="47.31121" lon="-2.34168">
        <ele>20.799999237061</ele>
        <time>2021-04-08T08:00:46.000Z</time>
      </trkpt>
      <trkpt lat="47.31126" lon="-2.34178">
        <ele>20.39999961853</ele>
        <time>2021-04-08T08:00:47.000Z</time>
      </trkpt>
      <trkpt lat="47.31131" lon="-2.34189">
        <ele>19.799999237061</ele>
        <time>2021-04-08T08:00:48.000Z</time>
      </trkpt>
      <trkpt lat="47.31149" lon="-2.34221">
        <ele>19.39999961853</ele>
        <time>2021-04-08T08:00:51.000Z</time>
      </trkpt>
      <trkpt lat="47.31154" lon="-2.34232">
        <ele>19</ele>
        <time>2021-04-08T08:00:52.000Z</time>
      </trkpt>
      <trkpt lat="47.31159" lon="-2.34243">
        <ele>18.39999961853</ele>
        <time>2021-04-08T08:00:53.000Z</time>
      </trkpt>
      <trkpt lat="47.31165" lon="-2.34255">
        <ele>17.799999237061</ele>
        <time>2021-04-08T08:00:54.000Z</time>
      </trkpt>
      <trkpt lat="47.3117" lon="-2.34266">
        <ele>17.200000762939</ele>
        <time>2021-04-08T08:00:55.000Z</time>
      </trkpt>
      <trkpt lat="47.31175" lon="-2.34277">
        <ele>16.60000038147</ele>
        <time>2021-04-08T08:00:56.000Z</time>
      </trkpt>
      <trkpt lat="47.3118" lon="-2.34288">
        <ele>15.199999809265</ele>
        <time>2021-04-08T08:00:57.000Z</time>
      </trkpt>
      <trkpt lat="47.3119" lon="-2.34309">
        <ele>15.199999809265</ele>
        <time>2021-04-08T08:00:59.000Z</time>
      </trkpt>
      <trkpt lat="47.31201" lon="-2.34328">
        <ele>15.199999809265</ele>
        <time>2021-04-08T08:01:01.000Z</time>
      </trkpt>
      <trkpt lat="47.31215" lon="-2.34342">
        <ele>15.199999809265</ele>
        <time>2021-04-08T08:01:03.000Z</time>
      </trkpt>
      <trkpt lat="47.31229" lon="-2.34351">
        <ele>15.199999809265</ele>
        <time>2021-04-08T08:01:05.000Z</time>
      </trkpt>
      <trkpt lat="47.31236" lon="-2.34354">
        <ele>15.199999809265</ele>
        <time>2021-04-08T08:01:06.000Z</time>
      </trkpt>
      <trkpt lat="47.31243" lon="-2.34358">
        <ele>15.199999809265</ele>
        <time>2021-04-08T08:01:07.000Z</time>
      </trkpt>
      <trkpt lat="47.31255" lon="-2.34366">
        <ele>15.199999809265</ele>
        <time>2021-04-08T08:01:09.000Z</time>
      </trkpt>
      <trkpt lat="47.31265" lon="-2.34379">
        <ele>15.199999809265</ele>
        <time>2021-04-08T08:01:11.000Z</time>
      </trkpt>
      <trkpt lat="47.31274" lon="-2.34411">
        <ele>15.199999809265</ele>
        <time>2021-04-08T08:01:15.000Z</time>
      </trkpt>
      <trkpt lat="47.31275" lon="-2.34429">
        <ele>15.199999809265</ele>
        <time>2021-04-08T08:01:17.000Z</time>
      </trkpt>
      <trkpt lat="47.31278" lon="-2.34463">
        <ele>15.199999809265</ele>
        <time>2021-04-08T08:01:21.000Z</time>
      </trkpt>
      <trkpt lat="47.31279" lon="-2.3448">
        <ele>15.800000190735</ele>
        <time>2021-04-08T08:01:23.000Z</time>
      </trkpt>
      <trkpt lat="47.3128" lon="-2.34489">
        <ele>16.200000762939</ele>
        <time>2021-04-08T08:01:24.000Z</time>
      </trkpt>
      <trkpt lat="47.31281" lon="-2.34498">
        <ele>16.60000038147</ele>
        <time>2021-04-08T08:01:25.000Z</time>
      </trkpt>
      <trkpt lat="47.31282" lon="-2.34507">
        <ele>17</ele>
        <time>2021-04-08T08:01:26.000Z</time>
      </trkpt>
      <trkpt lat="47.31283" lon="-2.34515">
        <ele>17.39999961853</ele>
        <time>2021-04-08T08:01:27.000Z</time>
      </trkpt>
      <trkpt lat="47.31285" lon="-2.34541">
        <ele>17.39999961853</ele>
        <time>2021-04-08T08:01:30.000Z</time>
      </trkpt>
      <trkpt lat="47.31287" lon="-2.34566">
        <ele>17.799999237061</ele>
        <time>2021-04-08T08:01:33.000Z</time>
      </trkpt>
      <trkpt lat="47.31288" lon="-2.34574">
        <ele>18.200000762939</ele>
        <time>2021-04-08T08:01:34.000Z</time>
      </trkpt>
      <trkpt lat="47.31289" lon="-2.34583">
        <ele>18.60000038147</ele>
        <time>2021-04-08T08:01:35.000Z</time>
      </trkpt>
      <trkpt lat="47.31289" lon="-2.34591">
        <ele>19</ele>
        <time>2021-04-08T08:01:36.000Z</time>
      </trkpt>
      <trkpt lat="47.3129" lon="-2.346">
        <ele>19.39999961853</ele>
        <time>2021-04-08T08:01:37.000Z</time>
      </trkpt>
      <trkpt lat="47.31291" lon="-2.34608">
        <ele>19.39999961853</ele>
        <time>2021-04-08T08:01:38.000Z</time>
      </trkpt>
      <trkpt lat="47.31294" lon="-2.34646">
        <ele>20</ele>
        <time>2021-04-08T08:01:43.000Z</time>
      </trkpt>
      <trkpt lat="47.31295" lon="-2.34652">
        <ele>20.39999961853</ele>
        <time>2021-04-08T08:01:44.000Z</time>
      </trkpt>
      <trkpt lat="47.31295" lon="-2.34658">
        <ele>20.799999237061</ele>
        <time>2021-04-08T08:01:45.000Z</time>
      </trkpt>
      <trkpt lat="47.31295" lon="-2.34664">
        <ele>21.200000762939</ele>
        <time>2021-04-08T08:01:46.000Z</time>
      </trkpt>
      <trkpt lat="47.31294" lon="-2.34671">
        <ele>21.60000038147</ele>
        <time>2021-04-08T08:01:47.000Z</time>
      </trkpt>
      <trkpt lat="47.31293" lon="-2.34678">
        <ele>21.60000038147</ele>
        <time>2021-04-08T08:01:48.000Z</time>
      </trkpt>
      <trkpt lat="47.31283" lon="-2.34694">
        <ele>21.60000038147</ele>
        <time>2021-04-08T08:01:51.000Z</time>
      </trkpt>
      <trkpt lat="47.31281" lon="-2.34701">
        <ele>21.60000038147</ele>
        <time>2021-04-08T08:01:52.000Z</time>
      </trkpt>
      <trkpt lat="47.31281" lon="-2.34724">
        <ele>22</ele>
        <time>2021-04-08T08:01:55.000Z</time>
      </trkpt>
      <trkpt lat="47.31282" lon="-2.34732">
        <ele>22.39999961853</ele>
        <time>2021-04-08T08:01:56.000Z</time>
      </trkpt>
      <trkpt lat="47.31283" lon="-2.3474">
        <ele>22.799999237061</ele>
        <time>2021-04-08T08:01:57.000Z</time>
      </trkpt>
      <trkpt lat="47.31284" lon="-2.34748">
        <ele>23.200000762939</ele>
        <time>2021-04-08T08:01:58.000Z</time>
      </trkpt>
      <trkpt lat="47.31286" lon="-2.34756">
        <ele>23.60000038147</ele>
        <time>2021-04-08T08:01:59.000Z</time>
      </trkpt>
      <trkpt lat="47.3129" lon="-2.3478">
        <ele>23.60000038147</ele>
        <time>2021-04-08T08:02:02.000Z</time>
      </trkpt>
      <trkpt lat="47.31302" lon="-2.34846">
        <ele>23.60000038147</ele>
        <time>2021-04-08T08:02:10.000Z</time>
      </trkpt>
      <trkpt lat="47.31321" lon="-2.34915">
        <ele>23.60000038147</ele>
        <time>2021-04-08T08:02:18.000Z</time>
      </trkpt>
      <trkpt lat="47.31341" lon="-2.34991">
        <ele>23.60000038147</ele>
        <time>2021-04-08T08:02:26.000Z</time>
      </trkpt>
      <trkpt lat="47.31345" lon="-2.35027">
        <ele>23.60000038147</ele>
        <time>2021-04-08T08:02:30.000Z</time>
      </trkpt>
      <trkpt lat="47.31345" lon="-2.35036">
        <ele>23.60000038147</ele>
        <time>2021-04-08T08:02:31.000Z</time>
      </trkpt>
      <trkpt lat="47.31345" lon="-2.35125">
        <ele>23.60000038147</ele>
        <time>2021-04-08T08:02:40.000Z</time>
      </trkpt>
      <trkpt lat="47.31344" lon="-2.35135">
        <ele>23.60000038147</ele>
        <time>2021-04-08T08:02:41.000Z</time>
      </trkpt>
      <trkpt lat="47.31341" lon="-2.35224">
        <ele>23.60000038147</ele>
        <time>2021-04-08T08:02:50.000Z</time>
      </trkpt>
      <trkpt lat="47.31339" lon="-2.35295">
        <ele>23.60000038147</ele>
        <time>2021-04-08T08:02:57.000Z</time>
      </trkpt>
      <trkpt lat="47.31337" lon="-2.35367">
        <ele>23.60000038147</ele>
        <time>2021-04-08T08:03:04.000Z</time>
      </trkpt>
      <trkpt lat="47.31335" lon="-2.35428">
        <ele>23.60000038147</ele>
        <time>2021-04-08T08:03:10.000Z</time>
      </trkpt>
      <trkpt lat="47.31335" lon="-2.35496">
        <ele>23.60000038147</ele>
        <time>2021-04-08T08:03:17.000Z</time>
      </trkpt>
      <trkpt lat="47.31332" lon="-2.35545">
        <ele>23.60000038147</ele>
        <time>2021-04-08T08:03:22.000Z</time>
      </trkpt>
      <trkpt lat="47.31329" lon="-2.35563">
        <ele>23.60000038147</ele>
        <time>2021-04-08T08:03:24.000Z</time>
      </trkpt>
      <trkpt lat="47.31329" lon="-2.35572">
        <ele>23.60000038147</ele>
        <time>2021-04-08T08:03:25.000Z</time>
      </trkpt>
      <trkpt lat="47.3133" lon="-2.35598">
        <ele>24</ele>
        <time>2021-04-08T08:03:28.000Z</time>
      </trkpt>
      <trkpt lat="47.31331" lon="-2.35606">
        <ele>24.39999961853</ele>
        <time>2021-04-08T08:03:29.000Z</time>
      </trkpt>
      <trkpt lat="47.31331" lon="-2.35615">
        <ele>25</ele>
        <time>2021-04-08T08:03:30.000Z</time>
      </trkpt>
      <trkpt lat="47.31331" lon="-2.35623">
        <ele>25.39999961853</ele>
        <time>2021-04-08T08:03:31.000Z</time>
      </trkpt>
      <trkpt lat="47.31332" lon="-2.35631">
        <ele>25.799999237061</ele>
        <time>2021-04-08T08:03:32.000Z</time>
      </trkpt>
      <trkpt lat="47.31334" lon="-2.35656">
        <ele>25.799999237061</ele>
        <time>2021-04-08T08:03:35.000Z</time>
      </trkpt>
      <trkpt lat="47.31334" lon="-2.35673">
        <ele>25.799999237061</ele>
        <time>2021-04-08T08:03:37.000Z</time>
      </trkpt>
      <trkpt lat="47.31333" lon="-2.35707">
        <ele>25.799999237061</ele>
        <time>2021-04-08T08:03:41.000Z</time>
      </trkpt>
      <trkpt lat="47.31333" lon="-2.35741">
        <ele>25.799999237061</ele>
        <time>2021-04-08T08:03:45.000Z</time>
      </trkpt>
      <trkpt lat="47.31333" lon="-2.3575">
        <ele>25.799999237061</ele>
        <time>2021-04-08T08:03:46.000Z</time>
      </trkpt>
      <trkpt lat="47.31333" lon="-2.35767">
        <ele>25.799999237061</ele>
        <time>2021-04-08T08:03:48.000Z</time>
      </trkpt>
      <trkpt lat="47.31336" lon="-2.35792">
        <ele>25.799999237061</ele>
        <time>2021-04-08T08:03:51.000Z</time>
      </trkpt>
      <trkpt lat="47.31342" lon="-2.35852">
        <ele>25.799999237061</ele>
        <time>2021-04-08T08:03:58.000Z</time>
      </trkpt>
      <trkpt lat="47.31355" lon="-2.35888">
        <ele>25.799999237061</ele>
        <time>2021-04-08T08:04:02.000Z</time>
      </trkpt>
      <trkpt lat="47.31375" lon="-2.35926">
        <ele>25.39999961853</ele>
        <time>2021-04-08T08:04:07.000Z</time>
      </trkpt>
      <trkpt lat="47.31379" lon="-2.35933">
        <ele>25</ele>
        <time>2021-04-08T08:04:08.000Z</time>
      </trkpt>
      <trkpt lat="47.31383" lon="-2.3594">
        <ele>24.60000038147</ele>
        <time>2021-04-08T08:04:09.000Z</time>
      </trkpt>
      <trkpt lat="47.31387" lon="-2.35947">
        <ele>24.200000762939</ele>
        <time>2021-04-08T08:04:10.000Z</time>
      </trkpt>
      <trkpt lat="47.31391" lon="-2.35954">
        <ele>23.799999237061</ele>
        <time>2021-04-08T08:04:11.000Z</time>
      </trkpt>
      <trkpt lat="47.31395" lon="-2.35961">
        <ele>23.799999237061</ele>
        <time>2021-04-08T08:04:12.000Z</time>
      </trkpt>
      <trkpt lat="47.314" lon="-2.35976">
        <ele>23.799999237061</ele>
        <time>2021-04-08T08:04:14.000Z</time>
      </trkpt>
      <trkpt lat="47.31407" lon="-2.35996">
        <ele>23.799999237061</ele>
        <time>2021-04-08T08:04:17.000Z</time>
      </trkpt>
      <trkpt lat="47.31421" lon="-2.36034">
        <ele>24.200000762939</ele>
        <time>2021-04-08T08:04:23.000Z</time>
      </trkpt>
      <trkpt lat="47.31423" lon="-2.3604">
        <ele>24.60000038147</ele>
        <time>2021-04-08T08:04:24.000Z</time>
      </trkpt>
      <trkpt lat="47.31425" lon="-2.36047">
        <ele>25</ele>
        <time>2021-04-08T08:04:25.000Z</time>
      </trkpt>
      <trkpt lat="47.31427" lon="-2.36054">
        <ele>25.39999961853</ele>
        <time>2021-04-08T08:04:26.000Z</time>
      </trkpt>
      <trkpt lat="47.31429" lon="-2.3606">
        <ele>25.799999237061</ele>
        <time>2021-04-08T08:04:27.000Z</time>
      </trkpt>
      <trkpt lat="47.31432" lon="-2.36073">
        <ele>25.799999237061</ele>
        <time>2021-04-08T08:04:29.000Z</time>
      </trkpt>
      <trkpt lat="47.31442" lon="-2.36104">
        <ele>25.799999237061</ele>
        <time>2021-04-08T08:04:34.000Z</time>
      </trkpt>
      <trkpt lat="47.31443" lon="-2.36109">
        <ele>26.39999961853</ele>
        <time>2021-04-08T08:04:35.000Z</time>
      </trkpt>
      <trkpt lat="47.31446" lon="-2.36115">
        <ele>26.799999237061</ele>
        <time>2021-04-08T08:04:36.000Z</time>
      </trkpt>
      <trkpt lat="47.31448" lon="-2.36121">
        <ele>27.200000762939</ele>
        <time>2021-04-08T08:04:37.000Z</time>
      </trkpt>
      <trkpt lat="47.3145" lon="-2.36128">
        <ele>27.60000038147</ele>
        <time>2021-04-08T08:04:38.000Z</time>
      </trkpt>
      <trkpt lat="47.31452" lon="-2.36134">
        <ele>28</ele>
        <time>2021-04-08T08:04:39.000Z</time>
      </trkpt>
      <trkpt lat="47.31453" lon="-2.36141">
        <ele>28</ele>
        <time>2021-04-08T08:04:40.000Z</time>
      </trkpt>
      <trkpt lat="47.31462" lon="-2.36165">
        <ele>28</ele>
        <time>2021-04-08T08:04:44.000Z</time>
      </trkpt>
      <trkpt lat="47.31466" lon="-2.36167">
        <ele>28</ele>
        <time>2021-04-08T08:04:45.000Z</time>
      </trkpt>
      <trkpt lat="47.31476" lon="-2.36161">
        <ele>28</ele>
        <time>2021-04-08T08:04:48.000Z</time>
      </trkpt>
      <trkpt lat="47.31482" lon="-2.36154">
        <ele>28</ele>
        <time>2021-04-08T08:04:50.000Z</time>
      </trkpt>
      <trkpt lat="47.31485" lon="-2.36149">
        <ele>28</ele>
        <time>2021-04-08T08:04:51.000Z</time>
      </trkpt>
      <trkpt lat="47.31492" lon="-2.3614">
        <ele>28</ele>
        <time>2021-04-08T08:04:53.000Z</time>
      </trkpt>
      <trkpt lat="47.31508" lon="-2.36123">
        <ele>28</ele>
        <time>2021-04-08T08:04:57.000Z</time>
      </trkpt>
      <trkpt lat="47.31512" lon="-2.36119">
        <ele>28</ele>
        <time>2021-04-08T08:04:58.000Z</time>
      </trkpt>
      <trkpt lat="47.31536" lon="-2.36091">
        <ele>28</ele>
        <time>2021-04-08T08:05:04.000Z</time>
      </trkpt>
      <trkpt lat="47.31547" lon="-2.36078">
        <ele>28</ele>
        <time>2021-04-08T08:05:07.000Z</time>
      </trkpt>
      <trkpt lat="47.31554" lon="-2.3607">
        <ele>28</ele>
        <time>2021-04-08T08:05:09.000Z</time>
      </trkpt>
      <trkpt lat="47.3158" lon="-2.36048">
        <ele>28</ele>
        <time>2021-04-08T08:05:15.000Z</time>
      </trkpt>
      <trkpt lat="47.31607" lon="-2.36022">
        <ele>28</ele>
        <time>2021-04-08T08:05:22.000Z</time>
      </trkpt>
      <trkpt lat="47.31627" lon="-2.36">
        <ele>27.60000038147</ele>
        <time>2021-04-08T08:05:27.000Z</time>
      </trkpt>
      <trkpt lat="47.31631" lon="-2.35996">
        <ele>27.200000762939</ele>
        <time>2021-04-08T08:05:28.000Z</time>
      </trkpt>
      <trkpt lat="47.31635" lon="-2.35993">
        <ele>26.200000762939</ele>
        <time>2021-04-08T08:05:29.000Z</time>
      </trkpt>
      <trkpt lat="47.31639" lon="-2.35989">
        <ele>25.799999237061</ele>
        <time>2021-04-08T08:05:30.000Z</time>
      </trkpt>
      <trkpt lat="47.31661" lon="-2.35969">
        <ele>25.799999237061</ele>
        <time>2021-04-08T08:05:35.000Z</time>
      </trkpt>
      <trkpt lat="47.31666" lon="-2.35966">
        <ele>25.799999237061</ele>
        <time>2021-04-08T08:05:36.000Z</time>
      </trkpt>
      <trkpt lat="47.31688" lon="-2.35953">
        <ele>25.799999237061</ele>
        <time>2021-04-08T08:05:40.000Z</time>
      </trkpt>
      <trkpt lat="47.31694" lon="-2.35949">
        <ele>25.799999237061</ele>
        <time>2021-04-08T08:05:41.000Z</time>
      </trkpt>
      <trkpt lat="47.31727" lon="-2.35931">
        <ele>25.39999961853</ele>
        <time>2021-04-08T08:05:47.000Z</time>
      </trkpt>
      <trkpt lat="47.31733" lon="-2.35927">
        <ele>25</ele>
        <time>2021-04-08T08:05:48.000Z</time>
      </trkpt>
      <trkpt lat="47.31738" lon="-2.35924">
        <ele>24.60000038147</ele>
        <time>2021-04-08T08:05:49.000Z</time>
      </trkpt>
      <trkpt lat="47.31744" lon="-2.3592">
        <ele>24.200000762939</ele>
        <time>2021-04-08T08:05:50.000Z</time>
      </trkpt>
      <trkpt lat="47.31749" lon="-2.35918">
        <ele>23.799999237061</ele>
        <time>2021-04-08T08:05:51.000Z</time>
      </trkpt>
      <trkpt lat="47.31753" lon="-2.35916">
        <ele>23.799999237061</ele>
        <time>2021-04-08T08:05:52.000Z</time>
      </trkpt>
      <trkpt lat="47.31758" lon="-2.35915">
        <ele>23.799999237061</ele>
        <time>2021-04-08T08:05:53.000Z</time>
      </trkpt>
      <trkpt lat="47.3177" lon="-2.3591">
        <ele>23.39999961853</ele>
        <time>2021-04-08T08:05:56.000Z</time>
      </trkpt>
      <trkpt lat="47.31774" lon="-2.35909">
        <ele>23</ele>
        <time>2021-04-08T08:05:57.000Z</time>
      </trkpt>
      <trkpt lat="47.31777" lon="-2.35906">
        <ele>22.60000038147</ele>
        <time>2021-04-08T08:05:58.000Z</time>
      </trkpt>
      <trkpt lat="47.3178" lon="-2.35904">
        <ele>22.200000762939</ele>
        <time>2021-04-08T08:05:59.000Z</time>
      </trkpt>
      <trkpt lat="47.31784" lon="-2.35903">
        <ele>21.799999237061</ele>
        <time>2021-04-08T08:06:00.000Z</time>
      </trkpt>
      <trkpt lat="47.31788" lon="-2.35901">
        <ele>21.799999237061</ele>
        <time>2021-04-08T08:06:01.000Z</time>
      </trkpt>
      <trkpt lat="47.31796" lon="-2.35897">
        <ele>21.799999237061</ele>
        <time>2021-04-08T08:06:03.000Z</time>
      </trkpt>
      <trkpt lat="47.31812" lon="-2.35887">
        <ele>21.799999237061</ele>
        <time>2021-04-08T08:06:07.000Z</time>
      </trkpt>
      <trkpt lat="47.31824" lon="-2.35872">
        <ele>21.799999237061</ele>
        <time>2021-04-08T08:06:12.000Z</time>
      </trkpt>
      <trkpt lat="47.31822" lon="-2.3586">
        <ele>21.799999237061</ele>
        <time>2021-04-08T08:06:16.000Z</time>
      </trkpt>
      <trkpt lat="47.31816" lon="-2.35844">
        <ele>21.799999237061</ele>
        <time>2021-04-08T08:06:21.000Z</time>
      </trkpt>
      <trkpt lat="47.31813" lon="-2.35841">
        <ele>21.799999237061</ele>
        <time>2021-04-08T08:06:22.000Z</time>
      </trkpt>
      <trkpt lat="47.31803" lon="-2.35829">
        <ele>21.799999237061</ele>
        <time>2021-04-08T08:06:26.000Z</time>
      </trkpt>
      <trkpt lat="47.31785" lon="-2.35807">
        <ele>21.799999237061</ele>
        <time>2021-04-08T08:06:32.000Z</time>
      </trkpt>
      <trkpt lat="47.3178" lon="-2.35786">
        <ele>21.799999237061</ele>
        <time>2021-04-08T08:06:36.000Z</time>
      </trkpt>
      <trkpt lat="47.31779" lon="-2.35749">
        <ele>21.799999237061</ele>
        <time>2021-04-08T08:06:41.000Z</time>
      </trkpt>
      <trkpt lat="47.3178" lon="-2.35702">
        <ele>21.799999237061</ele>
        <time>2021-04-08T08:06:46.000Z</time>
      </trkpt>
      <trkpt lat="47.3178" lon="-2.35691">
        <ele>21.799999237061</ele>
        <time>2021-04-08T08:06:47.000Z</time>
      </trkpt>
      <trkpt lat="47.31781" lon="-2.35662">
        <ele>21.200000762939</ele>
        <time>2021-04-08T08:06:50.000Z</time>
      </trkpt>
      <trkpt lat="47.31782" lon="-2.35653">
        <ele>20.799999237061</ele>
        <time>2021-04-08T08:06:51.000Z</time>
      </trkpt>
      <trkpt lat="47.31784" lon="-2.35645">
        <ele>20.200000762939</ele>
        <time>2021-04-08T08:06:52.000Z</time>
      </trkpt>
      <trkpt lat="47.31785" lon="-2.35637">
        <ele>19.799999237061</ele>
        <time>2021-04-08T08:06:53.000Z</time>
      </trkpt>
      <trkpt lat="47.31787" lon="-2.3563">
        <ele>19.39999961853</ele>
        <time>2021-04-08T08:06:54.000Z</time>
      </trkpt>
      <trkpt lat="47.31793" lon="-2.35615">
        <ele>19.39999961853</ele>
        <time>2021-04-08T08:06:57.000Z</time>
      </trkpt>
      <trkpt lat="47.31797" lon="-2.35608">
        <ele>18.799999237061</ele>
        <time>2021-04-08T08:06:58.000Z</time>
      </trkpt>
      <trkpt lat="47.318" lon="-2.35603">
        <ele>18.39999961853</ele>
        <time>2021-04-08T08:06:59.000Z</time>
      </trkpt>
      <trkpt lat="47.31803" lon="-2.35599">
        <ele>18</ele>
        <time>2021-04-08T08:07:00.000Z</time>
      </trkpt>
      <trkpt lat="47.31805" lon="-2.35594">
        <ele>17.60000038147</ele>
        <time>2021-04-08T08:07:01.000Z</time>
      </trkpt>
      <trkpt lat="47.31807" lon="-2.3559">
        <ele>17.200000762939</ele>
        <time>2021-04-08T08:07:02.000Z</time>
      </trkpt>
      <trkpt lat="47.31813" lon="-2.35582">
        <ele>17.200000762939</ele>
        <time>2021-04-08T08:07:05.000Z</time>
      </trkpt>
      <trkpt lat="47.31826" lon="-2.35571">
        <ele>17.200000762939</ele>
        <time>2021-04-08T08:07:10.000Z</time>
      </trkpt>
      <trkpt lat="47.31828" lon="-2.35569">
        <ele>16.799999237061</ele>
        <time>2021-04-08T08:07:11.000Z</time>
      </trkpt>
      <trkpt lat="47.3183" lon="-2.35566">
        <ele>16.39999961853</ele>
        <time>2021-04-08T08:07:12.000Z</time>
      </trkpt>
      <trkpt lat="47.31831" lon="-2.35563">
        <ele>16</ele>
        <time>2021-04-08T08:07:13.000Z</time>
      </trkpt>
      <trkpt lat="47.31831" lon="-2.35559">
        <ele>15.60000038147</ele>
        <time>2021-04-08T08:07:14.000Z</time>
      </trkpt>
      <trkpt lat="47.31832" lon="-2.35555">
        <ele>15.199999809265</ele>
        <time>2021-04-08T08:07:15.000Z</time>
      </trkpt>
      <trkpt lat="47.31833" lon="-2.3555">
        <ele>15.199999809265</ele>
        <time>2021-04-08T08:07:17.000Z</time>
      </trkpt>
      <trkpt lat="47.31831" lon="-2.35543">
        <ele>15.199999809265</ele>
        <time>2021-04-08T08:07:19.000Z</time>
      </trkpt>
      <trkpt lat="47.31821" lon="-2.35511">
        <ele>15.199999809265</ele>
        <time>2021-04-08T08:07:26.000Z</time>
      </trkpt>
      <trkpt lat="47.31808" lon="-2.35481">
        <ele>15.199999809265</ele>
        <time>2021-04-08T08:07:33.000Z</time>
      </trkpt>
      <trkpt lat="47.31797" lon="-2.35455">
        <ele>15.199999809265</ele>
        <time>2021-04-08T08:07:40.000Z</time>
      </trkpt>
      <trkpt lat="47.31783" lon="-2.35432">
        <ele>15.199999809265</ele>
        <time>2021-04-08T08:07:45.000Z</time>
      </trkpt>
      <trkpt lat="47.31777" lon="-2.35425">
        <ele>15.60000038147</ele>
        <time>2021-04-08T08:07:47.000Z</time>
      </trkpt>
      <trkpt lat="47.31775" lon="-2.35421">
        <ele>16</ele>
        <time>2021-04-08T08:07:48.000Z</time>
      </trkpt>
      <trkpt lat="47.31772" lon="-2.35417">
        <ele>16.60000038147</ele>
        <time>2021-04-08T08:07:49.000Z</time>
      </trkpt>
      <trkpt lat="47.31769" lon="-2.35412">
        <ele>17</ele>
        <time>2021-04-08T08:07:50.000Z</time>
      </trkpt>
      <trkpt lat="47.31767" lon="-2.35407">
        <ele>17.39999961853</ele>
        <time>2021-04-08T08:07:51.000Z</time>
      </trkpt>
      <trkpt lat="47.31754" lon="-2.35377">
        <ele>17.39999961853</ele>
        <time>2021-04-08T08:07:57.000Z</time>
      </trkpt>
      <trkpt lat="47.31762" lon="-2.35364">
        <ele>17.39999961853</ele>
        <time>2021-04-08T08:08:00.000Z</time>
      </trkpt>
      <trkpt lat="47.31776" lon="-2.35351">
        <ele>17.39999961853</ele>
        <time>2021-04-08T08:08:04.000Z</time>
      </trkpt>
      <trkpt lat="47.31784" lon="-2.35344">
        <ele>17.39999961853</ele>
        <time>2021-04-08T08:08:06.000Z</time>
      </trkpt>
      <trkpt lat="47.31789" lon="-2.35341">
        <ele>17.39999961853</ele>
        <time>2021-04-08T08:08:07.000Z</time>
      </trkpt>
      <trkpt lat="47.31812" lon="-2.35324">
        <ele>17.39999961853</ele>
        <time>2021-04-08T08:08:12.000Z</time>
      </trkpt>
      <trkpt lat="47.3184" lon="-2.35301">
        <ele>17.39999961853</ele>
        <time>2021-04-08T08:08:17.000Z</time>
      </trkpt>
      <trkpt lat="47.31874" lon="-2.35275">
        <ele>17.39999961853</ele>
        <time>2021-04-08T08:08:23.000Z</time>
      </trkpt>
      <trkpt lat="47.3188" lon="-2.3527">
        <ele>17</ele>
        <time>2021-04-08T08:08:24.000Z</time>
      </trkpt>
      <trkpt lat="47.31886" lon="-2.35265">
        <ele>16.60000038147</ele>
        <time>2021-04-08T08:08:25.000Z</time>
      </trkpt>
      <trkpt lat="47.31891" lon="-2.3526">
        <ele>16.200000762939</ele>
        <time>2021-04-08T08:08:26.000Z</time>
      </trkpt>
      <trkpt lat="47.31897" lon="-2.35254">
        <ele>15.60000038147</ele>
        <time>2021-04-08T08:08:27.000Z</time>
      </trkpt>
      <trkpt lat="47.31902" lon="-2.35249">
        <ele>15.199999809265</ele>
        <time>2021-04-08T08:08:28.000Z</time>
      </trkpt>
      <trkpt lat="47.31907" lon="-2.35243">
        <ele>15.199999809265</ele>
        <time>2021-04-08T08:08:29.000Z</time>
      </trkpt>
      <trkpt lat="47.31937" lon="-2.35213">
        <ele>15.199999809265</ele>
        <time>2021-04-08T08:08:35.000Z</time>
      </trkpt>
      <trkpt lat="47.31971" lon="-2.35177">
        <ele>14.800000190735</ele>
        <time>2021-04-08T08:08:42.000Z</time>
      </trkpt>
      <trkpt lat="47.31976" lon="-2.35172">
        <ele>14.39999961853</ele>
        <time>2021-04-08T08:08:43.000Z</time>
      </trkpt>
      <trkpt lat="47.31981" lon="-2.35168">
        <ele>14</ele>
        <time>2021-04-08T08:08:44.000Z</time>
      </trkpt>
      <trkpt lat="47.31986" lon="-2.35163">
        <ele>13.60000038147</ele>
        <time>2021-04-08T08:08:45.000Z</time>
      </trkpt>
      <trkpt lat="47.3199" lon="-2.35158">
        <ele>13.199999809265</ele>
        <time>2021-04-08T08:08:46.000Z</time>
      </trkpt>
      <trkpt lat="47.32003" lon="-2.35143">
        <ele>13.199999809265</ele>
        <time>2021-04-08T08:08:49.000Z</time>
      </trkpt>
      <trkpt lat="47.32023" lon="-2.35123">
        <ele>13.199999809265</ele>
        <time>2021-04-08T08:08:53.000Z</time>
      </trkpt>
      <trkpt lat="47.32028" lon="-2.35109">
        <ele>13.199999809265</ele>
        <time>2021-04-08T08:08:55.000Z</time>
      </trkpt>
      <trkpt lat="47.32027" lon="-2.35079">
        <ele>13.199999809265</ele>
        <time>2021-04-08T08:08:59.000Z</time>
      </trkpt>
      <trkpt lat="47.32027" lon="-2.35072">
        <ele>13.199999809265</ele>
        <time>2021-04-08T08:09:00.000Z</time>
      </trkpt>
      <trkpt lat="47.32031" lon="-2.35061">
        <ele>13.199999809265</ele>
        <time>2021-04-08T08:09:02.000Z</time>
      </trkpt>
      <trkpt lat="47.32044" lon="-2.35057">
        <ele>13.199999809265</ele>
        <time>2021-04-08T08:09:05.000Z</time>
      </trkpt>
      <trkpt lat="47.32054" lon="-2.35058">
        <ele>13.199999809265</ele>
        <time>2021-04-08T08:09:07.000Z</time>
      </trkpt>
      <trkpt lat="47.3206" lon="-2.35058">
        <ele>13.199999809265</ele>
        <time>2021-04-08T08:09:08.000Z</time>
      </trkpt>
      <trkpt lat="47.32077" lon="-2.35058">
        <ele>13.199999809265</ele>
        <time>2021-04-08T08:09:11.000Z</time>
      </trkpt>
      <trkpt lat="47.32116" lon="-2.35059">
        <ele>13.199999809265</ele>
        <time>2021-04-08T08:09:18.000Z</time>
      </trkpt>
      <trkpt lat="47.32157" lon="-2.35056">
        <ele>13.199999809265</ele>
        <time>2021-04-08T08:09:26.000Z</time>
      </trkpt>
      <trkpt lat="47.32192" lon="-2.35052">
        <ele>13.199999809265</ele>
        <time>2021-04-08T08:09:33.000Z</time>
      </trkpt>
      <trkpt lat="47.32221" lon="-2.35047">
        <ele>13.199999809265</ele>
        <time>2021-04-08T08:09:39.000Z</time>
      </trkpt>
      <trkpt lat="47.32246" lon="-2.35046">
        <ele>13.199999809265</ele>
        <time>2021-04-08T08:09:44.000Z</time>
      </trkpt>
      <trkpt lat="47.32253" lon="-2.35045">
        <ele>13.199999809265</ele>
        <time>2021-04-08T08:09:46.000Z</time>
      </trkpt>
      <trkpt lat="47.32267" lon="-2.35043">
        <ele>13.199999809265</ele>
        <time>2021-04-08T08:09:49.000Z</time>
      </trkpt>
      <trkpt lat="47.32278" lon="-2.35043">
        <ele>13.199999809265</ele>
        <time>2021-04-08T08:09:51.000Z</time>
      </trkpt>
      <trkpt lat="47.32307" lon="-2.35043">
        <ele>13.60000038147</ele>
        <time>2021-04-08T08:09:57.000Z</time>
      </trkpt>
      <trkpt lat="47.32311" lon="-2.35043">
        <ele>14</ele>
        <time>2021-04-08T08:09:58.000Z</time>
      </trkpt>
      <trkpt lat="47.32316" lon="-2.35042">
        <ele>14.39999961853</ele>
        <time>2021-04-08T08:09:59.000Z</time>
      </trkpt>
      <trkpt lat="47.3232" lon="-2.35042">
        <ele>14.800000190735</ele>
        <time>2021-04-08T08:10:00.000Z</time>
      </trkpt>
      <trkpt lat="47.32325" lon="-2.35042">
        <ele>15.199999809265</ele>
        <time>2021-04-08T08:10:01.000Z</time>
      </trkpt>
      <trkpt lat="47.3233" lon="-2.35043">
        <ele>15.199999809265</ele>
        <time>2021-04-08T08:10:02.000Z</time>
      </trkpt>
      <trkpt lat="47.3235" lon="-2.35044">
        <ele>15.199999809265</ele>
        <time>2021-04-08T08:10:06.000Z</time>
      </trkpt>
      <trkpt lat="47.32369" lon="-2.35044">
        <ele>15.199999809265</ele>
        <time>2021-04-08T08:10:11.000Z</time>
      </trkpt>
      <trkpt lat="47.32394" lon="-2.35045">
        <ele>15.199999809265</ele>
        <time>2021-04-08T08:10:17.000Z</time>
      </trkpt>
      <trkpt lat="47.32419" lon="-2.35042">
        <ele>15.199999809265</ele>
        <time>2021-04-08T08:10:23.000Z</time>
      </trkpt>
      <trkpt lat="47.32423" lon="-2.35042">
        <ele>15.60000038147</ele>
        <time>2021-04-08T08:10:24.000Z</time>
      </trkpt>
      <trkpt lat="47.32428" lon="-2.35041">
        <ele>16</ele>
        <time>2021-04-08T08:10:25.000Z</time>
      </trkpt>
      <trkpt lat="47.32432" lon="-2.3504">
        <ele>16.799999237061</ele>
        <time>2021-04-08T08:10:26.000Z</time>
      </trkpt>
      <trkpt lat="47.32437" lon="-2.35039">
        <ele>17.200000762939</ele>
        <time>2021-04-08T08:10:27.000Z</time>
      </trkpt>
      <trkpt lat="47.32446" lon="-2.35037">
        <ele>17.200000762939</ele>
        <time>2021-04-08T08:10:29.000Z</time>
      </trkpt>
      <trkpt lat="47.32484" lon="-2.35031">
        <ele>17.200000762939</ele>
        <time>2021-04-08T08:10:36.000Z</time>
      </trkpt>
      <trkpt lat="47.32498" lon="-2.35027">
        <ele>17.200000762939</ele>
        <time>2021-04-08T08:10:39.000Z</time>
      </trkpt>
      <trkpt lat="47.32508" lon="-2.35025">
        <ele>17.200000762939</ele>
        <time>2021-04-08T08:10:41.000Z</time>
      </trkpt>
      <trkpt lat="47.32518" lon="-2.35022">
        <ele>17.200000762939</ele>
        <time>2021-04-08T08:10:43.000Z</time>
      </trkpt>
      <trkpt lat="47.32553" lon="-2.35011">
        <ele>17.200000762939</ele>
        <time>2021-04-08T08:10:50.000Z</time>
      </trkpt>
      <trkpt lat="47.3258" lon="-2.34996">
        <ele>17.200000762939</ele>
        <time>2021-04-08T08:10:56.000Z</time>
      </trkpt>
      <trkpt lat="47.32598" lon="-2.3499">
        <ele>16.799999237061</ele>
        <time>2021-04-08T08:11:00.000Z</time>
      </trkpt>
      <trkpt lat="47.32603" lon="-2.34988">
        <ele>16.39999961853</ele>
        <time>2021-04-08T08:11:01.000Z</time>
      </trkpt>
      <trkpt lat="47.32608" lon="-2.34985">
        <ele>16</ele>
        <time>2021-04-08T08:11:02.000Z</time>
      </trkpt>
      <trkpt lat="47.32612" lon="-2.34983">
        <ele>15.60000038147</ele>
        <time>2021-04-08T08:11:03.000Z</time>
      </trkpt>
      <trkpt lat="47.32615" lon="-2.3498">
        <ele>15.199999809265</ele>
        <time>2021-04-08T08:11:04.000Z</time>
      </trkpt>
      <trkpt lat="47.32624" lon="-2.34975">
        <ele>15.199999809265</ele>
        <time>2021-04-08T08:11:06.000Z</time>
      </trkpt>
      <trkpt lat="47.32646" lon="-2.34964">
        <ele>15.199999809265</ele>
        <time>2021-04-08T08:11:12.000Z</time>
      </trkpt>
      <trkpt lat="47.32651" lon="-2.34963">
        <ele>15.199999809265</ele>
        <time>2021-04-08T08:11:16.000Z</time>
      </trkpt>
      <trkpt lat="47.32654" lon="-2.34961">
        <ele>15.199999809265</ele>
        <time>2021-04-08T08:11:24.000Z</time>
      </trkpt>
      <trkpt lat="47.32658" lon="-2.34958">
        <ele>15.199999809265</ele>
        <time>2021-04-08T08:11:27.000Z</time>
      </trkpt>
      <trkpt lat="47.3266" lon="-2.34958">
        <ele>15.199999809265</ele>
        <time>2021-04-08T08:11:29.000Z</time>
      </trkpt>
      <trkpt lat="47.32664" lon="-2.34957">
        <ele>15.199999809265</ele>
        <time>2021-04-08T08:11:33.000Z</time>
      </trkpt>
      <trkpt lat="47.32666" lon="-2.34956">
        <ele>15.199999809265</ele>
        <time>2021-04-08T08:11:37.000Z</time>
      </trkpt>
      <trkpt lat="47.3267" lon="-2.34953">
        <ele>13</ele>
        <time>2021-04-08T08:12:44.000Z</time>
      </trkpt>
      <trkpt lat="47.32672" lon="-2.34951">
        <ele>13</ele>
        <time>2021-04-08T08:12:45.000Z</time>
      </trkpt>
      <trkpt lat="47.32688" lon="-2.34936">
        <ele>13</ele>
        <time>2021-04-08T08:12:51.000Z</time>
      </trkpt>
      <trkpt lat="47.3271" lon="-2.34919">
        <ele>13</ele>
        <time>2021-04-08T08:12:57.000Z</time>
      </trkpt>
      <trkpt lat="47.32739" lon="-2.34896">
        <ele>13</ele>
        <time>2021-04-08T08:13:04.000Z</time>
      </trkpt>
      <trkpt lat="47.3277" lon="-2.34873">
        <ele>13</ele>
        <time>2021-04-08T08:13:11.000Z</time>
      </trkpt>
      <trkpt lat="47.32782" lon="-2.34861">
        <ele>13</ele>
        <time>2021-04-08T08:13:14.000Z</time>
      </trkpt>
      <trkpt lat="47.32796" lon="-2.34851">
        <ele>13</ele>
        <time>2021-04-08T08:13:17.000Z</time>
      </trkpt>
      <trkpt lat="47.32827" lon="-2.34827">
        <ele>13</ele>
        <time>2021-04-08T08:13:23.000Z</time>
      </trkpt>
      <trkpt lat="47.32863" lon="-2.34801">
        <ele>13</ele>
        <time>2021-04-08T08:13:30.000Z</time>
      </trkpt>
      <trkpt lat="47.32869" lon="-2.34797">
        <ele>12.60000038147</ele>
        <time>2021-04-08T08:13:31.000Z</time>
      </trkpt>
      <trkpt lat="47.32874" lon="-2.34793">
        <ele>12.199999809265</ele>
        <time>2021-04-08T08:13:32.000Z</time>
      </trkpt>
      <trkpt lat="47.32879" lon="-2.3479">
        <ele>11.800000190735</ele>
        <time>2021-04-08T08:13:33.000Z</time>
      </trkpt>
      <trkpt lat="47.32883" lon="-2.34788">
        <ele>11.39999961853</ele>
        <time>2021-04-08T08:13:34.000Z</time>
      </trkpt>
      <trkpt lat="47.32888" lon="-2.34785">
        <ele>11</ele>
        <time>2021-04-08T08:13:35.000Z</time>
      </trkpt>
      <trkpt lat="47.32891" lon="-2.34784">
        <ele>11</ele>
        <time>2021-04-08T08:13:36.000Z</time>
      </trkpt>
      <trkpt lat="47.32893" lon="-2.34783">
        <ele>11</ele>
        <time>2021-04-08T08:13:39.000Z</time>
      </trkpt>
      <trkpt lat="47.329" lon="-2.34783">
        <ele>11</ele>
        <time>2021-04-08T08:13:56.000Z</time>
      </trkpt>
      <trkpt lat="47.32905" lon="-2.34785">
        <ele>11</ele>
        <time>2021-04-08T08:13:58.000Z</time>
      </trkpt>
      <trkpt lat="47.32907" lon="-2.34788">
        <ele>11</ele>
        <time>2021-04-08T08:13:59.000Z</time>
      </trkpt>
      <trkpt lat="47.32912" lon="-2.34797">
        <ele>11</ele>
        <time>2021-04-08T08:14:02.000Z</time>
      </trkpt>
      <trkpt lat="47.32918" lon="-2.34809">
        <ele>10.60000038147</ele>
        <time>2021-04-08T08:14:08.000Z</time>
      </trkpt>
      <trkpt lat="47.32918" lon="-2.34809">
        <ele>8.8000001907349</ele>
        <time>2021-04-08T08:14:09.000Z</time>
      </trkpt>
      <trkpt lat="47.32921" lon="-2.34816">
        <ele>9.8000001907349</ele>
        <time>2021-04-08T08:14:48.000Z</time>
      </trkpt>
      <trkpt lat="47.32924" lon="-2.34823">
        <ele>9.8000001907349</ele>
        <time>2021-04-08T08:14:50.000Z</time>
      </trkpt>
      <trkpt lat="47.32934" lon="-2.34849">
        <ele>9.8000001907349</ele>
        <time>2021-04-08T08:14:57.000Z</time>
      </trkpt>
      <trkpt lat="47.32947" lon="-2.34878">
        <ele>9.8000001907349</ele>
        <time>2021-04-08T08:15:03.000Z</time>
      </trkpt>
      <trkpt lat="47.3295" lon="-2.34884">
        <ele>9.8000001907349</ele>
        <time>2021-04-08T08:15:04.000Z</time>
      </trkpt>
      <trkpt lat="47.32957" lon="-2.34901">
        <ele>9.8000001907349</ele>
        <time>2021-04-08T08:15:07.000Z</time>
      </trkpt>
      <trkpt lat="47.32958" lon="-2.34906">
        <ele>9.8000001907349</ele>
        <time>2021-04-08T08:15:08.000Z</time>
      </trkpt>
      <trkpt lat="47.32964" lon="-2.34925">
        <ele>9.8000001907349</ele>
        <time>2021-04-08T08:15:12.000Z</time>
      </trkpt>
      <trkpt lat="47.32973" lon="-2.34946">
        <ele>9.8000001907349</ele>
        <time>2021-04-08T08:15:16.000Z</time>
      </trkpt>
      <trkpt lat="47.32975" lon="-2.34951">
        <ele>9.8000001907349</ele>
        <time>2021-04-08T08:15:17.000Z</time>
      </trkpt>
      <trkpt lat="47.32984" lon="-2.34977">
        <ele>10.199999809265</ele>
        <time>2021-04-08T08:15:22.000Z</time>
      </trkpt>
      <trkpt lat="47.32986" lon="-2.34981">
        <ele>10.60000038147</ele>
        <time>2021-04-08T08:15:23.000Z</time>
      </trkpt>
      <trkpt lat="47.32988" lon="-2.34985">
        <ele>11</ele>
        <time>2021-04-08T08:15:24.000Z</time>
      </trkpt>
      <trkpt lat="47.32991" lon="-2.34988">
        <ele>11.39999961853</ele>
        <time>2021-04-08T08:15:25.000Z</time>
      </trkpt>
      <trkpt lat="47.32992" lon="-2.34994">
        <ele>11.800000190735</ele>
        <time>2021-04-08T08:15:26.000Z</time>
      </trkpt>
      <trkpt lat="47.32996" lon="-2.35005">
        <ele>11.800000190735</ele>
        <time>2021-04-08T08:15:28.000Z</time>
      </trkpt>
      <trkpt lat="47.33005" lon="-2.3503">
        <ele>11.800000190735</ele>
        <time>2021-04-08T08:15:34.000Z</time>
      </trkpt>
      <trkpt lat="47.33007" lon="-2.35038">
        <ele>11.800000190735</ele>
        <time>2021-04-08T08:15:36.000Z</time>
      </trkpt>
      <trkpt lat="47.33006" lon="-2.35047">
        <ele>11.800000190735</ele>
        <time>2021-04-08T08:15:38.000Z</time>
      </trkpt>
      <trkpt lat="47.3301" lon="-2.35063">
        <ele>12.199999809265</ele>
        <time>2021-04-08T08:15:42.000Z</time>
      </trkpt>
      <trkpt lat="47.33011" lon="-2.35068">
        <ele>12.60000038147</ele>
        <time>2021-04-08T08:15:43.000Z</time>
      </trkpt>
      <trkpt lat="47.33012" lon="-2.35073">
        <ele>13</ele>
        <time>2021-04-08T08:15:44.000Z</time>
      </trkpt>
      <trkpt lat="47.33013" lon="-2.35077">
        <ele>13.39999961853</ele>
        <time>2021-04-08T08:15:45.000Z</time>
      </trkpt>
      <trkpt lat="47.33014" lon="-2.35083">
        <ele>13.800000190735</ele>
        <time>2021-04-08T08:15:46.000Z</time>
      </trkpt>
      <trkpt lat="47.33014" lon="-2.35096">
        <ele>13.800000190735</ele>
        <time>2021-04-08T08:15:48.000Z</time>
      </trkpt>
      <trkpt lat="47.33019" lon="-2.35117">
        <ele>13.800000190735</ele>
        <time>2021-04-08T08:15:52.000Z</time>
      </trkpt>
      <trkpt lat="47.3302" lon="-2.35128">
        <ele>13.800000190735</ele>
        <time>2021-04-08T08:15:54.000Z</time>
      </trkpt>
      <trkpt lat="47.3302" lon="-2.35138">
        <ele>13.800000190735</ele>
        <time>2021-04-08T08:15:56.000Z</time>
      </trkpt>
      <trkpt lat="47.33024" lon="-2.35178">
        <ele>13.800000190735</ele>
        <time>2021-04-08T08:16:02.000Z</time>
      </trkpt>
      <trkpt lat="47.33025" lon="-2.35191">
        <ele>14.199999809265</ele>
        <time>2021-04-08T08:16:04.000Z</time>
      </trkpt>
      <trkpt lat="47.33025" lon="-2.35198">
        <ele>14.800000190735</ele>
        <time>2021-04-08T08:16:05.000Z</time>
      </trkpt>
      <trkpt lat="47.33026" lon="-2.35205">
        <ele>15.199999809265</ele>
        <time>2021-04-08T08:16:06.000Z</time>
      </trkpt>
      <trkpt lat="47.33025" lon="-2.35212">
        <ele>15.60000038147</ele>
        <time>2021-04-08T08:16:07.000Z</time>
      </trkpt>
      <trkpt lat="47.33025" lon="-2.35219">
        <ele>16</ele>
        <time>2021-04-08T08:16:08.000Z</time>
      </trkpt>
      <trkpt lat="47.33026" lon="-2.35232">
        <ele>16</ele>
        <time>2021-04-08T08:16:10.000Z</time>
      </trkpt>
      <trkpt lat="47.33027" lon="-2.35252">
        <ele>16</ele>
        <time>2021-04-08T08:16:13.000Z</time>
      </trkpt>
      <trkpt lat="47.33026" lon="-2.35276">
        <ele>16</ele>
        <time>2021-04-08T08:16:16.000Z</time>
      </trkpt>
      <trkpt lat="47.33025" lon="-2.35284">
        <ele>16</ele>
        <time>2021-04-08T08:16:17.000Z</time>
      </trkpt>
      <trkpt lat="47.33024" lon="-2.35333">
        <ele>16</ele>
        <time>2021-04-08T08:16:23.000Z</time>
      </trkpt>
      <trkpt lat="47.33028" lon="-2.35372">
        <ele>16</ele>
        <time>2021-04-08T08:16:28.000Z</time>
      </trkpt>
      <trkpt lat="47.3303" lon="-2.35396">
        <ele>16</ele>
        <time>2021-04-08T08:16:31.000Z</time>
      </trkpt>
      <trkpt lat="47.33031" lon="-2.35422">
        <ele>16</ele>
        <time>2021-04-08T08:16:35.000Z</time>
      </trkpt>
      <trkpt lat="47.33031" lon="-2.35438">
        <ele>15.60000038147</ele>
        <time>2021-04-08T08:16:38.000Z</time>
      </trkpt>
      <trkpt lat="47.33032" lon="-2.35442">
        <ele>15.199999809265</ele>
        <time>2021-04-08T08:16:39.000Z</time>
      </trkpt>
      <trkpt lat="47.33033" lon="-2.35445">
        <ele>14.60000038147</ele>
        <time>2021-04-08T08:16:40.000Z</time>
      </trkpt>
      <trkpt lat="47.33033" lon="-2.35449">
        <ele>14.199999809265</ele>
        <time>2021-04-08T08:16:41.000Z</time>
      </trkpt>
      <trkpt lat="47.33032" lon="-2.35453">
        <ele>13.800000190735</ele>
        <time>2021-04-08T08:16:42.000Z</time>
      </trkpt>
      <trkpt lat="47.33033" lon="-2.35467">
        <ele>13.800000190735</ele>
        <time>2021-04-08T08:16:46.000Z</time>
      </trkpt>
      <trkpt lat="47.33031" lon="-2.3549">
        <ele>13.800000190735</ele>
        <time>2021-04-08T08:16:51.000Z</time>
      </trkpt>
      <trkpt lat="47.3303" lon="-2.35501">
        <ele>13.800000190735</ele>
        <time>2021-04-08T08:16:53.000Z</time>
      </trkpt>
      <trkpt lat="47.33028" lon="-2.35524">
        <ele>13.800000190735</ele>
        <time>2021-04-08T08:16:57.000Z</time>
      </trkpt>
      <trkpt lat="47.33028" lon="-2.35536">
        <ele>13.39999961853</ele>
        <time>2021-04-08T08:16:59.000Z</time>
      </trkpt>
      <trkpt lat="47.33028" lon="-2.35541">
        <ele>13</ele>
        <time>2021-04-08T08:17:00.000Z</time>
      </trkpt>
      <trkpt lat="47.33028" lon="-2.35548">
        <ele>12.199999809265</ele>
        <time>2021-04-08T08:17:01.000Z</time>
      </trkpt>
      <trkpt lat="47.33028" lon="-2.35554">
        <ele>11.800000190735</ele>
        <time>2021-04-08T08:17:02.000Z</time>
      </trkpt>
      <trkpt lat="47.33028" lon="-2.35573">
        <ele>11.800000190735</ele>
        <time>2021-04-08T08:17:05.000Z</time>
      </trkpt>
      <trkpt lat="47.33027" lon="-2.35586">
        <ele>11.800000190735</ele>
        <time>2021-04-08T08:17:07.000Z</time>
      </trkpt>
      <trkpt lat="47.33026" lon="-2.35594">
        <ele>11.800000190735</ele>
        <time>2021-04-08T08:17:08.000Z</time>
      </trkpt>
      <trkpt lat="47.33022" lon="-2.35632">
        <ele>11.800000190735</ele>
        <time>2021-04-08T08:17:13.000Z</time>
      </trkpt>
      <trkpt lat="47.33022" lon="-2.3564">
        <ele>11.39999961853</ele>
        <time>2021-04-08T08:17:14.000Z</time>
      </trkpt>
      <trkpt lat="47.3302" lon="-2.35647">
        <ele>11</ele>
        <time>2021-04-08T08:17:15.000Z</time>
      </trkpt>
      <trkpt lat="47.3302" lon="-2.35655">
        <ele>10.60000038147</ele>
        <time>2021-04-08T08:17:16.000Z</time>
      </trkpt>
      <trkpt lat="47.33019" lon="-2.35662">
        <ele>10.199999809265</ele>
        <time>2021-04-08T08:17:17.000Z</time>
      </trkpt>
      <trkpt lat="47.33017" lon="-2.3567">
        <ele>9.8000001907349</ele>
        <time>2021-04-08T08:17:18.000Z</time>
      </trkpt>
      <trkpt lat="47.33014" lon="-2.35687">
        <ele>9.8000001907349</ele>
        <time>2021-04-08T08:17:20.000Z</time>
      </trkpt>
      <trkpt lat="47.33012" lon="-2.35714">
        <ele>9.8000001907349</ele>
        <time>2021-04-08T08:17:23.000Z</time>
      </trkpt>
      <trkpt lat="47.33011" lon="-2.3574">
        <ele>9.8000001907349</ele>
        <time>2021-04-08T08:17:26.000Z</time>
      </trkpt>
      <trkpt lat="47.33012" lon="-2.35756">
        <ele>9.8000001907349</ele>
        <time>2021-04-08T08:17:28.000Z</time>
      </trkpt>
      <trkpt lat="47.33016" lon="-2.35772">
        <ele>9.8000001907349</ele>
        <time>2021-04-08T08:17:30.000Z</time>
      </trkpt>
      <trkpt lat="47.3302" lon="-2.3578">
        <ele>9.8000001907349</ele>
        <time>2021-04-08T08:17:31.000Z</time>
      </trkpt>
      <trkpt lat="47.33033" lon="-2.35796">
        <ele>9.8000001907349</ele>
        <time>2021-04-08T08:17:34.000Z</time>
      </trkpt>
      <trkpt lat="47.33037" lon="-2.358">
        <ele>9.8000001907349</ele>
        <time>2021-04-08T08:17:35.000Z</time>
      </trkpt>
      <trkpt lat="47.33058" lon="-2.35806">
        <ele>9.8000001907349</ele>
        <time>2021-04-08T08:17:39.000Z</time>
      </trkpt>
      <trkpt lat="47.33069" lon="-2.35805">
        <ele>9.8000001907349</ele>
        <time>2021-04-08T08:17:41.000Z</time>
      </trkpt>
      <trkpt lat="47.3309" lon="-2.35805">
        <ele>9.8000001907349</ele>
        <time>2021-04-08T08:17:45.000Z</time>
      </trkpt>
      <trkpt lat="47.33112" lon="-2.35803">
        <ele>10.199999809265</ele>
        <time>2021-04-08T08:17:50.000Z</time>
      </trkpt>
      <trkpt lat="47.33117" lon="-2.35803">
        <ele>11</ele>
        <time>2021-04-08T08:17:51.000Z</time>
      </trkpt>
      <trkpt lat="47.33122" lon="-2.35803">
        <ele>11.39999961853</ele>
        <time>2021-04-08T08:17:52.000Z</time>
      </trkpt>
      <trkpt lat="47.33127" lon="-2.35804">
        <ele>11.800000190735</ele>
        <time>2021-04-08T08:17:53.000Z</time>
      </trkpt>
      <trkpt lat="47.33146" lon="-2.35806">
        <ele>11.800000190735</ele>
        <time>2021-04-08T08:17:57.000Z</time>
      </trkpt>
      <trkpt lat="47.33175" lon="-2.35809">
        <ele>11.800000190735</ele>
        <time>2021-04-08T08:18:03.000Z</time>
      </trkpt>
      <trkpt lat="47.33185" lon="-2.3581">
        <ele>12.199999809265</ele>
        <time>2021-04-08T08:18:05.000Z</time>
      </trkpt>
      <trkpt lat="47.33191" lon="-2.35811">
        <ele>12.60000038147</ele>
        <time>2021-04-08T08:18:06.000Z</time>
      </trkpt>
      <trkpt lat="47.33196" lon="-2.35812">
        <ele>13</ele>
        <time>2021-04-08T08:18:07.000Z</time>
      </trkpt>
      <trkpt lat="47.33202" lon="-2.35814">
        <ele>13.39999961853</ele>
        <time>2021-04-08T08:18:08.000Z</time>
      </trkpt>
      <trkpt lat="47.33207" lon="-2.35815">
        <ele>13.800000190735</ele>
        <time>2021-04-08T08:18:09.000Z</time>
      </trkpt>
      <trkpt lat="47.33221" lon="-2.35821">
        <ele>13.800000190735</ele>
        <time>2021-04-08T08:18:12.000Z</time>
      </trkpt>
      <trkpt lat="47.33236" lon="-2.3583">
        <ele>13.800000190735</ele>
        <time>2021-04-08T08:18:15.000Z</time>
      </trkpt>
      <trkpt lat="47.33249" lon="-2.35838">
        <ele>13.800000190735</ele>
        <time>2021-04-08T08:18:18.000Z</time>
      </trkpt>
      <trkpt lat="47.33257" lon="-2.35845">
        <ele>14.199999809265</ele>
        <time>2021-04-08T08:18:20.000Z</time>
      </trkpt>
      <trkpt lat="47.33261" lon="-2.3585">
        <ele>14.800000190735</ele>
        <time>2021-04-08T08:18:21.000Z</time>
      </trkpt>
      <trkpt lat="47.33265" lon="-2.35855">
        <ele>15.199999809265</ele>
        <time>2021-04-08T08:18:22.000Z</time>
      </trkpt>
      <trkpt lat="47.33268" lon="-2.35859">
        <ele>15.60000038147</ele>
        <time>2021-04-08T08:18:23.000Z</time>
      </trkpt>
      <trkpt lat="47.33272" lon="-2.35864">
        <ele>16</ele>
        <time>2021-04-08T08:18:24.000Z</time>
      </trkpt>
      <trkpt lat="47.33279" lon="-2.35872">
        <ele>16.39999961853</ele>
        <time>2021-04-08T08:18:26.000Z</time>
      </trkpt>
      <trkpt lat="47.33283" lon="-2.35876">
        <ele>16.799999237061</ele>
        <time>2021-04-08T08:18:27.000Z</time>
      </trkpt>
      <trkpt lat="47.33287" lon="-2.35879">
        <ele>17.39999961853</ele>
        <time>2021-04-08T08:18:28.000Z</time>
      </trkpt>
      <trkpt lat="47.33291" lon="-2.35882">
        <ele>17.799999237061</ele>
        <time>2021-04-08T08:18:29.000Z</time>
      </trkpt>
      <trkpt lat="47.33295" lon="-2.35884">
        <ele>18.200000762939</ele>
        <time>2021-04-08T08:18:30.000Z</time>
      </trkpt>
      <trkpt lat="47.33306" lon="-2.35892">
        <ele>18.200000762939</ele>
        <time>2021-04-08T08:18:33.000Z</time>
      </trkpt>
      <trkpt lat="47.33317" lon="-2.35912">
        <ele>18.200000762939</ele>
        <time>2021-04-08T08:18:37.000Z</time>
      </trkpt>
      <trkpt lat="47.33319" lon="-2.35918">
        <ele>18.200000762939</ele>
        <time>2021-04-08T08:18:38.000Z</time>
      </trkpt>
      <trkpt lat="47.33321" lon="-2.35924">
        <ele>18.60000038147</ele>
        <time>2021-04-08T08:18:39.000Z</time>
      </trkpt>
      <trkpt lat="47.33323" lon="-2.35929">
        <ele>19.39999961853</ele>
        <time>2021-04-08T08:18:40.000Z</time>
      </trkpt>
      <trkpt lat="47.33324" lon="-2.35936">
        <ele>19.799999237061</ele>
        <time>2021-04-08T08:18:41.000Z</time>
      </trkpt>
      <trkpt lat="47.33325" lon="-2.35942">
        <ele>20.200000762939</ele>
        <time>2021-04-08T08:18:42.000Z</time>
      </trkpt>
      <trkpt lat="47.33325" lon="-2.35949">
        <ele>20.200000762939</ele>
        <time>2021-04-08T08:18:43.000Z</time>
      </trkpt>
      <trkpt lat="47.33323" lon="-2.35971">
        <ele>20.200000762939</ele>
        <time>2021-04-08T08:18:46.000Z</time>
      </trkpt>
      <trkpt lat="47.3332" lon="-2.35985">
        <ele>20.200000762939</ele>
        <time>2021-04-08T08:18:48.000Z</time>
      </trkpt>
      <trkpt lat="47.33314" lon="-2.36023">
        <ele>20.200000762939</ele>
        <time>2021-04-08T08:18:53.000Z</time>
      </trkpt>
      <trkpt lat="47.33312" lon="-2.36045">
        <ele>20.200000762939</ele>
        <time>2021-04-08T08:18:56.000Z</time>
      </trkpt>
      <trkpt lat="47.3331" lon="-2.36092">
        <ele>20.200000762939</ele>
        <time>2021-04-08T08:19:02.000Z</time>
      </trkpt>
      <trkpt lat="47.33312" lon="-2.3615">
        <ele>20.200000762939</ele>
        <time>2021-04-08T08:19:09.000Z</time>
      </trkpt>
      <trkpt lat="47.33312" lon="-2.36214">
        <ele>20.200000762939</ele>
        <time>2021-04-08T08:19:17.000Z</time>
      </trkpt>
      <trkpt lat="47.33318" lon="-2.36218">
        <ele>20.200000762939</ele>
        <time>2021-04-08T08:19:19.000Z</time>
      </trkpt>
      <trkpt lat="47.3333" lon="-2.3621">
        <ele>20.200000762939</ele>
        <time>2021-04-08T08:19:22.000Z</time>
      </trkpt>
      <trkpt lat="47.33355" lon="-2.36192">
        <ele>20.200000762939</ele>
        <time>2021-04-08T08:19:28.000Z</time>
      </trkpt>
      <trkpt lat="47.33389" lon="-2.36172">
        <ele>20.200000762939</ele>
        <time>2021-04-08T08:19:37.000Z</time>
      </trkpt>
      <trkpt lat="47.33413" lon="-2.36165">
        <ele>20.200000762939</ele>
        <time>2021-04-08T08:19:44.000Z</time>
      </trkpt>
      <trkpt lat="47.33416" lon="-2.36183">
        <ele>20.200000762939</ele>
        <time>2021-04-08T08:19:47.000Z</time>
      </trkpt>
      <trkpt lat="47.33417" lon="-2.36189">
        <ele>20.200000762939</ele>
        <time>2021-04-08T08:19:48.000Z</time>
      </trkpt>
      <trkpt lat="47.33416" lon="-2.36218">
        <ele>20.200000762939</ele>
        <time>2021-04-08T08:19:52.000Z</time>
      </trkpt>
      <trkpt lat="47.33414" lon="-2.36225">
        <ele>20.200000762939</ele>
        <time>2021-04-08T08:19:53.000Z</time>
      </trkpt>
      <trkpt lat="47.33413" lon="-2.36241">
        <ele>20.200000762939</ele>
        <time>2021-04-08T08:19:55.000Z</time>
      </trkpt>
      <trkpt lat="47.33413" lon="-2.36272">
        <ele>20.200000762939</ele>
        <time>2021-04-08T08:19:59.000Z</time>
      </trkpt>
      <trkpt lat="47.33419" lon="-2.36307">
        <ele>20.200000762939</ele>
        <time>2021-04-08T08:20:04.000Z</time>
      </trkpt>
      <trkpt lat="47.33425" lon="-2.36326">
        <ele>19.799999237061</ele>
        <time>2021-04-08T08:20:07.000Z</time>
      </trkpt>
      <trkpt lat="47.33426" lon="-2.36332">
        <ele>19.39999961853</ele>
        <time>2021-04-08T08:20:08.000Z</time>
      </trkpt>
      <trkpt lat="47.33428" lon="-2.36338">
        <ele>18.799999237061</ele>
        <time>2021-04-08T08:20:09.000Z</time>
      </trkpt>
      <trkpt lat="47.33429" lon="-2.36343">
        <ele>18.39999961853</ele>
        <time>2021-04-08T08:20:10.000Z</time>
      </trkpt>
      <trkpt lat="47.33432" lon="-2.36349">
        <ele>18</ele>
        <time>2021-04-08T08:20:11.000Z</time>
      </trkpt>
      <trkpt lat="47.33438" lon="-2.36366">
        <ele>18</ele>
        <time>2021-04-08T08:20:15.000Z</time>
      </trkpt>
      <trkpt lat="47.3344" lon="-2.36374">
        <ele>17.60000038147</ele>
        <time>2021-04-08T08:20:18.000Z</time>
      </trkpt>
      <trkpt lat="47.3344" lon="-2.36376">
        <ele>16.799999237061</ele>
        <time>2021-04-08T08:20:19.000Z</time>
      </trkpt>
      <trkpt lat="47.33441" lon="-2.36378">
        <ele>16.39999961853</ele>
        <time>2021-04-08T08:20:20.000Z</time>
      </trkpt>
      <trkpt lat="47.33441" lon="-2.36379">
        <ele>16</ele>
        <time>2021-04-08T08:20:21.000Z</time>
      </trkpt>
      <trkpt lat="47.33445" lon="-2.36388">
        <ele>16</ele>
        <time>2021-04-08T08:20:27.000Z</time>
      </trkpt>
      <trkpt lat="47.33446" lon="-2.36393">
        <ele>16</ele>
        <time>2021-04-08T08:20:29.000Z</time>
      </trkpt>
      <trkpt lat="47.33449" lon="-2.36399">
        <ele>16</ele>
        <time>2021-04-08T08:20:32.000Z</time>
      </trkpt>
      <trkpt lat="47.33461" lon="-2.36408">
        <ele>16</ele>
        <time>2021-04-08T08:20:37.000Z</time>
      </trkpt>
      <trkpt lat="47.33469" lon="-2.36412">
        <ele>16</ele>
        <time>2021-04-08T08:20:42.000Z</time>
      </trkpt>
      <trkpt lat="47.33469" lon="-2.36412">
        <ele>15.60000038147</ele>
        <time>2021-04-08T08:20:43.000Z</time>
      </trkpt>
      <trkpt lat="47.33469" lon="-2.36413">
        <ele>15.199999809265</ele>
        <time>2021-04-08T08:20:44.000Z</time>
      </trkpt>
      <trkpt lat="47.3347" lon="-2.36415">
        <ele>14.800000190735</ele>
        <time>2021-04-08T08:20:45.000Z</time>
      </trkpt>
      <trkpt lat="47.33469" lon="-2.36417">
        <ele>14.39999961853</ele>
        <time>2021-04-08T08:20:46.000Z</time>
      </trkpt>
      <trkpt lat="47.3347" lon="-2.36418">
        <ele>14</ele>
        <time>2021-04-08T08:20:47.000Z</time>
      </trkpt>
      <trkpt lat="47.33472" lon="-2.36422">
        <ele>14</ele>
        <time>2021-04-08T08:20:49.000Z</time>
      </trkpt>
      <trkpt lat="47.33472" lon="-2.36436">
        <ele>14</ele>
        <time>2021-04-08T08:20:52.000Z</time>
      </trkpt>
      <trkpt lat="47.33472" lon="-2.36452">
        <ele>14</ele>
        <time>2021-04-08T08:20:55.000Z</time>
      </trkpt>
      <trkpt lat="47.33474" lon="-2.36466">
        <ele>14</ele>
        <time>2021-04-08T08:20:58.000Z</time>
      </trkpt>
      <trkpt lat="47.33474" lon="-2.36493">
        <ele>14</ele>
        <time>2021-04-08T08:21:03.000Z</time>
      </trkpt>
      <trkpt lat="47.33475" lon="-2.36521">
        <ele>14</ele>
        <time>2021-04-08T08:21:09.000Z</time>
      </trkpt>
      <trkpt lat="47.33474" lon="-2.36537">
        <ele>14</ele>
        <time>2021-04-08T08:21:15.000Z</time>
      </trkpt>
      <trkpt lat="47.33474" lon="-2.36566">
        <ele>14</ele>
        <time>2021-04-08T08:21:21.000Z</time>
      </trkpt>
      <trkpt lat="47.33476" lon="-2.36585">
        <ele>14</ele>
        <time>2021-04-08T08:21:25.000Z</time>
      </trkpt>
      <trkpt lat="47.33478" lon="-2.36585">
        <ele>14</ele>
        <time>2021-04-08T08:21:26.000Z</time>
      </trkpt>
      <trkpt lat="47.33488" lon="-2.36587">
        <ele>14</ele>
        <time>2021-04-08T08:21:29.000Z</time>
      </trkpt>
      <trkpt lat="47.33504" lon="-2.36596">
        <ele>14</ele>
        <time>2021-04-08T08:21:34.000Z</time>
      </trkpt>
      <trkpt lat="47.33507" lon="-2.36599">
        <ele>14</ele>
        <time>2021-04-08T08:21:35.000Z</time>
      </trkpt>
      <trkpt lat="47.33514" lon="-2.36605">
        <ele>13.60000038147</ele>
        <time>2021-04-08T08:21:37.000Z</time>
      </trkpt>
      <trkpt lat="47.33518" lon="-2.36607">
        <ele>13.199999809265</ele>
        <time>2021-04-08T08:21:38.000Z</time>
      </trkpt>
      <trkpt lat="47.33523" lon="-2.36609">
        <ele>12.800000190735</ele>
        <time>2021-04-08T08:21:39.000Z</time>
      </trkpt>
      <trkpt lat="47.33527" lon="-2.36612">
        <ele>12.39999961853</ele>
        <time>2021-04-08T08:21:40.000Z</time>
      </trkpt>
      <trkpt lat="47.3353" lon="-2.36615">
        <ele>11.800000190735</ele>
        <time>2021-04-08T08:21:41.000Z</time>
      </trkpt>
      <trkpt lat="47.33536" lon="-2.36624">
        <ele>11.39999961853</ele>
        <time>2021-04-08T08:21:44.000Z</time>
      </trkpt>
      <trkpt lat="47.33538" lon="-2.36627">
        <ele>11</ele>
        <time>2021-04-08T08:21:45.000Z</time>
      </trkpt>
      <trkpt lat="47.3354" lon="-2.3663">
        <ele>10.60000038147</ele>
        <time>2021-04-08T08:21:46.000Z</time>
      </trkpt>
      <trkpt lat="47.33542" lon="-2.36633">
        <ele>10</ele>
        <time>2021-04-08T08:21:47.000Z</time>
      </trkpt>
      <trkpt lat="47.33542" lon="-2.36639">
        <ele>9.3999996185303</ele>
        <time>2021-04-08T08:21:48.000Z</time>
      </trkpt>
      <trkpt lat="47.3354" lon="-2.36643">
        <ele>8.8000001907349</ele>
        <time>2021-04-08T08:21:49.000Z</time>
      </trkpt>
      <trkpt lat="47.33537" lon="-2.36648">
        <ele>8.1999998092651</ele>
        <time>2021-04-08T08:21:50.000Z</time>
      </trkpt>
      <trkpt lat="47.33534" lon="-2.36652">
        <ele>7.8000001907349</ele>
        <time>2021-04-08T08:21:51.000Z</time>
      </trkpt>
      <trkpt lat="47.33531" lon="-2.36656">
        <ele>7.1999998092651</ele>
        <time>2021-04-08T08:21:52.000Z</time>
      </trkpt>
      <trkpt lat="47.33528" lon="-2.3666">
        <ele>6.5999999046326</ele>
        <time>2021-04-08T08:21:53.000Z</time>
      </trkpt>
      <trkpt lat="47.33524" lon="-2.36663">
        <ele>6</ele>
        <time>2021-04-08T08:21:54.000Z</time>
      </trkpt>
      <trkpt lat="47.33521" lon="-2.36666">
        <ele>5.5999999046326</ele>
        <time>2021-04-08T08:21:55.000Z</time>
      </trkpt>
      <trkpt lat="47.33518" lon="-2.36671">
        <ele>5.5999999046326</ele>
        <time>2021-04-08T08:21:56.000Z</time>
      </trkpt>
      <trkpt lat="47.33516" lon="-2.36676">
        <ele>5.5999999046326</ele>
        <time>2021-04-08T08:21:57.000Z</time>
      </trkpt>
      <trkpt lat="47.335" lon="-2.36703">
        <ele>5.5999999046326</ele>
        <time>2021-04-08T08:22:03.000Z</time>
      </trkpt>
      <trkpt lat="47.33497" lon="-2.36707">
        <ele>5.5999999046326</ele>
        <time>2021-04-08T08:22:07.000Z</time>
      </trkpt>
      <trkpt lat="47.33494" lon="-2.3672">
        <ele>5.5999999046326</ele>
        <time>2021-04-08T08:22:18.000Z</time>
      </trkpt>
      <trkpt lat="47.33491" lon="-2.36726">
        <ele>5.5999999046326</ele>
        <time>2021-04-08T08:22:20.000Z</time>
      </trkpt>
      <trkpt lat="47.33479" lon="-2.36754">
        <ele>5.5999999046326</ele>
        <time>2021-04-08T08:22:26.000Z</time>
      </trkpt>
      <trkpt lat="47.3347" lon="-2.36792">
        <ele>5.5999999046326</ele>
        <time>2021-04-08T08:22:33.000Z</time>
      </trkpt>
      <trkpt lat="47.33466" lon="-2.36827">
        <ele>5.5999999046326</ele>
        <time>2021-04-08T08:22:39.000Z</time>
      </trkpt>
      <trkpt lat="47.3346" lon="-2.36841">
        <ele>5.5999999046326</ele>
        <time>2021-04-08T08:22:43.000Z</time>
      </trkpt>
      <trkpt lat="47.33458" lon="-2.36844">
        <ele>5.5999999046326</ele>
        <time>2021-04-08T08:22:44.000Z</time>
      </trkpt>
      <trkpt lat="47.33452" lon="-2.36853">
        <ele>5.5999999046326</ele>
        <time>2021-04-08T08:22:46.000Z</time>
      </trkpt>
      <trkpt lat="47.33449" lon="-2.36862">
        <ele>5.5999999046326</ele>
        <time>2021-04-08T08:22:48.000Z</time>
      </trkpt>
      <trkpt lat="47.33449" lon="-2.36865">
        <ele>6</ele>
        <time>2021-04-08T08:22:49.000Z</time>
      </trkpt>
      <trkpt lat="47.33448" lon="-2.36868">
        <ele>6.4000000953674</ele>
        <time>2021-04-08T08:22:50.000Z</time>
      </trkpt>
      <trkpt lat="47.33448" lon="-2.36871">
        <ele>6.8000001907349</ele>
        <time>2021-04-08T08:22:51.000Z</time>
      </trkpt>
      <trkpt lat="47.33448" lon="-2.36874">
        <ele>7.4000000953674</ele>
        <time>2021-04-08T08:22:52.000Z</time>
      </trkpt>
      <trkpt lat="47.33447" lon="-2.36877">
        <ele>7.8000001907349</ele>
        <time>2021-04-08T08:22:53.000Z</time>
      </trkpt>
      <trkpt lat="47.33448" lon="-2.36894">
        <ele>7.8000001907349</ele>
        <time>2021-04-08T08:22:57.000Z</time>
      </trkpt>
      <trkpt lat="47.33452" lon="-2.36915">
        <ele>7.8000001907349</ele>
        <time>2021-04-08T08:23:03.000Z</time>
      </trkpt>
      <trkpt lat="47.3345" lon="-2.36941">
        <ele>7.8000001907349</ele>
        <time>2021-04-08T08:23:09.000Z</time>
      </trkpt>
      <trkpt lat="47.3345" lon="-2.36946">
        <ele>7.8000001907349</ele>
        <time>2021-04-08T08:23:10.000Z</time>
      </trkpt>
      <trkpt lat="47.33457" lon="-2.36959">
        <ele>7.8000001907349</ele>
        <time>2021-04-08T08:23:13.000Z</time>
      </trkpt>
      <trkpt lat="47.33467" lon="-2.3698">
        <ele>7.8000001907349</ele>
        <time>2021-04-08T08:23:17.000Z</time>
      </trkpt>
      <trkpt lat="47.3347" lon="-2.36984">
        <ele>7.8000001907349</ele>
        <time>2021-04-08T08:23:18.000Z</time>
      </trkpt>
      <trkpt lat="47.33474" lon="-2.3699">
        <ele>7.8000001907349</ele>
        <time>2021-04-08T08:23:21.000Z</time>
      </trkpt>
      <trkpt lat="47.33473" lon="-2.37008">
        <ele>7.8000001907349</ele>
        <time>2021-04-08T08:23:25.000Z</time>
      </trkpt>
      <trkpt lat="47.33472" lon="-2.37046">
        <ele>7.8000001907349</ele>
        <time>2021-04-08T08:23:31.000Z</time>
      </trkpt>
      <trkpt lat="47.33473" lon="-2.37091">
        <ele>8.1999998092651</ele>
        <time>2021-04-08T08:23:38.000Z</time>
      </trkpt>
      <trkpt lat="47.33474" lon="-2.37097">
        <ele>8.6000003814697</ele>
        <time>2021-04-08T08:23:39.000Z</time>
      </trkpt>
      <trkpt lat="47.33475" lon="-2.37103">
        <ele>9</ele>
        <time>2021-04-08T08:23:40.000Z</time>
      </trkpt>
      <trkpt lat="47.33475" lon="-2.37109">
        <ele>9.3999996185303</ele>
        <time>2021-04-08T08:23:41.000Z</time>
      </trkpt>
      <trkpt lat="47.33476" lon="-2.37115">
        <ele>9.8000001907349</ele>
        <time>2021-04-08T08:23:42.000Z</time>
      </trkpt>
      <trkpt lat="47.3348" lon="-2.37137">
        <ele>9.8000001907349</ele>
        <time>2021-04-08T08:23:46.000Z</time>
      </trkpt>
      <trkpt lat="47.33484" lon="-2.37165">
        <ele>9.8000001907349</ele>
        <time>2021-04-08T08:23:51.000Z</time>
      </trkpt>
      <trkpt lat="47.33484" lon="-2.37171">
        <ele>10.199999809265</ele>
        <time>2021-04-08T08:23:52.000Z</time>
      </trkpt>
      <trkpt lat="47.33485" lon="-2.37176">
        <ele>10.60000038147</ele>
        <time>2021-04-08T08:23:53.000Z</time>
      </trkpt>
      <trkpt lat="47.33486" lon="-2.37181">
        <ele>11</ele>
        <time>2021-04-08T08:23:54.000Z</time>
      </trkpt>
      <trkpt lat="47.33487" lon="-2.37187">
        <ele>11.39999961853</ele>
        <time>2021-04-08T08:23:55.000Z</time>
      </trkpt>
      <trkpt lat="47.33489" lon="-2.37193">
        <ele>11.800000190735</ele>
        <time>2021-04-08T08:23:56.000Z</time>
      </trkpt>
      <trkpt lat="47.33493" lon="-2.37214">
        <ele>11.800000190735</ele>
        <time>2021-04-08T08:24:00.000Z</time>
      </trkpt>
      <trkpt lat="47.33499" lon="-2.37226">
        <ele>11.800000190735</ele>
        <time>2021-04-08T08:24:03.000Z</time>
      </trkpt>
      <trkpt lat="47.33506" lon="-2.37229">
        <ele>12.199999809265</ele>
        <time>2021-04-08T08:24:05.000Z</time>
      </trkpt>
      <trkpt lat="47.33509" lon="-2.3723">
        <ele>12.800000190735</ele>
        <time>2021-04-08T08:24:06.000Z</time>
      </trkpt>
      <trkpt lat="47.33513" lon="-2.3723">
        <ele>13.199999809265</ele>
        <time>2021-04-08T08:24:07.000Z</time>
      </trkpt>
      <trkpt lat="47.33516" lon="-2.3723">
        <ele>13.60000038147</ele>
        <time>2021-04-08T08:24:08.000Z</time>
      </trkpt>
      <trkpt lat="47.33519" lon="-2.3723">
        <ele>14</ele>
        <time>2021-04-08T08:24:09.000Z</time>
      </trkpt>
      <trkpt lat="47.33529" lon="-2.37231">
        <ele>14</ele>
        <time>2021-04-08T08:24:12.000Z</time>
      </trkpt>
      <trkpt lat="47.33546" lon="-2.3723">
        <ele>14.39999961853</ele>
        <time>2021-04-08T08:24:17.000Z</time>
      </trkpt>
      <trkpt lat="47.3355" lon="-2.3723">
        <ele>14.800000190735</ele>
        <time>2021-04-08T08:24:18.000Z</time>
      </trkpt>
      <trkpt lat="47.33554" lon="-2.37231">
        <ele>15.199999809265</ele>
        <time>2021-04-08T08:24:19.000Z</time>
      </trkpt>
      <trkpt lat="47.33557" lon="-2.37231">
        <ele>15.800000190735</ele>
        <time>2021-04-08T08:24:20.000Z</time>
      </trkpt>
      <trkpt lat="47.33561" lon="-2.37231">
        <ele>16.200000762939</ele>
        <time>2021-04-08T08:24:21.000Z</time>
      </trkpt>
      <trkpt lat="47.33574" lon="-2.37232">
        <ele>16.200000762939</ele>
        <time>2021-04-08T08:24:25.000Z</time>
      </trkpt>
      <trkpt lat="47.33596" lon="-2.37229">
        <ele>16.200000762939</ele>
        <time>2021-04-08T08:24:32.000Z</time>
      </trkpt>
      <trkpt lat="47.33596" lon="-2.37221">
        <ele>16.200000762939</ele>
        <time>2021-04-08T08:24:35.000Z</time>
      </trkpt>
      <trkpt lat="47.33596" lon="-2.37219">
        <ele>16.200000762939</ele>
        <time>2021-04-08T08:24:36.000Z</time>
      </trkpt>
      <trkpt lat="47.33595" lon="-2.37214">
        <ele>16.200000762939</ele>
        <time>2021-04-08T08:24:38.000Z</time>
      </trkpt>
      <trkpt lat="47.33595" lon="-2.37206">
        <ele>16.200000762939</ele>
        <time>2021-04-08T08:24:41.000Z</time>
      </trkpt>
      <trkpt lat="47.33596" lon="-2.37203">
        <ele>16.200000762939</ele>
        <time>2021-04-08T08:24:42.000Z</time>
      </trkpt>
      <trkpt lat="47.336" lon="-2.37179">
        <ele>16.200000762939</ele>
        <time>2021-04-08T08:24:49.000Z</time>
      </trkpt>
      <trkpt lat="47.33603" lon="-2.37152">
        <ele>16.200000762939</ele>
        <time>2021-04-08T08:24:55.000Z</time>
      </trkpt>
      <trkpt lat="47.33604" lon="-2.37125">
        <ele>16.200000762939</ele>
        <time>2021-04-08T08:25:00.000Z</time>
      </trkpt>
      <trkpt lat="47.33603" lon="-2.37086">
        <ele>16.200000762939</ele>
        <time>2021-04-08T08:25:07.000Z</time>
      </trkpt>
      <trkpt lat="47.33603" lon="-2.37046">
        <ele>16.200000762939</ele>
        <time>2021-04-08T08:25:14.000Z</time>
      </trkpt>
      <trkpt lat="47.33602" lon="-2.36996">
        <ele>16.200000762939</ele>
        <time>2021-04-08T08:25:22.000Z</time>
      </trkpt>
      <trkpt lat="47.33604" lon="-2.36962">
        <ele>16.200000762939</ele>
        <time>2021-04-08T08:25:27.000Z</time>
      </trkpt>
      <trkpt lat="47.33606" lon="-2.36956">
        <ele>16.200000762939</ele>
        <time>2021-04-08T08:25:28.000Z</time>
      </trkpt>
      <trkpt lat="47.33614" lon="-2.36938">
        <ele>16.200000762939</ele>
        <time>2021-04-08T08:25:31.000Z</time>
      </trkpt>
      <trkpt lat="47.33617" lon="-2.36933">
        <ele>16.200000762939</ele>
        <time>2021-04-08T08:25:32.000Z</time>
      </trkpt>
      <trkpt lat="47.3362" lon="-2.36928">
        <ele>16.200000762939</ele>
        <time>2021-04-08T08:25:33.000Z</time>
      </trkpt>
      <trkpt lat="47.33645" lon="-2.36895">
        <ele>16.200000762939</ele>
        <time>2021-04-08T08:25:40.000Z</time>
      </trkpt>
      <trkpt lat="47.33678" lon="-2.36857">
        <ele>16.200000762939</ele>
        <time>2021-04-08T08:25:49.000Z</time>
      </trkpt>
      <trkpt lat="47.33696" lon="-2.36835">
        <ele>16.200000762939</ele>
        <time>2021-04-08T08:25:55.000Z</time>
      </trkpt>
      <trkpt lat="47.33721" lon="-2.36818">
        <ele>16.60000038147</ele>
        <time>2021-04-08T08:26:02.000Z</time>
      </trkpt>
      <trkpt lat="47.33724" lon="-2.36816">
        <ele>17</ele>
        <time>2021-04-08T08:26:03.000Z</time>
      </trkpt>
      <trkpt lat="47.33728" lon="-2.36813">
        <ele>17.799999237061</ele>
        <time>2021-04-08T08:26:04.000Z</time>
      </trkpt>
      <trkpt lat="47.33732" lon="-2.3681">
        <ele>18.200000762939</ele>
        <time>2021-04-08T08:26:05.000Z</time>
      </trkpt>
      <trkpt lat="47.33741" lon="-2.36806">
        <ele>18.200000762939</ele>
        <time>2021-04-08T08:26:07.000Z</time>
      </trkpt>
      <trkpt lat="47.33745" lon="-2.36804">
        <ele>18.200000762939</ele>
        <time>2021-04-08T08:26:08.000Z</time>
      </trkpt>
      <trkpt lat="47.33756" lon="-2.36801">
        <ele>18.200000762939</ele>
        <time>2021-04-08T08:26:10.000Z</time>
      </trkpt>
      <trkpt lat="47.33768" lon="-2.36798">
        <ele>18.200000762939</ele>
        <time>2021-04-08T08:26:12.000Z</time>
      </trkpt>
      <trkpt lat="47.33817" lon="-2.36782">
        <ele>18.200000762939</ele>
        <time>2021-04-08T08:26:20.000Z</time>
      </trkpt>
      <trkpt lat="47.3384" lon="-2.36778">
        <ele>18.200000762939</ele>
        <time>2021-04-08T08:26:24.000Z</time>
      </trkpt>
      <trkpt lat="47.33851" lon="-2.36774">
        <ele>18.200000762939</ele>
        <time>2021-04-08T08:26:26.000Z</time>
      </trkpt>
      <trkpt lat="47.33886" lon="-2.36765">
        <ele>18.200000762939</ele>
        <time>2021-04-08T08:26:33.000Z</time>
      </trkpt>
      <trkpt lat="47.33908" lon="-2.36758">
        <ele>18.200000762939</ele>
        <time>2021-04-08T08:26:39.000Z</time>
      </trkpt>
      <trkpt lat="47.33916" lon="-2.36755">
        <ele>17.799999237061</ele>
        <time>2021-04-08T08:26:42.000Z</time>
      </trkpt>
      <trkpt lat="47.33919" lon="-2.36755">
        <ele>17.39999961853</ele>
        <time>2021-04-08T08:26:43.000Z</time>
      </trkpt>
      <trkpt lat="47.33921" lon="-2.36756">
        <ele>17</ele>
        <time>2021-04-08T08:26:44.000Z</time>
      </trkpt>
      <trkpt lat="47.33924" lon="-2.36758">
        <ele>16.39999961853</ele>
        <time>2021-04-08T08:26:45.000Z</time>
      </trkpt>
      <trkpt lat="47.33926" lon="-2.3676">
        <ele>16</ele>
        <time>2021-04-08T08:26:46.000Z</time>
      </trkpt>
      <trkpt lat="47.33936" lon="-2.3676">
        <ele>16</ele>
        <time>2021-04-08T08:26:49.000Z</time>
      </trkpt>
      <trkpt lat="47.33956" lon="-2.36755">
        <ele>16</ele>
        <time>2021-04-08T08:26:54.000Z</time>
      </trkpt>
      <trkpt lat="47.33964" lon="-2.36753">
        <ele>16</ele>
        <time>2021-04-08T08:26:56.000Z</time>
      </trkpt>
      <trkpt lat="47.33988" lon="-2.36746">
        <ele>15.60000038147</ele>
        <time>2021-04-08T08:27:01.000Z</time>
      </trkpt>
      <trkpt lat="47.33993" lon="-2.36745">
        <ele>15.199999809265</ele>
        <time>2021-04-08T08:27:02.000Z</time>
      </trkpt>
      <trkpt lat="47.33999" lon="-2.36743">
        <ele>14.800000190735</ele>
        <time>2021-04-08T08:27:03.000Z</time>
      </trkpt>
      <trkpt lat="47.34005" lon="-2.36742">
        <ele>14.39999961853</ele>
        <time>2021-04-08T08:27:04.000Z</time>
      </trkpt>
      <trkpt lat="47.34011" lon="-2.3674">
        <ele>14</ele>
        <time>2021-04-08T08:27:05.000Z</time>
      </trkpt>
      <trkpt lat="47.34039" lon="-2.36727">
        <ele>14</ele>
        <time>2021-04-08T08:27:10.000Z</time>
      </trkpt>
      <trkpt lat="47.34064" lon="-2.36712">
        <ele>13.60000038147</ele>
        <time>2021-04-08T08:27:15.000Z</time>
      </trkpt>
      <trkpt lat="47.34068" lon="-2.3671">
        <ele>13.199999809265</ele>
        <time>2021-04-08T08:27:16.000Z</time>
      </trkpt>
      <trkpt lat="47.34071" lon="-2.36708">
        <ele>12.800000190735</ele>
        <time>2021-04-08T08:27:17.000Z</time>
      </trkpt>
      <trkpt lat="47.34075" lon="-2.36706">
        <ele>12.39999961853</ele>
        <time>2021-04-08T08:27:18.000Z</time>
      </trkpt>
      <trkpt lat="47.34079" lon="-2.36704">
        <ele>11.800000190735</ele>
        <time>2021-04-08T08:27:19.000Z</time>
      </trkpt>
      <trkpt lat="47.34084" lon="-2.36708">
        <ele>11.800000190735</ele>
        <time>2021-04-08T08:27:21.000Z</time>
      </trkpt>
      <trkpt lat="47.34088" lon="-2.36727">
        <ele>11.800000190735</ele>
        <time>2021-04-08T08:27:25.000Z</time>
      </trkpt>
      <trkpt lat="47.34088" lon="-2.36732">
        <ele>11.800000190735</ele>
        <time>2021-04-08T08:27:26.000Z</time>
      </trkpt>
      <trkpt lat="47.34096" lon="-2.36769">
        <ele>11.800000190735</ele>
        <time>2021-04-08T08:27:33.000Z</time>
      </trkpt>
      <trkpt lat="47.34103" lon="-2.36804">
        <ele>11.800000190735</ele>
        <time>2021-04-08T08:27:38.000Z</time>
      </trkpt>
      <trkpt lat="47.34106" lon="-2.3682">
        <ele>11.39999961853</ele>
        <time>2021-04-08T08:27:40.000Z</time>
      </trkpt>
      <trkpt lat="47.34108" lon="-2.36827">
        <ele>11</ele>
        <time>2021-04-08T08:27:41.000Z</time>
      </trkpt>
      <trkpt lat="47.3411" lon="-2.36835">
        <ele>10.60000038147</ele>
        <time>2021-04-08T08:27:42.000Z</time>
      </trkpt>
      <trkpt lat="47.34112" lon="-2.36844">
        <ele>10.199999809265</ele>
        <time>2021-04-08T08:27:43.000Z</time>
      </trkpt>
      <trkpt lat="47.34114" lon="-2.36852">
        <ele>9.8000001907349</ele>
        <time>2021-04-08T08:27:44.000Z</time>
      </trkpt>
      <trkpt lat="47.34116" lon="-2.3686">
        <ele>9.8000001907349</ele>
        <time>2021-04-08T08:27:45.000Z</time>
      </trkpt>
      <trkpt lat="47.34123" lon="-2.36875">
        <ele>9.8000001907349</ele>
        <time>2021-04-08T08:27:47.000Z</time>
      </trkpt>
      <trkpt lat="47.34131" lon="-2.36888">
        <ele>9.8000001907349</ele>
        <time>2021-04-08T08:27:49.000Z</time>
      </trkpt>
      <trkpt lat="47.34135" lon="-2.36894">
        <ele>9.8000001907349</ele>
        <time>2021-04-08T08:27:50.000Z</time>
      </trkpt>
      <trkpt lat="47.34147" lon="-2.36918">
        <ele>9.8000001907349</ele>
        <time>2021-04-08T08:27:54.000Z</time>
      </trkpt>
      <trkpt lat="47.34167" lon="-2.36956">
        <ele>9.8000001907349</ele>
        <time>2021-04-08T08:28:00.000Z</time>
      </trkpt>
      <trkpt lat="47.34194" lon="-2.36991">
        <ele>9.8000001907349</ele>
        <time>2021-04-08T08:28:07.000Z</time>
      </trkpt>
      <trkpt lat="47.34197" lon="-2.36996">
        <ele>10.199999809265</ele>
        <time>2021-04-08T08:28:08.000Z</time>
      </trkpt>
      <trkpt lat="47.34201" lon="-2.37002">
        <ele>11.199999809265</ele>
        <time>2021-04-08T08:28:09.000Z</time>
      </trkpt>
      <trkpt lat="47.34204" lon="-2.37007">
        <ele>11.60000038147</ele>
        <time>2021-04-08T08:28:10.000Z</time>
      </trkpt>
      <trkpt lat="47.34207" lon="-2.37012">
        <ele>12</ele>
        <time>2021-04-08T08:28:11.000Z</time>
      </trkpt>
      <trkpt lat="47.34215" lon="-2.37027">
        <ele>12</ele>
        <time>2021-04-08T08:28:14.000Z</time>
      </trkpt>
      <trkpt lat="47.34226" lon="-2.37045">
        <ele>12.39999961853</ele>
        <time>2021-04-08T08:28:18.000Z</time>
      </trkpt>
      <trkpt lat="47.34228" lon="-2.37049">
        <ele>13</ele>
        <time>2021-04-08T08:28:19.000Z</time>
      </trkpt>
      <trkpt lat="47.34231" lon="-2.37053">
        <ele>13.39999961853</ele>
        <time>2021-04-08T08:28:20.000Z</time>
      </trkpt>
      <trkpt lat="47.34233" lon="-2.37057">
        <ele>13.800000190735</ele>
        <time>2021-04-08T08:28:21.000Z</time>
      </trkpt>
      <trkpt lat="47.34235" lon="-2.3706">
        <ele>14.199999809265</ele>
        <time>2021-04-08T08:28:22.000Z</time>
      </trkpt>
      <trkpt lat="47.34238" lon="-2.37062">
        <ele>14.199999809265</ele>
        <time>2021-04-08T08:28:23.000Z</time>
      </trkpt>
      <trkpt lat="47.34244" lon="-2.3706">
        <ele>14.199999809265</ele>
        <time>2021-04-08T08:28:25.000Z</time>
      </trkpt>
      <trkpt lat="47.34266" lon="-2.37038">
        <ele>14.199999809265</ele>
        <time>2021-04-08T08:28:32.000Z</time>
      </trkpt>
      <trkpt lat="47.3429" lon="-2.3701">
        <ele>14.199999809265</ele>
        <time>2021-04-08T08:28:39.000Z</time>
      </trkpt>
      <trkpt lat="47.34314" lon="-2.3698">
        <ele>14.199999809265</ele>
        <time>2021-04-08T08:28:45.000Z</time>
      </trkpt>
      <trkpt lat="47.34333" lon="-2.36958">
        <ele>14.199999809265</ele>
        <time>2021-04-08T08:28:49.000Z</time>
      </trkpt>
      <trkpt lat="47.34351" lon="-2.36932">
        <ele>14.199999809265</ele>
        <time>2021-04-08T08:28:53.000Z</time>
      </trkpt>
      <trkpt lat="47.34375" lon="-2.36895">
        <ele>14.199999809265</ele>
        <time>2021-04-08T08:28:59.000Z</time>
      </trkpt>
      <trkpt lat="47.344" lon="-2.36851">
        <ele>14.199999809265</ele>
        <time>2021-04-08T08:29:06.000Z</time>
      </trkpt>
      <trkpt lat="47.34431" lon="-2.36801">
        <ele>14.199999809265</ele>
        <time>2021-04-08T08:29:14.000Z</time>
      </trkpt>
      <trkpt lat="47.34463" lon="-2.36751">
        <ele>14.199999809265</ele>
        <time>2021-04-08T08:29:22.000Z</time>
      </trkpt>
      <trkpt lat="47.34492" lon="-2.36697">
        <ele>14.199999809265</ele>
        <time>2021-04-08T08:29:29.000Z</time>
      </trkpt>
      <trkpt lat="47.34507" lon="-2.36664">
        <ele>13.800000190735</ele>
        <time>2021-04-08T08:29:33.000Z</time>
      </trkpt>
      <trkpt lat="47.3451" lon="-2.36656">
        <ele>13.39999961853</ele>
        <time>2021-04-08T08:29:34.000Z</time>
      </trkpt>
      <trkpt lat="47.34514" lon="-2.36648">
        <ele>12.800000190735</ele>
        <time>2021-04-08T08:29:35.000Z</time>
      </trkpt>
      <trkpt lat="47.34517" lon="-2.36639">
        <ele>12.39999961853</ele>
        <time>2021-04-08T08:29:36.000Z</time>
      </trkpt>
      <trkpt lat="47.34521" lon="-2.36631">
        <ele>12</ele>
        <time>2021-04-08T08:29:37.000Z</time>
      </trkpt>
      <trkpt lat="47.34541" lon="-2.36578">
        <ele>12</ele>
        <time>2021-04-08T08:29:43.000Z</time>
      </trkpt>
      <trkpt lat="47.34555" lon="-2.36541">
        <ele>11.199999809265</ele>
        <time>2021-04-08T08:29:47.000Z</time>
      </trkpt>
      <trkpt lat="47.34558" lon="-2.36531">
        <ele>10.800000190735</ele>
        <time>2021-04-08T08:29:48.000Z</time>
      </trkpt>
      <trkpt lat="47.34562" lon="-2.36522">
        <ele>10.39999961853</ele>
        <time>2021-04-08T08:29:49.000Z</time>
      </trkpt>
      <trkpt lat="47.34565" lon="-2.36513">
        <ele>10</ele>
        <time>2021-04-08T08:29:50.000Z</time>
      </trkpt>
      <trkpt lat="47.34569" lon="-2.36504">
        <ele>10</ele>
        <time>2021-04-08T08:29:51.000Z</time>
      </trkpt>
      <trkpt lat="47.34583" lon="-2.36468">
        <ele>10</ele>
        <time>2021-04-08T08:29:55.000Z</time>
      </trkpt>
      <trkpt lat="47.34586" lon="-2.3646">
        <ele>10</ele>
        <time>2021-04-08T08:29:56.000Z</time>
      </trkpt>
      <trkpt lat="47.34589" lon="-2.36452">
        <ele>10</ele>
        <time>2021-04-08T08:29:57.000Z</time>
      </trkpt>
      <trkpt lat="47.3459" lon="-2.36437">
        <ele>9.6000003814697</ele>
        <time>2021-04-08T08:29:59.000Z</time>
      </trkpt>
      <trkpt lat="47.34588" lon="-2.3643">
        <ele>9</ele>
        <time>2021-04-08T08:30:00.000Z</time>
      </trkpt>
      <trkpt lat="47.34584" lon="-2.36423">
        <ele>8.6000003814697</ele>
        <time>2021-04-08T08:30:01.000Z</time>
      </trkpt>
      <trkpt lat="47.3458" lon="-2.36417">
        <ele>8.1999998092651</ele>
        <time>2021-04-08T08:30:02.000Z</time>
      </trkpt>
      <trkpt lat="47.34575" lon="-2.3641">
        <ele>7.8000001907349</ele>
        <time>2021-04-08T08:30:03.000Z</time>
      </trkpt>
      <trkpt lat="47.34552" lon="-2.36374">
        <ele>7.8000001907349</ele>
        <time>2021-04-08T08:30:08.000Z</time>
      </trkpt>
      <trkpt lat="47.34548" lon="-2.36365">
        <ele>7.8000001907349</ele>
        <time>2021-04-08T08:30:09.000Z</time>
      </trkpt>
      <trkpt lat="47.34541" lon="-2.36348">
        <ele>7.8000001907349</ele>
        <time>2021-04-08T08:30:11.000Z</time>
      </trkpt>
      <trkpt lat="47.34538" lon="-2.36338">
        <ele>7.4000000953674</ele>
        <time>2021-04-08T08:30:12.000Z</time>
      </trkpt>
      <trkpt lat="47.34535" lon="-2.3633">
        <ele>7</ele>
        <time>2021-04-08T08:30:13.000Z</time>
      </trkpt>
      <trkpt lat="47.34532" lon="-2.36322">
        <ele>6.4000000953674</ele>
        <time>2021-04-08T08:30:14.000Z</time>
      </trkpt>
      <trkpt lat="47.34529" lon="-2.36313">
        <ele>6</ele>
        <time>2021-04-08T08:30:15.000Z</time>
      </trkpt>
      <trkpt lat="47.34526" lon="-2.36304">
        <ele>5.5999999046326</ele>
        <time>2021-04-08T08:30:16.000Z</time>
      </trkpt>
      <trkpt lat="47.34523" lon="-2.36295">
        <ele>5.5999999046326</ele>
        <time>2021-04-08T08:30:17.000Z</time>
      </trkpt>
      <trkpt lat="47.34503" lon="-2.36234">
        <ele>5.5999999046326</ele>
        <time>2021-04-08T08:30:24.000Z</time>
      </trkpt>
      <trkpt lat="47.34499" lon="-2.36227">
        <ele>5.5999999046326</ele>
        <time>2021-04-08T08:30:25.000Z</time>
      </trkpt>
      <trkpt lat="47.34482" lon="-2.36198">
        <ele>5.5999999046326</ele>
        <time>2021-04-08T08:30:29.000Z</time>
      </trkpt>
      <trkpt lat="47.34473" lon="-2.36183">
        <ele>5.5999999046326</ele>
        <time>2021-04-08T08:30:31.000Z</time>
      </trkpt>
      <trkpt lat="47.34462" lon="-2.36162">
        <ele>5.5999999046326</ele>
        <time>2021-04-08T08:30:34.000Z</time>
      </trkpt>
      <trkpt lat="47.34459" lon="-2.36155">
        <ele>5.5999999046326</ele>
        <time>2021-04-08T08:30:35.000Z</time>
      </trkpt>
      <trkpt lat="47.34447" lon="-2.36125">
        <ele>5.5999999046326</ele>
        <time>2021-04-08T08:30:39.000Z</time>
      </trkpt>
      <trkpt lat="47.34444" lon="-2.36117">
        <ele>5.5999999046326</ele>
        <time>2021-04-08T08:30:40.000Z</time>
      </trkpt>
      <trkpt lat="47.34434" lon="-2.36088">
        <ele>5.5999999046326</ele>
        <time>2021-04-08T08:30:44.000Z</time>
      </trkpt>
      <trkpt lat="47.34431" lon="-2.3608">
        <ele>6</ele>
        <time>2021-04-08T08:30:45.000Z</time>
      </trkpt>
      <trkpt lat="47.34429" lon="-2.36072">
        <ele>6.4000000953674</ele>
        <time>2021-04-08T08:30:46.000Z</time>
      </trkpt>
      <trkpt lat="47.34427" lon="-2.36065">
        <ele>6.8000001907349</ele>
        <time>2021-04-08T08:30:47.000Z</time>
      </trkpt>
      <trkpt lat="47.34425" lon="-2.36057">
        <ele>7.1999998092651</ele>
        <time>2021-04-08T08:30:48.000Z</time>
      </trkpt>
      <trkpt lat="47.34423" lon="-2.36049">
        <ele>7.5999999046326</ele>
        <time>2021-04-08T08:30:49.000Z</time>
      </trkpt>
      <trkpt lat="47.34416" lon="-2.36026">
        <ele>7.5999999046326</ele>
        <time>2021-04-08T08:30:52.000Z</time>
      </trkpt>
      <trkpt lat="47.34411" lon="-2.36014">
        <ele>7.5999999046326</ele>
        <time>2021-04-08T08:30:54.000Z</time>
      </trkpt>
      <trkpt lat="47.34407" lon="-2.36">
        <ele>7.5999999046326</ele>
        <time>2021-04-08T08:30:57.000Z</time>
      </trkpt>
      <trkpt lat="47.34408" lon="-2.35997">
        <ele>7.5999999046326</ele>
        <time>2021-04-08T08:30:58.000Z</time>
      </trkpt>
      <trkpt lat="47.34416" lon="-2.35991">
        <ele>7.5999999046326</ele>
        <time>2021-04-08T08:31:01.000Z</time>
      </trkpt>
      <trkpt lat="47.34419" lon="-2.35989">
        <ele>7.5999999046326</ele>
        <time>2021-04-08T08:31:02.000Z</time>
      </trkpt>
      <trkpt lat="47.34437" lon="-2.35974">
        <ele>7.5999999046326</ele>
        <time>2021-04-08T08:31:07.000Z</time>
      </trkpt>
      <trkpt lat="47.34469" lon="-2.35948">
        <ele>7.1999998092651</ele>
        <time>2021-04-08T08:31:14.000Z</time>
      </trkpt>
      <trkpt lat="47.34475" lon="-2.35944">
        <ele>6.8000001907349</ele>
        <time>2021-04-08T08:31:15.000Z</time>
      </trkpt>
      <trkpt lat="47.3448" lon="-2.35941">
        <ele>6.4000000953674</ele>
        <time>2021-04-08T08:31:16.000Z</time>
      </trkpt>
      <trkpt lat="47.34486" lon="-2.35938">
        <ele>6</ele>
        <time>2021-04-08T08:31:17.000Z</time>
      </trkpt>
      <trkpt lat="47.34492" lon="-2.35936">
        <ele>5.4000000953674</ele>
        <time>2021-04-08T08:31:18.000Z</time>
      </trkpt>
      <trkpt lat="47.34503" lon="-2.3593">
        <ele>5.4000000953674</ele>
        <time>2021-04-08T08:31:20.000Z</time>
      </trkpt>
      <trkpt lat="47.3452" lon="-2.35924">
        <ele>5</ele>
        <time>2021-04-08T08:31:23.000Z</time>
      </trkpt>
      <trkpt lat="47.34526" lon="-2.35922">
        <ele>4.5999999046326</ele>
        <time>2021-04-08T08:31:24.000Z</time>
      </trkpt>
      <trkpt lat="47.34531" lon="-2.3592">
        <ele>4.1999998092651</ele>
        <time>2021-04-08T08:31:25.000Z</time>
      </trkpt>
      <trkpt lat="47.34536" lon="-2.35918">
        <ele>3.4000000953674</ele>
        <time>2021-04-08T08:31:26.000Z</time>
      </trkpt>
      <trkpt lat="47.34575" lon="-2.35897">
        <ele>3.4000000953674</ele>
        <time>2021-04-08T08:31:33.000Z</time>
      </trkpt>
      <trkpt lat="47.34607" lon="-2.35869">
        <ele>3</ele>
        <time>2021-04-08T08:31:39.000Z</time>
      </trkpt>
      <trkpt lat="47.34611" lon="-2.35865">
        <ele>2.5999999046326</ele>
        <time>2021-04-08T08:31:40.000Z</time>
      </trkpt>
      <trkpt lat="47.34615" lon="-2.35862">
        <ele>2.2000000476837</ele>
        <time>2021-04-08T08:31:41.000Z</time>
      </trkpt>
      <trkpt lat="47.34619" lon="-2.35858">
        <ele>1.6000000238419</ele>
        <time>2021-04-08T08:31:42.000Z</time>
      </trkpt>
      <trkpt lat="47.34624" lon="-2.35855">
        <ele>1.2000000476837</ele>
        <time>2021-04-08T08:31:43.000Z</time>
      </trkpt>
      <trkpt lat="47.34628" lon="-2.35852">
        <ele>1.2000000476837</ele>
        <time>2021-04-08T08:31:44.000Z</time>
      </trkpt>
      <trkpt lat="47.34647" lon="-2.35836">
        <ele>1.2000000476837</ele>
        <time>2021-04-08T08:31:49.000Z</time>
      </trkpt>
      <trkpt lat="47.34651" lon="-2.35832">
        <ele>1.2000000476837</ele>
        <time>2021-04-08T08:31:50.000Z</time>
      </trkpt>
      <trkpt lat="47.34679" lon="-2.35813">
        <ele>1.2000000476837</ele>
        <time>2021-04-08T08:31:56.000Z</time>
      </trkpt>
      <trkpt lat="47.34683" lon="-2.3581">
        <ele>1.2000000476837</ele>
        <time>2021-04-08T08:31:57.000Z</time>
      </trkpt>
      <trkpt lat="47.34704" lon="-2.35793">
        <ele>1.2000000476837</ele>
        <time>2021-04-08T08:32:02.000Z</time>
      </trkpt>
      <trkpt lat="47.34716" lon="-2.35783">
        <ele>1.2000000476837</ele>
        <time>2021-04-08T08:32:05.000Z</time>
      </trkpt>
      <trkpt lat="47.34729" lon="-2.35772">
        <ele>1.2000000476837</ele>
        <time>2021-04-08T08:32:08.000Z</time>
      </trkpt>
      <trkpt lat="47.34749" lon="-2.35757">
        <ele>1.2000000476837</ele>
        <time>2021-04-08T08:32:13.000Z</time>
      </trkpt>
      <trkpt lat="47.34771" lon="-2.35745">
        <ele>1.2000000476837</ele>
        <time>2021-04-08T08:32:19.000Z</time>
      </trkpt>
      <trkpt lat="47.34793" lon="-2.35733">
        <ele>1.2000000476837</ele>
        <time>2021-04-08T08:32:25.000Z</time>
      </trkpt>
      <trkpt lat="47.34802" lon="-2.35728">
        <ele>1.2000000476837</ele>
        <time>2021-04-08T08:32:27.000Z</time>
      </trkpt>
      <trkpt lat="47.3481" lon="-2.35723">
        <ele>1.2000000476837</ele>
        <time>2021-04-08T08:32:29.000Z</time>
      </trkpt>
      <trkpt lat="47.34823" lon="-2.35718">
        <ele>1.2000000476837</ele>
        <time>2021-04-08T08:32:32.000Z</time>
      </trkpt>
      <trkpt lat="47.34828" lon="-2.35716">
        <ele>1.2000000476837</ele>
        <time>2021-04-08T08:32:33.000Z</time>
      </trkpt>
      <trkpt lat="47.34841" lon="-2.35696">
        <ele>1.2000000476837</ele>
        <time>2021-04-08T08:32:37.000Z</time>
      </trkpt>
      <trkpt lat="47.3485" lon="-2.35679">
        <ele>1.2000000476837</ele>
        <time>2021-04-08T08:32:42.000Z</time>
      </trkpt>
      <trkpt lat="47.34853" lon="-2.35673">
        <ele>1.2000000476837</ele>
        <time>2021-04-08T08:32:47.000Z</time>
      </trkpt>
      <trkpt lat="47.34854" lon="-2.35671">
        <ele>1.2000000476837</ele>
        <time>2021-04-08T08:33:58.000Z</time>
      </trkpt>
      <trkpt lat="47.34854" lon="-2.35667">
        <ele>1.2000000476837</ele>
        <time>2021-04-08T08:34:00.000Z</time>
      </trkpt>
      <trkpt lat="47.34852" lon="-2.35665">
        <ele>1.2000000476837</ele>
        <time>2021-04-08T08:34:01.000Z</time>
      </trkpt>
      <trkpt lat="47.34846" lon="-2.35661">
        <ele>1.2000000476837</ele>
        <time>2021-04-08T08:34:04.000Z</time>
      </trkpt>
      <trkpt lat="47.34844" lon="-2.3566">
        <ele>1.2000000476837</ele>
        <time>2021-04-08T08:34:06.000Z</time>
      </trkpt>
      <trkpt lat="47.34841" lon="-2.35656">
        <ele>1.2000000476837</ele>
        <time>2021-04-08T08:34:12.000Z</time>
      </trkpt>
      <trkpt lat="47.34836" lon="-2.35653">
        <ele>1.2000000476837</ele>
        <time>2021-04-08T08:34:14.000Z</time>
      </trkpt>
      <trkpt lat="47.34824" lon="-2.35648">
        <ele>1.6000000238419</ele>
        <time>2021-04-08T08:34:17.000Z</time>
      </trkpt>
      <trkpt lat="47.3482" lon="-2.35645">
        <ele>2.2000000476837</ele>
        <time>2021-04-08T08:34:18.000Z</time>
      </trkpt>
      <trkpt lat="47.34816" lon="-2.35641">
        <ele>3</ele>
        <time>2021-04-08T08:34:19.000Z</time>
      </trkpt>
      <trkpt lat="47.34812" lon="-2.35638">
        <ele>3.4000000953674</ele>
        <time>2021-04-08T08:34:20.000Z</time>
      </trkpt>
      <trkpt lat="47.34786" lon="-2.35611">
        <ele>3.4000000953674</ele>
        <time>2021-04-08T08:34:26.000Z</time>
      </trkpt>
      <trkpt lat="47.34751" lon="-2.35568">
        <ele>3.4000000953674</ele>
        <time>2021-04-08T08:34:34.000Z</time>
      </trkpt>
      <trkpt lat="47.3472" lon="-2.3552">
        <ele>3.4000000953674</ele>
        <time>2021-04-08T08:34:41.000Z</time>
      </trkpt>
      <trkpt lat="47.34701" lon="-2.35488">
        <ele>3</ele>
        <time>2021-04-08T08:34:46.000Z</time>
      </trkpt>
      <trkpt lat="47.34696" lon="-2.35482">
        <ele>2.4000000953674</ele>
        <time>2021-04-08T08:34:47.000Z</time>
      </trkpt>
      <trkpt lat="47.34692" lon="-2.35476">
        <ele>2</ele>
        <time>2021-04-08T08:34:48.000Z</time>
      </trkpt>
      <trkpt lat="47.34689" lon="-2.3547">
        <ele>1.6000000238419</ele>
        <time>2021-04-08T08:34:49.000Z</time>
      </trkpt>
      <trkpt lat="47.34685" lon="-2.35464">
        <ele>1.2000000476837</ele>
        <time>2021-04-08T08:34:50.000Z</time>
      </trkpt>
      <trkpt lat="47.34667" lon="-2.35435">
        <ele>1.2000000476837</ele>
        <time>2021-04-08T08:34:55.000Z</time>
      </trkpt>
      <trkpt lat="47.34663" lon="-2.3543">
        <ele>1.2000000476837</ele>
        <time>2021-04-08T08:34:56.000Z</time>
      </trkpt>
      <trkpt lat="47.34657" lon="-2.3542">
        <ele>1.2000000476837</ele>
        <time>2021-04-08T08:34:58.000Z</time>
      </trkpt>
      <trkpt lat="47.34651" lon="-2.35409">
        <ele>1.2000000476837</ele>
        <time>2021-04-08T08:35:01.000Z</time>
      </trkpt>
      <trkpt lat="47.34655" lon="-2.35403">
        <ele>1.2000000476837</ele>
        <time>2021-04-08T08:35:05.000Z</time>
      </trkpt>
      <trkpt lat="47.34668" lon="-2.354">
        <ele>1.2000000476837</ele>
        <time>2021-04-08T08:35:10.000Z</time>
      </trkpt>
      <trkpt lat="47.34671" lon="-2.354">
        <ele>1.2000000476837</ele>
        <time>2021-04-08T08:35:11.000Z</time>
      </trkpt>
      <trkpt lat="47.3469" lon="-2.35398">
        <ele>1.2000000476837</ele>
        <time>2021-04-08T08:35:17.000Z</time>
      </trkpt>
      <trkpt lat="47.34692" lon="-2.35396">
        <ele>1.2000000476837</ele>
        <time>2021-04-08T08:35:18.000Z</time>
      </trkpt>
      <trkpt lat="47.347" lon="-2.3539">
        <ele>1.2000000476837</ele>
        <time>2021-04-08T08:35:21.000Z</time>
      </trkpt>
      <trkpt lat="47.34713" lon="-2.35375">
        <ele>1.2000000476837</ele>
        <time>2021-04-08T08:35:27.000Z</time>
      </trkpt>
      <trkpt lat="47.34715" lon="-2.35371">
        <ele>1.2000000476837</ele>
        <time>2021-04-08T08:35:28.000Z</time>
      </trkpt>
      <trkpt lat="47.34721" lon="-2.35362">
        <ele>1.2000000476837</ele>
        <time>2021-04-08T08:35:31.000Z</time>
      </trkpt>
      <trkpt lat="47.34724" lon="-2.3534">
        <ele>1.2000000476837</ele>
        <time>2021-04-08T08:35:36.000Z</time>
      </trkpt>
      <trkpt lat="47.34726" lon="-2.35323">
        <ele>1.2000000476837</ele>
        <time>2021-04-08T08:35:41.000Z</time>
      </trkpt>
      <trkpt lat="47.34736" lon="-2.35298">
        <ele>1.2000000476837</ele>
        <time>2021-04-08T08:35:46.000Z</time>
      </trkpt>
      <trkpt lat="47.34742" lon="-2.35283">
        <ele>1.2000000476837</ele>
        <time>2021-04-08T08:35:49.000Z</time>
      </trkpt>
      <trkpt lat="47.34743" lon="-2.35279">
        <ele>1.2000000476837</ele>
        <time>2021-04-08T08:35:50.000Z</time>
      </trkpt>
      <trkpt lat="47.34746" lon="-2.35264">
        <ele>1.2000000476837</ele>
        <time>2021-04-08T08:35:53.000Z</time>
      </trkpt>
      <trkpt lat="47.34749" lon="-2.35248">
        <ele>1.2000000476837</ele>
        <time>2021-04-08T08:35:56.000Z</time>
      </trkpt>
      <trkpt lat="47.34754" lon="-2.35235">
        <ele>1.2000000476837</ele>
        <time>2021-04-08T08:35:58.000Z</time>
      </trkpt>
      <trkpt lat="47.34756" lon="-2.35218">
        <ele>1.2000000476837</ele>
        <time>2021-04-08T08:36:01.000Z</time>
      </trkpt>
      <trkpt lat="47.34758" lon="-2.35196">
        <ele>1.2000000476837</ele>
        <time>2021-04-08T08:36:05.000Z</time>
      </trkpt>
      <trkpt lat="47.3476" lon="-2.35182">
        <ele>1.2000000476837</ele>
        <time>2021-04-08T08:36:09.000Z</time>
      </trkpt>
      <trkpt lat="47.34759" lon="-2.35165">
        <ele>1.2000000476837</ele>
        <time>2021-04-08T08:36:14.000Z</time>
      </trkpt>
      <trkpt lat="47.34754" lon="-2.35156">
        <ele>1.2000000476837</ele>
        <time>2021-04-08T08:36:17.000Z</time>
      </trkpt>
      <trkpt lat="47.3475" lon="-2.35146">
        <ele>1.2000000476837</ele>
        <time>2021-04-08T08:36:19.000Z</time>
      </trkpt>
      <trkpt lat="47.34742" lon="-2.35133">
        <ele>1.2000000476837</ele>
        <time>2021-04-08T08:36:23.000Z</time>
      </trkpt>
      <trkpt lat="47.34733" lon="-2.35114">
        <ele>1.2000000476837</ele>
        <time>2021-04-08T08:36:27.000Z</time>
      </trkpt>
      <trkpt lat="47.34726" lon="-2.35096">
        <ele>1.2000000476837</ele>
        <time>2021-04-08T08:36:31.000Z</time>
      </trkpt>
      <trkpt lat="47.34708" lon="-2.35078">
        <ele>1.2000000476837</ele>
        <time>2021-04-08T08:36:37.000Z</time>
      </trkpt>
      <trkpt lat="47.34694" lon="-2.35056">
        <ele>1.2000000476837</ele>
        <time>2021-04-08T08:36:42.000Z</time>
      </trkpt>
      <trkpt lat="47.34681" lon="-2.35046">
        <ele>1.2000000476837</ele>
        <time>2021-04-08T08:36:46.000Z</time>
      </trkpt>
      <trkpt lat="47.34665" lon="-2.35043">
        <ele>1.2000000476837</ele>
        <time>2021-04-08T08:36:51.000Z</time>
      </trkpt>
      <trkpt lat="47.34653" lon="-2.3504">
        <ele>1.2000000476837</ele>
        <time>2021-04-08T08:36:55.000Z</time>
      </trkpt>
      <trkpt lat="47.34639" lon="-2.35023">
        <ele>1.2000000476837</ele>
        <time>2021-04-08T08:37:00.000Z</time>
      </trkpt>
      <trkpt lat="47.34616" lon="-2.3499">
        <ele>1.2000000476837</ele>
        <time>2021-04-08T08:37:07.000Z</time>
      </trkpt>
      <trkpt lat="47.34598" lon="-2.34958">
        <ele>1.2000000476837</ele>
        <time>2021-04-08T08:37:13.000Z</time>
      </trkpt>
      <trkpt lat="47.34586" lon="-2.34932">
        <ele>1.2000000476837</ele>
        <time>2021-04-08T08:37:18.000Z</time>
      </trkpt>
      <trkpt lat="47.34577" lon="-2.34919">
        <ele>1.2000000476837</ele>
        <time>2021-04-08T08:37:22.000Z</time>
      </trkpt>
      <trkpt lat="47.34575" lon="-2.34911">
        <ele>1.2000000476837</ele>
        <time>2021-04-08T08:37:25.000Z</time>
      </trkpt>
      <trkpt lat="47.34577" lon="-2.34904">
        <ele>1.2000000476837</ele>
        <time>2021-04-08T08:37:27.000Z</time>
      </trkpt>
      <trkpt lat="47.34581" lon="-2.34896">
        <ele>1.2000000476837</ele>
        <time>2021-04-08T08:37:29.000Z</time>
      </trkpt>
      <trkpt lat="47.34587" lon="-2.34881">
        <ele>1.2000000476837</ele>
        <time>2021-04-08T08:37:33.000Z</time>
      </trkpt>
      <trkpt lat="47.34599" lon="-2.34851">
        <ele>1.2000000476837</ele>
        <time>2021-04-08T08:37:40.000Z</time>
      </trkpt>
      <trkpt lat="47.34612" lon="-2.3482">
        <ele>1.2000000476837</ele>
        <time>2021-04-08T08:37:45.000Z</time>
      </trkpt>
      <trkpt lat="47.34632" lon="-2.34768">
        <ele>1.2000000476837</ele>
        <time>2021-04-08T08:37:52.000Z</time>
      </trkpt>
      <trkpt lat="47.34637" lon="-2.34736">
        <ele>1.2000000476837</ele>
        <time>2021-04-08T08:37:56.000Z</time>
      </trkpt>
      <trkpt lat="47.34638" lon="-2.34727">
        <ele>1.2000000476837</ele>
        <time>2021-04-08T08:37:57.000Z</time>
      </trkpt>
      <trkpt lat="47.34635" lon="-2.34687">
        <ele>1.2000000476837</ele>
        <time>2021-04-08T08:38:02.000Z</time>
      </trkpt>
      <trkpt lat="47.34626" lon="-2.34645">
        <ele>1.2000000476837</ele>
        <time>2021-04-08T08:38:08.000Z</time>
      </trkpt>
      <trkpt lat="47.34623" lon="-2.34631">
        <ele>1.2000000476837</ele>
        <time>2021-04-08T08:38:10.000Z</time>
      </trkpt>
      <trkpt lat="47.34619" lon="-2.3461">
        <ele>1.6000000238419</ele>
        <time>2021-04-08T08:38:13.000Z</time>
      </trkpt>
      <trkpt lat="47.34618" lon="-2.34603">
        <ele>2</ele>
        <time>2021-04-08T08:38:14.000Z</time>
      </trkpt>
      <trkpt lat="47.34617" lon="-2.34595">
        <ele>2.4000000953674</ele>
        <time>2021-04-08T08:38:15.000Z</time>
      </trkpt>
      <trkpt lat="47.34615" lon="-2.34588">
        <ele>2.7999999523163</ele>
        <time>2021-04-08T08:38:16.000Z</time>
      </trkpt>
      <trkpt lat="47.34614" lon="-2.34581">
        <ele>3.2000000476837</ele>
        <time>2021-04-08T08:38:17.000Z</time>
      </trkpt>
      <trkpt lat="47.34613" lon="-2.34566">
        <ele>3.5999999046326</ele>
        <time>2021-04-08T08:38:19.000Z</time>
      </trkpt>
      <trkpt lat="47.34612" lon="-2.3456">
        <ele>4</ele>
        <time>2021-04-08T08:38:20.000Z</time>
      </trkpt>
      <trkpt lat="47.34612" lon="-2.34554">
        <ele>4.4000000953674</ele>
        <time>2021-04-08T08:38:21.000Z</time>
      </trkpt>
      <trkpt lat="47.34611" lon="-2.34549">
        <ele>4.8000001907349</ele>
        <time>2021-04-08T08:38:22.000Z</time>
      </trkpt>
      <trkpt lat="47.34611" lon="-2.34545">
        <ele>5.1999998092651</ele>
        <time>2021-04-08T08:38:23.000Z</time>
      </trkpt>
      <trkpt lat="47.34612" lon="-2.34535">
        <ele>5.1999998092651</ele>
        <time>2021-04-08T08:38:25.000Z</time>
      </trkpt>
      <trkpt lat="47.3462" lon="-2.34528">
        <ele>5.1999998092651</ele>
        <time>2021-04-08T08:38:28.000Z</time>
      </trkpt>
      <trkpt lat="47.34628" lon="-2.34525">
        <ele>5.1999998092651</ele>
        <time>2021-04-08T08:38:30.000Z</time>
      </trkpt>
      <trkpt lat="47.34641" lon="-2.34521">
        <ele>5.1999998092651</ele>
        <time>2021-04-08T08:38:33.000Z</time>
      </trkpt>
      <trkpt lat="47.34645" lon="-2.34519">
        <ele>5.1999998092651</ele>
        <time>2021-04-08T08:38:34.000Z</time>
      </trkpt>
      <trkpt lat="47.34669" lon="-2.34512">
        <ele>5.1999998092651</ele>
        <time>2021-04-08T08:38:40.000Z</time>
      </trkpt>
      <trkpt lat="47.34702" lon="-2.34501">
        <ele>5.1999998092651</ele>
        <time>2021-04-08T08:38:48.000Z</time>
      </trkpt>
      <trkpt lat="47.34721" lon="-2.34491">
        <ele>4.8000001907349</ele>
        <time>2021-04-08T08:38:53.000Z</time>
      </trkpt>
      <trkpt lat="47.34724" lon="-2.3449">
        <ele>4.4000000953674</ele>
        <time>2021-04-08T08:38:54.000Z</time>
      </trkpt>
      <trkpt lat="47.34727" lon="-2.34489">
        <ele>4</ele>
        <time>2021-04-08T08:38:55.000Z</time>
      </trkpt>
      <trkpt lat="47.34731" lon="-2.34488">
        <ele>3.5999999046326</ele>
        <time>2021-04-08T08:38:56.000Z</time>
      </trkpt>
      <trkpt lat="47.34734" lon="-2.34486">
        <ele>3.2000000476837</ele>
        <time>2021-04-08T08:38:57.000Z</time>
      </trkpt>
      <trkpt lat="47.34744" lon="-2.34481">
        <ele>3.2000000476837</ele>
        <time>2021-04-08T08:39:00.000Z</time>
      </trkpt>
      <trkpt lat="47.34749" lon="-2.34469">
        <ele>3.2000000476837</ele>
        <time>2021-04-08T08:39:03.000Z</time>
      </trkpt>
      <trkpt lat="47.34758" lon="-2.34442">
        <ele>3.2000000476837</ele>
        <time>2021-04-08T08:39:09.000Z</time>
      </trkpt>
      <trkpt lat="47.34766" lon="-2.34422">
        <ele>3.2000000476837</ele>
        <time>2021-04-08T08:39:14.000Z</time>
      </trkpt>
      <trkpt lat="47.3478" lon="-2.34398">
        <ele>3.2000000476837</ele>
        <time>2021-04-08T08:39:20.000Z</time>
      </trkpt>
      <trkpt lat="47.34788" lon="-2.34386">
        <ele>3.2000000476837</ele>
        <time>2021-04-08T08:39:24.000Z</time>
      </trkpt>
      <trkpt lat="47.34791" lon="-2.34385">
        <ele>3.2000000476837</ele>
        <time>2021-04-08T08:39:25.000Z</time>
      </trkpt>
      <trkpt lat="47.34803" lon="-2.34382">
        <ele>3.2000000476837</ele>
        <time>2021-04-08T08:39:29.000Z</time>
      </trkpt>
      <trkpt lat="47.34814" lon="-2.34382">
        <ele>3.5999999046326</ele>
        <time>2021-04-08T08:39:32.000Z</time>
      </trkpt>
      <trkpt lat="47.34818" lon="-2.34381">
        <ele>4</ele>
        <time>2021-04-08T08:39:33.000Z</time>
      </trkpt>
      <trkpt lat="47.34821" lon="-2.34381">
        <ele>4.4000000953674</ele>
        <time>2021-04-08T08:39:34.000Z</time>
      </trkpt>
      <trkpt lat="47.34826" lon="-2.3438">
        <ele>4.8000001907349</ele>
        <time>2021-04-08T08:39:35.000Z</time>
      </trkpt>
      <trkpt lat="47.34829" lon="-2.34379">
        <ele>5.1999998092651</ele>
        <time>2021-04-08T08:39:36.000Z</time>
      </trkpt>
      <trkpt lat="47.34849" lon="-2.34376">
        <ele>5.1999998092651</ele>
        <time>2021-04-08T08:39:41.000Z</time>
      </trkpt>
      <trkpt lat="47.34867" lon="-2.34373">
        <ele>5.1999998092651</ele>
        <time>2021-04-08T08:39:45.000Z</time>
      </trkpt>
      <trkpt lat="47.34879" lon="-2.34373">
        <ele>5.1999998092651</ele>
        <time>2021-04-08T08:39:48.000Z</time>
      </trkpt>
      <trkpt lat="47.34901" lon="-2.34373">
        <ele>5.1999998092651</ele>
        <time>2021-04-08T08:39:54.000Z</time>
      </trkpt>
      <trkpt lat="47.34921" lon="-2.34369">
        <ele>5.1999998092651</ele>
        <time>2021-04-08T08:39:59.000Z</time>
      </trkpt>
      <trkpt lat="47.3493" lon="-2.3437">
        <ele>4.8000001907349</ele>
        <time>2021-04-08T08:40:01.000Z</time>
      </trkpt>
      <trkpt lat="47.34935" lon="-2.34371">
        <ele>4.4000000953674</ele>
        <time>2021-04-08T08:40:02.000Z</time>
      </trkpt>
      <trkpt lat="47.34939" lon="-2.34372">
        <ele>4</ele>
        <time>2021-04-08T08:40:03.000Z</time>
      </trkpt>
      <trkpt lat="47.34945" lon="-2.34373">
        <ele>3.5999999046326</ele>
        <time>2021-04-08T08:40:04.000Z</time>
      </trkpt>
      <trkpt lat="47.3495" lon="-2.34373">
        <ele>3.2000000476837</ele>
        <time>2021-04-08T08:40:05.000Z</time>
      </trkpt>
      <trkpt lat="47.34975" lon="-2.34372">
        <ele>3.2000000476837</ele>
        <time>2021-04-08T08:40:10.000Z</time>
      </trkpt>
      <trkpt lat="47.34981" lon="-2.34371">
        <ele>2.7999999523163</ele>
        <time>2021-04-08T08:40:12.000Z</time>
      </trkpt>
      <trkpt lat="47.34983" lon="-2.34371">
        <ele>2.4000000953674</ele>
        <time>2021-04-08T08:40:13.000Z</time>
      </trkpt>
      <trkpt lat="47.34986" lon="-2.34371">
        <ele>2</ele>
        <time>2021-04-08T08:40:14.000Z</time>
      </trkpt>
      <trkpt lat="47.34988" lon="-2.3437">
        <ele>1.3999999761581</ele>
        <time>2021-04-08T08:40:15.000Z</time>
      </trkpt>
      <trkpt lat="47.34989" lon="-2.34371">
        <ele>1</ele>
        <time>2021-04-08T08:40:16.000Z</time>
      </trkpt>
      <trkpt lat="47.34992" lon="-2.34376">
        <ele>1</ele>
        <time>2021-04-08T08:40:18.000Z</time>
      </trkpt>
      <trkpt lat="47.34991" lon="-2.34379">
        <ele>1</ele>
        <time>2021-04-08T08:40:19.000Z</time>
      </trkpt>
      <trkpt lat="47.34988" lon="-2.34376">
        <ele>1</ele>
        <time>2021-04-08T08:40:22.000Z</time>
      </trkpt>
      <trkpt lat="47.34992" lon="-2.34371">
        <ele>1</ele>
        <time>2021-04-08T08:40:25.000Z</time>
      </trkpt>
      <trkpt lat="47.34995" lon="-2.3437">
        <ele>1</ele>
        <time>2021-04-08T08:40:26.000Z</time>
      </trkpt>
      <trkpt lat="47.35008" lon="-2.34366">
        <ele>1</ele>
        <time>2021-04-08T08:40:30.000Z</time>
      </trkpt>
      <trkpt lat="47.35019" lon="-2.34361">
        <ele>1</ele>
        <time>2021-04-08T08:40:35.000Z</time>
      </trkpt>
      <trkpt lat="47.3502" lon="-2.34361">
        <ele>1</ele>
        <time>2021-04-08T08:40:36.000Z</time>
      </trkpt>
      <trkpt lat="47.35016" lon="-2.34345">
        <ele>-1</ele>
        <time>2021-04-08T08:41:52.000Z</time>
      </trkpt>
      <trkpt lat="47.35013" lon="-2.34336">
        <ele>-1</ele>
        <time>2021-04-08T08:41:54.000Z</time>
      </trkpt>
      <trkpt lat="47.35009" lon="-2.34321">
        <ele>-0.60000002384186</ele>
        <time>2021-04-08T08:41:57.000Z</time>
      </trkpt>
      <trkpt lat="47.35007" lon="-2.34316">
        <ele>-0.20000000298023</ele>
        <time>2021-04-08T08:41:58.000Z</time>
      </trkpt>
      <trkpt lat="47.35006" lon="-2.34312">
        <ele>0.20000000298023</ele>
        <time>2021-04-08T08:41:59.000Z</time>
      </trkpt>
      <trkpt lat="47.35005" lon="-2.34307">
        <ele>0.60000002384186</ele>
        <time>2021-04-08T08:42:00.000Z</time>
      </trkpt>
      <trkpt lat="47.35003" lon="-2.34302">
        <ele>1</ele>
        <time>2021-04-08T08:42:01.000Z</time>
      </trkpt>
      <trkpt lat="47.34996" lon="-2.34279">
        <ele>1.6000000238419</ele>
        <time>2021-04-08T08:42:06.000Z</time>
      </trkpt>
      <trkpt lat="47.34995" lon="-2.34275">
        <ele>2</ele>
        <time>2021-04-08T08:42:07.000Z</time>
      </trkpt>
      <trkpt lat="47.34993" lon="-2.3427">
        <ele>2.4000000953674</ele>
        <time>2021-04-08T08:42:08.000Z</time>
      </trkpt>
      <trkpt lat="47.34992" lon="-2.34264">
        <ele>3.2000000476837</ele>
        <time>2021-04-08T08:42:09.000Z</time>
      </trkpt>
      <trkpt lat="47.34987" lon="-2.34248">
        <ele>3.2000000476837</ele>
        <time>2021-04-08T08:42:12.000Z</time>
      </trkpt>
      <trkpt lat="47.34984" lon="-2.34231">
        <ele>3.7999999523163</ele>
        <time>2021-04-08T08:42:15.000Z</time>
      </trkpt>
      <trkpt lat="47.34985" lon="-2.34227">
        <ele>4.1999998092651</ele>
        <time>2021-04-08T08:42:16.000Z</time>
      </trkpt>
      <trkpt lat="47.34984" lon="-2.34222">
        <ele>4.5999999046326</ele>
        <time>2021-04-08T08:42:17.000Z</time>
      </trkpt>
      <trkpt lat="47.34983" lon="-2.34218">
        <ele>5.1999998092651</ele>
        <time>2021-04-08T08:42:18.000Z</time>
      </trkpt>
      <trkpt lat="47.34981" lon="-2.34214">
        <ele>5.5999999046326</ele>
        <time>2021-04-08T08:42:19.000Z</time>
      </trkpt>
      <trkpt lat="47.34977" lon="-2.34207">
        <ele>5.5999999046326</ele>
        <time>2021-04-08T08:42:21.000Z</time>
      </trkpt>
      <trkpt lat="47.34969" lon="-2.34199">
        <ele>6</ele>
        <time>2021-04-08T08:42:24.000Z</time>
      </trkpt>
      <trkpt lat="47.34966" lon="-2.34197">
        <ele>6.4000000953674</ele>
        <time>2021-04-08T08:42:25.000Z</time>
      </trkpt>
      <trkpt lat="47.34964" lon="-2.34196">
        <ele>7</ele>
        <time>2021-04-08T08:42:26.000Z</time>
      </trkpt>
      <trkpt lat="47.34961" lon="-2.34197">
        <ele>7.4000000953674</ele>
        <time>2021-04-08T08:42:27.000Z</time>
      </trkpt>
      <trkpt lat="47.34959" lon="-2.34197">
        <ele>7.8000001907349</ele>
        <time>2021-04-08T08:42:28.000Z</time>
      </trkpt>
      <trkpt lat="47.34948" lon="-2.34202">
        <ele>7.8000001907349</ele>
        <time>2021-04-08T08:42:32.000Z</time>
      </trkpt>
      <trkpt lat="47.34937" lon="-2.34205">
        <ele>8.1999998092651</ele>
        <time>2021-04-08T08:42:37.000Z</time>
      </trkpt>
      <trkpt lat="47.34936" lon="-2.34205">
        <ele>8.6000003814697</ele>
        <time>2021-04-08T08:42:38.000Z</time>
      </trkpt>
      <trkpt lat="47.34935" lon="-2.34205">
        <ele>9</ele>
        <time>2021-04-08T08:42:39.000Z</time>
      </trkpt>
      <trkpt lat="47.34934" lon="-2.34207">
        <ele>9.3999996185303</ele>
        <time>2021-04-08T08:42:40.000Z</time>
      </trkpt>
      <trkpt lat="47.34933" lon="-2.34209">
        <ele>9.8000001907349</ele>
        <time>2021-04-08T08:42:41.000Z</time>
      </trkpt>
      <trkpt lat="47.34931" lon="-2.3421">
        <ele>9.8000001907349</ele>
        <time>2021-04-08T08:42:42.000Z</time>
      </trkpt>
      <trkpt lat="47.34926" lon="-2.34211">
        <ele>9.8000001907349</ele>
        <time>2021-04-08T08:42:45.000Z</time>
      </trkpt>
      <trkpt lat="47.34923" lon="-2.34211">
        <ele>9.8000001907349</ele>
        <time>2021-04-08T08:42:47.000Z</time>
      </trkpt>
      <trkpt lat="47.34915" lon="-2.3421">
        <ele>9.8000001907349</ele>
        <time>2021-04-08T08:42:53.000Z</time>
      </trkpt>
      <trkpt lat="47.34907" lon="-2.34209">
        <ele>10.199999809265</ele>
        <time>2021-04-08T08:42:59.000Z</time>
      </trkpt>
      <trkpt lat="47.34905" lon="-2.34209">
        <ele>10.60000038147</ele>
        <time>2021-04-08T08:43:00.000Z</time>
      </trkpt>
      <trkpt lat="47.34904" lon="-2.34208">
        <ele>11</ele>
        <time>2021-04-08T08:43:01.000Z</time>
      </trkpt>
      <trkpt lat="47.34903" lon="-2.34208">
        <ele>11.39999961853</ele>
        <time>2021-04-08T08:43:02.000Z</time>
      </trkpt>
      <trkpt lat="47.34901" lon="-2.34207">
        <ele>11.800000190735</ele>
        <time>2021-04-08T08:43:03.000Z</time>
      </trkpt>
      <trkpt lat="47.34897" lon="-2.34207">
        <ele>11.800000190735</ele>
        <time>2021-04-08T08:43:06.000Z</time>
      </trkpt>
      <trkpt lat="47.34894" lon="-2.34206">
        <ele>11.800000190735</ele>
        <time>2021-04-08T08:43:11.000Z</time>
      </trkpt>
      <trkpt lat="47.34888" lon="-2.34209">
        <ele>13.800000190735</ele>
        <time>2021-04-08T08:56:41.000Z</time>
      </trkpt>
      <trkpt lat="47.34879" lon="-2.34212">
        <ele>13.800000190735</ele>
        <time>2021-04-08T08:56:46.000Z</time>
      </trkpt>
      <trkpt lat="47.34873" lon="-2.34222">
        <ele>13.800000190735</ele>
        <time>2021-04-08T08:56:49.000Z</time>
      </trkpt>
      <trkpt lat="47.34859" lon="-2.34239">
        <ele>13.800000190735</ele>
        <time>2021-04-08T08:56:55.000Z</time>
      </trkpt>
      <trkpt lat="47.34851" lon="-2.34237">
        <ele>13.39999961853</ele>
        <time>2021-04-08T08:56:58.000Z</time>
      </trkpt>
      <trkpt lat="47.34847" lon="-2.34236">
        <ele>13</ele>
        <time>2021-04-08T08:56:59.000Z</time>
      </trkpt>
      <trkpt lat="47.34842" lon="-2.34236">
        <ele>12.39999961853</ele>
        <time>2021-04-08T08:57:00.000Z</time>
      </trkpt>
      <trkpt lat="47.34836" lon="-2.34237">
        <ele>12</ele>
        <time>2021-04-08T08:57:01.000Z</time>
      </trkpt>
      <trkpt lat="47.3483" lon="-2.34237">
        <ele>11.39999961853</ele>
        <time>2021-04-08T08:57:02.000Z</time>
      </trkpt>
      <trkpt lat="47.34824" lon="-2.34237">
        <ele>11</ele>
        <time>2021-04-08T08:57:03.000Z</time>
      </trkpt>
      <trkpt lat="47.34817" lon="-2.34237">
        <ele>10.60000038147</ele>
        <time>2021-04-08T08:57:04.000Z</time>
      </trkpt>
      <trkpt lat="47.3481" lon="-2.34238">
        <ele>10.199999809265</ele>
        <time>2021-04-08T08:57:05.000Z</time>
      </trkpt>
      <trkpt lat="47.34803" lon="-2.3424">
        <ele>9.8000001907349</ele>
        <time>2021-04-08T08:57:06.000Z</time>
      </trkpt>
      <trkpt lat="47.34797" lon="-2.34242">
        <ele>9.3999996185303</ele>
        <time>2021-04-08T08:57:07.000Z</time>
      </trkpt>
      <trkpt lat="47.34791" lon="-2.34243">
        <ele>9.3999996185303</ele>
        <time>2021-04-08T08:57:08.000Z</time>
      </trkpt>
      <trkpt lat="47.34767" lon="-2.34249">
        <ele>8.8000001907349</ele>
        <time>2021-04-08T08:57:12.000Z</time>
      </trkpt>
      <trkpt lat="47.34761" lon="-2.3425">
        <ele>8.3999996185303</ele>
        <time>2021-04-08T08:57:13.000Z</time>
      </trkpt>
      <trkpt lat="47.34754" lon="-2.34251">
        <ele>8</ele>
        <time>2021-04-08T08:57:14.000Z</time>
      </trkpt>
      <trkpt lat="47.34748" lon="-2.34253">
        <ele>7.5999999046326</ele>
        <time>2021-04-08T08:57:15.000Z</time>
      </trkpt>
      <trkpt lat="47.34741" lon="-2.34253">
        <ele>7.1999998092651</ele>
        <time>2021-04-08T08:57:16.000Z</time>
      </trkpt>
      <trkpt lat="47.34697" lon="-2.34262">
        <ele>6.8000001907349</ele>
        <time>2021-04-08T08:57:23.000Z</time>
      </trkpt>
      <trkpt lat="47.34691" lon="-2.34262">
        <ele>6.4000000953674</ele>
        <time>2021-04-08T08:57:24.000Z</time>
      </trkpt>
      <trkpt lat="47.34685" lon="-2.34263">
        <ele>6</ele>
        <time>2021-04-08T08:57:25.000Z</time>
      </trkpt>
      <trkpt lat="47.3468" lon="-2.34264">
        <ele>5.5999999046326</ele>
        <time>2021-04-08T08:57:26.000Z</time>
      </trkpt>
      <trkpt lat="47.34674" lon="-2.34264">
        <ele>5.1999998092651</ele>
        <time>2021-04-08T08:57:27.000Z</time>
      </trkpt>
      <trkpt lat="47.34669" lon="-2.34263">
        <ele>5.1999998092651</ele>
        <time>2021-04-08T08:57:28.000Z</time>
      </trkpt>
      <trkpt lat="47.34665" lon="-2.3426">
        <ele>5.1999998092651</ele>
        <time>2021-04-08T08:57:29.000Z</time>
      </trkpt>
      <trkpt lat="47.34664" lon="-2.3424">
        <ele>5.1999998092651</ele>
        <time>2021-04-08T08:57:32.000Z</time>
      </trkpt>
      <trkpt lat="47.34666" lon="-2.34228">
        <ele>5.1999998092651</ele>
        <time>2021-04-08T08:57:34.000Z</time>
      </trkpt>
      <trkpt lat="47.34669" lon="-2.34211">
        <ele>5.1999998092651</ele>
        <time>2021-04-08T08:57:38.000Z</time>
      </trkpt>
      <trkpt lat="47.34669" lon="-2.34213">
        <ele>4.8000001907349</ele>
        <time>2021-04-08T08:57:39.000Z</time>
      </trkpt>
      <trkpt lat="47.34669" lon="-2.34213">
        <ele>4.4000000953674</ele>
        <time>2021-04-08T08:57:40.000Z</time>
      </trkpt>
      <trkpt lat="47.34669" lon="-2.34207">
        <ele>3.2000000476837</ele>
        <time>2021-04-08T08:58:04.000Z</time>
      </trkpt>
      <trkpt lat="47.34668" lon="-2.34191">
        <ele>3.2000000476837</ele>
        <time>2021-04-08T08:58:08.000Z</time>
      </trkpt>
      <trkpt lat="47.34674" lon="-2.3417">
        <ele>3.2000000476837</ele>
        <time>2021-04-08T08:58:13.000Z</time>
      </trkpt>
      <trkpt lat="47.34673" lon="-2.34161">
        <ele>3.2000000476837</ele>
        <time>2021-04-08T08:58:15.000Z</time>
      </trkpt>
      <trkpt lat="47.34669" lon="-2.34155">
        <ele>3.2000000476837</ele>
        <time>2021-04-08T08:58:17.000Z</time>
      </trkpt>
      <trkpt lat="47.34658" lon="-2.34156">
        <ele>3.2000000476837</ele>
        <time>2021-04-08T08:58:20.000Z</time>
      </trkpt>
      <trkpt lat="47.34645" lon="-2.34148">
        <ele>3.2000000476837</ele>
        <time>2021-04-08T08:58:23.000Z</time>
      </trkpt>
      <trkpt lat="47.34641" lon="-2.34142">
        <ele>3.2000000476837</ele>
        <time>2021-04-08T08:58:24.000Z</time>
      </trkpt>
      <trkpt lat="47.34629" lon="-2.34124">
        <ele>3.2000000476837</ele>
        <time>2021-04-08T08:58:27.000Z</time>
      </trkpt>
      <trkpt lat="47.34623" lon="-2.34111">
        <ele>3.2000000476837</ele>
        <time>2021-04-08T08:58:29.000Z</time>
      </trkpt>
      <trkpt lat="47.34617" lon="-2.34085">
        <ele>3.2000000476837</ele>
        <time>2021-04-08T08:58:32.000Z</time>
      </trkpt>
      <trkpt lat="47.34615" lon="-2.34075">
        <ele>2.7999999523163</ele>
        <time>2021-04-08T08:58:33.000Z</time>
      </trkpt>
      <trkpt lat="47.34613" lon="-2.34066">
        <ele>2.2000000476837</ele>
        <time>2021-04-08T08:58:34.000Z</time>
      </trkpt>
      <trkpt lat="47.34611" lon="-2.34057">
        <ele>1.7999999523163</ele>
        <time>2021-04-08T08:58:35.000Z</time>
      </trkpt>
      <trkpt lat="47.34609" lon="-2.34048">
        <ele>1.3999999761581</ele>
        <time>2021-04-08T08:58:36.000Z</time>
      </trkpt>
      <trkpt lat="47.34608" lon="-2.3404">
        <ele>1</ele>
        <time>2021-04-08T08:58:37.000Z</time>
      </trkpt>
      <trkpt lat="47.34604" lon="-2.34023">
        <ele>1</ele>
        <time>2021-04-08T08:58:39.000Z</time>
      </trkpt>
      <trkpt lat="47.34595" lon="-2.33986">
        <ele>1</ele>
        <time>2021-04-08T08:58:44.000Z</time>
      </trkpt>
      <trkpt lat="47.34589" lon="-2.33966">
        <ele>1</ele>
        <time>2021-04-08T08:58:47.000Z</time>
      </trkpt>
      <trkpt lat="47.34574" lon="-2.33916">
        <ele>1</ele>
        <time>2021-04-08T08:58:54.000Z</time>
      </trkpt>
      <trkpt lat="47.34571" lon="-2.3391">
        <ele>1</ele>
        <time>2021-04-08T08:58:55.000Z</time>
      </trkpt>
      <trkpt lat="47.34563" lon="-2.33889">
        <ele>1</ele>
        <time>2021-04-08T08:58:58.000Z</time>
      </trkpt>
      <trkpt lat="47.34558" lon="-2.33874">
        <ele>1</ele>
        <time>2021-04-08T08:59:00.000Z</time>
      </trkpt>
      <trkpt lat="47.34551" lon="-2.33844">
        <ele>1</ele>
        <time>2021-04-08T08:59:04.000Z</time>
      </trkpt>
      <trkpt lat="47.34538" lon="-2.3378">
        <ele>1</ele>
        <time>2021-04-08T08:59:12.000Z</time>
      </trkpt>
      <trkpt lat="47.34531" lon="-2.33741">
        <ele>1</ele>
        <time>2021-04-08T08:59:17.000Z</time>
      </trkpt>
      <trkpt lat="47.34528" lon="-2.33727">
        <ele>1</ele>
        <time>2021-04-08T08:59:19.000Z</time>
      </trkpt>
      <trkpt lat="47.34523" lon="-2.337">
        <ele>1</ele>
        <time>2021-04-08T08:59:23.000Z</time>
      </trkpt>
      <trkpt lat="47.34521" lon="-2.33688">
        <ele>1</ele>
        <time>2021-04-08T08:59:25.000Z</time>
      </trkpt>
      <trkpt lat="47.3452" lon="-2.33682">
        <ele>1</ele>
        <time>2021-04-08T08:59:26.000Z</time>
      </trkpt>
      <trkpt lat="47.34514" lon="-2.33666">
        <ele>1</ele>
        <time>2021-04-08T08:59:29.000Z</time>
      </trkpt>
      <trkpt lat="47.34509" lon="-2.33637">
        <ele>0.60000002384186</ele>
        <time>2021-04-08T08:59:35.000Z</time>
      </trkpt>
      <trkpt lat="47.34508" lon="-2.33631">
        <ele>0.20000000298023</ele>
        <time>2021-04-08T08:59:36.000Z</time>
      </trkpt>
      <trkpt lat="47.34507" lon="-2.33627">
        <ele>-0.20000000298023</ele>
        <time>2021-04-08T08:59:37.000Z</time>
      </trkpt>
      <trkpt lat="47.34506" lon="-2.33622">
        <ele>-0.80000001192093</ele>
        <time>2021-04-08T08:59:38.000Z</time>
      </trkpt>
      <trkpt lat="47.34504" lon="-2.33618">
        <ele>-1.2000000476837</ele>
        <time>2021-04-08T08:59:39.000Z</time>
      </trkpt>
      <trkpt lat="47.34503" lon="-2.33614">
        <ele>-1.2000000476837</ele>
        <time>2021-04-08T08:59:40.000Z</time>
      </trkpt>
      <trkpt lat="47.34497" lon="-2.33588">
        <ele>-1.2000000476837</ele>
        <time>2021-04-08T08:59:46.000Z</time>
      </trkpt>
      <trkpt lat="47.34495" lon="-2.33586">
        <ele>-1.2000000476837</ele>
        <time>2021-04-08T08:59:47.000Z</time>
      </trkpt>
      <trkpt lat="47.34493" lon="-2.33583">
        <ele>-1.2000000476837</ele>
        <time>2021-04-08T08:59:48.000Z</time>
      </trkpt>
      <trkpt lat="47.34488" lon="-2.33568">
        <ele>-1.2000000476837</ele>
        <time>2021-04-08T08:59:51.000Z</time>
      </trkpt>
      <trkpt lat="47.34487" lon="-2.3356">
        <ele>-1.2000000476837</ele>
        <time>2021-04-08T08:59:52.000Z</time>
      </trkpt>
      <trkpt lat="47.34483" lon="-2.33535">
        <ele>-1.2000000476837</ele>
        <time>2021-04-08T08:59:56.000Z</time>
      </trkpt>
      <trkpt lat="47.3448" lon="-2.33507">
        <ele>-1.2000000476837</ele>
        <time>2021-04-08T09:00:02.000Z</time>
      </trkpt>
      <trkpt lat="47.34476" lon="-2.33478">
        <ele>-1.2000000476837</ele>
        <time>2021-04-08T09:00:08.000Z</time>
      </trkpt>
      <trkpt lat="47.34476" lon="-2.33474">
        <ele>-1.6000000238419</ele>
        <time>2021-04-08T09:00:10.000Z</time>
      </trkpt>
      <trkpt lat="47.34475" lon="-2.33471">
        <ele>-2</ele>
        <time>2021-04-08T09:00:11.000Z</time>
      </trkpt>
      <trkpt lat="47.34475" lon="-2.33469">
        <ele>-2.4000000953674</ele>
        <time>2021-04-08T09:00:12.000Z</time>
      </trkpt>
      <trkpt lat="47.34474" lon="-2.33466">
        <ele>-2.7999999523163</ele>
        <time>2021-04-08T09:00:13.000Z</time>
      </trkpt>
      <trkpt lat="47.34474" lon="-2.33463">
        <ele>-3.2000000476837</ele>
        <time>2021-04-08T09:00:14.000Z</time>
      </trkpt>
      <trkpt lat="47.34474" lon="-2.3346">
        <ele>-3.2000000476837</ele>
        <time>2021-04-08T09:00:15.000Z</time>
      </trkpt>
      <trkpt lat="47.34473" lon="-2.33439">
        <ele>-3.2000000476837</ele>
        <time>2021-04-08T09:00:21.000Z</time>
      </trkpt>
      <trkpt lat="47.34469" lon="-2.33417">
        <ele>-3.2000000476837</ele>
        <time>2021-04-08T09:00:27.000Z</time>
      </trkpt>
      <trkpt lat="47.34466" lon="-2.33398">
        <ele>-3.2000000476837</ele>
        <time>2021-04-08T09:00:33.000Z</time>
      </trkpt>
      <trkpt lat="47.34465" lon="-2.33396">
        <ele>-3.2000000476837</ele>
        <time>2021-04-08T09:00:34.000Z</time>
      </trkpt>
      <trkpt lat="47.34463" lon="-2.33375">
        <ele>-3.2000000476837</ele>
        <time>2021-04-08T09:00:39.000Z</time>
      </trkpt>
      <trkpt lat="47.3446" lon="-2.33346">
        <ele>-3.2000000476837</ele>
        <time>2021-04-08T09:00:45.000Z</time>
      </trkpt>
      <trkpt lat="47.34459" lon="-2.33333">
        <ele>-3.2000000476837</ele>
        <time>2021-04-08T09:00:49.000Z</time>
      </trkpt>
      <trkpt lat="47.34456" lon="-2.3332">
        <ele>-3.2000000476837</ele>
        <time>2021-04-08T09:00:55.000Z</time>
      </trkpt>
      <trkpt lat="47.34447" lon="-2.33306">
        <ele>-3.2000000476837</ele>
        <time>2021-04-08T09:01:01.000Z</time>
      </trkpt>
      <trkpt lat="47.34439" lon="-2.333">
        <ele>-3.5999999046326</ele>
        <time>2021-04-08T09:01:04.000Z</time>
      </trkpt>
      <trkpt lat="47.34436" lon="-2.33299">
        <ele>-4</ele>
        <time>2021-04-08T09:01:05.000Z</time>
      </trkpt>
      <trkpt lat="47.34433" lon="-2.33297">
        <ele>-4.8000001907349</ele>
        <time>2021-04-08T09:01:06.000Z</time>
      </trkpt>
      <trkpt lat="47.34431" lon="-2.33293">
        <ele>-5.1999998092651</ele>
        <time>2021-04-08T09:01:07.000Z</time>
      </trkpt>
      <trkpt lat="47.34423" lon="-2.33274">
        <ele>-5.1999998092651</ele>
        <time>2021-04-08T09:01:12.000Z</time>
      </trkpt>
      <trkpt lat="47.34418" lon="-2.33245">
        <ele>-5.1999998092651</ele>
        <time>2021-04-08T09:01:17.000Z</time>
      </trkpt>
      <trkpt lat="47.34417" lon="-2.33239">
        <ele>-5.1999998092651</ele>
        <time>2021-04-08T09:01:18.000Z</time>
      </trkpt>
      <trkpt lat="47.34416" lon="-2.33222">
        <ele>-5.1999998092651</ele>
        <time>2021-04-08T09:01:20.000Z</time>
      </trkpt>
      <trkpt lat="47.34413" lon="-2.33208">
        <ele>-5.1999998092651</ele>
        <time>2021-04-08T09:01:22.000Z</time>
      </trkpt>
      <trkpt lat="47.34404" lon="-2.33173">
        <ele>-5.1999998092651</ele>
        <time>2021-04-08T09:01:27.000Z</time>
      </trkpt>
      <trkpt lat="47.34399" lon="-2.33145">
        <ele>-5.5999999046326</ele>
        <time>2021-04-08T09:01:32.000Z</time>
      </trkpt>
      <trkpt lat="47.34398" lon="-2.3314">
        <ele>-6.1999998092651</ele>
        <time>2021-04-08T09:01:33.000Z</time>
      </trkpt>
      <trkpt lat="47.34396" lon="-2.33134">
        <ele>-6.5999999046326</ele>
        <time>2021-04-08T09:01:34.000Z</time>
      </trkpt>
      <trkpt lat="47.34395" lon="-2.33129">
        <ele>-7</ele>
        <time>2021-04-08T09:01:35.000Z</time>
      </trkpt>
      <trkpt lat="47.34394" lon="-2.33123">
        <ele>-7.4000000953674</ele>
        <time>2021-04-08T09:01:36.000Z</time>
      </trkpt>
      <trkpt lat="47.34389" lon="-2.331">
        <ele>-7.4000000953674</ele>
        <time>2021-04-08T09:01:40.000Z</time>
      </trkpt>
      <trkpt lat="47.34381" lon="-2.3307">
        <ele>-7.4000000953674</ele>
        <time>2021-04-08T09:01:46.000Z</time>
      </trkpt>
      <trkpt lat="47.34376" lon="-2.33053">
        <ele>-7.4000000953674</ele>
        <time>2021-04-08T09:01:51.000Z</time>
      </trkpt>
      <trkpt lat="47.34366" lon="-2.33043">
        <ele>-7.4000000953674</ele>
        <time>2021-04-08T09:01:56.000Z</time>
      </trkpt>
      <trkpt lat="47.34349" lon="-2.33046">
        <ele>-7.4000000953674</ele>
        <time>2021-04-08T09:02:01.000Z</time>
      </trkpt>
      <trkpt lat="47.34327" lon="-2.33055">
        <ele>-7.4000000953674</ele>
        <time>2021-04-08T09:02:07.000Z</time>
      </trkpt>
      <trkpt lat="47.3431" lon="-2.33056">
        <ele>-7.4000000953674</ele>
        <time>2021-04-08T09:02:12.000Z</time>
      </trkpt>
      <trkpt lat="47.34305" lon="-2.33058">
        <ele>-7.4000000953674</ele>
        <time>2021-04-08T09:02:15.000Z</time>
      </trkpt>
      <trkpt lat="47.34301" lon="-2.33055">
        <ele>-7.4000000953674</ele>
        <time>2021-04-08T09:02:17.000Z</time>
      </trkpt>
      <trkpt lat="47.34297" lon="-2.3305">
        <ele>-7.4000000953674</ele>
        <time>2021-04-08T09:02:20.000Z</time>
      </trkpt>
      <trkpt lat="47.3429" lon="-2.33037">
        <ele>-7.4000000953674</ele>
        <time>2021-04-08T09:02:23.000Z</time>
      </trkpt>
      <trkpt lat="47.34276" lon="-2.3301">
        <ele>-7.4000000953674</ele>
        <time>2021-04-08T09:02:30.000Z</time>
      </trkpt>
      <trkpt lat="47.34272" lon="-2.33001">
        <ele>-7.4000000953674</ele>
        <time>2021-04-08T09:02:35.000Z</time>
      </trkpt>
      <trkpt lat="47.34227" lon="-2.32918">
        <ele>-7.4000000953674</ele>
        <time>2021-04-08T09:04:17.000Z</time>
      </trkpt>
      <trkpt lat="47.34222" lon="-2.32912">
        <ele>-7</ele>
        <time>2021-04-08T09:04:19.000Z</time>
      </trkpt>
      <trkpt lat="47.3422" lon="-2.32908">
        <ele>-6.5999999046326</ele>
        <time>2021-04-08T09:04:20.000Z</time>
      </trkpt>
      <trkpt lat="47.34218" lon="-2.32905">
        <ele>-6.1999998092651</ele>
        <time>2021-04-08T09:04:21.000Z</time>
      </trkpt>
      <trkpt lat="47.34216" lon="-2.32901">
        <ele>-5.8000001907349</ele>
        <time>2021-04-08T09:04:22.000Z</time>
      </trkpt>
      <trkpt lat="47.34214" lon="-2.32898">
        <ele>-5.4000000953674</ele>
        <time>2021-04-08T09:04:23.000Z</time>
      </trkpt>
      <trkpt lat="47.3421" lon="-2.32891">
        <ele>-5.4000000953674</ele>
        <time>2021-04-08T09:04:26.000Z</time>
      </trkpt>
      <trkpt lat="47.342" lon="-2.32874">
        <ele>-5.4000000953674</ele>
        <time>2021-04-08T09:04:32.000Z</time>
      </trkpt>
      <trkpt lat="47.34193" lon="-2.32861">
        <ele>-4.8000001907349</ele>
        <time>2021-04-08T09:04:37.000Z</time>
      </trkpt>
      <trkpt lat="47.34191" lon="-2.32858">
        <ele>-4.4000000953674</ele>
        <time>2021-04-08T09:04:38.000Z</time>
      </trkpt>
      <trkpt lat="47.34189" lon="-2.32855">
        <ele>-4</ele>
        <time>2021-04-08T09:04:39.000Z</time>
      </trkpt>
      <trkpt lat="47.34187" lon="-2.32854">
        <ele>-3.5999999046326</ele>
        <time>2021-04-08T09:04:40.000Z</time>
      </trkpt>
      <trkpt lat="47.34185" lon="-2.32853">
        <ele>-3</ele>
        <time>2021-04-08T09:04:41.000Z</time>
      </trkpt>
      <trkpt lat="47.34179" lon="-2.32847">
        <ele>-3</ele>
        <time>2021-04-08T09:04:44.000Z</time>
      </trkpt>
      <trkpt lat="47.34173" lon="-2.32841">
        <ele>-3</ele>
        <time>2021-04-08T09:04:47.000Z</time>
      </trkpt>
      <trkpt lat="47.3417" lon="-2.32837">
        <ele>-3</ele>
        <time>2021-04-08T09:04:49.000Z</time>
      </trkpt>
      <trkpt lat="47.34163" lon="-2.32822">
        <ele>-3</ele>
        <time>2021-04-08T09:04:54.000Z</time>
      </trkpt>
      <trkpt lat="47.34161" lon="-2.32805">
        <ele>-3</ele>
        <time>2021-04-08T09:04:59.000Z</time>
      </trkpt>
      <trkpt lat="47.34158" lon="-2.32785">
        <ele>-2.5999999046326</ele>
        <time>2021-04-08T09:05:04.000Z</time>
      </trkpt>
      <trkpt lat="47.34158" lon="-2.32781">
        <ele>-2.2000000476837</ele>
        <time>2021-04-08T09:05:05.000Z</time>
      </trkpt>
      <trkpt lat="47.34158" lon="-2.32778">
        <ele>-1.7999999523163</ele>
        <time>2021-04-08T09:05:06.000Z</time>
      </trkpt>
      <trkpt lat="47.34159" lon="-2.32775">
        <ele>-1.3999999761581</ele>
        <time>2021-04-08T09:05:07.000Z</time>
      </trkpt>
      <trkpt lat="47.34161" lon="-2.32771">
        <ele>-1</ele>
        <time>2021-04-08T09:05:08.000Z</time>
      </trkpt>
      <trkpt lat="47.34163" lon="-2.32758">
        <ele>-1</ele>
        <time>2021-04-08T09:05:11.000Z</time>
      </trkpt>
      <trkpt lat="47.34163" lon="-2.32753">
        <ele>-1</ele>
        <time>2021-04-08T09:05:12.000Z</time>
      </trkpt>
      <trkpt lat="47.34163" lon="-2.32716">
        <ele>-1</ele>
        <time>2021-04-08T09:05:19.000Z</time>
      </trkpt>
      <trkpt lat="47.3416" lon="-2.32686">
        <ele>-1</ele>
        <time>2021-04-08T09:05:24.000Z</time>
      </trkpt>
      <trkpt lat="47.34155" lon="-2.32638">
        <ele>-1</ele>
        <time>2021-04-08T09:05:32.000Z</time>
      </trkpt>
      <trkpt lat="47.34153" lon="-2.32597">
        <ele>-1</ele>
        <time>2021-04-08T09:05:39.000Z</time>
      </trkpt>
      <trkpt lat="47.34157" lon="-2.32567">
        <ele>-1</ele>
        <time>2021-04-08T09:05:44.000Z</time>
      </trkpt>
      <trkpt lat="47.34155" lon="-2.32519">
        <ele>-1</ele>
        <time>2021-04-08T09:05:50.000Z</time>
      </trkpt>
      <trkpt lat="47.34146" lon="-2.32468">
        <ele>-1</ele>
        <time>2021-04-08T09:05:56.000Z</time>
      </trkpt>
      <trkpt lat="47.34133" lon="-2.32423">
        <ele>-1</ele>
        <time>2021-04-08T09:06:02.000Z</time>
      </trkpt>
      <trkpt lat="47.34116" lon="-2.32367">
        <ele>-1</ele>
        <time>2021-04-08T09:06:10.000Z</time>
      </trkpt>
      <trkpt lat="47.34103" lon="-2.32321">
        <ele>-1</ele>
        <time>2021-04-08T09:06:16.000Z</time>
      </trkpt>
      <trkpt lat="47.34089" lon="-2.32267">
        <ele>-1.3999999761581</ele>
        <time>2021-04-08T09:06:22.000Z</time>
      </trkpt>
      <trkpt lat="47.34086" lon="-2.32257">
        <ele>-1.7999999523163</ele>
        <time>2021-04-08T09:06:23.000Z</time>
      </trkpt>
      <trkpt lat="47.34082" lon="-2.32248">
        <ele>-2.2000000476837</ele>
        <time>2021-04-08T09:06:24.000Z</time>
      </trkpt>
      <trkpt lat="47.34078" lon="-2.32239">
        <ele>-2.5999999046326</ele>
        <time>2021-04-08T09:06:25.000Z</time>
      </trkpt>
      <trkpt lat="47.34073" lon="-2.32232">
        <ele>-3</ele>
        <time>2021-04-08T09:06:26.000Z</time>
      </trkpt>
      <trkpt lat="47.34068" lon="-2.32226">
        <ele>-3</ele>
        <time>2021-04-08T09:06:27.000Z</time>
      </trkpt>
      <trkpt lat="47.34049" lon="-2.32218">
        <ele>-3</ele>
        <time>2021-04-08T09:06:30.000Z</time>
      </trkpt>
      <trkpt lat="47.34043" lon="-2.32217">
        <ele>-3</ele>
        <time>2021-04-08T09:06:31.000Z</time>
      </trkpt>
      <trkpt lat="47.34036" lon="-2.32217">
        <ele>-3.4000000953674</ele>
        <time>2021-04-08T09:06:32.000Z</time>
      </trkpt>
      <trkpt lat="47.34029" lon="-2.32217">
        <ele>-3.7999999523163</ele>
        <time>2021-04-08T09:06:33.000Z</time>
      </trkpt>
      <trkpt lat="47.34023" lon="-2.32217">
        <ele>-4.1999998092651</ele>
        <time>2021-04-08T09:06:34.000Z</time>
      </trkpt>
      <trkpt lat="47.34017" lon="-2.32217">
        <ele>-4.5999999046326</ele>
        <time>2021-04-08T09:06:35.000Z</time>
      </trkpt>
      <trkpt lat="47.3401" lon="-2.32217">
        <ele>-5</ele>
        <time>2021-04-08T09:06:36.000Z</time>
      </trkpt>
      <trkpt lat="47.33998" lon="-2.32217">
        <ele>-5</ele>
        <time>2021-04-08T09:06:38.000Z</time>
      </trkpt>
      <trkpt lat="47.33959" lon="-2.32214">
        <ele>-5</ele>
        <time>2021-04-08T09:06:45.000Z</time>
      </trkpt>
      <trkpt lat="47.33944" lon="-2.32202">
        <ele>-5</ele>
        <time>2021-04-08T09:06:48.000Z</time>
      </trkpt>
      <trkpt lat="47.33932" lon="-2.32194">
        <ele>-5</ele>
        <time>2021-04-08T09:06:50.000Z</time>
      </trkpt>
      <trkpt lat="47.33919" lon="-2.32193">
        <ele>-5</ele>
        <time>2021-04-08T09:06:52.000Z</time>
      </trkpt>
      <trkpt lat="47.33879" lon="-2.32195">
        <ele>-5</ele>
        <time>2021-04-08T09:06:59.000Z</time>
      </trkpt>
      <trkpt lat="47.33852" lon="-2.32196">
        <ele>-5</ele>
        <time>2021-04-08T09:07:04.000Z</time>
      </trkpt>
      <trkpt lat="47.33847" lon="-2.32197">
        <ele>-5</ele>
        <time>2021-04-08T09:07:05.000Z</time>
      </trkpt>
      <trkpt lat="47.33803" lon="-2.32204">
        <ele>-5</ele>
        <time>2021-04-08T09:07:13.000Z</time>
      </trkpt>
      <trkpt lat="47.33763" lon="-2.32217">
        <ele>-5</ele>
        <time>2021-04-08T09:07:20.000Z</time>
      </trkpt>
      <trkpt lat="47.33721" lon="-2.32241">
        <ele>-5</ele>
        <time>2021-04-08T09:07:28.000Z</time>
      </trkpt>
      <trkpt lat="47.33679" lon="-2.32268">
        <ele>-5</ele>
        <time>2021-04-08T09:07:36.000Z</time>
      </trkpt>
      <trkpt lat="47.33642" lon="-2.32287">
        <ele>-5</ele>
        <time>2021-04-08T09:07:43.000Z</time>
      </trkpt>
      <trkpt lat="47.33624" lon="-2.32291">
        <ele>-5</ele>
        <time>2021-04-08T09:07:46.000Z</time>
      </trkpt>
      <trkpt lat="47.33609" lon="-2.32292">
        <ele>-5</ele>
        <time>2021-04-08T09:07:48.000Z</time>
      </trkpt>
      <trkpt lat="47.33559" lon="-2.32302">
        <ele>-5</ele>
        <time>2021-04-08T09:07:56.000Z</time>
      </trkpt>
      <trkpt lat="47.33546" lon="-2.32304">
        <ele>-5</ele>
        <time>2021-04-08T09:07:58.000Z</time>
      </trkpt>
      <trkpt lat="47.33533" lon="-2.32303">
        <ele>-5</ele>
        <time>2021-04-08T09:08:00.000Z</time>
      </trkpt>
      <trkpt lat="47.33526" lon="-2.32304">
        <ele>-5</ele>
        <time>2021-04-08T09:08:01.000Z</time>
      </trkpt>
      <trkpt lat="47.33491" lon="-2.32321">
        <ele>-5</ele>
        <time>2021-04-08T09:08:06.000Z</time>
      </trkpt>
      <trkpt lat="47.33456" lon="-2.32341">
        <ele>-5</ele>
        <time>2021-04-08T09:08:12.000Z</time>
      </trkpt>
      <trkpt lat="47.33418" lon="-2.32367">
        <ele>-5</ele>
        <time>2021-04-08T09:08:19.000Z</time>
      </trkpt>
      <trkpt lat="47.33387" lon="-2.32395">
        <ele>-5</ele>
        <time>2021-04-08T09:08:25.000Z</time>
      </trkpt>
      <trkpt lat="47.33366" lon="-2.32413">
        <ele>-5</ele>
        <time>2021-04-08T09:08:29.000Z</time>
      </trkpt>
      <trkpt lat="47.33357" lon="-2.32422">
        <ele>-5</ele>
        <time>2021-04-08T09:08:31.000Z</time>
      </trkpt>
      <trkpt lat="47.33348" lon="-2.32433">
        <ele>-5</ele>
        <time>2021-04-08T09:08:33.000Z</time>
      </trkpt>
      <trkpt lat="47.33334" lon="-2.32453">
        <ele>-5</ele>
        <time>2021-04-08T09:08:37.000Z</time>
      </trkpt>
      <trkpt lat="47.3333" lon="-2.32456">
        <ele>-5</ele>
        <time>2021-04-08T09:08:38.000Z</time>
      </trkpt>
      <trkpt lat="47.33301" lon="-2.32469">
        <ele>-5</ele>
        <time>2021-04-08T09:08:44.000Z</time>
      </trkpt>
      <trkpt lat="47.33258" lon="-2.3249">
        <ele>-5</ele>
        <time>2021-04-08T09:08:52.000Z</time>
      </trkpt>
      <trkpt lat="47.3322" lon="-2.32507">
        <ele>-5</ele>
        <time>2021-04-08T09:08:59.000Z</time>
      </trkpt>
      <trkpt lat="47.33174" lon="-2.32526">
        <ele>-5</ele>
        <time>2021-04-08T09:09:07.000Z</time>
      </trkpt>
      <trkpt lat="47.33169" lon="-2.3253">
        <ele>-5</ele>
        <time>2021-04-08T09:09:08.000Z</time>
      </trkpt>
      <trkpt lat="47.33157" lon="-2.32538">
        <ele>-5</ele>
        <time>2021-04-08T09:09:10.000Z</time>
      </trkpt>
      <trkpt lat="47.3312" lon="-2.32564">
        <ele>-5</ele>
        <time>2021-04-08T09:09:16.000Z</time>
      </trkpt>
      <trkpt lat="47.33083" lon="-2.32596">
        <ele>-5</ele>
        <time>2021-04-08T09:09:22.000Z</time>
      </trkpt>
      <trkpt lat="47.33036" lon="-2.32635">
        <ele>-5</ele>
        <time>2021-04-08T09:09:29.000Z</time>
      </trkpt>
      <trkpt lat="47.33028" lon="-2.32638">
        <ele>-5</ele>
        <time>2021-04-08T09:09:30.000Z</time>
      </trkpt>
      <trkpt lat="47.33015" lon="-2.32636">
        <ele>-5.5999999046326</ele>
        <time>2021-04-08T09:09:32.000Z</time>
      </trkpt>
      <trkpt lat="47.33008" lon="-2.32632">
        <ele>-6</ele>
        <time>2021-04-08T09:09:33.000Z</time>
      </trkpt>
      <trkpt lat="47.33002" lon="-2.32629">
        <ele>-6.4000000953674</ele>
        <time>2021-04-08T09:09:34.000Z</time>
      </trkpt>
      <trkpt lat="47.32994" lon="-2.32627">
        <ele>-6.8000001907349</ele>
        <time>2021-04-08T09:09:35.000Z</time>
      </trkpt>
      <trkpt lat="47.32987" lon="-2.32628">
        <ele>-7.4000000953674</ele>
        <time>2021-04-08T09:09:36.000Z</time>
      </trkpt>
      <trkpt lat="47.32974" lon="-2.32635">
        <ele>-7.4000000953674</ele>
        <time>2021-04-08T09:09:38.000Z</time>
      </trkpt>
      <trkpt lat="47.32968" lon="-2.32639">
        <ele>-7.4000000953674</ele>
        <time>2021-04-08T09:09:39.000Z</time>
      </trkpt>
      <trkpt lat="47.3295" lon="-2.32647">
        <ele>-7.4000000953674</ele>
        <time>2021-04-08T09:09:42.000Z</time>
      </trkpt>
      <trkpt lat="47.32933" lon="-2.32648">
        <ele>-7.4000000953674</ele>
        <time>2021-04-08T09:09:45.000Z</time>
      </trkpt>
      <trkpt lat="47.32927" lon="-2.32646">
        <ele>-7.4000000953674</ele>
        <time>2021-04-08T09:09:46.000Z</time>
      </trkpt>
      <trkpt lat="47.32917" lon="-2.32631">
        <ele>-7.4000000953674</ele>
        <time>2021-04-08T09:09:49.000Z</time>
      </trkpt>
      <trkpt lat="47.32915" lon="-2.32618">
        <ele>-7.4000000953674</ele>
        <time>2021-04-08T09:09:51.000Z</time>
      </trkpt>
      <trkpt lat="47.32915" lon="-2.32612">
        <ele>-7.4000000953674</ele>
        <time>2021-04-08T09:09:52.000Z</time>
      </trkpt>
      <trkpt lat="47.32914" lon="-2.32585">
        <ele>-7.4000000953674</ele>
        <time>2021-04-08T09:09:57.000Z</time>
      </trkpt>
      <trkpt lat="47.32914" lon="-2.32543">
        <ele>-7.4000000953674</ele>
        <time>2021-04-08T09:10:03.000Z</time>
      </trkpt>
      <trkpt lat="47.32913" lon="-2.32536">
        <ele>-7.4000000953674</ele>
        <time>2021-04-08T09:10:04.000Z</time>
      </trkpt>
      <trkpt lat="47.32908" lon="-2.32515">
        <ele>-7.4000000953674</ele>
        <time>2021-04-08T09:10:07.000Z</time>
      </trkpt>
      <trkpt lat="47.32895" lon="-2.32472">
        <ele>-7.4000000953674</ele>
        <time>2021-04-08T09:10:13.000Z</time>
      </trkpt>
      <trkpt lat="47.32892" lon="-2.32466">
        <ele>-7.4000000953674</ele>
        <time>2021-04-08T09:10:14.000Z</time>
      </trkpt>
      <trkpt lat="47.32879" lon="-2.32452">
        <ele>-7</ele>
        <time>2021-04-08T09:10:17.000Z</time>
      </trkpt>
      <trkpt lat="47.32874" lon="-2.32449">
        <ele>-6.5999999046326</ele>
        <time>2021-04-08T09:10:18.000Z</time>
      </trkpt>
      <trkpt lat="47.32868" lon="-2.32446">
        <ele>-6.1999998092651</ele>
        <time>2021-04-08T09:10:19.000Z</time>
      </trkpt>
      <trkpt lat="47.32862" lon="-2.32443">
        <ele>-5.5999999046326</ele>
        <time>2021-04-08T09:10:20.000Z</time>
      </trkpt>
      <trkpt lat="47.32857" lon="-2.32439">
        <ele>-5.1999998092651</ele>
        <time>2021-04-08T09:10:21.000Z</time>
      </trkpt>
      <trkpt lat="47.32834" lon="-2.3242">
        <ele>-5.1999998092651</ele>
        <time>2021-04-08T09:10:25.000Z</time>
      </trkpt>
      <trkpt lat="47.32792" lon="-2.32378">
        <ele>-5.1999998092651</ele>
        <time>2021-04-08T09:10:33.000Z</time>
      </trkpt>
      <trkpt lat="47.3276" lon="-2.32358">
        <ele>-5.1999998092651</ele>
        <time>2021-04-08T09:10:39.000Z</time>
      </trkpt>
      <trkpt lat="47.32728" lon="-2.3234">
        <ele>-5.1999998092651</ele>
        <time>2021-04-08T09:10:45.000Z</time>
      </trkpt>
      <trkpt lat="47.32689" lon="-2.32322">
        <ele>-5.1999998092651</ele>
        <time>2021-04-08T09:10:52.000Z</time>
      </trkpt>
      <trkpt lat="47.32658" lon="-2.3231">
        <ele>-5.1999998092651</ele>
        <time>2021-04-08T09:10:58.000Z</time>
      </trkpt>
      <trkpt lat="47.32639" lon="-2.32308">
        <ele>-4.8000001907349</ele>
        <time>2021-04-08T09:11:02.000Z</time>
      </trkpt>
      <trkpt lat="47.32634" lon="-2.32308">
        <ele>-4.4000000953674</ele>
        <time>2021-04-08T09:11:03.000Z</time>
      </trkpt>
      <trkpt lat="47.32628" lon="-2.32308">
        <ele>-4</ele>
        <time>2021-04-08T09:11:04.000Z</time>
      </trkpt>
      <trkpt lat="47.32623" lon="-2.32307">
        <ele>-3.5999999046326</ele>
        <time>2021-04-08T09:11:05.000Z</time>
      </trkpt>
      <trkpt lat="47.32617" lon="-2.32308">
        <ele>-3.2000000476837</ele>
        <time>2021-04-08T09:11:06.000Z</time>
      </trkpt>
      <trkpt lat="47.326" lon="-2.32309">
        <ele>-3.2000000476837</ele>
        <time>2021-04-08T09:11:09.000Z</time>
      </trkpt>
      <trkpt lat="47.32563" lon="-2.32313">
        <ele>-3.2000000476837</ele>
        <time>2021-04-08T09:11:16.000Z</time>
      </trkpt>
      <trkpt lat="47.3255" lon="-2.32313">
        <ele>-3.2000000476837</ele>
        <time>2021-04-08T09:11:19.000Z</time>
      </trkpt>
      <trkpt lat="47.32538" lon="-2.32313">
        <ele>-3.2000000476837</ele>
        <time>2021-04-08T09:11:22.000Z</time>
      </trkpt>
      <trkpt lat="47.32534" lon="-2.32302">
        <ele>-3.2000000476837</ele>
        <time>2021-04-08T09:11:25.000Z</time>
      </trkpt>
      <trkpt lat="47.32537" lon="-2.3229">
        <ele>-3.2000000476837</ele>
        <time>2021-04-08T09:11:27.000Z</time>
      </trkpt>
      <trkpt lat="47.32541" lon="-2.32273">
        <ele>-3.2000000476837</ele>
        <time>2021-04-08T09:11:29.000Z</time>
      </trkpt>
      <trkpt lat="47.32549" lon="-2.32243">
        <ele>-3.5999999046326</ele>
        <time>2021-04-08T09:11:32.000Z</time>
      </trkpt>
      <trkpt lat="47.32553" lon="-2.32232">
        <ele>-4</ele>
        <time>2021-04-08T09:11:33.000Z</time>
      </trkpt>
      <trkpt lat="47.32556" lon="-2.3222">
        <ele>-4.5999999046326</ele>
        <time>2021-04-08T09:11:34.000Z</time>
      </trkpt>
      <trkpt lat="47.3256" lon="-2.32209">
        <ele>-5</ele>
        <time>2021-04-08T09:11:35.000Z</time>
      </trkpt>
      <trkpt lat="47.32563" lon="-2.32198">
        <ele>-5.4000000953674</ele>
        <time>2021-04-08T09:11:36.000Z</time>
      </trkpt>
      <trkpt lat="47.32574" lon="-2.32157">
        <ele>-5.4000000953674</ele>
        <time>2021-04-08T09:11:40.000Z</time>
      </trkpt>
      <trkpt lat="47.32579" lon="-2.3214">
        <ele>-5.4000000953674</ele>
        <time>2021-04-08T09:11:42.000Z</time>
      </trkpt>
      <trkpt lat="47.32583" lon="-2.32126">
        <ele>-5.4000000953674</ele>
        <time>2021-04-08T09:11:44.000Z</time>
      </trkpt>
      <trkpt lat="47.32585" lon="-2.32118">
        <ele>-5.4000000953674</ele>
        <time>2021-04-08T09:11:45.000Z</time>
      </trkpt>
      <trkpt lat="47.32585" lon="-2.32104">
        <ele>-5.4000000953674</ele>
        <time>2021-04-08T09:11:47.000Z</time>
      </trkpt>
      <trkpt lat="47.32575" lon="-2.32095">
        <ele>-5.4000000953674</ele>
        <time>2021-04-08T09:11:50.000Z</time>
      </trkpt>
      <trkpt lat="47.3257" lon="-2.32095">
        <ele>-5.4000000953674</ele>
        <time>2021-04-08T09:11:51.000Z</time>
      </trkpt>
      <trkpt lat="47.32565" lon="-2.32095">
        <ele>-5</ele>
        <time>2021-04-08T09:11:52.000Z</time>
      </trkpt>
      <trkpt lat="47.3256" lon="-2.32096">
        <ele>-4.5999999046326</ele>
        <time>2021-04-08T09:11:53.000Z</time>
      </trkpt>
      <trkpt lat="47.32555" lon="-2.32097">
        <ele>-4.1999998092651</ele>
        <time>2021-04-08T09:11:54.000Z</time>
      </trkpt>
      <trkpt lat="47.32549" lon="-2.32097">
        <ele>-3.5999999046326</ele>
        <time>2021-04-08T09:11:55.000Z</time>
      </trkpt>
      <trkpt lat="47.32543" lon="-2.32097">
        <ele>-3.2000000476837</ele>
        <time>2021-04-08T09:11:56.000Z</time>
      </trkpt>
      <trkpt lat="47.32522" lon="-2.32097">
        <ele>-3.2000000476837</ele>
        <time>2021-04-08T09:12:00.000Z</time>
      </trkpt>
      <trkpt lat="47.32508" lon="-2.32099">
        <ele>-3.2000000476837</ele>
        <time>2021-04-08T09:12:03.000Z</time>
      </trkpt>
      <trkpt lat="47.32503" lon="-2.32097">
        <ele>-3.2000000476837</ele>
        <time>2021-04-08T09:12:04.000Z</time>
      </trkpt>
      <trkpt lat="47.32499" lon="-2.32087">
        <ele>-3.2000000476837</ele>
        <time>2021-04-08T09:12:06.000Z</time>
      </trkpt>
      <trkpt lat="47.32499" lon="-2.32064">
        <ele>-3.2000000476837</ele>
        <time>2021-04-08T09:12:10.000Z</time>
      </trkpt>
      <trkpt lat="47.32499" lon="-2.32057">
        <ele>-3.2000000476837</ele>
        <time>2021-04-08T09:12:11.000Z</time>
      </trkpt>
      <trkpt lat="47.32501" lon="-2.32013">
        <ele>-3.2000000476837</ele>
        <time>2021-04-08T09:12:17.000Z</time>
      </trkpt>
      <trkpt lat="47.32504" lon="-2.31974">
        <ele>-3.2000000476837</ele>
        <time>2021-04-08T09:12:23.000Z</time>
      </trkpt>
      <trkpt lat="47.3251" lon="-2.31934">
        <ele>-3.2000000476837</ele>
        <time>2021-04-08T09:12:31.000Z</time>
      </trkpt>
      <trkpt lat="47.32511" lon="-2.3191">
        <ele>-3.2000000476837</ele>
        <time>2021-04-08T09:12:36.000Z</time>
      </trkpt>
      <trkpt lat="47.32514" lon="-2.31882">
        <ele>-3.2000000476837</ele>
        <time>2021-04-08T09:12:42.000Z</time>
      </trkpt>
      <trkpt lat="47.32518" lon="-2.31855">
        <ele>-3.2000000476837</ele>
        <time>2021-04-08T09:12:48.000Z</time>
      </trkpt>
      <trkpt lat="47.32518" lon="-2.31826">
        <ele>-3.2000000476837</ele>
        <time>2021-04-08T09:12:54.000Z</time>
      </trkpt>
      <trkpt lat="47.32515" lon="-2.31786">
        <ele>-3.2000000476837</ele>
        <time>2021-04-08T09:13:03.000Z</time>
      </trkpt>
      <trkpt lat="47.32513" lon="-2.31764">
        <ele>-2.7999999523163</ele>
        <time>2021-04-08T09:13:07.000Z</time>
      </trkpt>
      <trkpt lat="47.32513" lon="-2.31759">
        <ele>-2.4000000953674</ele>
        <time>2021-04-08T09:13:08.000Z</time>
      </trkpt>
      <trkpt lat="47.32512" lon="-2.31754">
        <ele>-2</ele>
        <time>2021-04-08T09:13:09.000Z</time>
      </trkpt>
      <trkpt lat="47.32512" lon="-2.31748">
        <ele>-1.6000000238419</ele>
        <time>2021-04-08T09:13:10.000Z</time>
      </trkpt>
      <trkpt lat="47.32512" lon="-2.31743">
        <ele>-1.2000000476837</ele>
        <time>2021-04-08T09:13:11.000Z</time>
      </trkpt>
      <trkpt lat="47.32509" lon="-2.31716">
        <ele>-1.2000000476837</ele>
        <time>2021-04-08T09:13:16.000Z</time>
      </trkpt>
      <trkpt lat="47.32506" lon="-2.31673">
        <ele>-1.2000000476837</ele>
        <time>2021-04-08T09:13:23.000Z</time>
      </trkpt>
      <trkpt lat="47.32507" lon="-2.31654">
        <ele>-1.2000000476837</ele>
        <time>2021-04-08T09:13:26.000Z</time>
      </trkpt>
      <trkpt lat="47.32511" lon="-2.31643">
        <ele>-1.2000000476837</ele>
        <time>2021-04-08T09:13:28.000Z</time>
      </trkpt>
      <trkpt lat="47.32514" lon="-2.31638">
        <ele>-1.2000000476837</ele>
        <time>2021-04-08T09:13:29.000Z</time>
      </trkpt>
      <trkpt lat="47.32528" lon="-2.31617">
        <ele>-1.2000000476837</ele>
        <time>2021-04-08T09:13:33.000Z</time>
      </trkpt>
      <trkpt lat="47.32554" lon="-2.31581">
        <ele>-1.2000000476837</ele>
        <time>2021-04-08T09:13:40.000Z</time>
      </trkpt>
      <trkpt lat="47.32554" lon="-2.31559">
        <ele>-1.2000000476837</ele>
        <time>2021-04-08T09:13:43.000Z</time>
      </trkpt>
      <trkpt lat="47.32554" lon="-2.31539">
        <ele>-1.2000000476837</ele>
        <time>2021-04-08T09:13:46.000Z</time>
      </trkpt>
      <trkpt lat="47.32556" lon="-2.3151">
        <ele>-1.2000000476837</ele>
        <time>2021-04-08T09:13:50.000Z</time>
      </trkpt>
      <trkpt lat="47.32557" lon="-2.31472">
        <ele>-1.2000000476837</ele>
        <time>2021-04-08T09:13:56.000Z</time>
      </trkpt>
      <trkpt lat="47.32556" lon="-2.31457">
        <ele>-1.2000000476837</ele>
        <time>2021-04-08T09:13:58.000Z</time>
      </trkpt>
      <trkpt lat="47.32553" lon="-2.31434">
        <ele>-1.2000000476837</ele>
        <time>2021-04-08T09:14:02.000Z</time>
      </trkpt>
      <trkpt lat="47.3255" lon="-2.31409">
        <ele>-1.2000000476837</ele>
        <time>2021-04-08T09:14:07.000Z</time>
      </trkpt>
      <trkpt lat="47.32549" lon="-2.31408">
        <ele>-1.2000000476837</ele>
        <time>2021-04-08T09:14:09.000Z</time>
      </trkpt>
      <trkpt lat="47.3255" lon="-2.31404">
        <ele>-1.2000000476837</ele>
        <time>2021-04-08T09:14:13.000Z</time>
      </trkpt>
      <trkpt lat="47.32551" lon="-2.314">
        <ele>-1.2000000476837</ele>
        <time>2021-04-08T09:14:14.000Z</time>
      </trkpt>
      <trkpt lat="47.32555" lon="-2.31381">
        <ele>-1.2000000476837</ele>
        <time>2021-04-08T09:14:17.000Z</time>
      </trkpt>
      <trkpt lat="47.32555" lon="-2.31373">
        <ele>-1.2000000476837</ele>
        <time>2021-04-08T09:14:18.000Z</time>
      </trkpt>
      <trkpt lat="47.32557" lon="-2.31347">
        <ele>-1.2000000476837</ele>
        <time>2021-04-08T09:14:21.000Z</time>
      </trkpt>
      <trkpt lat="47.3256" lon="-2.31329">
        <ele>-1.2000000476837</ele>
        <time>2021-04-08T09:14:23.000Z</time>
      </trkpt>
      <trkpt lat="47.32562" lon="-2.31322">
        <ele>-1.2000000476837</ele>
        <time>2021-04-08T09:14:24.000Z</time>
      </trkpt>
      <trkpt lat="47.3257" lon="-2.31297">
        <ele>-1.2000000476837</ele>
        <time>2021-04-08T09:14:27.000Z</time>
      </trkpt>
      <trkpt lat="47.32572" lon="-2.31259">
        <ele>-1.2000000476837</ele>
        <time>2021-04-08T09:14:31.000Z</time>
      </trkpt>
      <trkpt lat="47.32573" lon="-2.31221">
        <ele>-1.2000000476837</ele>
        <time>2021-04-08T09:14:35.000Z</time>
      </trkpt>
      <trkpt lat="47.32567" lon="-2.31206">
        <ele>-1.2000000476837</ele>
        <time>2021-04-08T09:14:37.000Z</time>
      </trkpt>
      <trkpt lat="47.32559" lon="-2.31172">
        <ele>-1.2000000476837</ele>
        <time>2021-04-08T09:14:41.000Z</time>
      </trkpt>
      <trkpt lat="47.32564" lon="-2.31141">
        <ele>-1.2000000476837</ele>
        <time>2021-04-08T09:14:45.000Z</time>
      </trkpt>
      <trkpt lat="47.3257" lon="-2.31087">
        <ele>-1.2000000476837</ele>
        <time>2021-04-08T09:14:52.000Z</time>
      </trkpt>
      <trkpt lat="47.3257" lon="-2.3108">
        <ele>-1.2000000476837</ele>
        <time>2021-04-08T09:14:53.000Z</time>
      </trkpt>
      <trkpt lat="47.32568" lon="-2.31045">
        <ele>-1.2000000476837</ele>
        <time>2021-04-08T09:14:58.000Z</time>
      </trkpt>
      <trkpt lat="47.32564" lon="-2.3102">
        <ele>-0.80000001192093</ele>
        <time>2021-04-08T09:15:02.000Z</time>
      </trkpt>
      <trkpt lat="47.32563" lon="-2.31013">
        <ele>-0.20000000298023</ele>
        <time>2021-04-08T09:15:03.000Z</time>
      </trkpt>
      <trkpt lat="47.32562" lon="-2.31006">
        <ele>0.20000000298023</ele>
        <time>2021-04-08T09:15:04.000Z</time>
      </trkpt>
      <trkpt lat="47.32562" lon="-2.30997">
        <ele>0.60000002384186</ele>
        <time>2021-04-08T09:15:05.000Z</time>
      </trkpt>
      <trkpt lat="47.32562" lon="-2.30989">
        <ele>1</ele>
        <time>2021-04-08T09:15:06.000Z</time>
      </trkpt>
      <trkpt lat="47.32562" lon="-2.30973">
        <ele>1</ele>
        <time>2021-04-08T09:15:08.000Z</time>
      </trkpt>
      <trkpt lat="47.32565" lon="-2.30916">
        <ele>1</ele>
        <time>2021-04-08T09:15:15.000Z</time>
      </trkpt>
      <trkpt lat="47.32566" lon="-2.30869">
        <ele>1</ele>
        <time>2021-04-08T09:15:20.000Z</time>
      </trkpt>
      <trkpt lat="47.32561" lon="-2.30791">
        <ele>1</ele>
        <time>2021-04-08T09:15:28.000Z</time>
      </trkpt>
      <trkpt lat="47.32552" lon="-2.30734">
        <ele>1</ele>
        <time>2021-04-08T09:15:34.000Z</time>
      </trkpt>
      <trkpt lat="47.32551" lon="-2.30725">
        <ele>1</ele>
        <time>2021-04-08T09:15:35.000Z</time>
      </trkpt>
      <trkpt lat="47.32545" lon="-2.30692">
        <ele>1</ele>
        <time>2021-04-08T09:15:39.000Z</time>
      </trkpt>
      <trkpt lat="47.32541" lon="-2.30652">
        <ele>1</ele>
        <time>2021-04-08T09:15:44.000Z</time>
      </trkpt>
      <trkpt lat="47.32539" lon="-2.30643">
        <ele>1</ele>
        <time>2021-04-08T09:15:45.000Z</time>
      </trkpt>
      <trkpt lat="47.32537" lon="-2.30636">
        <ele>1</ele>
        <time>2021-04-08T09:15:46.000Z</time>
      </trkpt>
      <trkpt lat="47.32533" lon="-2.30621">
        <ele>1</ele>
        <time>2021-04-08T09:15:48.000Z</time>
      </trkpt>
      <trkpt lat="47.32532" lon="-2.30613">
        <ele>1</ele>
        <time>2021-04-08T09:15:49.000Z</time>
      </trkpt>
      <trkpt lat="47.32525" lon="-2.30559">
        <ele>1</ele>
        <time>2021-04-08T09:15:56.000Z</time>
      </trkpt>
      <trkpt lat="47.32518" lon="-2.30515">
        <ele>1</ele>
        <time>2021-04-08T09:16:02.000Z</time>
      </trkpt>
      <trkpt lat="47.32517" lon="-2.30507">
        <ele>1</ele>
        <time>2021-04-08T09:16:03.000Z</time>
      </trkpt>
      <trkpt lat="47.32505" lon="-2.30455">
        <ele>1</ele>
        <time>2021-04-08T09:16:10.000Z</time>
      </trkpt>
      <trkpt lat="47.32499" lon="-2.3042">
        <ele>1</ele>
        <time>2021-04-08T09:16:15.000Z</time>
      </trkpt>
      <trkpt lat="47.32502" lon="-2.30414">
        <ele>1</ele>
        <time>2021-04-08T09:16:16.000Z</time>
      </trkpt>
      <trkpt lat="47.32517" lon="-2.30408">
        <ele>1</ele>
        <time>2021-04-08T09:16:19.000Z</time>
      </trkpt>
      <trkpt lat="47.32522" lon="-2.30406">
        <ele>1</ele>
        <time>2021-04-08T09:16:20.000Z</time>
      </trkpt>
      <trkpt lat="47.32532" lon="-2.30402">
        <ele>1</ele>
        <time>2021-04-08T09:16:22.000Z</time>
      </trkpt>
      <trkpt lat="47.3254" lon="-2.30395">
        <ele>1</ele>
        <time>2021-04-08T09:16:24.000Z</time>
      </trkpt>
      <trkpt lat="47.32542" lon="-2.30388">
        <ele>1</ele>
        <time>2021-04-08T09:16:25.000Z</time>
      </trkpt>
      <trkpt lat="47.32538" lon="-2.30369">
        <ele>1</ele>
        <time>2021-04-08T09:16:28.000Z</time>
      </trkpt>
      <trkpt lat="47.32537" lon="-2.30362">
        <ele>1</ele>
        <time>2021-04-08T09:16:29.000Z</time>
      </trkpt>
      <trkpt lat="47.32536" lon="-2.30354">
        <ele>1</ele>
        <time>2021-04-08T09:16:30.000Z</time>
      </trkpt>
      <trkpt lat="47.32529" lon="-2.30319">
        <ele>1</ele>
        <time>2021-04-08T09:16:35.000Z</time>
      </trkpt>
      <trkpt lat="47.32526" lon="-2.30305">
        <ele>1.3999999761581</ele>
        <time>2021-04-08T09:16:37.000Z</time>
      </trkpt>
      <trkpt lat="47.32524" lon="-2.30297">
        <ele>1.7999999523163</ele>
        <time>2021-04-08T09:16:38.000Z</time>
      </trkpt>
      <trkpt lat="47.32522" lon="-2.30291">
        <ele>2.2000000476837</ele>
        <time>2021-04-08T09:16:39.000Z</time>
      </trkpt>
      <trkpt lat="47.32521" lon="-2.30284">
        <ele>2.5999999046326</ele>
        <time>2021-04-08T09:16:40.000Z</time>
      </trkpt>
      <trkpt lat="47.32519" lon="-2.30277">
        <ele>3</ele>
        <time>2021-04-08T09:16:41.000Z</time>
      </trkpt>
      <trkpt lat="47.32512" lon="-2.30224">
        <ele>3</ele>
        <time>2021-04-08T09:16:48.000Z</time>
      </trkpt>
      <trkpt lat="47.32506" lon="-2.30175">
        <ele>3</ele>
        <time>2021-04-08T09:16:55.000Z</time>
      </trkpt>
      <trkpt lat="47.32504" lon="-2.30168">
        <ele>3.4000000953674</ele>
        <time>2021-04-08T09:16:56.000Z</time>
      </trkpt>
      <trkpt lat="47.32503" lon="-2.30162">
        <ele>3.7999999523163</ele>
        <time>2021-04-08T09:16:57.000Z</time>
      </trkpt>
      <trkpt lat="47.32502" lon="-2.30155">
        <ele>4.5999999046326</ele>
        <time>2021-04-08T09:16:58.000Z</time>
      </trkpt>
      <trkpt lat="47.32502" lon="-2.30149">
        <ele>5</ele>
        <time>2021-04-08T09:16:59.000Z</time>
      </trkpt>
      <trkpt lat="47.325" lon="-2.30136">
        <ele>5</ele>
        <time>2021-04-08T09:17:01.000Z</time>
      </trkpt>
      <trkpt lat="47.32498" lon="-2.30123">
        <ele>5</ele>
        <time>2021-04-08T09:17:03.000Z</time>
      </trkpt>
      <trkpt lat="47.32494" lon="-2.30096">
        <ele>5</ele>
        <time>2021-04-08T09:17:07.000Z</time>
      </trkpt>
      <trkpt lat="47.32495" lon="-2.3007">
        <ele>5</ele>
        <time>2021-04-08T09:17:11.000Z</time>
      </trkpt>
      <trkpt lat="47.32492" lon="-2.30058">
        <ele>5</ele>
        <time>2021-04-08T09:17:13.000Z</time>
      </trkpt>
      <trkpt lat="47.32486" lon="-2.30041">
        <ele>5</ele>
        <time>2021-04-08T09:17:16.000Z</time>
      </trkpt>
      <trkpt lat="47.32483" lon="-2.30028">
        <ele>5</ele>
        <time>2021-04-08T09:17:18.000Z</time>
      </trkpt>
      <trkpt lat="47.32476" lon="-2.30011">
        <ele>5</ele>
        <time>2021-04-08T09:17:21.000Z</time>
      </trkpt>
      <trkpt lat="47.32459" lon="-2.29978">
        <ele>5</ele>
        <time>2021-04-08T09:17:27.000Z</time>
      </trkpt>
      <trkpt lat="47.32443" lon="-2.29948">
        <ele>5</ele>
        <time>2021-04-08T09:17:34.000Z</time>
      </trkpt>
      <trkpt lat="47.32443" lon="-2.29944">
        <ele>5</ele>
        <time>2021-04-08T09:17:35.000Z</time>
      </trkpt>
      <trkpt lat="47.32446" lon="-2.29932">
        <ele>5</ele>
        <time>2021-04-08T09:17:38.000Z</time>
      </trkpt>
      <trkpt lat="47.32446" lon="-2.29919">
        <ele>5</ele>
        <time>2021-04-08T09:17:40.000Z</time>
      </trkpt>
      <trkpt lat="47.32445" lon="-2.29904">
        <ele>5</ele>
        <time>2021-04-08T09:17:42.000Z</time>
      </trkpt>
      <trkpt lat="47.32441" lon="-2.29878">
        <ele>5</ele>
        <time>2021-04-08T09:17:46.000Z</time>
      </trkpt>
      <trkpt lat="47.32441" lon="-2.29866">
        <ele>5</ele>
        <time>2021-04-08T09:17:48.000Z</time>
      </trkpt>
      <trkpt lat="47.32445" lon="-2.29862">
        <ele>5</ele>
        <time>2021-04-08T09:17:51.000Z</time>
      </trkpt>
      <trkpt lat="47.32446" lon="-2.2986">
        <ele>3</ele>
        <time>2021-04-08T09:18:35.000Z</time>
      </trkpt>
      <trkpt lat="47.32452" lon="-2.29853">
        <ele>3</ele>
        <time>2021-04-08T09:18:38.000Z</time>
      </trkpt>
      <trkpt lat="47.32466" lon="-2.29838">
        <ele>3</ele>
        <time>2021-04-08T09:18:43.000Z</time>
      </trkpt>
      <trkpt lat="47.32488" lon="-2.29815">
        <ele>3</ele>
        <time>2021-04-08T09:18:49.000Z</time>
      </trkpt>
      <trkpt lat="47.32517" lon="-2.29789">
        <ele>3</ele>
        <time>2021-04-08T09:18:56.000Z</time>
      </trkpt>
      <trkpt lat="47.32522" lon="-2.29781">
        <ele>3</ele>
        <time>2021-04-08T09:18:59.000Z</time>
      </trkpt>
      <trkpt lat="47.32519" lon="-2.29765">
        <ele>3</ele>
        <time>2021-04-08T09:19:03.000Z</time>
      </trkpt>
      <trkpt lat="47.32511" lon="-2.29736">
        <ele>3</ele>
        <time>2021-04-08T09:19:08.000Z</time>
      </trkpt>
      <trkpt lat="47.325" lon="-2.29687">
        <ele>3</ele>
        <time>2021-04-08T09:19:14.000Z</time>
      </trkpt>
      <trkpt lat="47.32487" lon="-2.29642">
        <ele>3</ele>
        <time>2021-04-08T09:19:19.000Z</time>
      </trkpt>
      <trkpt lat="47.32471" lon="-2.29579">
        <ele>2.5999999046326</ele>
        <time>2021-04-08T09:19:25.000Z</time>
      </trkpt>
      <trkpt lat="47.32468" lon="-2.29569">
        <ele>2</ele>
        <time>2021-04-08T09:19:26.000Z</time>
      </trkpt>
      <trkpt lat="47.32465" lon="-2.29558">
        <ele>1.6000000238419</ele>
        <time>2021-04-08T09:19:27.000Z</time>
      </trkpt>
      <trkpt lat="47.32461" lon="-2.29547">
        <ele>1.2000000476837</ele>
        <time>2021-04-08T09:19:28.000Z</time>
      </trkpt>
      <trkpt lat="47.32458" lon="-2.29536">
        <ele>0.60000002384186</ele>
        <time>2021-04-08T09:19:29.000Z</time>
      </trkpt>
      <trkpt lat="47.32443" lon="-2.29488">
        <ele>0.20000000298023</ele>
        <time>2021-04-08T09:19:33.000Z</time>
      </trkpt>
      <trkpt lat="47.3244" lon="-2.29476">
        <ele>-0.20000000298023</ele>
        <time>2021-04-08T09:19:34.000Z</time>
      </trkpt>
      <trkpt lat="47.32437" lon="-2.29464">
        <ele>-0.80000001192093</ele>
        <time>2021-04-08T09:19:35.000Z</time>
      </trkpt>
      <trkpt lat="47.32435" lon="-2.29453">
        <ele>-1.2000000476837</ele>
        <time>2021-04-08T09:19:36.000Z</time>
      </trkpt>
      <trkpt lat="47.32434" lon="-2.2944">
        <ele>-1.6000000238419</ele>
        <time>2021-04-08T09:19:37.000Z</time>
      </trkpt>
      <trkpt lat="47.32433" lon="-2.29429">
        <ele>-1.6000000238419</ele>
        <time>2021-04-08T09:19:38.000Z</time>
      </trkpt>
      <trkpt lat="47.32431" lon="-2.29418">
        <ele>-1.6000000238419</ele>
        <time>2021-04-08T09:19:39.000Z</time>
      </trkpt>
      <trkpt lat="47.32429" lon="-2.29407">
        <ele>-2.2000000476837</ele>
        <time>2021-04-08T09:19:40.000Z</time>
      </trkpt>
      <trkpt lat="47.32427" lon="-2.29397">
        <ele>-2.7999999523163</ele>
        <time>2021-04-08T09:19:41.000Z</time>
      </trkpt>
      <trkpt lat="47.32424" lon="-2.29386">
        <ele>-3.4000000953674</ele>
        <time>2021-04-08T09:19:42.000Z</time>
      </trkpt>
      <trkpt lat="47.32422" lon="-2.29375">
        <ele>-4</ele>
        <time>2021-04-08T09:19:43.000Z</time>
      </trkpt>
      <trkpt lat="47.32421" lon="-2.29363">
        <ele>-4.5999999046326</ele>
        <time>2021-04-08T09:19:44.000Z</time>
      </trkpt>
      <trkpt lat="47.32419" lon="-2.29351">
        <ele>-5.4000000953674</ele>
        <time>2021-04-08T09:19:45.000Z</time>
      </trkpt>
      <trkpt lat="47.32418" lon="-2.29339">
        <ele>-5.8000001907349</ele>
        <time>2021-04-08T09:19:46.000Z</time>
      </trkpt>
      <trkpt lat="47.32417" lon="-2.29328">
        <ele>-6.1999998092651</ele>
        <time>2021-04-08T09:19:47.000Z</time>
      </trkpt>
      <trkpt lat="47.32416" lon="-2.29317">
        <ele>-6.5999999046326</ele>
        <time>2021-04-08T09:19:48.000Z</time>
      </trkpt>
      <trkpt lat="47.32406" lon="-2.29275">
        <ele>-6.5999999046326</ele>
        <time>2021-04-08T09:19:52.000Z</time>
      </trkpt>
      <trkpt lat="47.3239" lon="-2.29256">
        <ele>-6.5999999046326</ele>
        <time>2021-04-08T09:19:55.000Z</time>
      </trkpt>
      <trkpt lat="47.32376" lon="-2.2925">
        <ele>-6.5999999046326</ele>
        <time>2021-04-08T09:19:57.000Z</time>
      </trkpt>
      <trkpt lat="47.32369" lon="-2.29246">
        <ele>-7</ele>
        <time>2021-04-08T09:19:58.000Z</time>
      </trkpt>
      <trkpt lat="47.32363" lon="-2.29243">
        <ele>-7.4000000953674</ele>
        <time>2021-04-08T09:19:59.000Z</time>
      </trkpt>
      <trkpt lat="47.32356" lon="-2.2924">
        <ele>-7.8000001907349</ele>
        <time>2021-04-08T09:20:00.000Z</time>
      </trkpt>
      <trkpt lat="47.3235" lon="-2.29237">
        <ele>-8.1999998092651</ele>
        <time>2021-04-08T09:20:01.000Z</time>
      </trkpt>
      <trkpt lat="47.32344" lon="-2.29233">
        <ele>-8.6000003814697</ele>
        <time>2021-04-08T09:20:02.000Z</time>
      </trkpt>
      <trkpt lat="47.32321" lon="-2.29221">
        <ele>-8.6000003814697</ele>
        <time>2021-04-08T09:20:06.000Z</time>
      </trkpt>
      <trkpt lat="47.32311" lon="-2.29215">
        <ele>-8.6000003814697</ele>
        <time>2021-04-08T09:20:08.000Z</time>
      </trkpt>
      <trkpt lat="47.323" lon="-2.29213">
        <ele>-8.6000003814697</ele>
        <time>2021-04-08T09:20:10.000Z</time>
      </trkpt>
      <trkpt lat="47.32294" lon="-2.29214">
        <ele>-8.6000003814697</ele>
        <time>2021-04-08T09:20:11.000Z</time>
      </trkpt>
      <trkpt lat="47.32283" lon="-2.29217">
        <ele>-8.6000003814697</ele>
        <time>2021-04-08T09:20:13.000Z</time>
      </trkpt>
      <trkpt lat="47.32265" lon="-2.29221">
        <ele>-8.6000003814697</ele>
        <time>2021-04-08T09:20:16.000Z</time>
      </trkpt>
      <trkpt lat="47.32254" lon="-2.29223">
        <ele>-8.6000003814697</ele>
        <time>2021-04-08T09:20:18.000Z</time>
      </trkpt>
      <trkpt lat="47.32249" lon="-2.29221">
        <ele>-8.6000003814697</ele>
        <time>2021-04-08T09:20:19.000Z</time>
      </trkpt>
      <trkpt lat="47.32237" lon="-2.29205">
        <ele>-8.6000003814697</ele>
        <time>2021-04-08T09:20:22.000Z</time>
      </trkpt>
      <trkpt lat="47.32216" lon="-2.29167">
        <ele>-8.6000003814697</ele>
        <time>2021-04-08T09:20:28.000Z</time>
      </trkpt>
      <trkpt lat="47.32195" lon="-2.29143">
        <ele>-8.6000003814697</ele>
        <time>2021-04-08T09:20:33.000Z</time>
      </trkpt>
      <trkpt lat="47.32168" lon="-2.29119">
        <ele>-8.6000003814697</ele>
        <time>2021-04-08T09:20:39.000Z</time>
      </trkpt>
      <trkpt lat="47.32155" lon="-2.29106">
        <ele>-8.6000003814697</ele>
        <time>2021-04-08T09:20:42.000Z</time>
      </trkpt>
      <trkpt lat="47.32148" lon="-2.29094">
        <ele>-8.6000003814697</ele>
        <time>2021-04-08T09:20:44.000Z</time>
      </trkpt>
      <trkpt lat="47.32145" lon="-2.29088">
        <ele>-8.6000003814697</ele>
        <time>2021-04-08T09:20:45.000Z</time>
      </trkpt>
      <trkpt lat="47.3214" lon="-2.29075">
        <ele>-8.6000003814697</ele>
        <time>2021-04-08T09:20:47.000Z</time>
      </trkpt>
      <trkpt lat="47.32134" lon="-2.29061">
        <ele>-8.6000003814697</ele>
        <time>2021-04-08T09:20:49.000Z</time>
      </trkpt>
      <trkpt lat="47.32122" lon="-2.29029">
        <ele>-8.6000003814697</ele>
        <time>2021-04-08T09:20:53.000Z</time>
      </trkpt>
      <trkpt lat="47.32119" lon="-2.29021">
        <ele>-8.6000003814697</ele>
        <time>2021-04-08T09:20:54.000Z</time>
      </trkpt>
      <trkpt lat="47.32098" lon="-2.28977">
        <ele>-8.6000003814697</ele>
        <time>2021-04-08T09:21:00.000Z</time>
      </trkpt>
      <trkpt lat="47.32093" lon="-2.28971">
        <ele>-8.6000003814697</ele>
        <time>2021-04-08T09:21:01.000Z</time>
      </trkpt>
      <trkpt lat="47.32075" lon="-2.28957">
        <ele>-8.6000003814697</ele>
        <time>2021-04-08T09:21:04.000Z</time>
      </trkpt>
      <trkpt lat="47.32052" lon="-2.28941">
        <ele>-8.6000003814697</ele>
        <time>2021-04-08T09:21:08.000Z</time>
      </trkpt>
      <trkpt lat="47.32048" lon="-2.28935">
        <ele>-8.6000003814697</ele>
        <time>2021-04-08T09:21:09.000Z</time>
      </trkpt>
      <trkpt lat="47.32041" lon="-2.28911">
        <ele>-8.6000003814697</ele>
        <time>2021-04-08T09:21:12.000Z</time>
      </trkpt>
      <trkpt lat="47.32037" lon="-2.2888">
        <ele>-8.6000003814697</ele>
        <time>2021-04-08T09:21:16.000Z</time>
      </trkpt>
      <trkpt lat="47.32035" lon="-2.28874">
        <ele>-8.6000003814697</ele>
        <time>2021-04-08T09:21:17.000Z</time>
      </trkpt>
      <trkpt lat="47.32027" lon="-2.28871">
        <ele>-9.1999998092651</ele>
        <time>2021-04-08T09:21:19.000Z</time>
      </trkpt>
      <trkpt lat="47.32022" lon="-2.28873">
        <ele>-9.6000003814697</ele>
        <time>2021-04-08T09:21:20.000Z</time>
      </trkpt>
      <trkpt lat="47.32018" lon="-2.28875">
        <ele>-10</ele>
        <time>2021-04-08T09:21:21.000Z</time>
      </trkpt>
      <trkpt lat="47.32013" lon="-2.28878">
        <ele>-10.39999961853</ele>
        <time>2021-04-08T09:21:22.000Z</time>
      </trkpt>
      <trkpt lat="47.32008" lon="-2.28881">
        <ele>-10.800000190735</ele>
        <time>2021-04-08T09:21:23.000Z</time>
      </trkpt>
      <trkpt lat="47.31993" lon="-2.28887">
        <ele>-10.800000190735</ele>
        <time>2021-04-08T09:21:26.000Z</time>
      </trkpt>
      <trkpt lat="47.31962" lon="-2.28892">
        <ele>-10.800000190735</ele>
        <time>2021-04-08T09:21:32.000Z</time>
      </trkpt>
      <trkpt lat="47.31955" lon="-2.28894">
        <ele>-10.800000190735</ele>
        <time>2021-04-08T09:21:35.000Z</time>
      </trkpt>
      <trkpt lat="47.31954" lon="-2.28894">
        <ele>-10.800000190735</ele>
        <time>2021-04-08T09:21:36.000Z</time>
      </trkpt>
      <trkpt lat="47.31953" lon="-2.28895">
        <ele>-10.800000190735</ele>
        <time>2021-04-08T09:21:43.000Z</time>
      </trkpt>
      <trkpt lat="47.31951" lon="-2.28896">
        <ele>-10.800000190735</ele>
        <time>2021-04-08T09:21:44.000Z</time>
      </trkpt>
      <trkpt lat="47.31934" lon="-2.28905">
        <ele>-10.800000190735</ele>
        <time>2021-04-08T09:21:49.000Z</time>
      </trkpt>
      <trkpt lat="47.3191" lon="-2.28928">
        <ele>-10.800000190735</ele>
        <time>2021-04-08T09:21:55.000Z</time>
      </trkpt>
      <trkpt lat="47.31902" lon="-2.28934">
        <ele>-10.800000190735</ele>
        <time>2021-04-08T09:21:57.000Z</time>
      </trkpt>
      <trkpt lat="47.31893" lon="-2.28936">
        <ele>-10.800000190735</ele>
        <time>2021-04-08T09:21:59.000Z</time>
      </trkpt>
      <trkpt lat="47.31871" lon="-2.28939">
        <ele>-10.800000190735</ele>
        <time>2021-04-08T09:22:04.000Z</time>
      </trkpt>
      <trkpt lat="47.31865" lon="-2.28939">
        <ele>-10.800000190735</ele>
        <time>2021-04-08T09:22:06.000Z</time>
      </trkpt>
      <trkpt lat="47.31862" lon="-2.28934">
        <ele>-10.800000190735</ele>
        <time>2021-04-08T09:22:08.000Z</time>
      </trkpt>
      <trkpt lat="47.31864" lon="-2.28912">
        <ele>-10.800000190735</ele>
        <time>2021-04-08T09:22:12.000Z</time>
      </trkpt>
      <trkpt lat="47.31865" lon="-2.28874">
        <ele>-10.800000190735</ele>
        <time>2021-04-08T09:22:17.000Z</time>
      </trkpt>
      <trkpt lat="47.31864" lon="-2.28867">
        <ele>-10.800000190735</ele>
        <time>2021-04-08T09:22:18.000Z</time>
      </trkpt>
      <trkpt lat="47.31866" lon="-2.2885">
        <ele>-10.800000190735</ele>
        <time>2021-04-08T09:22:21.000Z</time>
      </trkpt>
      <trkpt lat="47.31869" lon="-2.28837">
        <ele>-10.800000190735</ele>
        <time>2021-04-08T09:22:25.000Z</time>
      </trkpt>
      <trkpt lat="47.31873" lon="-2.28812">
        <ele>-10.800000190735</ele>
        <time>2021-04-08T09:22:31.000Z</time>
      </trkpt>
      <trkpt lat="47.31873" lon="-2.28812">
        <ele>-10.800000190735</ele>
        <time>2021-04-08T09:22:32.000Z</time>
      </trkpt>
      <trkpt lat="47.31874" lon="-2.28809">
        <ele>-10.800000190735</ele>
        <time>2021-04-08T09:22:47.000Z</time>
      </trkpt>
      <trkpt lat="47.31874" lon="-2.28803">
        <ele>-10.800000190735</ele>
        <time>2021-04-08T09:22:49.000Z</time>
      </trkpt>
      <trkpt lat="47.31878" lon="-2.28778">
        <ele>-10.800000190735</ele>
        <time>2021-04-08T09:22:54.000Z</time>
      </trkpt>
      <trkpt lat="47.31881" lon="-2.28735">
        <ele>-10.800000190735</ele>
        <time>2021-04-08T09:23:00.000Z</time>
      </trkpt>
      <trkpt lat="47.31881" lon="-2.28727">
        <ele>-10.800000190735</ele>
        <time>2021-04-08T09:23:01.000Z</time>
      </trkpt>
      <trkpt lat="47.31883" lon="-2.28709">
        <ele>-10.39999961853</ele>
        <time>2021-04-08T09:23:03.000Z</time>
      </trkpt>
      <trkpt lat="47.31883" lon="-2.28701">
        <ele>-10</ele>
        <time>2021-04-08T09:23:04.000Z</time>
      </trkpt>
      <trkpt lat="47.31884" lon="-2.28693">
        <ele>-9.6000003814697</ele>
        <time>2021-04-08T09:23:05.000Z</time>
      </trkpt>
      <trkpt lat="47.31884" lon="-2.28685">
        <ele>-9.1999998092651</ele>
        <time>2021-04-08T09:23:06.000Z</time>
      </trkpt>
      <trkpt lat="47.31885" lon="-2.28677">
        <ele>-8.8000001907349</ele>
        <time>2021-04-08T09:23:07.000Z</time>
      </trkpt>
      <trkpt lat="47.31887" lon="-2.28661">
        <ele>-8.8000001907349</ele>
        <time>2021-04-08T09:23:09.000Z</time>
      </trkpt>
      <trkpt lat="47.31892" lon="-2.28615">
        <ele>-8.8000001907349</ele>
        <time>2021-04-08T09:23:15.000Z</time>
      </trkpt>
      <trkpt lat="47.31896" lon="-2.28582">
        <ele>-8.8000001907349</ele>
        <time>2021-04-08T09:23:19.000Z</time>
      </trkpt>
      <trkpt lat="47.31896" lon="-2.28574">
        <ele>-8.8000001907349</ele>
        <time>2021-04-08T09:23:20.000Z</time>
      </trkpt>
      <trkpt lat="47.31895" lon="-2.28535">
        <ele>-8.8000001907349</ele>
        <time>2021-04-08T09:23:25.000Z</time>
      </trkpt>
      <trkpt lat="47.31894" lon="-2.28512">
        <ele>-8.8000001907349</ele>
        <time>2021-04-08T09:23:28.000Z</time>
      </trkpt>
      <trkpt lat="47.31895" lon="-2.28494">
        <ele>-8.8000001907349</ele>
        <time>2021-04-08T09:23:31.000Z</time>
      </trkpt>
      <trkpt lat="47.31896" lon="-2.28459">
        <ele>-8.8000001907349</ele>
        <time>2021-04-08T09:23:37.000Z</time>
      </trkpt>
      <trkpt lat="47.31895" lon="-2.28414">
        <ele>-8.8000001907349</ele>
        <time>2021-04-08T09:23:43.000Z</time>
      </trkpt>
      <trkpt lat="47.31894" lon="-2.28407">
        <ele>-8.8000001907349</ele>
        <time>2021-04-08T09:23:44.000Z</time>
      </trkpt>
      <trkpt lat="47.31882" lon="-2.28348">
        <ele>-8.8000001907349</ele>
        <time>2021-04-08T09:23:52.000Z</time>
      </trkpt>
      <trkpt lat="47.31872" lon="-2.28297">
        <ele>-8.3999996185303</ele>
        <time>2021-04-08T09:23:59.000Z</time>
      </trkpt>
      <trkpt lat="47.3187" lon="-2.2829">
        <ele>-8</ele>
        <time>2021-04-08T09:24:00.000Z</time>
      </trkpt>
      <trkpt lat="47.31869" lon="-2.28282">
        <ele>-7.5999999046326</ele>
        <time>2021-04-08T09:24:01.000Z</time>
      </trkpt>
      <trkpt lat="47.31867" lon="-2.28274">
        <ele>-7.1999998092651</ele>
        <time>2021-04-08T09:24:02.000Z</time>
      </trkpt>
      <trkpt lat="47.31866" lon="-2.28266">
        <ele>-6.8000001907349</ele>
        <time>2021-04-08T09:24:03.000Z</time>
      </trkpt>
      <trkpt lat="47.31862" lon="-2.2824">
        <ele>-6.8000001907349</ele>
        <time>2021-04-08T09:24:06.000Z</time>
      </trkpt>
      <trkpt lat="47.31859" lon="-2.28181">
        <ele>-6.8000001907349</ele>
        <time>2021-04-08T09:24:12.000Z</time>
      </trkpt>
      <trkpt lat="47.31863" lon="-2.28144">
        <ele>-6.8000001907349</ele>
        <time>2021-04-08T09:24:16.000Z</time>
      </trkpt>
      <trkpt lat="47.31861" lon="-2.281">
        <ele>-6.8000001907349</ele>
        <time>2021-04-08T09:24:21.000Z</time>
      </trkpt>
      <trkpt lat="47.3186" lon="-2.28038">
        <ele>-6.8000001907349</ele>
        <time>2021-04-08T09:24:28.000Z</time>
      </trkpt>
      <trkpt lat="47.31859" lon="-2.27984">
        <ele>-6.8000001907349</ele>
        <time>2021-04-08T09:24:34.000Z</time>
      </trkpt>
      <trkpt lat="47.31857" lon="-2.2793">
        <ele>-6.8000001907349</ele>
        <time>2021-04-08T09:24:40.000Z</time>
      </trkpt>
      <trkpt lat="47.3186" lon="-2.27868">
        <ele>-6.8000001907349</ele>
        <time>2021-04-08T09:24:47.000Z</time>
      </trkpt>
      <trkpt lat="47.31864" lon="-2.27792">
        <ele>-6.8000001907349</ele>
        <time>2021-04-08T09:24:55.000Z</time>
      </trkpt>
      <trkpt lat="47.31864" lon="-2.27734">
        <ele>-6.8000001907349</ele>
        <time>2021-04-08T09:25:01.000Z</time>
      </trkpt>
      <trkpt lat="47.31863" lon="-2.27656">
        <ele>-6.8000001907349</ele>
        <time>2021-04-08T09:25:09.000Z</time>
      </trkpt>
      <trkpt lat="47.31859" lon="-2.27595">
        <ele>-6.8000001907349</ele>
        <time>2021-04-08T09:25:16.000Z</time>
      </trkpt>
      <trkpt lat="47.31858" lon="-2.27527">
        <ele>-6.8000001907349</ele>
        <time>2021-04-08T09:25:23.000Z</time>
      </trkpt>
      <trkpt lat="47.31857" lon="-2.27467">
        <ele>-6.8000001907349</ele>
        <time>2021-04-08T09:25:29.000Z</time>
      </trkpt>
      <trkpt lat="47.31855" lon="-2.27388">
        <ele>-6.8000001907349</ele>
        <time>2021-04-08T09:25:37.000Z</time>
      </trkpt>
      <trkpt lat="47.31852" lon="-2.27326">
        <ele>-6.8000001907349</ele>
        <time>2021-04-08T09:25:44.000Z</time>
      </trkpt>
      <trkpt lat="47.31851" lon="-2.27275">
        <ele>-6.8000001907349</ele>
        <time>2021-04-08T09:25:50.000Z</time>
      </trkpt>
      <trkpt lat="47.31849" lon="-2.27218">
        <ele>-6.8000001907349</ele>
        <time>2021-04-08T09:25:57.000Z</time>
      </trkpt>
      <trkpt lat="47.31849" lon="-2.2716">
        <ele>-6.8000001907349</ele>
        <time>2021-04-08T09:26:04.000Z</time>
      </trkpt>
      <trkpt lat="47.31846" lon="-2.27104">
        <ele>-6.8000001907349</ele>
        <time>2021-04-08T09:26:12.000Z</time>
      </trkpt>
      <trkpt lat="47.31845" lon="-2.27084">
        <ele>-6.8000001907349</ele>
        <time>2021-04-08T09:26:15.000Z</time>
      </trkpt>
      <trkpt lat="47.31845" lon="-2.27071">
        <ele>-7.1999998092651</ele>
        <time>2021-04-08T09:26:17.000Z</time>
      </trkpt>
      <trkpt lat="47.31845" lon="-2.27063">
        <ele>-7.5999999046326</ele>
        <time>2021-04-08T09:26:18.000Z</time>
      </trkpt>
      <trkpt lat="47.31845" lon="-2.27055">
        <ele>-8</ele>
        <time>2021-04-08T09:26:19.000Z</time>
      </trkpt>
      <trkpt lat="47.31845" lon="-2.27047">
        <ele>-8.3999996185303</ele>
        <time>2021-04-08T09:26:20.000Z</time>
      </trkpt>
      <trkpt lat="47.31845" lon="-2.27039">
        <ele>-8.8000001907349</ele>
        <time>2021-04-08T09:26:21.000Z</time>
      </trkpt>
      <trkpt lat="47.31844" lon="-2.27004">
        <ele>-8.8000001907349</ele>
        <time>2021-04-08T09:26:25.000Z</time>
      </trkpt>
      <trkpt lat="47.31841" lon="-2.26951">
        <ele>-8.8000001907349</ele>
        <time>2021-04-08T09:26:30.000Z</time>
      </trkpt>
      <trkpt lat="47.31836" lon="-2.26881">
        <ele>-8.8000001907349</ele>
        <time>2021-04-08T09:26:37.000Z</time>
      </trkpt>
      <trkpt lat="47.31834" lon="-2.26827">
        <ele>-8.8000001907349</ele>
        <time>2021-04-08T09:26:43.000Z</time>
      </trkpt>
      <trkpt lat="47.3183" lon="-2.26779">
        <ele>-8.8000001907349</ele>
        <time>2021-04-08T09:26:49.000Z</time>
      </trkpt>
      <trkpt lat="47.31829" lon="-2.26763">
        <ele>-8.8000001907349</ele>
        <time>2021-04-08T09:26:51.000Z</time>
      </trkpt>
      <trkpt lat="47.31824" lon="-2.2674">
        <ele>-8.8000001907349</ele>
        <time>2021-04-08T09:26:54.000Z</time>
      </trkpt>
      <trkpt lat="47.31822" lon="-2.26733">
        <ele>-8.3999996185303</ele>
        <time>2021-04-08T09:26:55.000Z</time>
      </trkpt>
      <trkpt lat="47.31819" lon="-2.26725">
        <ele>-8</ele>
        <time>2021-04-08T09:26:56.000Z</time>
      </trkpt>
      <trkpt lat="47.31816" lon="-2.26718">
        <ele>-7.5999999046326</ele>
        <time>2021-04-08T09:26:57.000Z</time>
      </trkpt>
      <trkpt lat="47.31814" lon="-2.26711">
        <ele>-7.1999998092651</ele>
        <time>2021-04-08T09:26:58.000Z</time>
      </trkpt>
      <trkpt lat="47.31811" lon="-2.26704">
        <ele>-6.8000001907349</ele>
        <time>2021-04-08T09:26:59.000Z</time>
      </trkpt>
      <trkpt lat="47.31805" lon="-2.26694">
        <ele>-6.8000001907349</ele>
        <time>2021-04-08T09:27:01.000Z</time>
      </trkpt>
      <trkpt lat="47.31791" lon="-2.26695">
        <ele>-6.8000001907349</ele>
        <time>2021-04-08T09:27:04.000Z</time>
      </trkpt>
      <trkpt lat="47.31778" lon="-2.267">
        <ele>-6.8000001907349</ele>
        <time>2021-04-08T09:27:06.000Z</time>
      </trkpt>
      <trkpt lat="47.31763" lon="-2.26704">
        <ele>-6.8000001907349</ele>
        <time>2021-04-08T09:27:08.000Z</time>
      </trkpt>
      <trkpt lat="47.31733" lon="-2.26714">
        <ele>-7.1999998092651</ele>
        <time>2021-04-08T09:27:12.000Z</time>
      </trkpt>
      <trkpt lat="47.31725" lon="-2.26716">
        <ele>-7.8000001907349</ele>
        <time>2021-04-08T09:27:13.000Z</time>
      </trkpt>
      <trkpt lat="47.31717" lon="-2.26717">
        <ele>-8.1999998092651</ele>
        <time>2021-04-08T09:27:14.000Z</time>
      </trkpt>
      <trkpt lat="47.3171" lon="-2.26719">
        <ele>-8.6000003814697</ele>
        <time>2021-04-08T09:27:15.000Z</time>
      </trkpt>
      <trkpt lat="47.31703" lon="-2.2672">
        <ele>-9</ele>
        <time>2021-04-08T09:27:16.000Z</time>
      </trkpt>
      <trkpt lat="47.31682" lon="-2.26723">
        <ele>-9</ele>
        <time>2021-04-08T09:27:19.000Z</time>
      </trkpt>
      <trkpt lat="47.31665" lon="-2.26725">
        <ele>-9.6000003814697</ele>
        <time>2021-04-08T09:27:22.000Z</time>
      </trkpt>
      <trkpt lat="47.31659" lon="-2.26727">
        <ele>-10</ele>
        <time>2021-04-08T09:27:23.000Z</time>
      </trkpt>
      <trkpt lat="47.31654" lon="-2.26728">
        <ele>-10.39999961853</ele>
        <time>2021-04-08T09:27:24.000Z</time>
      </trkpt>
      <trkpt lat="47.31649" lon="-2.26731">
        <ele>-10.800000190735</ele>
        <time>2021-04-08T09:27:25.000Z</time>
      </trkpt>
      <trkpt lat="47.31644" lon="-2.26733">
        <ele>-11.199999809265</ele>
        <time>2021-04-08T09:27:26.000Z</time>
      </trkpt>
      <trkpt lat="47.3164" lon="-2.26736">
        <ele>-11.199999809265</ele>
        <time>2021-04-08T09:27:27.000Z</time>
      </trkpt>
      <trkpt lat="47.31634" lon="-2.2674">
        <ele>-11.199999809265</ele>
        <time>2021-04-08T09:27:29.000Z</time>
      </trkpt>
      <trkpt lat="47.31632" lon="-2.26741">
        <ele>-11.199999809265</ele>
        <time>2021-04-08T09:27:32.000Z</time>
      </trkpt>
      <trkpt lat="47.3163" lon="-2.26743">
        <ele>-11.199999809265</ele>
        <time>2021-04-08T09:27:51.000Z</time>
      </trkpt>
      <trkpt lat="47.31627" lon="-2.26746">
        <ele>-11.199999809265</ele>
        <time>2021-04-08T09:27:53.000Z</time>
      </trkpt>
      <trkpt lat="47.31617" lon="-2.26751">
        <ele>-11.199999809265</ele>
        <time>2021-04-08T09:27:56.000Z</time>
      </trkpt>
      <trkpt lat="47.31612" lon="-2.26752">
        <ele>-11.199999809265</ele>
        <time>2021-04-08T09:27:57.000Z</time>
      </trkpt>
      <trkpt lat="47.31594" lon="-2.26752">
        <ele>-11.199999809265</ele>
        <time>2021-04-08T09:28:00.000Z</time>
      </trkpt>
      <trkpt lat="47.31588" lon="-2.26751">
        <ele>-11.199999809265</ele>
        <time>2021-04-08T09:28:01.000Z</time>
      </trkpt>
      <trkpt lat="47.31582" lon="-2.26749">
        <ele>-11.199999809265</ele>
        <time>2021-04-08T09:28:02.000Z</time>
      </trkpt>
      <trkpt lat="47.31576" lon="-2.2675">
        <ele>-11.199999809265</ele>
        <time>2021-04-08T09:28:03.000Z</time>
      </trkpt>
      <trkpt lat="47.31567" lon="-2.26757">
        <ele>-11.199999809265</ele>
        <time>2021-04-08T09:28:05.000Z</time>
      </trkpt>
      <trkpt lat="47.3156" lon="-2.26767">
        <ele>-11.60000038147</ele>
        <time>2021-04-08T09:28:07.000Z</time>
      </trkpt>
      <trkpt lat="47.31556" lon="-2.26774">
        <ele>-12</ele>
        <time>2021-04-08T09:28:08.000Z</time>
      </trkpt>
      <trkpt lat="47.31554" lon="-2.2678">
        <ele>-12.39999961853</ele>
        <time>2021-04-08T09:28:09.000Z</time>
      </trkpt>
      <trkpt lat="47.31552" lon="-2.26786">
        <ele>-12.800000190735</ele>
        <time>2021-04-08T09:28:10.000Z</time>
      </trkpt>
      <trkpt lat="47.3155" lon="-2.26792">
        <ele>-13.199999809265</ele>
        <time>2021-04-08T09:28:11.000Z</time>
      </trkpt>
      <trkpt lat="47.31541" lon="-2.26815">
        <ele>-13.199999809265</ele>
        <time>2021-04-08T09:28:15.000Z</time>
      </trkpt>
      <trkpt lat="47.31535" lon="-2.26833">
        <ele>-13.199999809265</ele>
        <time>2021-04-08T09:28:18.000Z</time>
      </trkpt>
      <trkpt lat="47.31526" lon="-2.26853">
        <ele>-13.199999809265</ele>
        <time>2021-04-08T09:28:21.000Z</time>
      </trkpt>
      <trkpt lat="47.31512" lon="-2.26889">
        <ele>-13.199999809265</ele>
        <time>2021-04-08T09:28:27.000Z</time>
      </trkpt>
      <trkpt lat="47.31498" lon="-2.26931">
        <ele>-13.199999809265</ele>
        <time>2021-04-08T09:28:33.000Z</time>
      </trkpt>
      <trkpt lat="47.31487" lon="-2.26972">
        <ele>-13.199999809265</ele>
        <time>2021-04-08T09:28:39.000Z</time>
      </trkpt>
      <trkpt lat="47.31474" lon="-2.26985">
        <ele>-13.199999809265</ele>
        <time>2021-04-08T09:28:42.000Z</time>
      </trkpt>
      <trkpt lat="47.31452" lon="-2.27001">
        <ele>-12.800000190735</ele>
        <time>2021-04-08T09:28:46.000Z</time>
      </trkpt>
      <trkpt lat="47.31447" lon="-2.27006">
        <ele>-12.39999961853</ele>
        <time>2021-04-08T09:28:47.000Z</time>
      </trkpt>
      <trkpt lat="47.31442" lon="-2.27011">
        <ele>-11.39999961853</ele>
        <time>2021-04-08T09:28:48.000Z</time>
      </trkpt>
      <trkpt lat="47.31436" lon="-2.27016">
        <ele>-11</ele>
        <time>2021-04-08T09:28:49.000Z</time>
      </trkpt>
      <trkpt lat="47.31405" lon="-2.2704">
        <ele>-11</ele>
        <time>2021-04-08T09:28:55.000Z</time>
      </trkpt>
      <trkpt lat="47.31373" lon="-2.27059">
        <ele>-11</ele>
        <time>2021-04-08T09:29:01.000Z</time>
      </trkpt>
      <trkpt lat="47.31359" lon="-2.27064">
        <ele>-10.60000038147</ele>
        <time>2021-04-08T09:29:04.000Z</time>
      </trkpt>
      <trkpt lat="47.31354" lon="-2.27066">
        <ele>-10.199999809265</ele>
        <time>2021-04-08T09:29:05.000Z</time>
      </trkpt>
      <trkpt lat="47.31349" lon="-2.27067">
        <ele>-9.8000001907349</ele>
        <time>2021-04-08T09:29:06.000Z</time>
      </trkpt>
      <trkpt lat="47.31344" lon="-2.27069">
        <ele>-9.3999996185303</ele>
        <time>2021-04-08T09:29:07.000Z</time>
      </trkpt>
      <trkpt lat="47.3134" lon="-2.2707">
        <ele>-9</ele>
        <time>2021-04-08T09:29:08.000Z</time>
      </trkpt>
      <trkpt lat="47.31336" lon="-2.27072">
        <ele>-9</ele>
        <time>2021-04-08T09:29:09.000Z</time>
      </trkpt>
      <trkpt lat="47.31318" lon="-2.27078">
        <ele>-9</ele>
        <time>2021-04-08T09:29:13.000Z</time>
      </trkpt>
      <trkpt lat="47.31309" lon="-2.27082">
        <ele>-9</ele>
        <time>2021-04-08T09:29:15.000Z</time>
      </trkpt>
      <trkpt lat="47.3129" lon="-2.27091">
        <ele>-9</ele>
        <time>2021-04-08T09:29:19.000Z</time>
      </trkpt>
      <trkpt lat="47.31265" lon="-2.2711">
        <ele>-9</ele>
        <time>2021-04-08T09:29:25.000Z</time>
      </trkpt>
      <trkpt lat="47.3126" lon="-2.27112">
        <ele>-9</ele>
        <time>2021-04-08T09:29:26.000Z</time>
      </trkpt>
      <trkpt lat="47.31239" lon="-2.27127">
        <ele>-9</ele>
        <time>2021-04-08T09:29:31.000Z</time>
      </trkpt>
      <trkpt lat="47.31211" lon="-2.27148">
        <ele>-9</ele>
        <time>2021-04-08T09:29:37.000Z</time>
      </trkpt>
      <trkpt lat="47.31187" lon="-2.27172">
        <ele>-9</ele>
        <time>2021-04-08T09:29:43.000Z</time>
      </trkpt>
      <trkpt lat="47.31184" lon="-2.27177">
        <ele>-9</ele>
        <time>2021-04-08T09:29:44.000Z</time>
      </trkpt>
      <trkpt lat="47.31156" lon="-2.27206">
        <ele>-9</ele>
        <time>2021-04-08T09:29:51.000Z</time>
      </trkpt>
      <trkpt lat="47.31138" lon="-2.2722">
        <ele>-9</ele>
        <time>2021-04-08T09:29:55.000Z</time>
      </trkpt>
      <trkpt lat="47.31128" lon="-2.27225">
        <ele>-9</ele>
        <time>2021-04-08T09:29:57.000Z</time>
      </trkpt>
      <trkpt lat="47.31118" lon="-2.2723">
        <ele>-9</ele>
        <time>2021-04-08T09:29:59.000Z</time>
      </trkpt>
      <trkpt lat="47.31098" lon="-2.27236">
        <ele>-9</ele>
        <time>2021-04-08T09:30:03.000Z</time>
      </trkpt>
      <trkpt lat="47.31066" lon="-2.27249">
        <ele>-9</ele>
        <time>2021-04-08T09:30:10.000Z</time>
      </trkpt>
      <trkpt lat="47.31047" lon="-2.27252">
        <ele>-9</ele>
        <time>2021-04-08T09:30:15.000Z</time>
      </trkpt>
      <trkpt lat="47.31024" lon="-2.27247">
        <ele>-9</ele>
        <time>2021-04-08T09:30:21.000Z</time>
      </trkpt>
      <trkpt lat="47.31015" lon="-2.27242">
        <ele>-9</ele>
        <time>2021-04-08T09:30:23.000Z</time>
      </trkpt>
      <trkpt lat="47.31011" lon="-2.27238">
        <ele>-8.6000003814697</ele>
        <time>2021-04-08T09:30:24.000Z</time>
      </trkpt>
      <trkpt lat="47.31007" lon="-2.27233">
        <ele>-7.5999999046326</ele>
        <time>2021-04-08T09:30:25.000Z</time>
      </trkpt>
      <trkpt lat="47.31005" lon="-2.27227">
        <ele>-7.1999998092651</ele>
        <time>2021-04-08T09:30:26.000Z</time>
      </trkpt>
      <trkpt lat="47.31003" lon="-2.2722">
        <ele>-6.8000001907349</ele>
        <time>2021-04-08T09:30:27.000Z</time>
      </trkpt>
      <trkpt lat="47.31002" lon="-2.27212">
        <ele>-6.8000001907349</ele>
        <time>2021-04-08T09:30:28.000Z</time>
      </trkpt>
      <trkpt lat="47.31001" lon="-2.27205">
        <ele>-6.8000001907349</ele>
        <time>2021-04-08T09:30:29.000Z</time>
      </trkpt>
      <trkpt lat="47.31" lon="-2.27166">
        <ele>-6.8000001907349</ele>
        <time>2021-04-08T09:30:34.000Z</time>
      </trkpt>
      <trkpt lat="47.30997" lon="-2.27111">
        <ele>-6.8000001907349</ele>
        <time>2021-04-08T09:30:41.000Z</time>
      </trkpt>
      <trkpt lat="47.30996" lon="-2.27059">
        <ele>-6.8000001907349</ele>
        <time>2021-04-08T09:30:47.000Z</time>
      </trkpt>
      <trkpt lat="47.30993" lon="-2.27016">
        <ele>-7.1999998092651</ele>
        <time>2021-04-08T09:30:51.000Z</time>
      </trkpt>
      <trkpt lat="47.30992" lon="-2.27005">
        <ele>-7.8000001907349</ele>
        <time>2021-04-08T09:30:52.000Z</time>
      </trkpt>
      <trkpt lat="47.3099" lon="-2.26994">
        <ele>-8.1999998092651</ele>
        <time>2021-04-08T09:30:53.000Z</time>
      </trkpt>
      <trkpt lat="47.30988" lon="-2.26983">
        <ele>-8.6000003814697</ele>
        <time>2021-04-08T09:30:54.000Z</time>
      </trkpt>
      <trkpt lat="47.30984" lon="-2.26974">
        <ele>-9</ele>
        <time>2021-04-08T09:30:55.000Z</time>
      </trkpt>
      <trkpt lat="47.3098" lon="-2.26968">
        <ele>-9.3999996185303</ele>
        <time>2021-04-08T09:30:56.000Z</time>
      </trkpt>
      <trkpt lat="47.30974" lon="-2.26961">
        <ele>-9.8000001907349</ele>
        <time>2021-04-08T09:30:57.000Z</time>
      </trkpt>
      <trkpt lat="47.30967" lon="-2.26955">
        <ele>-10.39999961853</ele>
        <time>2021-04-08T09:30:58.000Z</time>
      </trkpt>
      <trkpt lat="47.3096" lon="-2.26951">
        <ele>-10.800000190735</ele>
        <time>2021-04-08T09:30:59.000Z</time>
      </trkpt>
      <trkpt lat="47.30953" lon="-2.26947">
        <ele>-11.199999809265</ele>
        <time>2021-04-08T09:31:00.000Z</time>
      </trkpt>
      <trkpt lat="47.30946" lon="-2.26943">
        <ele>-11.199999809265</ele>
        <time>2021-04-08T09:31:01.000Z</time>
      </trkpt>
      <trkpt lat="47.30914" lon="-2.26925">
        <ele>-11.199999809265</ele>
        <time>2021-04-08T09:31:06.000Z</time>
      </trkpt>
      <trkpt lat="47.30895" lon="-2.26917">
        <ele>-11.199999809265</ele>
        <time>2021-04-08T09:31:09.000Z</time>
      </trkpt>
      <trkpt lat="47.30881" lon="-2.26917">
        <ele>-11.199999809265</ele>
        <time>2021-04-08T09:31:11.000Z</time>
      </trkpt>
      <trkpt lat="47.30861" lon="-2.26924">
        <ele>-11.199999809265</ele>
        <time>2021-04-08T09:31:14.000Z</time>
      </trkpt>
      <trkpt lat="47.30848" lon="-2.26929">
        <ele>-11.199999809265</ele>
        <time>2021-04-08T09:31:16.000Z</time>
      </trkpt>
      <trkpt lat="47.30804" lon="-2.26947">
        <ele>-11.199999809265</ele>
        <time>2021-04-08T09:31:23.000Z</time>
      </trkpt>
      <trkpt lat="47.30772" lon="-2.26946">
        <ele>-11.199999809265</ele>
        <time>2021-04-08T09:31:28.000Z</time>
      </trkpt>
      <trkpt lat="47.30738" lon="-2.26934">
        <ele>-11.199999809265</ele>
        <time>2021-04-08T09:31:34.000Z</time>
      </trkpt>
      <trkpt lat="47.30728" lon="-2.26929">
        <ele>-10.800000190735</ele>
        <time>2021-04-08T09:31:36.000Z</time>
      </trkpt>
      <trkpt lat="47.30724" lon="-2.26925">
        <ele>-10.39999961853</ele>
        <time>2021-04-08T09:31:37.000Z</time>
      </trkpt>
      <trkpt lat="47.30719" lon="-2.26923">
        <ele>-10</ele>
        <time>2021-04-08T09:31:38.000Z</time>
      </trkpt>
      <trkpt lat="47.30715" lon="-2.26919">
        <ele>-9.1999998092651</ele>
        <time>2021-04-08T09:31:39.000Z</time>
      </trkpt>
      <trkpt lat="47.30708" lon="-2.26912">
        <ele>-9.1999998092651</ele>
        <time>2021-04-08T09:31:41.000Z</time>
      </trkpt>
      <trkpt lat="47.30697" lon="-2.26898">
        <ele>-9.1999998092651</ele>
        <time>2021-04-08T09:31:45.000Z</time>
      </trkpt>
      <trkpt lat="47.30686" lon="-2.26884">
        <ele>-8.8000001907349</ele>
        <time>2021-04-08T09:31:48.000Z</time>
      </trkpt>
      <trkpt lat="47.30683" lon="-2.26877">
        <ele>-8.3999996185303</ele>
        <time>2021-04-08T09:31:49.000Z</time>
      </trkpt>
      <trkpt lat="47.3068" lon="-2.26871">
        <ele>-7.8000001907349</ele>
        <time>2021-04-08T09:31:50.000Z</time>
      </trkpt>
      <trkpt lat="47.30676" lon="-2.26864">
        <ele>-7.4000000953674</ele>
        <time>2021-04-08T09:31:51.000Z</time>
      </trkpt>
      <trkpt lat="47.30673" lon="-2.26857">
        <ele>-7</ele>
        <time>2021-04-08T09:31:52.000Z</time>
      </trkpt>
      <trkpt lat="47.30657" lon="-2.26821">
        <ele>-7</ele>
        <time>2021-04-08T09:31:57.000Z</time>
      </trkpt>
      <trkpt lat="47.30653" lon="-2.26814">
        <ele>-6.5999999046326</ele>
        <time>2021-04-08T09:31:58.000Z</time>
      </trkpt>
      <trkpt lat="47.3065" lon="-2.26806">
        <ele>-6.1999998092651</ele>
        <time>2021-04-08T09:31:59.000Z</time>
      </trkpt>
      <trkpt lat="47.30647" lon="-2.26798">
        <ele>-5.8000001907349</ele>
        <time>2021-04-08T09:32:00.000Z</time>
      </trkpt>
      <trkpt lat="47.30645" lon="-2.26791">
        <ele>-5.1999998092651</ele>
        <time>2021-04-08T09:32:01.000Z</time>
      </trkpt>
      <trkpt lat="47.30642" lon="-2.26783">
        <ele>-4.8000001907349</ele>
        <time>2021-04-08T09:32:02.000Z</time>
      </trkpt>
      <trkpt lat="47.30639" lon="-2.26777">
        <ele>-4.8000001907349</ele>
        <time>2021-04-08T09:32:03.000Z</time>
      </trkpt>
      <trkpt lat="47.3063" lon="-2.26755">
        <ele>-4.8000001907349</ele>
        <time>2021-04-08T09:32:06.000Z</time>
      </trkpt>
      <trkpt lat="47.30625" lon="-2.26739">
        <ele>-4.8000001907349</ele>
        <time>2021-04-08T09:32:08.000Z</time>
      </trkpt>
      <trkpt lat="47.30615" lon="-2.26687">
        <ele>-4.8000001907349</ele>
        <time>2021-04-08T09:32:14.000Z</time>
      </trkpt>
      <trkpt lat="47.30607" lon="-2.26634">
        <ele>-4.4000000953674</ele>
        <time>2021-04-08T09:32:20.000Z</time>
      </trkpt>
      <trkpt lat="47.30605" lon="-2.26625">
        <ele>-4</ele>
        <time>2021-04-08T09:32:21.000Z</time>
      </trkpt>
      <trkpt lat="47.30604" lon="-2.26616">
        <ele>-3.5999999046326</ele>
        <time>2021-04-08T09:32:22.000Z</time>
      </trkpt>
      <trkpt lat="47.30603" lon="-2.26608">
        <ele>-3.2000000476837</ele>
        <time>2021-04-08T09:32:23.000Z</time>
      </trkpt>
      <trkpt lat="47.30601" lon="-2.26599">
        <ele>-2.7999999523163</ele>
        <time>2021-04-08T09:32:24.000Z</time>
      </trkpt>
      <trkpt lat="47.3059" lon="-2.26567">
        <ele>-2.7999999523163</ele>
        <time>2021-04-08T09:32:28.000Z</time>
      </trkpt>
      <trkpt lat="47.30586" lon="-2.2656">
        <ele>-2.7999999523163</ele>
        <time>2021-04-08T09:32:29.000Z</time>
      </trkpt>
      <trkpt lat="47.30571" lon="-2.26544">
        <ele>-2.7999999523163</ele>
        <time>2021-04-08T09:32:32.000Z</time>
      </trkpt>
      <trkpt lat="47.30565" lon="-2.26539">
        <ele>-2.7999999523163</ele>
        <time>2021-04-08T09:32:33.000Z</time>
      </trkpt>
      <trkpt lat="47.30542" lon="-2.26522">
        <ele>-2.7999999523163</ele>
        <time>2021-04-08T09:32:37.000Z</time>
      </trkpt>
      <trkpt lat="47.30499" lon="-2.26494">
        <ele>-2.7999999523163</ele>
        <time>2021-04-08T09:32:44.000Z</time>
      </trkpt>
      <trkpt lat="47.30494" lon="-2.26493">
        <ele>-2.7999999523163</ele>
        <time>2021-04-08T09:32:45.000Z</time>
      </trkpt>
      <trkpt lat="47.30491" lon="-2.26493">
        <ele>-3.2000000476837</ele>
        <time>2021-04-08T09:32:46.000Z</time>
      </trkpt>
      <trkpt lat="47.30488" lon="-2.26496">
        <ele>-3.5999999046326</ele>
        <time>2021-04-08T09:32:47.000Z</time>
      </trkpt>
      <trkpt lat="47.30486" lon="-2.265">
        <ele>-4.1999998092651</ele>
        <time>2021-04-08T09:32:48.000Z</time>
      </trkpt>
      <trkpt lat="47.30483" lon="-2.26506">
        <ele>-4.5999999046326</ele>
        <time>2021-04-08T09:32:49.000Z</time>
      </trkpt>
      <trkpt lat="47.3048" lon="-2.26512">
        <ele>-5</ele>
        <time>2021-04-08T09:32:50.000Z</time>
      </trkpt>
      <trkpt lat="47.30467" lon="-2.26542">
        <ele>-5</ele>
        <time>2021-04-08T09:32:55.000Z</time>
      </trkpt>
      <trkpt lat="47.30463" lon="-2.26548">
        <ele>-5</ele>
        <time>2021-04-08T09:32:56.000Z</time>
      </trkpt>
      <trkpt lat="47.30445" lon="-2.26588">
        <ele>-5</ele>
        <time>2021-04-08T09:33:02.000Z</time>
      </trkpt>
      <trkpt lat="47.30425" lon="-2.26629">
        <ele>-5</ele>
        <time>2021-04-08T09:33:08.000Z</time>
      </trkpt>
      <trkpt lat="47.30402" lon="-2.26681">
        <ele>-5</ele>
        <time>2021-04-08T09:33:15.000Z</time>
      </trkpt>
      <trkpt lat="47.30375" lon="-2.26733">
        <ele>-5</ele>
        <time>2021-04-08T09:33:22.000Z</time>
      </trkpt>
      <trkpt lat="47.3037" lon="-2.26739">
        <ele>-5</ele>
        <time>2021-04-08T09:33:23.000Z</time>
      </trkpt>
      <trkpt lat="47.30356" lon="-2.26764">
        <ele>-5</ele>
        <time>2021-04-08T09:33:27.000Z</time>
      </trkpt>
      <trkpt lat="47.3035" lon="-2.26777">
        <ele>-5</ele>
        <time>2021-04-08T09:33:29.000Z</time>
      </trkpt>
      <trkpt lat="47.30349" lon="-2.26795">
        <ele>-5</ele>
        <time>2021-04-08T09:33:31.000Z</time>
      </trkpt>
      <trkpt lat="47.30351" lon="-2.26816">
        <ele>-5</ele>
        <time>2021-04-08T09:33:33.000Z</time>
      </trkpt>
      <trkpt lat="47.30353" lon="-2.26838">
        <ele>-5</ele>
        <time>2021-04-08T09:33:35.000Z</time>
      </trkpt>
      <trkpt lat="47.30365" lon="-2.26911">
        <ele>-5</ele>
        <time>2021-04-08T09:33:42.000Z</time>
      </trkpt>
      <trkpt lat="47.30371" lon="-2.26952">
        <ele>-5</ele>
        <time>2021-04-08T09:33:46.000Z</time>
      </trkpt>
      <trkpt lat="47.30372" lon="-2.26973">
        <ele>-5</ele>
        <time>2021-04-08T09:33:48.000Z</time>
      </trkpt>
      <trkpt lat="47.30372" lon="-2.27006">
        <ele>-5.4000000953674</ele>
        <time>2021-04-08T09:33:51.000Z</time>
      </trkpt>
      <trkpt lat="47.30373" lon="-2.27016">
        <ele>-5.8000001907349</ele>
        <time>2021-04-08T09:33:52.000Z</time>
      </trkpt>
      <trkpt lat="47.30373" lon="-2.27026">
        <ele>-6.1999998092651</ele>
        <time>2021-04-08T09:33:53.000Z</time>
      </trkpt>
      <trkpt lat="47.30374" lon="-2.27037">
        <ele>-6.8000001907349</ele>
        <time>2021-04-08T09:33:54.000Z</time>
      </trkpt>
      <trkpt lat="47.30375" lon="-2.27046">
        <ele>-7.1999998092651</ele>
        <time>2021-04-08T09:33:55.000Z</time>
      </trkpt>
      <trkpt lat="47.30376" lon="-2.27055">
        <ele>-7.1999998092651</ele>
        <time>2021-04-08T09:33:56.000Z</time>
      </trkpt>
      <trkpt lat="47.30381" lon="-2.2706">
        <ele>-7.1999998092651</ele>
        <time>2021-04-08T09:33:57.000Z</time>
      </trkpt>
      <trkpt lat="47.30397" lon="-2.27072">
        <ele>-7.1999998092651</ele>
        <time>2021-04-08T09:34:00.000Z</time>
      </trkpt>
      <trkpt lat="47.30408" lon="-2.27095">
        <ele>-7.1999998092651</ele>
        <time>2021-04-08T09:34:03.000Z</time>
      </trkpt>
      <trkpt lat="47.30411" lon="-2.27114">
        <ele>-7.1999998092651</ele>
        <time>2021-04-08T09:34:05.000Z</time>
      </trkpt>
      <trkpt lat="47.30415" lon="-2.27142">
        <ele>-7.1999998092651</ele>
        <time>2021-04-08T09:34:08.000Z</time>
      </trkpt>
      <trkpt lat="47.30414" lon="-2.2715">
        <ele>-7.1999998092651</ele>
        <time>2021-04-08T09:34:09.000Z</time>
      </trkpt>
      <trkpt lat="47.30412" lon="-2.27156">
        <ele>-7.5999999046326</ele>
        <time>2021-04-08T09:34:10.000Z</time>
      </trkpt>
      <trkpt lat="47.30408" lon="-2.2716">
        <ele>-8</ele>
        <time>2021-04-08T09:34:11.000Z</time>
      </trkpt>
      <trkpt lat="47.30403" lon="-2.27162">
        <ele>-8.3999996185303</ele>
        <time>2021-04-08T09:34:12.000Z</time>
      </trkpt>
      <trkpt lat="47.30399" lon="-2.27163">
        <ele>-8.8000001907349</ele>
        <time>2021-04-08T09:34:13.000Z</time>
      </trkpt>
      <trkpt lat="47.30394" lon="-2.27164">
        <ele>-9.1999998092651</ele>
        <time>2021-04-08T09:34:14.000Z</time>
      </trkpt>
      <trkpt lat="47.30389" lon="-2.27165">
        <ele>-9.1999998092651</ele>
        <time>2021-04-08T09:34:15.000Z</time>
      </trkpt>
      <trkpt lat="47.3037" lon="-2.27167">
        <ele>-9.1999998092651</ele>
        <time>2021-04-08T09:34:20.000Z</time>
      </trkpt>
      <trkpt lat="47.30357" lon="-2.2717">
        <ele>-9.1999998092651</ele>
        <time>2021-04-08T09:34:25.000Z</time>
      </trkpt>
      <trkpt lat="47.30344" lon="-2.27169">
        <ele>-9.1999998092651</ele>
        <time>2021-04-08T09:34:30.000Z</time>
      </trkpt>
      <trkpt lat="47.30333" lon="-2.27171">
        <ele>-9.1999998092651</ele>
        <time>2021-04-08T09:34:36.000Z</time>
      </trkpt>
      <trkpt lat="47.30318" lon="-2.27174">
        <ele>-9.1999998092651</ele>
        <time>2021-04-08T09:34:44.000Z</time>
      </trkpt>
      <trkpt lat="47.30304" lon="-2.27177">
        <ele>-9.1999998092651</ele>
        <time>2021-04-08T09:34:52.000Z</time>
      </trkpt>
      <trkpt lat="47.30291" lon="-2.27178">
        <ele>-9.1999998092651</ele>
        <time>2021-04-08T09:34:59.000Z</time>
      </trkpt>
      <trkpt lat="47.30271" lon="-2.27175">
        <ele>-9.1999998092651</ele>
        <time>2021-04-08T09:35:06.000Z</time>
      </trkpt>
      <trkpt lat="47.30254" lon="-2.27167">
        <ele>-9.1999998092651</ele>
        <time>2021-04-08T09:35:13.000Z</time>
      </trkpt>
      <trkpt lat="47.30241" lon="-2.27162">
        <ele>-9.1999998092651</ele>
        <time>2021-04-08T09:35:19.000Z</time>
      </trkpt>
      <trkpt lat="47.30237" lon="-2.2716">
        <ele>-8.3999996185303</ele>
        <time>2021-04-08T09:35:21.000Z</time>
      </trkpt>
      <trkpt lat="47.30234" lon="-2.27159">
        <ele>-8</ele>
        <time>2021-04-08T09:35:22.000Z</time>
      </trkpt>
      <trkpt lat="47.30233" lon="-2.27157">
        <ele>-7.5999999046326</ele>
        <time>2021-04-08T09:35:23.000Z</time>
      </trkpt>
      <trkpt lat="47.30231" lon="-2.27156">
        <ele>-7.1999998092651</ele>
        <time>2021-04-08T09:35:24.000Z</time>
      </trkpt>
      <trkpt lat="47.30227" lon="-2.27154">
        <ele>-7.1999998092651</ele>
        <time>2021-04-08T09:35:26.000Z</time>
      </trkpt>
      <trkpt lat="47.30216" lon="-2.27153">
        <ele>-7.1999998092651</ele>
        <time>2021-04-08T09:35:31.000Z</time>
      </trkpt>
      <trkpt lat="47.30204" lon="-2.27163">
        <ele>-7.1999998092651</ele>
        <time>2021-04-08T09:35:38.000Z</time>
      </trkpt>
      <trkpt lat="47.30192" lon="-2.27176">
        <ele>-7.1999998092651</ele>
        <time>2021-04-08T09:35:44.000Z</time>
      </trkpt>
      <trkpt lat="47.30176" lon="-2.27196">
        <ele>-7.1999998092651</ele>
        <time>2021-04-08T09:35:51.000Z</time>
      </trkpt>
      <trkpt lat="47.30152" lon="-2.27225">
        <ele>-7.1999998092651</ele>
        <time>2021-04-08T09:35:59.000Z</time>
      </trkpt>
      <trkpt lat="47.30132" lon="-2.27252">
        <ele>-7.1999998092651</ele>
        <time>2021-04-08T09:36:06.000Z</time>
      </trkpt>
      <trkpt lat="47.30126" lon="-2.27262">
        <ele>-7.1999998092651</ele>
        <time>2021-04-08T09:36:08.000Z</time>
      </trkpt>
      <trkpt lat="47.30114" lon="-2.27276">
        <ele>-7.1999998092651</ele>
        <time>2021-04-08T09:36:11.000Z</time>
      </trkpt>
      <trkpt lat="47.3011" lon="-2.27281">
        <ele>-7.1999998092651</ele>
        <time>2021-04-08T09:36:12.000Z</time>
      </trkpt>
      <trkpt lat="47.30098" lon="-2.27302">
        <ele>-7.1999998092651</ele>
        <time>2021-04-08T09:36:16.000Z</time>
      </trkpt>
      <trkpt lat="47.30079" lon="-2.27345">
        <ele>-7.1999998092651</ele>
        <time>2021-04-08T09:36:23.000Z</time>
      </trkpt>
      <trkpt lat="47.30062" lon="-2.27385">
        <ele>-7.1999998092651</ele>
        <time>2021-04-08T09:36:29.000Z</time>
      </trkpt>
      <trkpt lat="47.30043" lon="-2.27419">
        <ele>-7.1999998092651</ele>
        <time>2021-04-08T09:36:35.000Z</time>
      </trkpt>
      <trkpt lat="47.30016" lon="-2.27453">
        <ele>-7.1999998092651</ele>
        <time>2021-04-08T09:36:42.000Z</time>
      </trkpt>
      <trkpt lat="47.30013" lon="-2.27459">
        <ele>-7.1999998092651</ele>
        <time>2021-04-08T09:36:43.000Z</time>
      </trkpt>
      <trkpt lat="47.3" lon="-2.27491">
        <ele>-7.1999998092651</ele>
        <time>2021-04-08T09:36:48.000Z</time>
      </trkpt>
      <trkpt lat="47.29996" lon="-2.27505">
        <ele>-7.1999998092651</ele>
        <time>2021-04-08T09:36:50.000Z</time>
      </trkpt>
      <trkpt lat="47.29989" lon="-2.27534">
        <ele>-7.1999998092651</ele>
        <time>2021-04-08T09:36:54.000Z</time>
      </trkpt>
      <trkpt lat="47.29987" lon="-2.2754">
        <ele>-7.1999998092651</ele>
        <time>2021-04-08T09:36:55.000Z</time>
      </trkpt>
      <trkpt lat="47.29977" lon="-2.27581">
        <ele>-7.1999998092651</ele>
        <time>2021-04-08T09:37:01.000Z</time>
      </trkpt>
      <trkpt lat="47.29963" lon="-2.27599">
        <ele>-7.1999998092651</ele>
        <time>2021-04-08T09:37:05.000Z</time>
      </trkpt>
      <trkpt lat="47.29948" lon="-2.27601">
        <ele>-7.1999998092651</ele>
        <time>2021-04-08T09:37:08.000Z</time>
      </trkpt>
      <trkpt lat="47.29943" lon="-2.276">
        <ele>-7.1999998092651</ele>
        <time>2021-04-08T09:37:09.000Z</time>
      </trkpt>
      <trkpt lat="47.29921" lon="-2.276">
        <ele>-7.1999998092651</ele>
        <time>2021-04-08T09:37:13.000Z</time>
      </trkpt>
      <trkpt lat="47.29911" lon="-2.27602">
        <ele>-7.1999998092651</ele>
        <time>2021-04-08T09:37:15.000Z</time>
      </trkpt>
      <trkpt lat="47.29901" lon="-2.27606">
        <ele>-6.8000001907349</ele>
        <time>2021-04-08T09:37:17.000Z</time>
      </trkpt>
      <trkpt lat="47.29896" lon="-2.27609">
        <ele>-6.1999998092651</ele>
        <time>2021-04-08T09:37:18.000Z</time>
      </trkpt>
      <trkpt lat="47.29891" lon="-2.27612">
        <ele>-5.8000001907349</ele>
        <time>2021-04-08T09:37:19.000Z</time>
      </trkpt>
      <trkpt lat="47.29887" lon="-2.27614">
        <ele>-5.4000000953674</ele>
        <time>2021-04-08T09:37:20.000Z</time>
      </trkpt>
      <trkpt lat="47.29882" lon="-2.27618">
        <ele>-5</ele>
        <time>2021-04-08T09:37:21.000Z</time>
      </trkpt>
      <trkpt lat="47.29866" lon="-2.27623">
        <ele>-5</ele>
        <time>2021-04-08T09:37:24.000Z</time>
      </trkpt>
      <trkpt lat="47.29855" lon="-2.27623">
        <ele>-5</ele>
        <time>2021-04-08T09:37:26.000Z</time>
      </trkpt>
      <trkpt lat="47.29837" lon="-2.27617">
        <ele>-5</ele>
        <time>2021-04-08T09:37:29.000Z</time>
      </trkpt>
      <trkpt lat="47.29832" lon="-2.27614">
        <ele>-5</ele>
        <time>2021-04-08T09:37:30.000Z</time>
      </trkpt>
      <trkpt lat="47.29798" lon="-2.27594">
        <ele>-5</ele>
        <time>2021-04-08T09:37:36.000Z</time>
      </trkpt>
      <trkpt lat="47.29791" lon="-2.27593">
        <ele>-5</ele>
        <time>2021-04-08T09:37:37.000Z</time>
      </trkpt>
      <trkpt lat="47.29773" lon="-2.27595">
        <ele>-5</ele>
        <time>2021-04-08T09:37:40.000Z</time>
      </trkpt>
      <trkpt lat="47.29766" lon="-2.27596">
        <ele>-5</ele>
        <time>2021-04-08T09:37:41.000Z</time>
      </trkpt>
      <trkpt lat="47.29732" lon="-2.27609">
        <ele>-5</ele>
        <time>2021-04-08T09:37:47.000Z</time>
      </trkpt>
      <trkpt lat="47.29698" lon="-2.27617">
        <ele>-5</ele>
        <time>2021-04-08T09:37:53.000Z</time>
      </trkpt>
      <trkpt lat="47.29685" lon="-2.27616">
        <ele>-5</ele>
        <time>2021-04-08T09:37:55.000Z</time>
      </trkpt>
      <trkpt lat="47.29665" lon="-2.2761">
        <ele>-4.5999999046326</ele>
        <time>2021-04-08T09:37:58.000Z</time>
      </trkpt>
      <trkpt lat="47.29659" lon="-2.27608">
        <ele>-4.1999998092651</ele>
        <time>2021-04-08T09:37:59.000Z</time>
      </trkpt>
      <trkpt lat="47.29653" lon="-2.27606">
        <ele>-3.7999999523163</ele>
        <time>2021-04-08T09:38:00.000Z</time>
      </trkpt>
      <trkpt lat="47.29647" lon="-2.27604">
        <ele>-3.4000000953674</ele>
        <time>2021-04-08T09:38:01.000Z</time>
      </trkpt>
      <trkpt lat="47.29641" lon="-2.276">
        <ele>-3</ele>
        <time>2021-04-08T09:38:02.000Z</time>
      </trkpt>
      <trkpt lat="47.2963" lon="-2.27591">
        <ele>-3</ele>
        <time>2021-04-08T09:38:04.000Z</time>
      </trkpt>
      <trkpt lat="47.29595" lon="-2.2757">
        <ele>-2.5999999046326</ele>
        <time>2021-04-08T09:38:10.000Z</time>
      </trkpt>
      <trkpt lat="47.2959" lon="-2.27567">
        <ele>-2.2000000476837</ele>
        <time>2021-04-08T09:38:11.000Z</time>
      </trkpt>
      <trkpt lat="47.29585" lon="-2.27563">
        <ele>-1.7999999523163</ele>
        <time>2021-04-08T09:38:12.000Z</time>
      </trkpt>
      <trkpt lat="47.29579" lon="-2.27559">
        <ele>-1.3999999761581</ele>
        <time>2021-04-08T09:38:13.000Z</time>
      </trkpt>
      <trkpt lat="47.29573" lon="-2.27556">
        <ele>-1</ele>
        <time>2021-04-08T09:38:14.000Z</time>
      </trkpt>
      <trkpt lat="47.29567" lon="-2.27554">
        <ele>-1</ele>
        <time>2021-04-08T09:38:15.000Z</time>
      </trkpt>
      <trkpt lat="47.29561" lon="-2.27551">
        <ele>-1</ele>
        <time>2021-04-08T09:38:16.000Z</time>
      </trkpt>
      <trkpt lat="47.29519" lon="-2.27536">
        <ele>-0.40000000596046</ele>
        <time>2021-04-08T09:38:23.000Z</time>
      </trkpt>
      <trkpt lat="47.29513" lon="-2.27534">
        <ele>16.5</ele>
        <time>2021-04-08T09:38:24.000Z</time>
      </trkpt>
      <trkpt lat="47.29507" lon="-2.27532">
        <ele>0.40000000596046</ele>
        <time>2021-04-08T09:38:25.000Z</time>
      </trkpt>
      <trkpt lat="47.29501" lon="-2.2753">
        <ele>0.80000001192093</ele>
        <time>2021-04-08T09:38:26.000Z</time>
      </trkpt>
      <trkpt lat="47.29495" lon="-2.27528">
        <ele>1.3999999761581</ele>
        <time>2021-04-08T09:38:27.000Z</time>
      </trkpt>
      <trkpt lat="47.29477" lon="-2.27522">
        <ele>1.3999999761581</ele>
        <time>2021-04-08T09:38:30.000Z</time>
      </trkpt>
      <trkpt lat="47.29435" lon="-2.27513">
        <ele>1.3999999761581</ele>
        <time>2021-04-08T09:38:37.000Z</time>
      </trkpt>
      <trkpt lat="47.29399" lon="-2.27517">
        <ele>1.3999999761581</ele>
        <time>2021-04-08T09:38:43.000Z</time>
      </trkpt>
      <trkpt lat="47.2936" lon="-2.27527">
        <ele>1.3999999761581</ele>
        <time>2021-04-08T09:38:50.000Z</time>
      </trkpt>
      <trkpt lat="47.2932" lon="-2.27532">
        <ele>1.3999999761581</ele>
        <time>2021-04-08T09:38:57.000Z</time>
      </trkpt>
      <trkpt lat="47.29287" lon="-2.27533">
        <ele>1.3999999761581</ele>
        <time>2021-04-08T09:39:03.000Z</time>
      </trkpt>
      <trkpt lat="47.29273" lon="-2.27538">
        <ele>1.3999999761581</ele>
        <time>2021-04-08T09:39:06.000Z</time>
      </trkpt>
      <trkpt lat="47.29262" lon="-2.27535">
        <ele>1.3999999761581</ele>
        <time>2021-04-08T09:39:08.000Z</time>
      </trkpt>
      <trkpt lat="47.29251" lon="-2.2753">
        <ele>1.3999999761581</ele>
        <time>2021-04-08T09:39:10.000Z</time>
      </trkpt>
      <trkpt lat="47.29245" lon="-2.27529">
        <ele>1.3999999761581</ele>
        <time>2021-04-08T09:39:11.000Z</time>
      </trkpt>
      <trkpt lat="47.29231" lon="-2.27528">
        <ele>1.3999999761581</ele>
        <time>2021-04-08T09:39:13.000Z</time>
      </trkpt>
      <trkpt lat="47.29191" lon="-2.27529">
        <ele>1.3999999761581</ele>
        <time>2021-04-08T09:39:19.000Z</time>
      </trkpt>
      <trkpt lat="47.2916" lon="-2.27529">
        <ele>1.3999999761581</ele>
        <time>2021-04-08T09:39:24.000Z</time>
      </trkpt>
      <trkpt lat="47.29124" lon="-2.2753">
        <ele>1.3999999761581</ele>
        <time>2021-04-08T09:39:30.000Z</time>
      </trkpt>
      <trkpt lat="47.29104" lon="-2.27526">
        <ele>1.3999999761581</ele>
        <time>2021-04-08T09:39:34.000Z</time>
      </trkpt>
      <trkpt lat="47.291" lon="-2.27521">
        <ele>1.3999999761581</ele>
        <time>2021-04-08T09:39:35.000Z</time>
      </trkpt>
      <trkpt lat="47.29097" lon="-2.27502">
        <ele>1.3999999761581</ele>
        <time>2021-04-08T09:39:38.000Z</time>
      </trkpt>
      <trkpt lat="47.29099" lon="-2.27487">
        <ele>1.3999999761581</ele>
        <time>2021-04-08T09:39:40.000Z</time>
      </trkpt>
      <trkpt lat="47.29102" lon="-2.27461">
        <ele>1.3999999761581</ele>
        <time>2021-04-08T09:39:43.000Z</time>
      </trkpt>
      <trkpt lat="47.29104" lon="-2.27395">
        <ele>1.3999999761581</ele>
        <time>2021-04-08T09:39:50.000Z</time>
      </trkpt>
      <trkpt lat="47.29097" lon="-2.27355">
        <ele>1</ele>
        <time>2021-04-08T09:39:55.000Z</time>
      </trkpt>
      <trkpt lat="47.29094" lon="-2.27352">
        <ele>0.60000002384186</ele>
        <time>2021-04-08T09:39:56.000Z</time>
      </trkpt>
      <trkpt lat="47.29092" lon="-2.27349">
        <ele>0.20000000298023</ele>
        <time>2021-04-08T09:39:57.000Z</time>
      </trkpt>
      <trkpt lat="47.2909" lon="-2.27346">
        <ele>-0.40000000596046</ele>
        <time>2021-04-08T09:39:58.000Z</time>
      </trkpt>
      <trkpt lat="47.2909" lon="-2.27341">
        <ele>-0.80000001192093</ele>
        <time>2021-04-08T09:39:59.000Z</time>
      </trkpt>
      <trkpt lat="47.29091" lon="-2.27331">
        <ele>-0.80000001192093</ele>
        <time>2021-04-08T09:40:01.000Z</time>
      </trkpt>
      <trkpt lat="47.29092" lon="-2.27321">
        <ele>-0.80000001192093</ele>
        <time>2021-04-08T09:40:03.000Z</time>
      </trkpt>
      <trkpt lat="47.29094" lon="-2.27309">
        <ele>-0.80000001192093</ele>
        <time>2021-04-08T09:40:05.000Z</time>
      </trkpt>
      <trkpt lat="47.29096" lon="-2.27296">
        <ele>-0.80000001192093</ele>
        <time>2021-04-08T09:40:07.000Z</time>
      </trkpt>
      <trkpt lat="47.291" lon="-2.27274">
        <ele>-0.80000001192093</ele>
        <time>2021-04-08T09:40:11.000Z</time>
      </trkpt>
      <trkpt lat="47.29103" lon="-2.27246">
        <ele>-0.80000001192093</ele>
        <time>2021-04-08T09:40:16.000Z</time>
      </trkpt>
      <trkpt lat="47.29105" lon="-2.27229">
        <ele>-0.80000001192093</ele>
        <time>2021-04-08T09:40:20.000Z</time>
      </trkpt>
      <trkpt lat="47.29108" lon="-2.27215">
        <ele>-0.80000001192093</ele>
        <time>2021-04-08T09:40:25.000Z</time>
      </trkpt>
      <trkpt lat="47.2911" lon="-2.27213">
        <ele>-0.80000001192093</ele>
        <time>2021-04-08T09:40:28.000Z</time>
      </trkpt>
      <trkpt lat="47.29107" lon="-2.27211">
        <ele>-0.80000001192093</ele>
        <time>2021-04-08T09:40:30.000Z</time>
      </trkpt>
      <trkpt lat="47.29095" lon="-2.27206">
        <ele>-0.80000001192093</ele>
        <time>2021-04-08T09:40:35.000Z</time>
      </trkpt>
      <trkpt lat="47.29081" lon="-2.27203">
        <ele>-0.80000001192093</ele>
        <time>2021-04-08T09:40:39.000Z</time>
      </trkpt>
      <trkpt lat="47.29073" lon="-2.27197">
        <ele>-0.80000001192093</ele>
        <time>2021-04-08T09:40:41.000Z</time>
      </trkpt>
      <trkpt lat="47.29067" lon="-2.27187">
        <ele>-0.80000001192093</ele>
        <time>2021-04-08T09:40:44.000Z</time>
      </trkpt>
      <trkpt lat="47.29069" lon="-2.2717">
        <ele>-0.80000001192093</ele>
        <time>2021-04-08T09:40:47.000Z</time>
      </trkpt>
      <trkpt lat="47.29069" lon="-2.27164">
        <ele>-0.80000001192093</ele>
        <time>2021-04-08T09:40:48.000Z</time>
      </trkpt>
      <trkpt lat="47.2907" lon="-2.27132">
        <ele>-0.80000001192093</ele>
        <time>2021-04-08T09:40:53.000Z</time>
      </trkpt>
      <trkpt lat="47.29071" lon="-2.27109">
        <ele>-0.80000001192093</ele>
        <time>2021-04-08T09:40:56.000Z</time>
      </trkpt>
      <trkpt lat="47.29072" lon="-2.27095">
        <ele>-0.80000001192093</ele>
        <time>2021-04-08T09:40:58.000Z</time>
      </trkpt>
      <trkpt lat="47.29075" lon="-2.27059">
        <ele>-0.80000001192093</ele>
        <time>2021-04-08T09:41:04.000Z</time>
      </trkpt>
      <trkpt lat="47.29077" lon="-2.27044">
        <ele>-0.80000001192093</ele>
        <time>2021-04-08T09:41:06.000Z</time>
      </trkpt>
      <trkpt lat="47.29077" lon="-2.27031">
        <ele>-0.80000001192093</ele>
        <time>2021-04-08T09:41:08.000Z</time>
      </trkpt>
      <trkpt lat="47.29075" lon="-2.27015">
        <ele>-0.80000001192093</ele>
        <time>2021-04-08T09:41:11.000Z</time>
      </trkpt>
      <trkpt lat="47.29075" lon="-2.27009">
        <ele>-0.80000001192093</ele>
        <time>2021-04-08T09:41:12.000Z</time>
      </trkpt>
      <trkpt lat="47.29078" lon="-2.26969">
        <ele>-0.80000001192093</ele>
        <time>2021-04-08T09:41:18.000Z</time>
      </trkpt>
      <trkpt lat="47.29078" lon="-2.26938">
        <ele>-0.80000001192093</ele>
        <time>2021-04-08T09:41:23.000Z</time>
      </trkpt>
      <trkpt lat="47.29079" lon="-2.26922">
        <ele>-0.80000001192093</ele>
        <time>2021-04-08T09:41:27.000Z</time>
      </trkpt>
      <trkpt lat="47.29073" lon="-2.26913">
        <ele>-0.80000001192093</ele>
        <time>2021-04-08T09:41:30.000Z</time>
      </trkpt>
      <trkpt lat="47.29071" lon="-2.26908">
        <ele>-0.80000001192093</ele>
        <time>2021-04-08T09:41:31.000Z</time>
      </trkpt>
      <trkpt lat="47.29062" lon="-2.26896">
        <ele>-0.80000001192093</ele>
        <time>2021-04-08T09:41:34.000Z</time>
      </trkpt>
      <trkpt lat="47.29061" lon="-2.26883">
        <ele>-0.80000001192093</ele>
        <time>2021-04-08T09:41:36.000Z</time>
      </trkpt>
      <trkpt lat="47.2906" lon="-2.26874">
        <ele>-0.80000001192093</ele>
        <time>2021-04-08T09:41:37.000Z</time>
      </trkpt>
      <trkpt lat="47.29061" lon="-2.26823">
        <ele>-0.80000001192093</ele>
        <time>2021-04-08T09:41:43.000Z</time>
      </trkpt>
      <trkpt lat="47.29059" lon="-2.2677">
        <ele>-0.80000001192093</ele>
        <time>2021-04-08T09:41:49.000Z</time>
      </trkpt>
      <trkpt lat="47.29054" lon="-2.26732">
        <ele>-0.80000001192093</ele>
        <time>2021-04-08T09:41:54.000Z</time>
      </trkpt>
      <trkpt lat="47.29051" lon="-2.26709">
        <ele>0.20000000298023</ele>
        <time>2021-04-08T09:41:57.000Z</time>
      </trkpt>
      <trkpt lat="47.29051" lon="-2.26702">
        <ele>0.60000002384186</ele>
        <time>2021-04-08T09:41:58.000Z</time>
      </trkpt>
      <trkpt lat="47.2905" lon="-2.26695">
        <ele>1</ele>
        <time>2021-04-08T09:41:59.000Z</time>
      </trkpt>
      <trkpt lat="47.29049" lon="-2.26688">
        <ele>1.3999999761581</ele>
        <time>2021-04-08T09:42:00.000Z</time>
      </trkpt>
      <trkpt lat="47.29048" lon="-2.26675">
        <ele>1.7999999523163</ele>
        <time>2021-04-08T09:42:02.000Z</time>
      </trkpt>
      <trkpt lat="47.29048" lon="-2.26669">
        <ele>2.2000000476837</ele>
        <time>2021-04-08T09:42:03.000Z</time>
      </trkpt>
      <trkpt lat="47.29047" lon="-2.26663">
        <ele>2.5999999046326</ele>
        <time>2021-04-08T09:42:04.000Z</time>
      </trkpt>
      <trkpt lat="47.29046" lon="-2.26657">
        <ele>3</ele>
        <time>2021-04-08T09:42:05.000Z</time>
      </trkpt>
      <trkpt lat="47.29046" lon="-2.2665">
        <ele>3.4000000953674</ele>
        <time>2021-04-08T09:42:06.000Z</time>
      </trkpt>
      <trkpt lat="47.29044" lon="-2.26609">
        <ele>4</ele>
        <time>2021-04-08T09:42:13.000Z</time>
      </trkpt>
      <trkpt lat="47.29043" lon="-2.26604">
        <ele>4.4000000953674</ele>
        <time>2021-04-08T09:42:14.000Z</time>
      </trkpt>
      <trkpt lat="47.29042" lon="-2.26599">
        <ele>4.8000001907349</ele>
        <time>2021-04-08T09:42:15.000Z</time>
      </trkpt>
      <trkpt lat="47.29041" lon="-2.26594">
        <ele>5.4000000953674</ele>
        <time>2021-04-08T09:42:16.000Z</time>
      </trkpt>
      <trkpt lat="47.2904" lon="-2.26588">
        <ele>5.8000001907349</ele>
        <time>2021-04-08T09:42:17.000Z</time>
      </trkpt>
      <trkpt lat="47.29038" lon="-2.26567">
        <ele>5.8000001907349</ele>
        <time>2021-04-08T09:42:21.000Z</time>
      </trkpt>
      <trkpt lat="47.29034" lon="-2.26543">
        <ele>5.8000001907349</ele>
        <time>2021-04-08T09:42:25.000Z</time>
      </trkpt>
      <trkpt lat="47.2903" lon="-2.26526">
        <ele>5.8000001907349</ele>
        <time>2021-04-08T09:42:28.000Z</time>
      </trkpt>
      <trkpt lat="47.29028" lon="-2.26521">
        <ele>5.8000001907349</ele>
        <time>2021-04-08T09:42:29.000Z</time>
      </trkpt>
      <trkpt lat="47.29022" lon="-2.26491">
        <ele>5.8000001907349</ele>
        <time>2021-04-08T09:42:35.000Z</time>
      </trkpt>
      <trkpt lat="47.29019" lon="-2.26458">
        <ele>5.8000001907349</ele>
        <time>2021-04-08T09:42:42.000Z</time>
      </trkpt>
      <trkpt lat="47.29018" lon="-2.26436">
        <ele>5.8000001907349</ele>
        <time>2021-04-08T09:42:48.000Z</time>
      </trkpt>
      <trkpt lat="47.29016" lon="-2.26419">
        <ele>6.1999998092651</ele>
        <time>2021-04-08T09:42:53.000Z</time>
      </trkpt>
      <trkpt lat="47.29016" lon="-2.26416">
        <ele>6.5999999046326</ele>
        <time>2021-04-08T09:42:54.000Z</time>
      </trkpt>
      <trkpt lat="47.29016" lon="-2.26412">
        <ele>7</ele>
        <time>2021-04-08T09:42:55.000Z</time>
      </trkpt>
      <trkpt lat="47.29015" lon="-2.26409">
        <ele>7.4000000953674</ele>
        <time>2021-04-08T09:42:56.000Z</time>
      </trkpt>
      <trkpt lat="47.29014" lon="-2.26405">
        <ele>7.8000001907349</ele>
        <time>2021-04-08T09:42:57.000Z</time>
      </trkpt>
      <trkpt lat="47.2901" lon="-2.26391">
        <ele>7.8000001907349</ele>
        <time>2021-04-08T09:43:01.000Z</time>
      </trkpt>
      <trkpt lat="47.29003" lon="-2.26384">
        <ele>8.3999996185303</ele>
        <time>2021-04-08T09:43:04.000Z</time>
      </trkpt>
      <trkpt lat="47.29002" lon="-2.26381">
        <ele>8.8000001907349</ele>
        <time>2021-04-08T09:43:05.000Z</time>
      </trkpt>
      <trkpt lat="47.29" lon="-2.2638">
        <ele>9.1999998092651</ele>
        <time>2021-04-08T09:43:06.000Z</time>
      </trkpt>
      <trkpt lat="47.28999" lon="-2.26377">
        <ele>9.6000003814697</ele>
        <time>2021-04-08T09:43:07.000Z</time>
      </trkpt>
      <trkpt lat="47.28998" lon="-2.26374">
        <ele>10</ele>
        <time>2021-04-08T09:43:08.000Z</time>
      </trkpt>
      <trkpt lat="47.28994" lon="-2.26368">
        <ele>10</ele>
        <time>2021-04-08T09:43:11.000Z</time>
      </trkpt>
      <trkpt lat="47.28987" lon="-2.26356">
        <ele>10</ele>
        <time>2021-04-08T09:43:17.000Z</time>
      </trkpt>
      <trkpt lat="47.2898" lon="-2.2634">
        <ele>10</ele>
        <time>2021-04-08T09:43:25.000Z</time>
      </trkpt>
      <trkpt lat="47.28971" lon="-2.26323">
        <ele>10</ele>
        <time>2021-04-08T09:43:32.000Z</time>
      </trkpt>
      <trkpt lat="47.28962" lon="-2.26315">
        <ele>10</ele>
        <time>2021-04-08T09:43:36.000Z</time>
      </trkpt>
      <trkpt lat="47.28959" lon="-2.26316">
        <ele>10</ele>
        <time>2021-04-08T09:43:37.000Z</time>
      </trkpt>
      <trkpt lat="47.28955" lon="-2.26314">
        <ele>10</ele>
        <time>2021-04-08T09:43:40.000Z</time>
      </trkpt>
      <trkpt lat="47.28954" lon="-2.2631">
        <ele>10</ele>
        <time>2021-04-08T09:43:42.000Z</time>
      </trkpt>
      <trkpt lat="47.28956" lon="-2.26292">
        <ele>10</ele>
        <time>2021-04-08T09:43:49.000Z</time>
      </trkpt>
      <trkpt lat="47.28957" lon="-2.26292">
        <ele>10</ele>
        <time>2021-04-08T09:43:50.000Z</time>
      </trkpt>
      <trkpt lat="47.28955" lon="-2.26281">
        <ele>10</ele>
        <time>2021-04-08T09:44:23.000Z</time>
      </trkpt>
      <trkpt lat="47.28954" lon="-2.26278">
        <ele>10</ele>
        <time>2021-04-08T09:44:25.000Z</time>
      </trkpt>
      <trkpt lat="47.28951" lon="-2.26272">
        <ele>10</ele>
        <time>2021-04-08T09:44:29.000Z</time>
      </trkpt>
      <trkpt lat="47.28947" lon="-2.26269">
        <ele>10</ele>
        <time>2021-04-08T09:44:31.000Z</time>
      </trkpt>
      <trkpt lat="47.28938" lon="-2.26255">
        <ele>10</ele>
        <time>2021-04-08T09:44:35.000Z</time>
      </trkpt>
      <trkpt lat="47.28922" lon="-2.26221">
        <ele>10</ele>
        <time>2021-04-08T09:44:41.000Z</time>
      </trkpt>
      <trkpt lat="47.28907" lon="-2.26187">
        <ele>10</ele>
        <time>2021-04-08T09:44:46.000Z</time>
      </trkpt>
      <trkpt lat="47.28906" lon="-2.26179">
        <ele>10</ele>
        <time>2021-04-08T09:44:47.000Z</time>
      </trkpt>
      <trkpt lat="47.28909" lon="-2.26165">
        <ele>10</ele>
        <time>2021-04-08T09:44:49.000Z</time>
      </trkpt>
      <trkpt lat="47.28914" lon="-2.26151">
        <ele>10</ele>
        <time>2021-04-08T09:44:51.000Z</time>
      </trkpt>
      <trkpt lat="47.28928" lon="-2.26122">
        <ele>10</ele>
        <time>2021-04-08T09:44:55.000Z</time>
      </trkpt>
      <trkpt lat="47.28931" lon="-2.26116">
        <ele>10</ele>
        <time>2021-04-08T09:44:56.000Z</time>
      </trkpt>
      <trkpt lat="47.28934" lon="-2.26107">
        <ele>9.6000003814697</ele>
        <time>2021-04-08T09:44:57.000Z</time>
      </trkpt>
      <trkpt lat="47.28936" lon="-2.26098">
        <ele>9.1999998092651</ele>
        <time>2021-04-08T09:44:58.000Z</time>
      </trkpt>
      <trkpt lat="47.28936" lon="-2.26089">
        <ele>8.8000001907349</ele>
        <time>2021-04-08T09:44:59.000Z</time>
      </trkpt>
      <trkpt lat="47.28936" lon="-2.26081">
        <ele>8.1999998092651</ele>
        <time>2021-04-08T09:45:00.000Z</time>
      </trkpt>
      <trkpt lat="47.28936" lon="-2.26072">
        <ele>7.8000001907349</ele>
        <time>2021-04-08T09:45:01.000Z</time>
      </trkpt>
      <trkpt lat="47.28936" lon="-2.26063">
        <ele>7.8000001907349</ele>
        <time>2021-04-08T09:45:02.000Z</time>
      </trkpt>
      <trkpt lat="47.28934" lon="-2.26038">
        <ele>7.8000001907349</ele>
        <time>2021-04-08T09:45:05.000Z</time>
      </trkpt>
      <trkpt lat="47.28931" lon="-2.26011">
        <ele>7.8000001907349</ele>
        <time>2021-04-08T09:45:09.000Z</time>
      </trkpt>
      <trkpt lat="47.28929" lon="-2.26005">
        <ele>7.4000000953674</ele>
        <time>2021-04-08T09:45:10.000Z</time>
      </trkpt>
      <trkpt lat="47.28927" lon="-2.26001">
        <ele>6.8000001907349</ele>
        <time>2021-04-08T09:45:11.000Z</time>
      </trkpt>
      <trkpt lat="47.28924" lon="-2.25999">
        <ele>6.4000000953674</ele>
        <time>2021-04-08T09:45:12.000Z</time>
      </trkpt>
      <trkpt lat="47.2892" lon="-2.26">
        <ele>5.8000001907349</ele>
        <time>2021-04-08T09:45:13.000Z</time>
      </trkpt>
      <trkpt lat="47.28916" lon="-2.26003">
        <ele>5.4000000953674</ele>
        <time>2021-04-08T09:45:14.000Z</time>
      </trkpt>
      <trkpt lat="47.28912" lon="-2.26007">
        <ele>5.4000000953674</ele>
        <time>2021-04-08T09:45:15.000Z</time>
      </trkpt>
      <trkpt lat="47.28904" lon="-2.26015">
        <ele>5.4000000953674</ele>
        <time>2021-04-08T09:45:17.000Z</time>
      </trkpt>
      <trkpt lat="47.28889" lon="-2.26025">
        <ele>5.4000000953674</ele>
        <time>2021-04-08T09:45:20.000Z</time>
      </trkpt>
      <trkpt lat="47.28863" lon="-2.26036">
        <ele>5.4000000953674</ele>
        <time>2021-04-08T09:45:25.000Z</time>
      </trkpt>
      <trkpt lat="47.28858" lon="-2.26037">
        <ele>5.4000000953674</ele>
        <time>2021-04-08T09:45:26.000Z</time>
      </trkpt>
      <trkpt lat="47.28831" lon="-2.26041">
        <ele>5.4000000953674</ele>
        <time>2021-04-08T09:45:32.000Z</time>
      </trkpt>
      <trkpt lat="47.28804" lon="-2.26039">
        <ele>5.4000000953674</ele>
        <time>2021-04-08T09:45:38.000Z</time>
      </trkpt>
      <trkpt lat="47.28795" lon="-2.26037">
        <ele>5.4000000953674</ele>
        <time>2021-04-08T09:45:40.000Z</time>
      </trkpt>
      <trkpt lat="47.28784" lon="-2.26041">
        <ele>5</ele>
        <time>2021-04-08T09:45:43.000Z</time>
      </trkpt>
      <trkpt lat="47.28782" lon="-2.26047">
        <ele>4.5999999046326</ele>
        <time>2021-04-08T09:45:44.000Z</time>
      </trkpt>
      <trkpt lat="47.2878" lon="-2.26052">
        <ele>4.1999998092651</ele>
        <time>2021-04-08T09:45:45.000Z</time>
      </trkpt>
      <trkpt lat="47.28778" lon="-2.26057">
        <ele>3.7999999523163</ele>
        <time>2021-04-08T09:45:46.000Z</time>
      </trkpt>
      <trkpt lat="47.28775" lon="-2.26063">
        <ele>3.2000000476837</ele>
        <time>2021-04-08T09:45:47.000Z</time>
      </trkpt>
      <trkpt lat="47.28771" lon="-2.26074">
        <ele>3.2000000476837</ele>
        <time>2021-04-08T09:45:49.000Z</time>
      </trkpt>
      <trkpt lat="47.28768" lon="-2.2608">
        <ele>3.2000000476837</ele>
        <time>2021-04-08T09:45:50.000Z</time>
      </trkpt>
      <trkpt lat="47.2875" lon="-2.26124">
        <ele>3.2000000476837</ele>
        <time>2021-04-08T09:45:58.000Z</time>
      </trkpt>
      <trkpt lat="47.28748" lon="-2.26129">
        <ele>3.2000000476837</ele>
        <time>2021-04-08T09:45:59.000Z</time>
      </trkpt>
      <trkpt lat="47.2874" lon="-2.26145">
        <ele>3.2000000476837</ele>
        <time>2021-04-08T09:46:02.000Z</time>
      </trkpt>
      <trkpt lat="47.28734" lon="-2.26154">
        <ele>3.2000000476837</ele>
        <time>2021-04-08T09:46:04.000Z</time>
      </trkpt>
      <trkpt lat="47.28727" lon="-2.26162">
        <ele>3.2000000476837</ele>
        <time>2021-04-08T09:46:06.000Z</time>
      </trkpt>
      <trkpt lat="47.2872" lon="-2.26171">
        <ele>3.2000000476837</ele>
        <time>2021-04-08T09:46:08.000Z</time>
      </trkpt>
      <trkpt lat="47.28707" lon="-2.26181">
        <ele>3.2000000476837</ele>
        <time>2021-04-08T09:46:11.000Z</time>
      </trkpt>
      <trkpt lat="47.28678" lon="-2.26204">
        <ele>3.2000000476837</ele>
        <time>2021-04-08T09:46:18.000Z</time>
      </trkpt>
      <trkpt lat="47.28656" lon="-2.26215">
        <ele>3.2000000476837</ele>
        <time>2021-04-08T09:46:24.000Z</time>
      </trkpt>
      <trkpt lat="47.28652" lon="-2.26216">
        <ele>3.5999999046326</ele>
        <time>2021-04-08T09:46:25.000Z</time>
      </trkpt>
      <trkpt lat="47.28648" lon="-2.26216">
        <ele>4.1999998092651</ele>
        <time>2021-04-08T09:46:26.000Z</time>
      </trkpt>
      <trkpt lat="47.28644" lon="-2.26216">
        <ele>4.5999999046326</ele>
        <time>2021-04-08T09:46:27.000Z</time>
      </trkpt>
      <trkpt lat="47.2864" lon="-2.26216">
        <ele>5</ele>
        <time>2021-04-08T09:46:28.000Z</time>
      </trkpt>
      <trkpt lat="47.28636" lon="-2.26216">
        <ele>5.4000000953674</ele>
        <time>2021-04-08T09:46:29.000Z</time>
      </trkpt>
      <trkpt lat="47.28631" lon="-2.26215">
        <ele>5.4000000953674</ele>
        <time>2021-04-08T09:46:30.000Z</time>
      </trkpt>
      <trkpt lat="47.28608" lon="-2.26201">
        <ele>5.4000000953674</ele>
        <time>2021-04-08T09:46:36.000Z</time>
      </trkpt>
      <trkpt lat="47.28597" lon="-2.26181">
        <ele>5.4000000953674</ele>
        <time>2021-04-08T09:46:40.000Z</time>
      </trkpt>
      <trkpt lat="47.28594" lon="-2.26157">
        <ele>5.4000000953674</ele>
        <time>2021-04-08T09:46:44.000Z</time>
      </trkpt>
      <trkpt lat="47.28594" lon="-2.26151">
        <ele>5.4000000953674</ele>
        <time>2021-04-08T09:46:45.000Z</time>
      </trkpt>
      <trkpt lat="47.28595" lon="-2.26129">
        <ele>5.8000001907349</ele>
        <time>2021-04-08T09:46:48.000Z</time>
      </trkpt>
      <trkpt lat="47.28595" lon="-2.26122">
        <ele>6.1999998092651</ele>
        <time>2021-04-08T09:46:49.000Z</time>
      </trkpt>
      <trkpt lat="47.28596" lon="-2.26115">
        <ele>6.5999999046326</ele>
        <time>2021-04-08T09:46:50.000Z</time>
      </trkpt>
      <trkpt lat="47.28596" lon="-2.26108">
        <ele>7</ele>
        <time>2021-04-08T09:46:51.000Z</time>
      </trkpt>
      <trkpt lat="47.28597" lon="-2.26102">
        <ele>7.4000000953674</ele>
        <time>2021-04-08T09:46:52.000Z</time>
      </trkpt>
      <trkpt lat="47.28598" lon="-2.26064">
        <ele>7.4000000953674</ele>
        <time>2021-04-08T09:46:58.000Z</time>
      </trkpt>
      <trkpt lat="47.28599" lon="-2.26033">
        <ele>7.4000000953674</ele>
        <time>2021-04-08T09:47:03.000Z</time>
      </trkpt>
      <trkpt lat="47.286" lon="-2.26027">
        <ele>7.4000000953674</ele>
        <time>2021-04-08T09:47:04.000Z</time>
      </trkpt>
      <trkpt lat="47.28602" lon="-2.26002">
        <ele>7.4000000953674</ele>
        <time>2021-04-08T09:47:08.000Z</time>
      </trkpt>
      <trkpt lat="47.28601" lon="-2.2599">
        <ele>7.4000000953674</ele>
        <time>2021-04-08T09:47:10.000Z</time>
      </trkpt>
      <trkpt lat="47.28595" lon="-2.25979">
        <ele>7.4000000953674</ele>
        <time>2021-04-08T09:47:13.000Z</time>
      </trkpt>
      <trkpt lat="47.2859" lon="-2.25978">
        <ele>7.4000000953674</ele>
        <time>2021-04-08T09:47:15.000Z</time>
      </trkpt>
      <trkpt lat="47.2858" lon="-2.25978">
        <ele>7.4000000953674</ele>
        <time>2021-04-08T09:47:18.000Z</time>
      </trkpt>
      <trkpt lat="47.28549" lon="-2.25976">
        <ele>7.4000000953674</ele>
        <time>2021-04-08T09:47:25.000Z</time>
      </trkpt>
      <trkpt lat="47.28544" lon="-2.25976">
        <ele>7.4000000953674</ele>
        <time>2021-04-08T09:47:26.000Z</time>
      </trkpt>
      <trkpt lat="47.28509" lon="-2.25972">
        <ele>7.4000000953674</ele>
        <time>2021-04-08T09:47:34.000Z</time>
      </trkpt>
      <trkpt lat="47.28477" lon="-2.25964">
        <ele>7.4000000953674</ele>
        <time>2021-04-08T09:47:41.000Z</time>
      </trkpt>
      <trkpt lat="47.28472" lon="-2.25963">
        <ele>8.1999998092651</ele>
        <time>2021-04-08T09:47:42.000Z</time>
      </trkpt>
      <trkpt lat="47.28468" lon="-2.25963">
        <ele>8.6000003814697</ele>
        <time>2021-04-08T09:47:43.000Z</time>
      </trkpt>
      <trkpt lat="47.28463" lon="-2.25964">
        <ele>9</ele>
        <time>2021-04-08T09:47:44.000Z</time>
      </trkpt>
      <trkpt lat="47.28459" lon="-2.25964">
        <ele>9.3999996185303</ele>
        <time>2021-04-08T09:47:45.000Z</time>
      </trkpt>
      <trkpt lat="47.28449" lon="-2.25964">
        <ele>9.3999996185303</ele>
        <time>2021-04-08T09:47:47.000Z</time>
      </trkpt>
      <trkpt lat="47.28415" lon="-2.25964">
        <ele>9.3999996185303</ele>
        <time>2021-04-08T09:47:55.000Z</time>
      </trkpt>
      <trkpt lat="47.28403" lon="-2.25964">
        <ele>9.3999996185303</ele>
        <time>2021-04-08T09:47:58.000Z</time>
      </trkpt>
      <trkpt lat="47.28396" lon="-2.25959">
        <ele>9.3999996185303</ele>
        <time>2021-04-08T09:48:00.000Z</time>
      </trkpt>
      <trkpt lat="47.28388" lon="-2.25942">
        <ele>9.3999996185303</ele>
        <time>2021-04-08T09:48:04.000Z</time>
      </trkpt>
      <trkpt lat="47.2839" lon="-2.25922">
        <ele>9.3999996185303</ele>
        <time>2021-04-08T09:48:08.000Z</time>
      </trkpt>
      <trkpt lat="47.2839" lon="-2.25911">
        <ele>9.3999996185303</ele>
        <time>2021-04-08T09:48:10.000Z</time>
      </trkpt>
      <trkpt lat="47.2839" lon="-2.25899">
        <ele>10</ele>
        <time>2021-04-08T09:48:12.000Z</time>
      </trkpt>
      <trkpt lat="47.2839" lon="-2.25894">
        <ele>10.39999961853</ele>
        <time>2021-04-08T09:48:13.000Z</time>
      </trkpt>
      <trkpt lat="47.2839" lon="-2.25888">
        <ele>10.800000190735</ele>
        <time>2021-04-08T09:48:14.000Z</time>
      </trkpt>
      <trkpt lat="47.2839" lon="-2.25882">
        <ele>11.199999809265</ele>
        <time>2021-04-08T09:48:15.000Z</time>
      </trkpt>
      <trkpt lat="47.2839" lon="-2.25876">
        <ele>11.60000038147</ele>
        <time>2021-04-08T09:48:16.000Z</time>
      </trkpt>
      <trkpt lat="47.28389" lon="-2.25856">
        <ele>11.60000038147</ele>
        <time>2021-04-08T09:48:19.000Z</time>
      </trkpt>
      <trkpt lat="47.28382" lon="-2.25823">
        <ele>11.60000038147</ele>
        <time>2021-04-08T09:48:25.000Z</time>
      </trkpt>
      <trkpt lat="47.28377" lon="-2.25812">
        <ele>11.60000038147</ele>
        <time>2021-04-08T09:48:30.000Z</time>
      </trkpt>
      <trkpt lat="47.28375" lon="-2.25808">
        <ele>11.60000038147</ele>
        <time>2021-04-08T09:48:33.000Z</time>
      </trkpt>
      <trkpt lat="47.28375" lon="-2.25803">
        <ele>11.60000038147</ele>
        <time>2021-04-08T09:48:36.000Z</time>
      </trkpt>
      <trkpt lat="47.28381" lon="-2.2579">
        <ele>11.60000038147</ele>
        <time>2021-04-08T09:48:40.000Z</time>
      </trkpt>
      <trkpt lat="47.28382" lon="-2.25779">
        <ele>11.60000038147</ele>
        <time>2021-04-08T09:48:42.000Z</time>
      </trkpt>
      <trkpt lat="47.28384" lon="-2.25745">
        <ele>11.60000038147</ele>
        <time>2021-04-08T09:48:48.000Z</time>
      </trkpt>
      <trkpt lat="47.28385" lon="-2.2573">
        <ele>11.60000038147</ele>
        <time>2021-04-08T09:48:53.000Z</time>
      </trkpt>
      <trkpt lat="47.28385" lon="-2.25719">
        <ele>11.60000038147</ele>
        <time>2021-04-08T09:48:57.000Z</time>
      </trkpt>
      <trkpt lat="47.28381" lon="-2.25697">
        <ele>11.60000038147</ele>
        <time>2021-04-08T09:49:01.000Z</time>
      </trkpt>
      <trkpt lat="47.28366" lon="-2.25663">
        <ele>11.60000038147</ele>
        <time>2021-04-08T09:49:06.000Z</time>
      </trkpt>
      <trkpt lat="47.2836" lon="-2.25641">
        <ele>11.60000038147</ele>
        <time>2021-04-08T09:49:09.000Z</time>
      </trkpt>
      <trkpt lat="47.2836" lon="-2.25632">
        <ele>11.60000038147</ele>
        <time>2021-04-08T09:49:10.000Z</time>
      </trkpt>
      <trkpt lat="47.2836" lon="-2.25624">
        <ele>11.60000038147</ele>
        <time>2021-04-08T09:49:11.000Z</time>
      </trkpt>
      <trkpt lat="47.28363" lon="-2.25598">
        <ele>11.60000038147</ele>
        <time>2021-04-08T09:49:14.000Z</time>
      </trkpt>
      <trkpt lat="47.28364" lon="-2.2558">
        <ele>11.60000038147</ele>
        <time>2021-04-08T09:49:16.000Z</time>
      </trkpt>
      <trkpt lat="47.28367" lon="-2.25543">
        <ele>11.60000038147</ele>
        <time>2021-04-08T09:49:20.000Z</time>
      </trkpt>
      <trkpt lat="47.28368" lon="-2.2551">
        <ele>11.60000038147</ele>
        <time>2021-04-08T09:49:24.000Z</time>
      </trkpt>
      <trkpt lat="47.28369" lon="-2.25503">
        <ele>11.60000038147</ele>
        <time>2021-04-08T09:49:25.000Z</time>
      </trkpt>
      <trkpt lat="47.28371" lon="-2.2547">
        <ele>11.60000038147</ele>
        <time>2021-04-08T09:49:29.000Z</time>
      </trkpt>
      <trkpt lat="47.28372" lon="-2.25454">
        <ele>11.60000038147</ele>
        <time>2021-04-08T09:49:31.000Z</time>
      </trkpt>
      <trkpt lat="47.28376" lon="-2.25392">
        <ele>11.60000038147</ele>
        <time>2021-04-08T09:49:39.000Z</time>
      </trkpt>
      <trkpt lat="47.28379" lon="-2.25367">
        <ele>11.60000038147</ele>
        <time>2021-04-08T09:49:42.000Z</time>
      </trkpt>
      <trkpt lat="47.2838" lon="-2.25351">
        <ele>11.60000038147</ele>
        <time>2021-04-08T09:49:44.000Z</time>
      </trkpt>
      <trkpt lat="47.28384" lon="-2.25317">
        <ele>11.60000038147</ele>
        <time>2021-04-08T09:49:49.000Z</time>
      </trkpt>
      <trkpt lat="47.28384" lon="-2.25313">
        <ele>11.199999809265</ele>
        <time>2021-04-08T09:49:50.000Z</time>
      </trkpt>
      <trkpt lat="47.28383" lon="-2.25311">
        <ele>10.800000190735</ele>
        <time>2021-04-08T09:49:51.000Z</time>
      </trkpt>
      <trkpt lat="47.28383" lon="-2.25309">
        <ele>10.39999961853</ele>
        <time>2021-04-08T09:49:52.000Z</time>
      </trkpt>
      <trkpt lat="47.28383" lon="-2.25309">
        <ele>10</ele>
        <time>2021-04-08T09:49:53.000Z</time>
      </trkpt>
      <trkpt lat="47.28381" lon="-2.2531">
        <ele>9.6000003814697</ele>
        <time>2021-04-08T09:49:54.000Z</time>
      </trkpt>
      <trkpt lat="47.28377" lon="-2.25313">
        <ele>9.6000003814697</ele>
        <time>2021-04-08T09:49:56.000Z</time>
      </trkpt>
      <trkpt lat="47.28367" lon="-2.25322">
        <ele>9.6000003814697</ele>
        <time>2021-04-08T09:49:59.000Z</time>
      </trkpt>
      <trkpt lat="47.28361" lon="-2.2533">
        <ele>9.6000003814697</ele>
        <time>2021-04-08T09:50:01.000Z</time>
      </trkpt>
      <trkpt lat="47.28349" lon="-2.25341">
        <ele>9.6000003814697</ele>
        <time>2021-04-08T09:50:04.000Z</time>
      </trkpt>
      <trkpt lat="47.28325" lon="-2.25348">
        <ele>9.6000003814697</ele>
        <time>2021-04-08T09:50:08.000Z</time>
      </trkpt>
      <trkpt lat="47.28297" lon="-2.25354">
        <ele>9.6000003814697</ele>
        <time>2021-04-08T09:50:12.000Z</time>
      </trkpt>
      <trkpt lat="47.28289" lon="-2.25354">
        <ele>9.6000003814697</ele>
        <time>2021-04-08T09:50:13.000Z</time>
      </trkpt>
      <trkpt lat="47.2827" lon="-2.25359">
        <ele>9.6000003814697</ele>
        <time>2021-04-08T09:50:16.000Z</time>
      </trkpt>
      <trkpt lat="47.2825" lon="-2.25372">
        <ele>9.1999998092651</ele>
        <time>2021-04-08T09:50:19.000Z</time>
      </trkpt>
      <trkpt lat="47.28245" lon="-2.25376">
        <ele>8.8000001907349</ele>
        <time>2021-04-08T09:50:20.000Z</time>
      </trkpt>
      <trkpt lat="47.28239" lon="-2.2538">
        <ele>8.3999996185303</ele>
        <time>2021-04-08T09:50:21.000Z</time>
      </trkpt>
      <trkpt lat="47.28233" lon="-2.25385">
        <ele>7.8000001907349</ele>
        <time>2021-04-08T09:50:22.000Z</time>
      </trkpt>
      <trkpt lat="47.28227" lon="-2.2539">
        <ele>7.4000000953674</ele>
        <time>2021-04-08T09:50:23.000Z</time>
      </trkpt>
      <trkpt lat="47.28215" lon="-2.254">
        <ele>7</ele>
        <time>2021-04-08T09:50:25.000Z</time>
      </trkpt>
      <trkpt lat="47.28208" lon="-2.25405">
        <ele>6.5999999046326</ele>
        <time>2021-04-08T09:50:26.000Z</time>
      </trkpt>
      <trkpt lat="47.28201" lon="-2.25411">
        <ele>6</ele>
        <time>2021-04-08T09:50:27.000Z</time>
      </trkpt>
      <trkpt lat="47.28194" lon="-2.25416">
        <ele>5.5999999046326</ele>
        <time>2021-04-08T09:50:28.000Z</time>
      </trkpt>
      <trkpt lat="47.28187" lon="-2.25421">
        <ele>5.1999998092651</ele>
        <time>2021-04-08T09:50:29.000Z</time>
      </trkpt>
      <trkpt lat="47.2818" lon="-2.25426">
        <ele>4.8000001907349</ele>
        <time>2021-04-08T09:50:30.000Z</time>
      </trkpt>
      <trkpt lat="47.28174" lon="-2.2543">
        <ele>4.4000000953674</ele>
        <time>2021-04-08T09:50:31.000Z</time>
      </trkpt>
      <trkpt lat="47.28168" lon="-2.25433">
        <ele>4</ele>
        <time>2021-04-08T09:50:32.000Z</time>
      </trkpt>
      <trkpt lat="47.28161" lon="-2.25435">
        <ele>3.5999999046326</ele>
        <time>2021-04-08T09:50:33.000Z</time>
      </trkpt>
      <trkpt lat="47.28155" lon="-2.25438">
        <ele>3.2000000476837</ele>
        <time>2021-04-08T09:50:34.000Z</time>
      </trkpt>
      <trkpt lat="47.2815" lon="-2.25443">
        <ele>2.5999999046326</ele>
        <time>2021-04-08T09:50:35.000Z</time>
      </trkpt>
      <trkpt lat="47.28144" lon="-2.25446">
        <ele>1.7999999523163</ele>
        <time>2021-04-08T09:50:36.000Z</time>
      </trkpt>
      <trkpt lat="47.28138" lon="-2.2545">
        <ele>1.3999999761581</ele>
        <time>2021-04-08T09:50:37.000Z</time>
      </trkpt>
      <trkpt lat="47.28132" lon="-2.25453">
        <ele>1</ele>
        <time>2021-04-08T09:50:38.000Z</time>
      </trkpt>
      <trkpt lat="47.2812" lon="-2.2546">
        <ele>0.60000002384186</ele>
        <time>2021-04-08T09:50:41.000Z</time>
      </trkpt>
      <trkpt lat="47.28117" lon="-2.25462">
        <ele>15.7</ele>
        <time>2021-04-08T09:50:42.000Z</time>
      </trkpt>
      <trkpt lat="47.28114" lon="-2.25464">
        <ele>-0.40000000596046</ele>
        <time>2021-04-08T09:50:43.000Z</time>
      </trkpt>
      <trkpt lat="47.28112" lon="-2.25465">
        <ele>-0.80000001192093</ele>
        <time>2021-04-08T09:50:44.000Z</time>
      </trkpt>
      <trkpt lat="47.2811" lon="-2.25467">
        <ele>-1.3999999761581</ele>
        <time>2021-04-08T09:50:45.000Z</time>
      </trkpt>
      <trkpt lat="47.28108" lon="-2.25469">
        <ele>-1.3999999761581</ele>
        <time>2021-04-08T09:50:46.000Z</time>
      </trkpt>
      <trkpt lat="47.28106" lon="-2.2547">
        <ele>-1.3999999761581</ele>
        <time>2021-04-08T09:50:47.000Z</time>
      </trkpt>
      <trkpt lat="47.281" lon="-2.25473">
        <ele>-1.3999999761581</ele>
        <time>2021-04-08T09:50:50.000Z</time>
      </trkpt>
      <trkpt lat="47.28096" lon="-2.25493">
        <ele>-1.3999999761581</ele>
        <time>2021-04-08T09:50:54.000Z</time>
      </trkpt>
      <trkpt lat="47.28096" lon="-2.25505">
        <ele>-1.7999999523163</ele>
        <time>2021-04-08T09:50:56.000Z</time>
      </trkpt>
      <trkpt lat="47.28096" lon="-2.25511">
        <ele>-2.2000000476837</ele>
        <time>2021-04-08T09:50:57.000Z</time>
      </trkpt>
      <trkpt lat="47.28096" lon="-2.25518">
        <ele>-2.5999999046326</ele>
        <time>2021-04-08T09:50:58.000Z</time>
      </trkpt>
      <trkpt lat="47.28097" lon="-2.25525">
        <ele>-3</ele>
        <time>2021-04-08T09:50:59.000Z</time>
      </trkpt>
      <trkpt lat="47.28098" lon="-2.25532">
        <ele>-3.4000000953674</ele>
        <time>2021-04-08T09:51:00.000Z</time>
      </trkpt>
      <trkpt lat="47.28099" lon="-2.25539">
        <ele>-3.4000000953674</ele>
        <time>2021-04-08T09:51:01.000Z</time>
      </trkpt>
      <trkpt lat="47.28101" lon="-2.25579">
        <ele>-3.4000000953674</ele>
        <time>2021-04-08T09:51:06.000Z</time>
      </trkpt>
      <trkpt lat="47.28102" lon="-2.25629">
        <ele>-3.4000000953674</ele>
        <time>2021-04-08T09:51:12.000Z</time>
      </trkpt>
      <trkpt lat="47.28102" lon="-2.25697">
        <ele>-3.4000000953674</ele>
        <time>2021-04-08T09:51:20.000Z</time>
      </trkpt>
      <trkpt lat="47.28101" lon="-2.25756">
        <ele>-3.4000000953674</ele>
        <time>2021-04-08T09:51:27.000Z</time>
      </trkpt>
      <trkpt lat="47.281" lon="-2.25764">
        <ele>-3.4000000953674</ele>
        <time>2021-04-08T09:51:28.000Z</time>
      </trkpt>
      <trkpt lat="47.28095" lon="-2.25789">
        <ele>-3.4000000953674</ele>
        <time>2021-04-08T09:51:31.000Z</time>
      </trkpt>
      <trkpt lat="47.28083" lon="-2.25807">
        <ele>-3.4000000953674</ele>
        <time>2021-04-08T09:51:34.000Z</time>
      </trkpt>
      <trkpt lat="47.28073" lon="-2.25819">
        <ele>-3.4000000953674</ele>
        <time>2021-04-08T09:51:36.000Z</time>
      </trkpt>
      <trkpt lat="47.28059" lon="-2.25838">
        <ele>-3.4000000953674</ele>
        <time>2021-04-08T09:51:39.000Z</time>
      </trkpt>
      <trkpt lat="47.28022" lon="-2.25887">
        <ele>-3.4000000953674</ele>
        <time>2021-04-08T09:51:47.000Z</time>
      </trkpt>
      <trkpt lat="47.28011" lon="-2.25907">
        <ele>-3.4000000953674</ele>
        <time>2021-04-08T09:51:50.000Z</time>
      </trkpt>
      <trkpt lat="47.27999" lon="-2.25928">
        <ele>-3.4000000953674</ele>
        <time>2021-04-08T09:51:53.000Z</time>
      </trkpt>
      <trkpt lat="47.27979" lon="-2.25969">
        <ele>-3.4000000953674</ele>
        <time>2021-04-08T09:51:59.000Z</time>
      </trkpt>
      <trkpt lat="47.27976" lon="-2.25977">
        <ele>-3.4000000953674</ele>
        <time>2021-04-08T09:52:00.000Z</time>
      </trkpt>
      <trkpt lat="47.2797" lon="-2.26002">
        <ele>-3.4000000953674</ele>
        <time>2021-04-08T09:52:03.000Z</time>
      </trkpt>
      <trkpt lat="47.27964" lon="-2.26043">
        <ele>-3.4000000953674</ele>
        <time>2021-04-08T09:52:08.000Z</time>
      </trkpt>
      <trkpt lat="47.27954" lon="-2.2611">
        <ele>-3.4000000953674</ele>
        <time>2021-04-08T09:52:15.000Z</time>
      </trkpt>
      <trkpt lat="47.27949" lon="-2.26175">
        <ele>-3.4000000953674</ele>
        <time>2021-04-08T09:52:22.000Z</time>
      </trkpt>
      <trkpt lat="47.27938" lon="-2.26227">
        <ele>-3.4000000953674</ele>
        <time>2021-04-08T09:52:28.000Z</time>
      </trkpt>
      <trkpt lat="47.27929" lon="-2.26251">
        <ele>-3.4000000953674</ele>
        <time>2021-04-08T09:52:31.000Z</time>
      </trkpt>
      <trkpt lat="47.27918" lon="-2.26271">
        <ele>-3.4000000953674</ele>
        <time>2021-04-08T09:52:34.000Z</time>
      </trkpt>
      <trkpt lat="47.27886" lon="-2.26322">
        <ele>-3.4000000953674</ele>
        <time>2021-04-08T09:52:42.000Z</time>
      </trkpt>
      <trkpt lat="47.27862" lon="-2.26363">
        <ele>-3.4000000953674</ele>
        <time>2021-04-08T09:52:48.000Z</time>
      </trkpt>
      <trkpt lat="47.2784" lon="-2.26404">
        <ele>-3.4000000953674</ele>
        <time>2021-04-08T09:52:54.000Z</time>
      </trkpt>
      <trkpt lat="47.2782" lon="-2.26439">
        <ele>-3.4000000953674</ele>
        <time>2021-04-08T09:52:59.000Z</time>
      </trkpt>
      <trkpt lat="47.27815" lon="-2.26445">
        <ele>-3.4000000953674</ele>
        <time>2021-04-08T09:53:00.000Z</time>
      </trkpt>
      <trkpt lat="47.27805" lon="-2.26457">
        <ele>-3.4000000953674</ele>
        <time>2021-04-08T09:53:02.000Z</time>
      </trkpt>
      <trkpt lat="47.27795" lon="-2.26468">
        <ele>-3.4000000953674</ele>
        <time>2021-04-08T09:53:04.000Z</time>
      </trkpt>
      <trkpt lat="47.2779" lon="-2.26475">
        <ele>-3.4000000953674</ele>
        <time>2021-04-08T09:53:05.000Z</time>
      </trkpt>
      <trkpt lat="47.27781" lon="-2.26489">
        <ele>-3.4000000953674</ele>
        <time>2021-04-08T09:53:07.000Z</time>
      </trkpt>
      <trkpt lat="47.27771" lon="-2.26499">
        <ele>-3.4000000953674</ele>
        <time>2021-04-08T09:53:09.000Z</time>
      </trkpt>
      <trkpt lat="47.27749" lon="-2.26512">
        <ele>-3.4000000953674</ele>
        <time>2021-04-08T09:53:13.000Z</time>
      </trkpt>
      <trkpt lat="47.27743" lon="-2.26513">
        <ele>-3.4000000953674</ele>
        <time>2021-04-08T09:53:14.000Z</time>
      </trkpt>
      <trkpt lat="47.27728" lon="-2.26505">
        <ele>-3.4000000953674</ele>
        <time>2021-04-08T09:53:17.000Z</time>
      </trkpt>
      <trkpt lat="47.27711" lon="-2.26476">
        <ele>-3.4000000953674</ele>
        <time>2021-04-08T09:53:21.000Z</time>
      </trkpt>
      <trkpt lat="47.27708" lon="-2.26467">
        <ele>-3.4000000953674</ele>
        <time>2021-04-08T09:53:22.000Z</time>
      </trkpt>
      <trkpt lat="47.27687" lon="-2.26409">
        <ele>-3.4000000953674</ele>
        <time>2021-04-08T09:53:29.000Z</time>
      </trkpt>
      <trkpt lat="47.2767" lon="-2.26364">
        <ele>-3.4000000953674</ele>
        <time>2021-04-08T09:53:35.000Z</time>
      </trkpt>
      <trkpt lat="47.27668" lon="-2.26357">
        <ele>-3.4000000953674</ele>
        <time>2021-04-08T09:53:36.000Z</time>
      </trkpt>
      <trkpt lat="47.27661" lon="-2.26341">
        <ele>-3.4000000953674</ele>
        <time>2021-04-08T09:53:39.000Z</time>
      </trkpt>
      <trkpt lat="47.27653" lon="-2.26334">
        <ele>-3.4000000953674</ele>
        <time>2021-04-08T09:53:41.000Z</time>
      </trkpt>
      <trkpt lat="47.27646" lon="-2.26328">
        <ele>-3.4000000953674</ele>
        <time>2021-04-08T09:53:43.000Z</time>
      </trkpt>
      <trkpt lat="47.27624" lon="-2.26306">
        <ele>-3.4000000953674</ele>
        <time>2021-04-08T09:53:48.000Z</time>
      </trkpt>
      <trkpt lat="47.27608" lon="-2.26295">
        <ele>-3.4000000953674</ele>
        <time>2021-04-08T09:53:51.000Z</time>
      </trkpt>
      <trkpt lat="47.27595" lon="-2.2629">
        <ele>-3.4000000953674</ele>
        <time>2021-04-08T09:53:53.000Z</time>
      </trkpt>
      <trkpt lat="47.27559" lon="-2.26287">
        <ele>-3.4000000953674</ele>
        <time>2021-04-08T09:53:58.000Z</time>
      </trkpt>
      <trkpt lat="47.27526" lon="-2.26287">
        <ele>-3</ele>
        <time>2021-04-08T09:54:03.000Z</time>
      </trkpt>
      <trkpt lat="47.2752" lon="-2.26287">
        <ele>-2.5999999046326</ele>
        <time>2021-04-08T09:54:04.000Z</time>
      </trkpt>
      <trkpt lat="47.27514" lon="-2.26287">
        <ele>-2.2000000476837</ele>
        <time>2021-04-08T09:54:05.000Z</time>
      </trkpt>
      <trkpt lat="47.27508" lon="-2.26286">
        <ele>-1.6000000238419</ele>
        <time>2021-04-08T09:54:06.000Z</time>
      </trkpt>
      <trkpt lat="47.27501" lon="-2.26286">
        <ele>-1.2000000476837</ele>
        <time>2021-04-08T09:54:07.000Z</time>
      </trkpt>
      <trkpt lat="47.27477" lon="-2.26279">
        <ele>-1.2000000476837</ele>
        <time>2021-04-08T09:54:11.000Z</time>
      </trkpt>
      <trkpt lat="47.27445" lon="-2.26256">
        <ele>-1.2000000476837</ele>
        <time>2021-04-08T09:54:17.000Z</time>
      </trkpt>
      <trkpt lat="47.2743" lon="-2.2624">
        <ele>-0.80000001192093</ele>
        <time>2021-04-08T09:54:20.000Z</time>
      </trkpt>
      <trkpt lat="47.27426" lon="-2.26235">
        <ele>-0.40000000596046</ele>
        <time>2021-04-08T09:54:21.000Z</time>
      </trkpt>
      <trkpt lat="47.27421" lon="-2.26229">
        <ele>18.6</ele>
        <time>2021-04-08T09:54:22.000Z</time>
      </trkpt>
      <trkpt lat="47.27417" lon="-2.26224">
        <ele>0.40000000596046</ele>
        <time>2021-04-08T09:54:23.000Z</time>
      </trkpt>
      <trkpt lat="47.27412" lon="-2.26218">
        <ele>0.80000001192093</ele>
        <time>2021-04-08T09:54:24.000Z</time>
      </trkpt>
      <trkpt lat="47.27387" lon="-2.26183">
        <ele>0.80000001192093</ele>
        <time>2021-04-08T09:54:30.000Z</time>
      </trkpt>
      <trkpt lat="47.27383" lon="-2.26177">
        <ele>1.2000000476837</ele>
        <time>2021-04-08T09:54:31.000Z</time>
      </trkpt>
      <trkpt lat="47.27379" lon="-2.2617">
        <ele>1.6000000238419</ele>
        <time>2021-04-08T09:54:32.000Z</time>
      </trkpt>
      <trkpt lat="47.27375" lon="-2.26164">
        <ele>2</ele>
        <time>2021-04-08T09:54:33.000Z</time>
      </trkpt>
      <trkpt lat="47.27371" lon="-2.26156">
        <ele>2.4000000953674</ele>
        <time>2021-04-08T09:54:34.000Z</time>
      </trkpt>
      <trkpt lat="47.27367" lon="-2.2615">
        <ele>2.7999999523163</ele>
        <time>2021-04-08T09:54:35.000Z</time>
      </trkpt>
      <trkpt lat="47.27362" lon="-2.26143">
        <ele>2.7999999523163</ele>
        <time>2021-04-08T09:54:36.000Z</time>
      </trkpt>
      <trkpt lat="47.27353" lon="-2.26131">
        <ele>2.7999999523163</ele>
        <time>2021-04-08T09:54:38.000Z</time>
      </trkpt>
      <trkpt lat="47.27342" lon="-2.26126">
        <ele>2.7999999523163</ele>
        <time>2021-04-08T09:54:40.000Z</time>
      </trkpt>
      <trkpt lat="47.27325" lon="-2.26132">
        <ele>2.7999999523163</ele>
        <time>2021-04-08T09:54:43.000Z</time>
      </trkpt>
      <trkpt lat="47.27319" lon="-2.26134">
        <ele>2.7999999523163</ele>
        <time>2021-04-08T09:54:44.000Z</time>
      </trkpt>
      <trkpt lat="47.27284" lon="-2.26146">
        <ele>2.7999999523163</ele>
        <time>2021-04-08T09:54:50.000Z</time>
      </trkpt>
      <trkpt lat="47.27249" lon="-2.26162">
        <ele>2.7999999523163</ele>
        <time>2021-04-08T09:54:56.000Z</time>
      </trkpt>
      <trkpt lat="47.27219" lon="-2.26178">
        <ele>2.7999999523163</ele>
        <time>2021-04-08T09:55:01.000Z</time>
      </trkpt>
      <trkpt lat="47.2719" lon="-2.26203">
        <ele>2.7999999523163</ele>
        <time>2021-04-08T09:55:07.000Z</time>
      </trkpt>
      <trkpt lat="47.27158" lon="-2.26239">
        <ele>2.7999999523163</ele>
        <time>2021-04-08T09:55:14.000Z</time>
      </trkpt>
      <trkpt lat="47.2715" lon="-2.2625">
        <ele>3.2000000476837</ele>
        <time>2021-04-08T09:55:16.000Z</time>
      </trkpt>
      <trkpt lat="47.27146" lon="-2.26256">
        <ele>3.5999999046326</ele>
        <time>2021-04-08T09:55:17.000Z</time>
      </trkpt>
      <trkpt lat="47.27142" lon="-2.26262">
        <ele>4</ele>
        <time>2021-04-08T09:55:18.000Z</time>
      </trkpt>
      <trkpt lat="47.27138" lon="-2.26268">
        <ele>4.4000000953674</ele>
        <time>2021-04-08T09:55:19.000Z</time>
      </trkpt>
      <trkpt lat="47.27134" lon="-2.26274">
        <ele>4.8000001907349</ele>
        <time>2021-04-08T09:55:20.000Z</time>
      </trkpt>
      <trkpt lat="47.27114" lon="-2.26303">
        <ele>4.8000001907349</ele>
        <time>2021-04-08T09:55:25.000Z</time>
      </trkpt>
      <trkpt lat="47.27089" lon="-2.2634">
        <ele>5.4000000953674</ele>
        <time>2021-04-08T09:55:31.000Z</time>
      </trkpt>
      <trkpt lat="47.27085" lon="-2.26346">
        <ele>5.8000001907349</ele>
        <time>2021-04-08T09:55:32.000Z</time>
      </trkpt>
      <trkpt lat="47.27081" lon="-2.26352">
        <ele>6.5999999046326</ele>
        <time>2021-04-08T09:55:33.000Z</time>
      </trkpt>
      <trkpt lat="47.27076" lon="-2.26358">
        <ele>7</ele>
        <time>2021-04-08T09:55:34.000Z</time>
      </trkpt>
      <trkpt lat="47.27072" lon="-2.26365">
        <ele>7</ele>
        <time>2021-04-08T09:55:35.000Z</time>
      </trkpt>
      <trkpt lat="47.2706" lon="-2.26384">
        <ele>7</ele>
        <time>2021-04-08T09:55:38.000Z</time>
      </trkpt>
      <trkpt lat="47.27028" lon="-2.26429">
        <ele>7</ele>
        <time>2021-04-08T09:55:45.000Z</time>
      </trkpt>
      <trkpt lat="47.26995" lon="-2.26476">
        <ele>7</ele>
        <time>2021-04-08T09:55:52.000Z</time>
      </trkpt>
      <trkpt lat="47.26971" lon="-2.26501">
        <ele>7</ele>
        <time>2021-04-08T09:55:57.000Z</time>
      </trkpt>
      <trkpt lat="47.26968" lon="-2.26505">
        <ele>7</ele>
        <time>2021-04-08T09:55:58.000Z</time>
      </trkpt>
      <trkpt lat="47.26967" lon="-2.26511">
        <ele>7</ele>
        <time>2021-04-08T09:55:59.000Z</time>
      </trkpt>
      <trkpt lat="47.26971" lon="-2.26536">
        <ele>7</ele>
        <time>2021-04-08T09:56:03.000Z</time>
      </trkpt>
      <trkpt lat="47.26977" lon="-2.26553">
        <ele>7</ele>
        <time>2021-04-08T09:56:05.000Z</time>
      </trkpt>
      <trkpt lat="47.2698" lon="-2.26561">
        <ele>7</ele>
        <time>2021-04-08T09:56:06.000Z</time>
      </trkpt>
      <trkpt lat="47.26984" lon="-2.26567">
        <ele>7</ele>
        <time>2021-04-08T09:56:07.000Z</time>
      </trkpt>
      <trkpt lat="47.26992" lon="-2.26578">
        <ele>6.5999999046326</ele>
        <time>2021-04-08T09:56:09.000Z</time>
      </trkpt>
      <trkpt lat="47.26996" lon="-2.26584">
        <ele>6.1999998092651</ele>
        <time>2021-04-08T09:56:10.000Z</time>
      </trkpt>
      <trkpt lat="47.27" lon="-2.26589">
        <ele>5.8000001907349</ele>
        <time>2021-04-08T09:56:11.000Z</time>
      </trkpt>
      <trkpt lat="47.27004" lon="-2.26596">
        <ele>5.4000000953674</ele>
        <time>2021-04-08T09:56:12.000Z</time>
      </trkpt>
      <trkpt lat="47.27009" lon="-2.26602">
        <ele>5</ele>
        <time>2021-04-08T09:56:13.000Z</time>
      </trkpt>
      <trkpt lat="47.27019" lon="-2.26615">
        <ele>5</ele>
        <time>2021-04-08T09:56:15.000Z</time>
      </trkpt>
      <trkpt lat="47.27028" lon="-2.26628">
        <ele>5</ele>
        <time>2021-04-08T09:56:17.000Z</time>
      </trkpt>
      <trkpt lat="47.27032" lon="-2.26635">
        <ele>5</ele>
        <time>2021-04-08T09:56:18.000Z</time>
      </trkpt>
      <trkpt lat="47.27037" lon="-2.26655">
        <ele>5</ele>
        <time>2021-04-08T09:56:21.000Z</time>
      </trkpt>
      <trkpt lat="47.27037" lon="-2.2666">
        <ele>4.5999999046326</ele>
        <time>2021-04-08T09:56:22.000Z</time>
      </trkpt>
      <trkpt lat="47.27036" lon="-2.26665">
        <ele>4</ele>
        <time>2021-04-08T09:56:23.000Z</time>
      </trkpt>
      <trkpt lat="47.27036" lon="-2.2667">
        <ele>3.5999999046326</ele>
        <time>2021-04-08T09:56:24.000Z</time>
      </trkpt>
      <trkpt lat="47.27036" lon="-2.26675">
        <ele>3.2000000476837</ele>
        <time>2021-04-08T09:56:25.000Z</time>
      </trkpt>
      <trkpt lat="47.27036" lon="-2.26681">
        <ele>2.7999999523163</ele>
        <time>2021-04-08T09:56:26.000Z</time>
      </trkpt>
      <trkpt lat="47.27036" lon="-2.26701">
        <ele>2.7999999523163</ele>
        <time>2021-04-08T09:56:29.000Z</time>
      </trkpt>
      <trkpt lat="47.27036" lon="-2.26716">
        <ele>2.7999999523163</ele>
        <time>2021-04-08T09:56:31.000Z</time>
      </trkpt>
      <trkpt lat="47.27036" lon="-2.26731">
        <ele>2.7999999523163</ele>
        <time>2021-04-08T09:56:34.000Z</time>
      </trkpt>
      <trkpt lat="47.27035" lon="-2.26735">
        <ele>2.7999999523163</ele>
        <time>2021-04-08T09:56:35.000Z</time>
      </trkpt>
      <trkpt lat="47.27033" lon="-2.26739">
        <ele>2.7999999523163</ele>
        <time>2021-04-08T09:56:37.000Z</time>
      </trkpt>
      <trkpt lat="47.27025" lon="-2.26748">
        <ele>2.7999999523163</ele>
        <time>2021-04-08T09:56:42.000Z</time>
      </trkpt>
      <trkpt lat="47.27023" lon="-2.26751">
        <ele>2.7999999523163</ele>
        <time>2021-04-08T09:56:43.000Z</time>
      </trkpt>
      <trkpt lat="47.27016" lon="-2.2676">
        <ele>2.7999999523163</ele>
        <time>2021-04-08T09:56:46.000Z</time>
      </trkpt>
      <trkpt lat="47.27014" lon="-2.26763">
        <ele>2.7999999523163</ele>
        <time>2021-04-08T09:56:47.000Z</time>
      </trkpt>
      <trkpt lat="47.27004" lon="-2.26776">
        <ele>2.7999999523163</ele>
        <time>2021-04-08T09:56:51.000Z</time>
      </trkpt>
      <trkpt lat="47.27001" lon="-2.26777">
        <ele>2.7999999523163</ele>
        <time>2021-04-08T09:56:53.000Z</time>
      </trkpt>
      <trkpt lat="47.26999" lon="-2.26781">
        <ele>3.4000000953674</ele>
        <time>2021-04-08T09:56:59.000Z</time>
      </trkpt>
      <trkpt lat="47.26998" lon="-2.26783">
        <ele>3.2000000476837</ele>
        <time>2021-04-08T09:57:00.000Z</time>
      </trkpt>
      <trkpt lat="47.26997" lon="-2.26785">
        <ele>3</ele>
        <time>2021-04-08T09:57:01.000Z</time>
      </trkpt>
      <trkpt lat="47.26995" lon="-2.26788">
        <ele>2.5999999046326</ele>
        <time>2021-04-08T09:57:02.000Z</time>
      </trkpt>
      <trkpt lat="47.26993" lon="-2.2679">
        <ele>2.4000000953674</ele>
        <time>2021-04-08T09:57:03.000Z</time>
      </trkpt>
      <trkpt lat="47.26989" lon="-2.26792">
        <ele>2.2000000476837</ele>
        <time>2021-04-08T09:57:04.000Z</time>
      </trkpt>
      <trkpt lat="47.26985" lon="-2.26796">
        <ele>2.2000000476837</ele>
        <time>2021-04-08T09:57:05.000Z</time>
      </trkpt>
      <trkpt lat="47.26967" lon="-2.2682">
        <ele>2.2000000476837</ele>
        <time>2021-04-08T09:57:10.000Z</time>
      </trkpt>
      <trkpt lat="47.26966" lon="-2.26847">
        <ele>2.2000000476837</ele>
        <time>2021-04-08T09:57:14.000Z</time>
      </trkpt>
      <trkpt lat="47.26966" lon="-2.26855">
        <ele>2.2000000476837</ele>
        <time>2021-04-08T09:57:15.000Z</time>
      </trkpt>
      <trkpt lat="47.26967" lon="-2.26861">
        <ele>2.2000000476837</ele>
        <time>2021-04-08T09:57:16.000Z</time>
      </trkpt>
      <trkpt lat="47.26967" lon="-2.26885">
        <ele>2.5999999046326</ele>
        <time>2021-04-08T09:57:20.000Z</time>
      </trkpt>
      <trkpt lat="47.26967" lon="-2.26892">
        <ele>3</ele>
        <time>2021-04-08T09:57:21.000Z</time>
      </trkpt>
      <trkpt lat="47.26966" lon="-2.26899">
        <ele>3.4000000953674</ele>
        <time>2021-04-08T09:57:22.000Z</time>
      </trkpt>
      <trkpt lat="47.26966" lon="-2.26907">
        <ele>3.7999999523163</ele>
        <time>2021-04-08T09:57:23.000Z</time>
      </trkpt>
      <trkpt lat="47.26965" lon="-2.26915">
        <ele>4.1999998092651</ele>
        <time>2021-04-08T09:57:24.000Z</time>
      </trkpt>
      <trkpt lat="47.26965" lon="-2.26923">
        <ele>4.1999998092651</ele>
        <time>2021-04-08T09:57:25.000Z</time>
      </trkpt>
      <trkpt lat="47.26959" lon="-2.26966">
        <ele>4.1999998092651</ele>
        <time>2021-04-08T09:57:31.000Z</time>
      </trkpt>
      <trkpt lat="47.26958" lon="-2.26972">
        <ele>4.1999998092651</ele>
        <time>2021-04-08T09:57:32.000Z</time>
      </trkpt>
      <trkpt lat="47.2695" lon="-2.26992">
        <ele>4.1999998092651</ele>
        <time>2021-04-08T09:57:36.000Z</time>
      </trkpt>
      <trkpt lat="47.26941" lon="-2.27015">
        <ele>4.1999998092651</ele>
        <time>2021-04-08T09:57:41.000Z</time>
      </trkpt>
      <trkpt lat="47.26935" lon="-2.27024">
        <ele>4.5999999046326</ele>
        <time>2021-04-08T09:57:43.000Z</time>
      </trkpt>
      <trkpt lat="47.26932" lon="-2.27028">
        <ele>5</ele>
        <time>2021-04-08T09:57:44.000Z</time>
      </trkpt>
      <trkpt lat="47.2693" lon="-2.27033">
        <ele>5.4000000953674</ele>
        <time>2021-04-08T09:57:45.000Z</time>
      </trkpt>
      <trkpt lat="47.26927" lon="-2.27037">
        <ele>6</ele>
        <time>2021-04-08T09:57:46.000Z</time>
      </trkpt>
      <trkpt lat="47.26924" lon="-2.27041">
        <ele>6.4000000953674</ele>
        <time>2021-04-08T09:57:47.000Z</time>
      </trkpt>
      <trkpt lat="47.26921" lon="-2.27045">
        <ele>6.4000000953674</ele>
        <time>2021-04-08T09:57:48.000Z</time>
      </trkpt>
      <trkpt lat="47.26901" lon="-2.27072">
        <ele>6.4000000953674</ele>
        <time>2021-04-08T09:57:55.000Z</time>
      </trkpt>
      <trkpt lat="47.26897" lon="-2.27076">
        <ele>6.8000001907349</ele>
        <time>2021-04-08T09:57:56.000Z</time>
      </trkpt>
      <trkpt lat="47.26894" lon="-2.27079">
        <ele>7.1999998092651</ele>
        <time>2021-04-08T09:57:57.000Z</time>
      </trkpt>
      <trkpt lat="47.2689" lon="-2.27082">
        <ele>7.5999999046326</ele>
        <time>2021-04-08T09:57:58.000Z</time>
      </trkpt>
      <trkpt lat="47.26886" lon="-2.27086">
        <ele>8.1999998092651</ele>
        <time>2021-04-08T09:57:59.000Z</time>
      </trkpt>
      <trkpt lat="47.26882" lon="-2.2709">
        <ele>8.6000003814697</ele>
        <time>2021-04-08T09:58:00.000Z</time>
      </trkpt>
      <trkpt lat="47.26875" lon="-2.27096">
        <ele>9</ele>
        <time>2021-04-08T09:58:02.000Z</time>
      </trkpt>
      <trkpt lat="47.26872" lon="-2.27099">
        <ele>9.3999996185303</ele>
        <time>2021-04-08T09:58:03.000Z</time>
      </trkpt>
      <trkpt lat="47.26869" lon="-2.27102">
        <ele>9.8000001907349</ele>
        <time>2021-04-08T09:58:04.000Z</time>
      </trkpt>
      <trkpt lat="47.26866" lon="-2.27105">
        <ele>10.199999809265</ele>
        <time>2021-04-08T09:58:05.000Z</time>
      </trkpt>
      <trkpt lat="47.26863" lon="-2.27108">
        <ele>10.60000038147</ele>
        <time>2021-04-08T09:58:06.000Z</time>
      </trkpt>
      <trkpt lat="47.26838" lon="-2.27121">
        <ele>10.60000038147</ele>
        <time>2021-04-08T09:58:13.000Z</time>
      </trkpt>
      <trkpt lat="47.26813" lon="-2.27128">
        <ele>10.60000038147</ele>
        <time>2021-04-08T09:58:19.000Z</time>
      </trkpt>
      <trkpt lat="47.26797" lon="-2.27133">
        <ele>11</ele>
        <time>2021-04-08T09:58:23.000Z</time>
      </trkpt>
      <trkpt lat="47.26793" lon="-2.27135">
        <ele>11.39999961853</ele>
        <time>2021-04-08T09:58:24.000Z</time>
      </trkpt>
      <trkpt lat="47.26789" lon="-2.27136">
        <ele>12.199999809265</ele>
        <time>2021-04-08T09:58:25.000Z</time>
      </trkpt>
      <trkpt lat="47.26786" lon="-2.27138">
        <ele>12.60000038147</ele>
        <time>2021-04-08T09:58:26.000Z</time>
      </trkpt>
      <trkpt lat="47.2677" lon="-2.27146">
        <ele>12.60000038147</ele>
        <time>2021-04-08T09:58:30.000Z</time>
      </trkpt>
      <trkpt lat="47.26767" lon="-2.2715">
        <ele>12.60000038147</ele>
        <time>2021-04-08T09:58:31.000Z</time>
      </trkpt>
      <trkpt lat="47.26748" lon="-2.27169">
        <ele>12.60000038147</ele>
        <time>2021-04-08T09:58:37.000Z</time>
      </trkpt>
      <trkpt lat="47.26739" lon="-2.27179">
        <ele>13.199999809265</ele>
        <time>2021-04-08T09:58:40.000Z</time>
      </trkpt>
      <trkpt lat="47.26736" lon="-2.27182">
        <ele>13.60000038147</ele>
        <time>2021-04-08T09:58:41.000Z</time>
      </trkpt>
      <trkpt lat="47.26732" lon="-2.27185">
        <ele>14</ele>
        <time>2021-04-08T09:58:42.000Z</time>
      </trkpt>
      <trkpt lat="47.2673" lon="-2.27188">
        <ele>14.39999961853</ele>
        <time>2021-04-08T09:58:43.000Z</time>
      </trkpt>
      <trkpt lat="47.26727" lon="-2.27191">
        <ele>14.800000190735</ele>
        <time>2021-04-08T09:58:44.000Z</time>
      </trkpt>
      <trkpt lat="47.26724" lon="-2.272">
        <ele>14.800000190735</ele>
        <time>2021-04-08T09:58:47.000Z</time>
      </trkpt>
      <trkpt lat="47.26725" lon="-2.2722">
        <ele>14.800000190735</ele>
        <time>2021-04-08T09:58:51.000Z</time>
      </trkpt>
      <trkpt lat="47.26726" lon="-2.27226">
        <ele>14.800000190735</ele>
        <time>2021-04-08T09:58:52.000Z</time>
      </trkpt>
      <trkpt lat="47.26732" lon="-2.27258">
        <ele>14.800000190735</ele>
        <time>2021-04-08T09:58:59.000Z</time>
      </trkpt>
      <trkpt lat="47.26735" lon="-2.27261">
        <ele>14.800000190735</ele>
        <time>2021-04-08T09:59:02.000Z</time>
      </trkpt>
      <trkpt lat="47.26735" lon="-2.27264">
        <ele>14.800000190735</ele>
        <time>2021-04-08T09:59:33.000Z</time>
      </trkpt>
      <trkpt lat="47.26735" lon="-2.27278">
        <ele>14.800000190735</ele>
        <time>2021-04-08T09:59:37.000Z</time>
      </trkpt>
      <trkpt lat="47.26737" lon="-2.2729">
        <ele>14.800000190735</ele>
        <time>2021-04-08T09:59:40.000Z</time>
      </trkpt>
      <trkpt lat="47.2674" lon="-2.27311">
        <ele>14.800000190735</ele>
        <time>2021-04-08T09:59:45.000Z</time>
      </trkpt>
      <trkpt lat="47.26743" lon="-2.27344">
        <ele>14.800000190735</ele>
        <time>2021-04-08T09:59:50.000Z</time>
      </trkpt>
      <trkpt lat="47.26749" lon="-2.27386">
        <ele>14.800000190735</ele>
        <time>2021-04-08T09:59:55.000Z</time>
      </trkpt>
      <trkpt lat="47.26751" lon="-2.27394">
        <ele>14.800000190735</ele>
        <time>2021-04-08T09:59:56.000Z</time>
      </trkpt>
      <trkpt lat="47.26755" lon="-2.27444">
        <ele>14.800000190735</ele>
        <time>2021-04-08T10:00:02.000Z</time>
      </trkpt>
      <trkpt lat="47.26756" lon="-2.2749">
        <ele>14.800000190735</ele>
        <time>2021-04-08T10:00:08.000Z</time>
      </trkpt>
      <trkpt lat="47.26756" lon="-2.27543">
        <ele>14.800000190735</ele>
        <time>2021-04-08T10:00:15.000Z</time>
      </trkpt>
      <trkpt lat="47.2676" lon="-2.27597">
        <ele>14.800000190735</ele>
        <time>2021-04-08T10:00:21.000Z</time>
      </trkpt>
      <trkpt lat="47.26767" lon="-2.27645">
        <ele>14.39999961853</ele>
        <time>2021-04-08T10:00:26.000Z</time>
      </trkpt>
      <trkpt lat="47.26769" lon="-2.27653">
        <ele>14</ele>
        <time>2021-04-08T10:00:27.000Z</time>
      </trkpt>
      <trkpt lat="47.2677" lon="-2.27661">
        <ele>13</ele>
        <time>2021-04-08T10:00:28.000Z</time>
      </trkpt>
      <trkpt lat="47.26772" lon="-2.27669">
        <ele>12.60000038147</ele>
        <time>2021-04-08T10:00:29.000Z</time>
      </trkpt>
      <trkpt lat="47.26776" lon="-2.2769">
        <ele>12.60000038147</ele>
        <time>2021-04-08T10:00:32.000Z</time>
      </trkpt>
      <trkpt lat="47.26785" lon="-2.27735">
        <ele>12.60000038147</ele>
        <time>2021-04-08T10:00:38.000Z</time>
      </trkpt>
      <trkpt lat="47.2679" lon="-2.27762">
        <ele>12.60000038147</ele>
        <time>2021-04-08T10:00:42.000Z</time>
      </trkpt>
      <trkpt lat="47.26792" lon="-2.27775">
        <ele>12.60000038147</ele>
        <time>2021-04-08T10:00:44.000Z</time>
      </trkpt>
      <trkpt lat="47.26795" lon="-2.27788">
        <ele>12.60000038147</ele>
        <time>2021-04-08T10:00:46.000Z</time>
      </trkpt>
      <trkpt lat="47.26804" lon="-2.27801">
        <ele>12.60000038147</ele>
        <time>2021-04-08T10:00:49.000Z</time>
      </trkpt>
      <trkpt lat="47.26823" lon="-2.27798">
        <ele>13.60000038147</ele>
        <time>2021-04-08T10:00:53.000Z</time>
      </trkpt>
      <trkpt lat="47.26828" lon="-2.27795">
        <ele>14</ele>
        <time>2021-04-08T10:00:54.000Z</time>
      </trkpt>
      <trkpt lat="47.26833" lon="-2.27791">
        <ele>14.39999961853</ele>
        <time>2021-04-08T10:00:55.000Z</time>
      </trkpt>
      <trkpt lat="47.26837" lon="-2.27787">
        <ele>14.800000190735</ele>
        <time>2021-04-08T10:00:56.000Z</time>
      </trkpt>
      <trkpt lat="47.26847" lon="-2.2778">
        <ele>14.800000190735</ele>
        <time>2021-04-08T10:00:58.000Z</time>
      </trkpt>
      <trkpt lat="47.26882" lon="-2.27758">
        <ele>14.800000190735</ele>
        <time>2021-04-08T10:01:05.000Z</time>
      </trkpt>
      <trkpt lat="47.26925" lon="-2.27741">
        <ele>14.800000190735</ele>
        <time>2021-04-08T10:01:13.000Z</time>
      </trkpt>
      <trkpt lat="47.26959" lon="-2.2773">
        <ele>14.800000190735</ele>
        <time>2021-04-08T10:01:19.000Z</time>
      </trkpt>
      <trkpt lat="47.26995" lon="-2.27717">
        <ele>14.800000190735</ele>
        <time>2021-04-08T10:01:26.000Z</time>
      </trkpt>
      <trkpt lat="47.27006" lon="-2.27715">
        <ele>14.800000190735</ele>
        <time>2021-04-08T10:01:28.000Z</time>
      </trkpt>
      <trkpt lat="47.27024" lon="-2.27718">
        <ele>14.800000190735</ele>
        <time>2021-04-08T10:01:31.000Z</time>
      </trkpt>
      <trkpt lat="47.2707" lon="-2.27738">
        <ele>14.800000190735</ele>
        <time>2021-04-08T10:01:39.000Z</time>
      </trkpt>
      <trkpt lat="47.2709" lon="-2.2775">
        <ele>14.800000190735</ele>
        <time>2021-04-08T10:01:43.000Z</time>
      </trkpt>
      <trkpt lat="47.27098" lon="-2.27762">
        <ele>15.199999809265</ele>
        <time>2021-04-08T10:01:45.000Z</time>
      </trkpt>
      <trkpt lat="47.27101" lon="-2.27769">
        <ele>15.60000038147</ele>
        <time>2021-04-08T10:01:46.000Z</time>
      </trkpt>
      <trkpt lat="47.27104" lon="-2.27777">
        <ele>16</ele>
        <time>2021-04-08T10:01:47.000Z</time>
      </trkpt>
      <trkpt lat="47.27106" lon="-2.27784">
        <ele>16.39999961853</ele>
        <time>2021-04-08T10:01:48.000Z</time>
      </trkpt>
      <trkpt lat="47.27108" lon="-2.27792">
        <ele>16.799999237061</ele>
        <time>2021-04-08T10:01:49.000Z</time>
      </trkpt>
      <trkpt lat="47.27113" lon="-2.27819">
        <ele>16.799999237061</ele>
        <time>2021-04-08T10:01:53.000Z</time>
      </trkpt>
      <trkpt lat="47.2711" lon="-2.27833">
        <ele>16.799999237061</ele>
        <time>2021-04-08T10:01:55.000Z</time>
      </trkpt>
      <trkpt lat="47.27106" lon="-2.27846">
        <ele>16.799999237061</ele>
        <time>2021-04-08T10:01:57.000Z</time>
      </trkpt>
      <trkpt lat="47.27102" lon="-2.2786">
        <ele>17.200000762939</ele>
        <time>2021-04-08T10:01:59.000Z</time>
      </trkpt>
      <trkpt lat="47.271" lon="-2.27866">
        <ele>17.799999237061</ele>
        <time>2021-04-08T10:02:00.000Z</time>
      </trkpt>
      <trkpt lat="47.27098" lon="-2.27872">
        <ele>18.200000762939</ele>
        <time>2021-04-08T10:02:01.000Z</time>
      </trkpt>
      <trkpt lat="47.27096" lon="-2.27878">
        <ele>18.60000038147</ele>
        <time>2021-04-08T10:02:02.000Z</time>
      </trkpt>
      <trkpt lat="47.27093" lon="-2.27883">
        <ele>19</ele>
        <time>2021-04-08T10:02:03.000Z</time>
      </trkpt>
      <trkpt lat="47.2709" lon="-2.27888">
        <ele>19</ele>
        <time>2021-04-08T10:02:04.000Z</time>
      </trkpt>
      <trkpt lat="47.27079" lon="-2.27901">
        <ele>19.39999961853</ele>
        <time>2021-04-08T10:02:07.000Z</time>
      </trkpt>
      <trkpt lat="47.27076" lon="-2.27907">
        <ele>20</ele>
        <time>2021-04-08T10:02:08.000Z</time>
      </trkpt>
      <trkpt lat="47.27073" lon="-2.27912">
        <ele>20.39999961853</ele>
        <time>2021-04-08T10:02:09.000Z</time>
      </trkpt>
      <trkpt lat="47.27071" lon="-2.27919">
        <ele>20.799999237061</ele>
        <time>2021-04-08T10:02:10.000Z</time>
      </trkpt>
      <trkpt lat="47.2707" lon="-2.27926">
        <ele>21.200000762939</ele>
        <time>2021-04-08T10:02:11.000Z</time>
      </trkpt>
      <trkpt lat="47.27068" lon="-2.2794">
        <ele>21.200000762939</ele>
        <time>2021-04-08T10:02:14.000Z</time>
      </trkpt>
      <trkpt lat="47.27074" lon="-2.27967">
        <ele>21.200000762939</ele>
        <time>2021-04-08T10:02:18.000Z</time>
      </trkpt>
      <trkpt lat="47.27089" lon="-2.27984">
        <ele>21.200000762939</ele>
        <time>2021-04-08T10:02:22.000Z</time>
      </trkpt>
      <trkpt lat="47.27104" lon="-2.2799">
        <ele>21.200000762939</ele>
        <time>2021-04-08T10:02:25.000Z</time>
      </trkpt>
      <trkpt lat="47.27109" lon="-2.27994">
        <ele>21.200000762939</ele>
        <time>2021-04-08T10:02:26.000Z</time>
      </trkpt>
      <trkpt lat="47.27113" lon="-2.28001">
        <ele>21.200000762939</ele>
        <time>2021-04-08T10:02:27.000Z</time>
      </trkpt>
      <trkpt lat="47.27118" lon="-2.28026">
        <ele>21.200000762939</ele>
        <time>2021-04-08T10:02:30.000Z</time>
      </trkpt>
      <trkpt lat="47.27123" lon="-2.28068">
        <ele>21.200000762939</ele>
        <time>2021-04-08T10:02:35.000Z</time>
      </trkpt>
      <trkpt lat="47.27123" lon="-2.28085">
        <ele>21.200000762939</ele>
        <time>2021-04-08T10:02:37.000Z</time>
      </trkpt>
      <trkpt lat="47.27123" lon="-2.28102">
        <ele>21.200000762939</ele>
        <time>2021-04-08T10:02:39.000Z</time>
      </trkpt>
      <trkpt lat="47.27124" lon="-2.28129">
        <ele>20.799999237061</ele>
        <time>2021-04-08T10:02:42.000Z</time>
      </trkpt>
      <trkpt lat="47.27125" lon="-2.28138">
        <ele>20.39999961853</ele>
        <time>2021-04-08T10:02:43.000Z</time>
      </trkpt>
      <trkpt lat="47.27126" lon="-2.28148">
        <ele>20</ele>
        <time>2021-04-08T10:02:44.000Z</time>
      </trkpt>
      <trkpt lat="47.27127" lon="-2.28156">
        <ele>19.60000038147</ele>
        <time>2021-04-08T10:02:45.000Z</time>
      </trkpt>
      <trkpt lat="47.27126" lon="-2.28165">
        <ele>19.200000762939</ele>
        <time>2021-04-08T10:02:46.000Z</time>
      </trkpt>
      <trkpt lat="47.27124" lon="-2.28183">
        <ele>19.200000762939</ele>
        <time>2021-04-08T10:02:48.000Z</time>
      </trkpt>
      <trkpt lat="47.27122" lon="-2.28203">
        <ele>19.200000762939</ele>
        <time>2021-04-08T10:02:50.000Z</time>
      </trkpt>
      <trkpt lat="47.27118" lon="-2.28243">
        <ele>19.200000762939</ele>
        <time>2021-04-08T10:02:54.000Z</time>
      </trkpt>
      <trkpt lat="47.27125" lon="-2.2827">
        <ele>19.200000762939</ele>
        <time>2021-04-08T10:02:57.000Z</time>
      </trkpt>
      <trkpt lat="47.27128" lon="-2.28279">
        <ele>19.200000762939</ele>
        <time>2021-04-08T10:02:58.000Z</time>
      </trkpt>
      <trkpt lat="47.27141" lon="-2.28324">
        <ele>19.200000762939</ele>
        <time>2021-04-08T10:03:03.000Z</time>
      </trkpt>
      <trkpt lat="47.27143" lon="-2.28332">
        <ele>19.200000762939</ele>
        <time>2021-04-08T10:03:04.000Z</time>
      </trkpt>
      <trkpt lat="47.27145" lon="-2.28359">
        <ele>19.200000762939</ele>
        <time>2021-04-08T10:03:07.000Z</time>
      </trkpt>
      <trkpt lat="47.27147" lon="-2.28376">
        <ele>19.200000762939</ele>
        <time>2021-04-08T10:03:09.000Z</time>
      </trkpt>
      <trkpt lat="47.27148" lon="-2.28385">
        <ele>19.200000762939</ele>
        <time>2021-04-08T10:03:10.000Z</time>
      </trkpt>
      <trkpt lat="47.27153" lon="-2.28437">
        <ele>19.200000762939</ele>
        <time>2021-04-08T10:03:16.000Z</time>
      </trkpt>
      <trkpt lat="47.2716" lon="-2.28495">
        <ele>18.799999237061</ele>
        <time>2021-04-08T10:03:22.000Z</time>
      </trkpt>
      <trkpt lat="47.27161" lon="-2.28505">
        <ele>18</ele>
        <time>2021-04-08T10:03:23.000Z</time>
      </trkpt>
      <trkpt lat="47.27162" lon="-2.28516">
        <ele>17.60000038147</ele>
        <time>2021-04-08T10:03:24.000Z</time>
      </trkpt>
      <trkpt lat="47.27164" lon="-2.28526">
        <ele>17.200000762939</ele>
        <time>2021-04-08T10:03:25.000Z</time>
      </trkpt>
      <trkpt lat="47.27172" lon="-2.28564">
        <ele>17.200000762939</ele>
        <time>2021-04-08T10:03:29.000Z</time>
      </trkpt>
      <trkpt lat="47.27176" lon="-2.28581">
        <ele>16.799999237061</ele>
        <time>2021-04-08T10:03:31.000Z</time>
      </trkpt>
      <trkpt lat="47.27178" lon="-2.2859">
        <ele>16.200000762939</ele>
        <time>2021-04-08T10:03:32.000Z</time>
      </trkpt>
      <trkpt lat="47.27179" lon="-2.28599">
        <ele>15.800000190735</ele>
        <time>2021-04-08T10:03:33.000Z</time>
      </trkpt>
      <trkpt lat="47.27181" lon="-2.28608">
        <ele>15.39999961853</ele>
        <time>2021-04-08T10:03:34.000Z</time>
      </trkpt>
      <trkpt lat="47.27181" lon="-2.28618">
        <ele>15</ele>
        <time>2021-04-08T10:03:35.000Z</time>
      </trkpt>
      <trkpt lat="47.2718" lon="-2.28672">
        <ele>15</ele>
        <time>2021-04-08T10:03:40.000Z</time>
      </trkpt>
      <trkpt lat="47.27178" lon="-2.28735">
        <ele>15</ele>
        <time>2021-04-08T10:03:46.000Z</time>
      </trkpt>
      <trkpt lat="47.27177" lon="-2.28806">
        <ele>15</ele>
        <time>2021-04-08T10:03:53.000Z</time>
      </trkpt>
      <trkpt lat="47.27176" lon="-2.28816">
        <ele>14.60000038147</ele>
        <time>2021-04-08T10:03:54.000Z</time>
      </trkpt>
      <trkpt lat="47.27175" lon="-2.28825">
        <ele>14.199999809265</ele>
        <time>2021-04-08T10:03:55.000Z</time>
      </trkpt>
      <trkpt lat="47.27174" lon="-2.28834">
        <ele>13.800000190735</ele>
        <time>2021-04-08T10:03:56.000Z</time>
      </trkpt>
      <trkpt lat="47.27174" lon="-2.28844">
        <ele>13.39999961853</ele>
        <time>2021-04-08T10:03:57.000Z</time>
      </trkpt>
      <trkpt lat="47.27173" lon="-2.28853">
        <ele>13</ele>
        <time>2021-04-08T10:03:58.000Z</time>
      </trkpt>
      <trkpt lat="47.27173" lon="-2.28862">
        <ele>13</ele>
        <time>2021-04-08T10:03:59.000Z</time>
      </trkpt>
      <trkpt lat="47.2717" lon="-2.28928">
        <ele>13</ele>
        <time>2021-04-08T10:04:06.000Z</time>
      </trkpt>
      <trkpt lat="47.27172" lon="-2.28988">
        <ele>13</ele>
        <time>2021-04-08T10:04:12.000Z</time>
      </trkpt>
      <trkpt lat="47.27176" lon="-2.2903">
        <ele>13</ele>
        <time>2021-04-08T10:04:17.000Z</time>
      </trkpt>
      <trkpt lat="47.27182" lon="-2.29068">
        <ele>13</ele>
        <time>2021-04-08T10:04:22.000Z</time>
      </trkpt>
      <trkpt lat="47.27183" lon="-2.29075">
        <ele>13</ele>
        <time>2021-04-08T10:04:23.000Z</time>
      </trkpt>
      <trkpt lat="47.27186" lon="-2.29094">
        <ele>13</ele>
        <time>2021-04-08T10:04:26.000Z</time>
      </trkpt>
      <trkpt lat="47.27183" lon="-2.29105">
        <ele>13</ele>
        <time>2021-04-08T10:04:28.000Z</time>
      </trkpt>
      <trkpt lat="47.27176" lon="-2.29112">
        <ele>13</ele>
        <time>2021-04-08T10:04:30.000Z</time>
      </trkpt>
      <trkpt lat="47.27173" lon="-2.29116">
        <ele>13</ele>
        <time>2021-04-08T10:04:31.000Z</time>
      </trkpt>
      <trkpt lat="47.27152" lon="-2.2914">
        <ele>13</ele>
        <time>2021-04-08T10:04:37.000Z</time>
      </trkpt>
      <trkpt lat="47.27146" lon="-2.29146">
        <ele>13</ele>
        <time>2021-04-08T10:04:39.000Z</time>
      </trkpt>
      <trkpt lat="47.27143" lon="-2.29151">
        <ele>13</ele>
        <time>2021-04-08T10:04:41.000Z</time>
      </trkpt>
      <trkpt lat="47.27141" lon="-2.29156">
        <ele>13</ele>
        <time>2021-04-08T10:04:44.000Z</time>
      </trkpt>
      <trkpt lat="47.27141" lon="-2.29159">
        <ele>13</ele>
        <time>2021-04-08T10:04:45.000Z</time>
      </trkpt>
      <trkpt lat="47.27142" lon="-2.29162">
        <ele>13</ele>
        <time>2021-04-08T10:04:46.000Z</time>
      </trkpt>
      <trkpt lat="47.27146" lon="-2.29175">
        <ele>13</ele>
        <time>2021-04-08T10:04:49.000Z</time>
      </trkpt>
      <trkpt lat="47.27155" lon="-2.29203">
        <ele>13</ele>
        <time>2021-04-08T10:04:56.000Z</time>
      </trkpt>
      <trkpt lat="47.27159" lon="-2.2921">
        <ele>13</ele>
        <time>2021-04-08T10:04:59.000Z</time>
      </trkpt>
      <trkpt lat="47.2716" lon="-2.29213">
        <ele>13</ele>
        <time>2021-04-08T10:05:01.000Z</time>
      </trkpt>
      <trkpt lat="47.27161" lon="-2.29213">
        <ele>13</ele>
        <time>2021-04-08T10:05:03.000Z</time>
      </trkpt>
      <trkpt lat="47.27164" lon="-2.29218">
        <ele>10.39999961853</ele>
        <time>2021-04-08T10:07:27.000Z</time>
      </trkpt>
      <trkpt lat="47.27167" lon="-2.29222">
        <ele>10.39999961853</ele>
        <time>2021-04-08T10:07:29.000Z</time>
      </trkpt>
      <trkpt lat="47.27168" lon="-2.29247">
        <ele>10.39999961853</ele>
        <time>2021-04-08T10:07:34.000Z</time>
      </trkpt>
      <trkpt lat="47.27162" lon="-2.29275">
        <ele>10.39999961853</ele>
        <time>2021-04-08T10:07:39.000Z</time>
      </trkpt>
      <trkpt lat="47.27159" lon="-2.29281">
        <ele>10.800000190735</ele>
        <time>2021-04-08T10:07:40.000Z</time>
      </trkpt>
      <trkpt lat="47.27156" lon="-2.29287">
        <ele>11.199999809265</ele>
        <time>2021-04-08T10:07:41.000Z</time>
      </trkpt>
      <trkpt lat="47.27155" lon="-2.29293">
        <ele>11.60000038147</ele>
        <time>2021-04-08T10:07:42.000Z</time>
      </trkpt>
      <trkpt lat="47.27153" lon="-2.29299">
        <ele>12</ele>
        <time>2021-04-08T10:07:43.000Z</time>
      </trkpt>
      <trkpt lat="47.27153" lon="-2.29305">
        <ele>12.39999961853</ele>
        <time>2021-04-08T10:07:44.000Z</time>
      </trkpt>
      <trkpt lat="47.27157" lon="-2.29318">
        <ele>12.39999961853</ele>
        <time>2021-04-08T10:07:47.000Z</time>
      </trkpt>
      <trkpt lat="47.27162" lon="-2.29327">
        <ele>12.39999961853</ele>
        <time>2021-04-08T10:07:49.000Z</time>
      </trkpt>
      <trkpt lat="47.27169" lon="-2.29337">
        <ele>12.39999961853</ele>
        <time>2021-04-08T10:07:51.000Z</time>
      </trkpt>
      <trkpt lat="47.27173" lon="-2.29342">
        <ele>12.39999961853</ele>
        <time>2021-04-08T10:07:52.000Z</time>
      </trkpt>
      <trkpt lat="47.27177" lon="-2.29348">
        <ele>12.39999961853</ele>
        <time>2021-04-08T10:07:53.000Z</time>
      </trkpt>
      <trkpt lat="47.2719" lon="-2.29371">
        <ele>12.39999961853</ele>
        <time>2021-04-08T10:07:57.000Z</time>
      </trkpt>
      <trkpt lat="47.27204" lon="-2.29412">
        <ele>12.39999961853</ele>
        <time>2021-04-08T10:08:04.000Z</time>
      </trkpt>
      <trkpt lat="47.27216" lon="-2.29455">
        <ele>12.39999961853</ele>
        <time>2021-04-08T10:08:11.000Z</time>
      </trkpt>
      <trkpt lat="47.27227" lon="-2.29487">
        <ele>12.39999961853</ele>
        <time>2021-04-08T10:08:16.000Z</time>
      </trkpt>
      <trkpt lat="47.2723" lon="-2.29493">
        <ele>12.39999961853</ele>
        <time>2021-04-08T10:08:17.000Z</time>
      </trkpt>
      <trkpt lat="47.27244" lon="-2.29532">
        <ele>12.39999961853</ele>
        <time>2021-04-08T10:08:24.000Z</time>
      </trkpt>
      <trkpt lat="47.27251" lon="-2.29573">
        <ele>12.39999961853</ele>
        <time>2021-04-08T10:08:29.000Z</time>
      </trkpt>
      <trkpt lat="47.27256" lon="-2.29616">
        <ele>12.39999961853</ele>
        <time>2021-04-08T10:08:35.000Z</time>
      </trkpt>
      <trkpt lat="47.27264" lon="-2.29649">
        <ele>12.39999961853</ele>
        <time>2021-04-08T10:08:41.000Z</time>
      </trkpt>
      <trkpt lat="47.27266" lon="-2.29664">
        <ele>12.39999961853</ele>
        <time>2021-04-08T10:08:43.000Z</time>
      </trkpt>
      <trkpt lat="47.27268" lon="-2.29679">
        <ele>12.39999961853</ele>
        <time>2021-04-08T10:08:45.000Z</time>
      </trkpt>
      <trkpt lat="47.27269" lon="-2.29686">
        <ele>12.39999961853</ele>
        <time>2021-04-08T10:08:46.000Z</time>
      </trkpt>
      <trkpt lat="47.27276" lon="-2.29713">
        <ele>12.39999961853</ele>
        <time>2021-04-08T10:08:50.000Z</time>
      </trkpt>
      <trkpt lat="47.27278" lon="-2.29722">
        <ele>12.39999961853</ele>
        <time>2021-04-08T10:08:53.000Z</time>
      </trkpt>
      <trkpt lat="47.2728" lon="-2.29726">
        <ele>12.39999961853</ele>
        <time>2021-04-08T10:08:56.000Z</time>
      </trkpt>
      <trkpt lat="47.27282" lon="-2.29727">
        <ele>12.39999961853</ele>
        <time>2021-04-08T10:10:00.000Z</time>
      </trkpt>
      <trkpt lat="47.27287" lon="-2.29742">
        <ele>12.39999961853</ele>
        <time>2021-04-08T10:10:04.000Z</time>
      </trkpt>
      <trkpt lat="47.27297" lon="-2.29778">
        <ele>12.39999961853</ele>
        <time>2021-04-08T10:10:10.000Z</time>
      </trkpt>
      <trkpt lat="47.27306" lon="-2.29797">
        <ele>12.39999961853</ele>
        <time>2021-04-08T10:10:13.000Z</time>
      </trkpt>
      <trkpt lat="47.27313" lon="-2.29809">
        <ele>12.39999961853</ele>
        <time>2021-04-08T10:10:15.000Z</time>
      </trkpt>
      <trkpt lat="47.27337" lon="-2.29845">
        <ele>12.39999961853</ele>
        <time>2021-04-08T10:10:21.000Z</time>
      </trkpt>
      <trkpt lat="47.27356" lon="-2.29883">
        <ele>12.39999961853</ele>
        <time>2021-04-08T10:10:26.000Z</time>
      </trkpt>
      <trkpt lat="47.27376" lon="-2.29933">
        <ele>12.39999961853</ele>
        <time>2021-04-08T10:10:32.000Z</time>
      </trkpt>
      <trkpt lat="47.274" lon="-2.29987">
        <ele>12.39999961853</ele>
        <time>2021-04-08T10:10:39.000Z</time>
      </trkpt>
      <trkpt lat="47.27426" lon="-2.30049">
        <ele>12.39999961853</ele>
        <time>2021-04-08T10:10:47.000Z</time>
      </trkpt>
      <trkpt lat="47.27441" lon="-2.30103">
        <ele>12.39999961853</ele>
        <time>2021-04-08T10:10:54.000Z</time>
      </trkpt>
      <trkpt lat="47.27451" lon="-2.30156">
        <ele>12</ele>
        <time>2021-04-08T10:11:00.000Z</time>
      </trkpt>
      <trkpt lat="47.27453" lon="-2.30164">
        <ele>11.60000038147</ele>
        <time>2021-04-08T10:11:01.000Z</time>
      </trkpt>
      <trkpt lat="47.27455" lon="-2.30174">
        <ele>11.199999809265</ele>
        <time>2021-04-08T10:11:02.000Z</time>
      </trkpt>
      <trkpt lat="47.27456" lon="-2.30182">
        <ele>10.800000190735</ele>
        <time>2021-04-08T10:11:03.000Z</time>
      </trkpt>
      <trkpt lat="47.27458" lon="-2.30189">
        <ele>10.39999961853</ele>
        <time>2021-04-08T10:11:04.000Z</time>
      </trkpt>
      <trkpt lat="47.27459" lon="-2.30195">
        <ele>10.39999961853</ele>
        <time>2021-04-08T10:11:05.000Z</time>
      </trkpt>
      <trkpt lat="47.27458" lon="-2.30208">
        <ele>10.39999961853</ele>
        <time>2021-04-08T10:11:09.000Z</time>
      </trkpt>
      <trkpt lat="47.27453" lon="-2.30211">
        <ele>10.39999961853</ele>
        <time>2021-04-08T10:11:11.000Z</time>
      </trkpt>
      <trkpt lat="47.27446" lon="-2.30214">
        <ele>10.39999961853</ele>
        <time>2021-04-08T10:11:13.000Z</time>
      </trkpt>
      <trkpt lat="47.2742" lon="-2.30228">
        <ele>10.39999961853</ele>
        <time>2021-04-08T10:11:18.000Z</time>
      </trkpt>
      <trkpt lat="47.27391" lon="-2.30242">
        <ele>10.39999961853</ele>
        <time>2021-04-08T10:11:23.000Z</time>
      </trkpt>
      <trkpt lat="47.27385" lon="-2.30244">
        <ele>10.39999961853</ele>
        <time>2021-04-08T10:11:24.000Z</time>
      </trkpt>
      <trkpt lat="47.27363" lon="-2.30249">
        <ele>10.39999961853</ele>
        <time>2021-04-08T10:11:28.000Z</time>
      </trkpt>
      <trkpt lat="47.27357" lon="-2.30248">
        <ele>10.39999961853</ele>
        <time>2021-04-08T10:11:29.000Z</time>
      </trkpt>
      <trkpt lat="47.27327" lon="-2.30253">
        <ele>10.39999961853</ele>
        <time>2021-04-08T10:11:34.000Z</time>
      </trkpt>
      <trkpt lat="47.27296" lon="-2.30256">
        <ele>10</ele>
        <time>2021-04-08T10:11:39.000Z</time>
      </trkpt>
      <trkpt lat="47.2729" lon="-2.30256">
        <ele>9.6000003814697</ele>
        <time>2021-04-08T10:11:40.000Z</time>
      </trkpt>
      <trkpt lat="47.27283" lon="-2.30256">
        <ele>9.1999998092651</ele>
        <time>2021-04-08T10:11:41.000Z</time>
      </trkpt>
      <trkpt lat="47.27277" lon="-2.30256">
        <ele>8.8000001907349</ele>
        <time>2021-04-08T10:11:42.000Z</time>
      </trkpt>
      <trkpt lat="47.2727" lon="-2.30257">
        <ele>8.3999996185303</ele>
        <time>2021-04-08T10:11:43.000Z</time>
      </trkpt>
      <trkpt lat="47.27263" lon="-2.3026">
        <ele>8.3999996185303</ele>
        <time>2021-04-08T10:11:44.000Z</time>
      </trkpt>
      <trkpt lat="47.27257" lon="-2.30261">
        <ele>8.3999996185303</ele>
        <time>2021-04-08T10:11:45.000Z</time>
      </trkpt>
      <trkpt lat="47.27251" lon="-2.30261">
        <ele>8.3999996185303</ele>
        <time>2021-04-08T10:11:46.000Z</time>
      </trkpt>
      <trkpt lat="47.27241" lon="-2.3026">
        <ele>8.3999996185303</ele>
        <time>2021-04-08T10:11:48.000Z</time>
      </trkpt>
      <trkpt lat="47.27238" lon="-2.30258">
        <ele>8.3999996185303</ele>
        <time>2021-04-08T10:11:49.000Z</time>
      </trkpt>
      <trkpt lat="47.27217" lon="-2.30252">
        <ele>8.3999996185303</ele>
        <time>2021-04-08T10:11:54.000Z</time>
      </trkpt>
      <trkpt lat="47.27212" lon="-2.3025">
        <ele>8.3999996185303</ele>
        <time>2021-04-08T10:11:55.000Z</time>
      </trkpt>
      <trkpt lat="47.27208" lon="-2.3025">
        <ele>8.3999996185303</ele>
        <time>2021-04-08T10:11:56.000Z</time>
      </trkpt>
      <trkpt lat="47.272" lon="-2.30252">
        <ele>8.3999996185303</ele>
        <time>2021-04-08T10:11:58.000Z</time>
      </trkpt>
      <trkpt lat="47.27186" lon="-2.30259">
        <ele>8.3999996185303</ele>
        <time>2021-04-08T10:12:02.000Z</time>
      </trkpt>
      <trkpt lat="47.27183" lon="-2.30257">
        <ele>8.3999996185303</ele>
        <time>2021-04-08T10:12:03.000Z</time>
      </trkpt>
      <trkpt lat="47.27176" lon="-2.30251">
        <ele>8.3999996185303</ele>
        <time>2021-04-08T10:12:05.000Z</time>
      </trkpt>
      <trkpt lat="47.27151" lon="-2.30243">
        <ele>8.3999996185303</ele>
        <time>2021-04-08T10:12:10.000Z</time>
      </trkpt>
      <trkpt lat="47.2714" lon="-2.30246">
        <ele>8.3999996185303</ele>
        <time>2021-04-08T10:12:12.000Z</time>
      </trkpt>
      <trkpt lat="47.27126" lon="-2.30251">
        <ele>8.3999996185303</ele>
        <time>2021-04-08T10:12:15.000Z</time>
      </trkpt>
      <trkpt lat="47.27113" lon="-2.30256">
        <ele>8.3999996185303</ele>
        <time>2021-04-08T10:12:18.000Z</time>
      </trkpt>
      <trkpt lat="47.27104" lon="-2.30259">
        <ele>8.3999996185303</ele>
        <time>2021-04-08T10:12:20.000Z</time>
      </trkpt>
      <trkpt lat="47.27095" lon="-2.30264">
        <ele>8.3999996185303</ele>
        <time>2021-04-08T10:12:22.000Z</time>
      </trkpt>
      <trkpt lat="47.27084" lon="-2.30272">
        <ele>8.3999996185303</ele>
        <time>2021-04-08T10:12:25.000Z</time>
      </trkpt>
      <trkpt lat="47.27071" lon="-2.3029">
        <ele>8.3999996185303</ele>
        <time>2021-04-08T10:12:29.000Z</time>
      </trkpt>
      <trkpt lat="47.27067" lon="-2.30302">
        <ele>8.3999996185303</ele>
        <time>2021-04-08T10:12:31.000Z</time>
      </trkpt>
      <trkpt lat="47.27063" lon="-2.30321">
        <ele>8.8000001907349</ele>
        <time>2021-04-08T10:12:34.000Z</time>
      </trkpt>
      <trkpt lat="47.27062" lon="-2.30329">
        <ele>9.1999998092651</ele>
        <time>2021-04-08T10:12:35.000Z</time>
      </trkpt>
      <trkpt lat="47.27061" lon="-2.30336">
        <ele>9.6000003814697</ele>
        <time>2021-04-08T10:12:36.000Z</time>
      </trkpt>
      <trkpt lat="47.27059" lon="-2.30344">
        <ele>10</ele>
        <time>2021-04-08T10:12:37.000Z</time>
      </trkpt>
      <trkpt lat="47.27058" lon="-2.30352">
        <ele>10.39999961853</ele>
        <time>2021-04-08T10:12:38.000Z</time>
      </trkpt>
      <trkpt lat="47.27055" lon="-2.30368">
        <ele>10.39999961853</ele>
        <time>2021-04-08T10:12:40.000Z</time>
      </trkpt>
      <trkpt lat="47.2705" lon="-2.30416">
        <ele>10.39999961853</ele>
        <time>2021-04-08T10:12:46.000Z</time>
      </trkpt>
      <trkpt lat="47.27047" lon="-2.30433">
        <ele>10.39999961853</ele>
        <time>2021-04-08T10:12:48.000Z</time>
      </trkpt>
      <trkpt lat="47.27042" lon="-2.30465">
        <ele>10.39999961853</ele>
        <time>2021-04-08T10:12:52.000Z</time>
      </trkpt>
      <trkpt lat="47.2703" lon="-2.30509">
        <ele>10.39999961853</ele>
        <time>2021-04-08T10:12:58.000Z</time>
      </trkpt>
      <trkpt lat="47.2702" lon="-2.30552">
        <ele>10.39999961853</ele>
        <time>2021-04-08T10:13:04.000Z</time>
      </trkpt>
      <trkpt lat="47.27012" lon="-2.30581">
        <ele>10.39999961853</ele>
        <time>2021-04-08T10:13:08.000Z</time>
      </trkpt>
      <trkpt lat="47.27008" lon="-2.30594">
        <ele>10.39999961853</ele>
        <time>2021-04-08T10:13:10.000Z</time>
      </trkpt>
      <trkpt lat="47.26996" lon="-2.30606">
        <ele>10.39999961853</ele>
        <time>2021-04-08T10:13:13.000Z</time>
      </trkpt>
      <trkpt lat="47.26983" lon="-2.30613">
        <ele>10.39999961853</ele>
        <time>2021-04-08T10:13:15.000Z</time>
      </trkpt>
      <trkpt lat="47.26971" lon="-2.30621">
        <ele>10.39999961853</ele>
        <time>2021-04-08T10:13:17.000Z</time>
      </trkpt>
      <trkpt lat="47.26949" lon="-2.30629">
        <ele>10.39999961853</ele>
        <time>2021-04-08T10:13:21.000Z</time>
      </trkpt>
      <trkpt lat="47.26923" lon="-2.30636">
        <ele>10.39999961853</ele>
        <time>2021-04-08T10:13:27.000Z</time>
      </trkpt>
      <trkpt lat="47.26919" lon="-2.30637">
        <ele>10.800000190735</ele>
        <time>2021-04-08T10:13:28.000Z</time>
      </trkpt>
      <trkpt lat="47.26916" lon="-2.3064">
        <ele>11.199999809265</ele>
        <time>2021-04-08T10:13:29.000Z</time>
      </trkpt>
      <trkpt lat="47.26913" lon="-2.30643">
        <ele>11.800000190735</ele>
        <time>2021-04-08T10:13:30.000Z</time>
      </trkpt>
      <trkpt lat="47.26909" lon="-2.30646">
        <ele>12.199999809265</ele>
        <time>2021-04-08T10:13:31.000Z</time>
      </trkpt>
      <trkpt lat="47.26906" lon="-2.30649">
        <ele>12.60000038147</ele>
        <time>2021-04-08T10:13:32.000Z</time>
      </trkpt>
      <trkpt lat="47.26903" lon="-2.30653">
        <ele>12.60000038147</ele>
        <time>2021-04-08T10:13:33.000Z</time>
      </trkpt>
      <trkpt lat="47.269" lon="-2.30662">
        <ele>12.60000038147</ele>
        <time>2021-04-08T10:13:36.000Z</time>
      </trkpt>
      <trkpt lat="47.26902" lon="-2.30669">
        <ele>12.60000038147</ele>
        <time>2021-04-08T10:13:38.000Z</time>
      </trkpt>
      <trkpt lat="47.26908" lon="-2.30677">
        <ele>12.60000038147</ele>
        <time>2021-04-08T10:13:40.000Z</time>
      </trkpt>
      <trkpt lat="47.26928" lon="-2.30707">
        <ele>12.60000038147</ele>
        <time>2021-04-08T10:13:46.000Z</time>
      </trkpt>
      <trkpt lat="47.26957" lon="-2.30748">
        <ele>12.60000038147</ele>
        <time>2021-04-08T10:13:53.000Z</time>
      </trkpt>
      <trkpt lat="47.26975" lon="-2.30775">
        <ele>12.199999809265</ele>
        <time>2021-04-08T10:13:57.000Z</time>
      </trkpt>
      <trkpt lat="47.26979" lon="-2.30781">
        <ele>11.800000190735</ele>
        <time>2021-04-08T10:13:58.000Z</time>
      </trkpt>
      <trkpt lat="47.26984" lon="-2.30788">
        <ele>11.39999961853</ele>
        <time>2021-04-08T10:13:59.000Z</time>
      </trkpt>
      <trkpt lat="47.26988" lon="-2.30795">
        <ele>11</ele>
        <time>2021-04-08T10:14:00.000Z</time>
      </trkpt>
      <trkpt lat="47.26993" lon="-2.30801">
        <ele>10.60000038147</ele>
        <time>2021-04-08T10:14:01.000Z</time>
      </trkpt>
      <trkpt lat="47.27011" lon="-2.30829">
        <ele>10.199999809265</ele>
        <time>2021-04-08T10:14:05.000Z</time>
      </trkpt>
      <trkpt lat="47.27015" lon="-2.30836">
        <ele>9.8000001907349</ele>
        <time>2021-04-08T10:14:06.000Z</time>
      </trkpt>
      <trkpt lat="47.2702" lon="-2.30842">
        <ele>9.1999998092651</ele>
        <time>2021-04-08T10:14:07.000Z</time>
      </trkpt>
      <trkpt lat="47.27024" lon="-2.30848">
        <ele>8.8000001907349</ele>
        <time>2021-04-08T10:14:08.000Z</time>
      </trkpt>
      <trkpt lat="47.27028" lon="-2.30855">
        <ele>8.3999996185303</ele>
        <time>2021-04-08T10:14:09.000Z</time>
      </trkpt>
      <trkpt lat="47.27033" lon="-2.30862">
        <ele>8.3999996185303</ele>
        <time>2021-04-08T10:14:10.000Z</time>
      </trkpt>
      <trkpt lat="47.27041" lon="-2.30876">
        <ele>8.3999996185303</ele>
        <time>2021-04-08T10:14:12.000Z</time>
      </trkpt>
      <trkpt lat="47.27044" lon="-2.3088">
        <ele>8</ele>
        <time>2021-04-08T10:14:13.000Z</time>
      </trkpt>
      <trkpt lat="47.27046" lon="-2.30884">
        <ele>7.4000000953674</ele>
        <time>2021-04-08T10:14:14.000Z</time>
      </trkpt>
      <trkpt lat="47.27047" lon="-2.30888">
        <ele>7</ele>
        <time>2021-04-08T10:14:15.000Z</time>
      </trkpt>
      <trkpt lat="47.27048" lon="-2.30891">
        <ele>6.5999999046326</ele>
        <time>2021-04-08T10:14:16.000Z</time>
      </trkpt>
      <trkpt lat="47.2705" lon="-2.30894">
        <ele>6</ele>
        <time>2021-04-08T10:14:17.000Z</time>
      </trkpt>
      <trkpt lat="47.2705" lon="-2.30897">
        <ele>6</ele>
        <time>2021-04-08T10:14:18.000Z</time>
      </trkpt>
      <trkpt lat="47.27052" lon="-2.3091">
        <ele>6</ele>
        <time>2021-04-08T10:14:23.000Z</time>
      </trkpt>
      <trkpt lat="47.27055" lon="-2.3093">
        <ele>6</ele>
        <time>2021-04-08T10:14:29.000Z</time>
      </trkpt>
      <trkpt lat="47.2706" lon="-2.30959">
        <ele>6</ele>
        <time>2021-04-08T10:14:34.000Z</time>
      </trkpt>
      <trkpt lat="47.27062" lon="-2.30979">
        <ele>6</ele>
        <time>2021-04-08T10:14:37.000Z</time>
      </trkpt>
      <trkpt lat="47.27059" lon="-2.30992">
        <ele>6</ele>
        <time>2021-04-08T10:14:39.000Z</time>
      </trkpt>
      <trkpt lat="47.27055" lon="-2.30997">
        <ele>6</ele>
        <time>2021-04-08T10:14:40.000Z</time>
      </trkpt>
      <trkpt lat="47.27047" lon="-2.31006">
        <ele>6</ele>
        <time>2021-04-08T10:14:42.000Z</time>
      </trkpt>
      <trkpt lat="47.27027" lon="-2.31028">
        <ele>6</ele>
        <time>2021-04-08T10:14:48.000Z</time>
      </trkpt>
      <trkpt lat="47.27008" lon="-2.31047">
        <ele>6</ele>
        <time>2021-04-08T10:14:53.000Z</time>
      </trkpt>
      <trkpt lat="47.26998" lon="-2.31057">
        <ele>6.4000000953674</ele>
        <time>2021-04-08T10:14:55.000Z</time>
      </trkpt>
      <trkpt lat="47.26994" lon="-2.31062">
        <ele>6.8000001907349</ele>
        <time>2021-04-08T10:14:56.000Z</time>
      </trkpt>
      <trkpt lat="47.26991" lon="-2.31069">
        <ele>7.1999998092651</ele>
        <time>2021-04-08T10:14:57.000Z</time>
      </trkpt>
      <trkpt lat="47.26991" lon="-2.31075">
        <ele>7.8000001907349</ele>
        <time>2021-04-08T10:14:58.000Z</time>
      </trkpt>
      <trkpt lat="47.2699" lon="-2.31082">
        <ele>8.1999998092651</ele>
        <time>2021-04-08T10:14:59.000Z</time>
      </trkpt>
      <trkpt lat="47.2699" lon="-2.31095">
        <ele>8.1999998092651</ele>
        <time>2021-04-08T10:15:01.000Z</time>
      </trkpt>
      <trkpt lat="47.2699" lon="-2.31102">
        <ele>8.1999998092651</ele>
        <time>2021-04-08T10:15:02.000Z</time>
      </trkpt>
      <trkpt lat="47.26991" lon="-2.31122">
        <ele>8.1999998092651</ele>
        <time>2021-04-08T10:15:05.000Z</time>
      </trkpt>
      <trkpt lat="47.26991" lon="-2.31129">
        <ele>8.6000003814697</ele>
        <time>2021-04-08T10:15:06.000Z</time>
      </trkpt>
      <trkpt lat="47.2699" lon="-2.31136">
        <ele>9</ele>
        <time>2021-04-08T10:15:07.000Z</time>
      </trkpt>
      <trkpt lat="47.26989" lon="-2.31144">
        <ele>9.3999996185303</ele>
        <time>2021-04-08T10:15:08.000Z</time>
      </trkpt>
      <trkpt lat="47.26987" lon="-2.31151">
        <ele>9.8000001907349</ele>
        <time>2021-04-08T10:15:09.000Z</time>
      </trkpt>
      <trkpt lat="47.26987" lon="-2.31157">
        <ele>10.199999809265</ele>
        <time>2021-04-08T10:15:10.000Z</time>
      </trkpt>
      <trkpt lat="47.26987" lon="-2.31162">
        <ele>10.199999809265</ele>
        <time>2021-04-08T10:15:11.000Z</time>
      </trkpt>
      <trkpt lat="47.26986" lon="-2.31169">
        <ele>10.199999809265</ele>
        <time>2021-04-08T10:15:12.000Z</time>
      </trkpt>
      <trkpt lat="47.26981" lon="-2.31198">
        <ele>10.199999809265</ele>
        <time>2021-04-08T10:15:16.000Z</time>
      </trkpt>
      <trkpt lat="47.26979" lon="-2.31212">
        <ele>11.199999809265</ele>
        <time>2021-04-08T10:15:18.000Z</time>
      </trkpt>
      <trkpt lat="47.26978" lon="-2.31218">
        <ele>11.60000038147</ele>
        <time>2021-04-08T10:15:19.000Z</time>
      </trkpt>
      <trkpt lat="47.26978" lon="-2.31224">
        <ele>12</ele>
        <time>2021-04-08T10:15:20.000Z</time>
      </trkpt>
      <trkpt lat="47.26977" lon="-2.3123">
        <ele>12.39999961853</ele>
        <time>2021-04-08T10:15:21.000Z</time>
      </trkpt>
      <trkpt lat="47.26976" lon="-2.31236">
        <ele>12.39999961853</ele>
        <time>2021-04-08T10:15:22.000Z</time>
      </trkpt>
      <trkpt lat="47.26976" lon="-2.3125">
        <ele>12.39999961853</ele>
        <time>2021-04-08T10:15:24.000Z</time>
      </trkpt>
      <trkpt lat="47.26976" lon="-2.31272">
        <ele>12.39999961853</ele>
        <time>2021-04-08T10:15:27.000Z</time>
      </trkpt>
      <trkpt lat="47.26976" lon="-2.31291">
        <ele>12.39999961853</ele>
        <time>2021-04-08T10:15:30.000Z</time>
      </trkpt>
      <trkpt lat="47.26976" lon="-2.31305">
        <ele>12.39999961853</ele>
        <time>2021-04-08T10:15:32.000Z</time>
      </trkpt>
      <trkpt lat="47.26979" lon="-2.31324">
        <ele>12.39999961853</ele>
        <time>2021-04-08T10:15:35.000Z</time>
      </trkpt>
      <trkpt lat="47.26981" lon="-2.31345">
        <ele>12.39999961853</ele>
        <time>2021-04-08T10:15:38.000Z</time>
      </trkpt>
      <trkpt lat="47.26985" lon="-2.31396">
        <ele>12.39999961853</ele>
        <time>2021-04-08T10:15:44.000Z</time>
      </trkpt>
      <trkpt lat="47.26988" lon="-2.31451">
        <ele>12.39999961853</ele>
        <time>2021-04-08T10:15:49.000Z</time>
      </trkpt>
      <trkpt lat="47.26992" lon="-2.31479">
        <ele>12</ele>
        <time>2021-04-08T10:15:52.000Z</time>
      </trkpt>
      <trkpt lat="47.26993" lon="-2.31489">
        <ele>11.60000038147</ele>
        <time>2021-04-08T10:15:53.000Z</time>
      </trkpt>
      <trkpt lat="47.26995" lon="-2.31499">
        <ele>11</ele>
        <time>2021-04-08T10:15:54.000Z</time>
      </trkpt>
      <trkpt lat="47.26997" lon="-2.31509">
        <ele>10.60000038147</ele>
        <time>2021-04-08T10:15:55.000Z</time>
      </trkpt>
      <trkpt lat="47.26999" lon="-2.31519">
        <ele>10.199999809265</ele>
        <time>2021-04-08T10:15:56.000Z</time>
      </trkpt>
      <trkpt lat="47.27001" lon="-2.31528">
        <ele>9.8000001907349</ele>
        <time>2021-04-08T10:15:57.000Z</time>
      </trkpt>
      <trkpt lat="47.27003" lon="-2.31536">
        <ele>9.3999996185303</ele>
        <time>2021-04-08T10:15:58.000Z</time>
      </trkpt>
      <trkpt lat="47.27006" lon="-2.31545">
        <ele>8.8000001907349</ele>
        <time>2021-04-08T10:15:59.000Z</time>
      </trkpt>
      <trkpt lat="47.2701" lon="-2.31554">
        <ele>8.3999996185303</ele>
        <time>2021-04-08T10:16:00.000Z</time>
      </trkpt>
      <trkpt lat="47.27013" lon="-2.31563">
        <ele>8</ele>
        <time>2021-04-08T10:16:01.000Z</time>
      </trkpt>
      <trkpt lat="47.27016" lon="-2.3157">
        <ele>8</ele>
        <time>2021-04-08T10:16:02.000Z</time>
      </trkpt>
      <trkpt lat="47.27022" lon="-2.31583">
        <ele>7.5999999046326</ele>
        <time>2021-04-08T10:16:04.000Z</time>
      </trkpt>
      <trkpt lat="47.27024" lon="-2.31589">
        <ele>7</ele>
        <time>2021-04-08T10:16:05.000Z</time>
      </trkpt>
      <trkpt lat="47.27025" lon="-2.31597">
        <ele>6.5999999046326</ele>
        <time>2021-04-08T10:16:06.000Z</time>
      </trkpt>
      <trkpt lat="47.27027" lon="-2.31604">
        <ele>5.5999999046326</ele>
        <time>2021-04-08T10:16:07.000Z</time>
      </trkpt>
      <trkpt lat="47.27028" lon="-2.31613">
        <ele>5.1999998092651</ele>
        <time>2021-04-08T10:16:08.000Z</time>
      </trkpt>
      <trkpt lat="47.27029" lon="-2.31621">
        <ele>4.5999999046326</ele>
        <time>2021-04-08T10:16:09.000Z</time>
      </trkpt>
      <trkpt lat="47.2703" lon="-2.31631">
        <ele>4.1999998092651</ele>
        <time>2021-04-08T10:16:10.000Z</time>
      </trkpt>
      <trkpt lat="47.27031" lon="-2.3164">
        <ele>3.7999999523163</ele>
        <time>2021-04-08T10:16:11.000Z</time>
      </trkpt>
      <trkpt lat="47.27031" lon="-2.31649">
        <ele>3.4000000953674</ele>
        <time>2021-04-08T10:16:12.000Z</time>
      </trkpt>
      <trkpt lat="47.27032" lon="-2.31664">
        <ele>3</ele>
        <time>2021-04-08T10:16:14.000Z</time>
      </trkpt>
      <trkpt lat="47.27032" lon="-2.31671">
        <ele>2.5999999046326</ele>
        <time>2021-04-08T10:16:15.000Z</time>
      </trkpt>
      <trkpt lat="47.27032" lon="-2.31679">
        <ele>2.2000000476837</ele>
        <time>2021-04-08T10:16:16.000Z</time>
      </trkpt>
      <trkpt lat="47.27031" lon="-2.31687">
        <ele>1.7999999523163</ele>
        <time>2021-04-08T10:16:17.000Z</time>
      </trkpt>
      <trkpt lat="47.27029" lon="-2.31692">
        <ele>1.3999999761581</ele>
        <time>2021-04-08T10:16:18.000Z</time>
      </trkpt>
      <trkpt lat="47.27027" lon="-2.31698">
        <ele>0.80000001192093</ele>
        <time>2021-04-08T10:16:20.000Z</time>
      </trkpt>
      <trkpt lat="47.27028" lon="-2.317">
        <ele>0.40000000596046</ele>
        <time>2021-04-08T10:16:21.000Z</time>
      </trkpt>
      <trkpt lat="47.27031" lon="-2.31703">
        <ele>15.2</ele>
        <time>2021-04-08T10:16:22.000Z</time>
      </trkpt>
      <trkpt lat="47.27034" lon="-2.31706">
        <ele>-0.40000000596046</ele>
        <time>2021-04-08T10:16:23.000Z</time>
      </trkpt>
      <trkpt lat="47.27037" lon="-2.3171">
        <ele>-1</ele>
        <time>2021-04-08T10:16:24.000Z</time>
      </trkpt>
      <trkpt lat="47.27051" lon="-2.31731">
        <ele>-1</ele>
        <time>2021-04-08T10:16:29.000Z</time>
      </trkpt>
      <trkpt lat="47.27051" lon="-2.31754">
        <ele>-1</ele>
        <time>2021-04-08T10:16:33.000Z</time>
      </trkpt>
      <trkpt lat="47.27054" lon="-2.3178">
        <ele>-1</ele>
        <time>2021-04-08T10:16:37.000Z</time>
      </trkpt>
      <trkpt lat="47.27059" lon="-2.31812">
        <ele>-1</ele>
        <time>2021-04-08T10:16:41.000Z</time>
      </trkpt>
      <trkpt lat="47.27061" lon="-2.31828">
        <ele>-1.3999999761581</ele>
        <time>2021-04-08T10:16:43.000Z</time>
      </trkpt>
      <trkpt lat="47.27062" lon="-2.31835">
        <ele>-1.7999999523163</ele>
        <time>2021-04-08T10:16:44.000Z</time>
      </trkpt>
      <trkpt lat="47.27064" lon="-2.3184">
        <ele>-2.2000000476837</ele>
        <time>2021-04-08T10:16:45.000Z</time>
      </trkpt>
      <trkpt lat="47.27067" lon="-2.31845">
        <ele>-2.5999999046326</ele>
        <time>2021-04-08T10:16:46.000Z</time>
      </trkpt>
      <trkpt lat="47.2707" lon="-2.31847">
        <ele>-3.2000000476837</ele>
        <time>2021-04-08T10:16:47.000Z</time>
      </trkpt>
      <trkpt lat="47.27074" lon="-2.31847">
        <ele>-3.5999999046326</ele>
        <time>2021-04-08T10:16:48.000Z</time>
      </trkpt>
      <trkpt lat="47.27077" lon="-2.31849">
        <ele>-4</ele>
        <time>2021-04-08T10:16:49.000Z</time>
      </trkpt>
      <trkpt lat="47.2708" lon="-2.31853">
        <ele>-4.4000000953674</ele>
        <time>2021-04-08T10:16:50.000Z</time>
      </trkpt>
      <trkpt lat="47.2708" lon="-2.31856">
        <ele>-4.8000001907349</ele>
        <time>2021-04-08T10:16:51.000Z</time>
      </trkpt>
      <trkpt lat="47.27079" lon="-2.31859">
        <ele>-5.1999998092651</ele>
        <time>2021-04-08T10:16:52.000Z</time>
      </trkpt>
      <trkpt lat="47.27077" lon="-2.31872">
        <ele>-5.1999998092651</ele>
        <time>2021-04-08T10:16:57.000Z</time>
      </trkpt>
      <trkpt lat="47.27076" lon="-2.319">
        <ele>-5.1999998092651</ele>
        <time>2021-04-08T10:17:03.000Z</time>
      </trkpt>
      <trkpt lat="47.27079" lon="-2.31916">
        <ele>-5.1999998092651</ele>
        <time>2021-04-08T10:17:07.000Z</time>
      </trkpt>
      <trkpt lat="47.27079" lon="-2.31927">
        <ele>-5.5999999046326</ele>
        <time>2021-04-08T10:17:10.000Z</time>
      </trkpt>
      <trkpt lat="47.27079" lon="-2.3193">
        <ele>-6</ele>
        <time>2021-04-08T10:17:11.000Z</time>
      </trkpt>
      <trkpt lat="47.2708" lon="-2.31933">
        <ele>-6.4000000953674</ele>
        <time>2021-04-08T10:17:12.000Z</time>
      </trkpt>
      <trkpt lat="47.2708" lon="-2.31935">
        <ele>-6.8000001907349</ele>
        <time>2021-04-08T10:17:13.000Z</time>
      </trkpt>
      <trkpt lat="47.27079" lon="-2.31938">
        <ele>-7.1999998092651</ele>
        <time>2021-04-08T10:17:14.000Z</time>
      </trkpt>
      <trkpt lat="47.27076" lon="-2.31943">
        <ele>-7.1999998092651</ele>
        <time>2021-04-08T10:17:16.000Z</time>
      </trkpt>
      <trkpt lat="47.27064" lon="-2.31946">
        <ele>-7.1999998092651</ele>
        <time>2021-04-08T10:17:20.000Z</time>
      </trkpt>
      <trkpt lat="47.27052" lon="-2.31948">
        <ele>-7.1999998092651</ele>
        <time>2021-04-08T10:17:25.000Z</time>
      </trkpt>
      <trkpt lat="47.2705" lon="-2.3195">
        <ele>-7.1999998092651</ele>
        <time>2021-04-08T10:17:26.000Z</time>
      </trkpt>
      <trkpt lat="47.27035" lon="-2.3196">
        <ele>-7.1999998092651</ele>
        <time>2021-04-08T10:17:32.000Z</time>
      </trkpt>
      <trkpt lat="47.27017" lon="-2.31972">
        <ele>-7.1999998092651</ele>
        <time>2021-04-08T10:17:38.000Z</time>
      </trkpt>
      <trkpt lat="47.27006" lon="-2.31982">
        <ele>-7.1999998092651</ele>
        <time>2021-04-08T10:17:42.000Z</time>
      </trkpt>
      <trkpt lat="47.27003" lon="-2.31982">
        <ele>-7.1999998092651</ele>
        <time>2021-04-08T10:17:43.000Z</time>
      </trkpt>
      <trkpt lat="47.26997" lon="-2.31986">
        <ele>-7.1999998092651</ele>
        <time>2021-04-08T10:17:47.000Z</time>
      </trkpt>
      <trkpt lat="47.26986" lon="-2.31989">
        <ele>-7.1999998092651</ele>
        <time>2021-04-08T10:17:51.000Z</time>
      </trkpt>
      <trkpt lat="47.26962" lon="-2.31997">
        <ele>-7.1999998092651</ele>
        <time>2021-04-08T10:17:57.000Z</time>
      </trkpt>
      <trkpt lat="47.26954" lon="-2.31996">
        <ele>-6.8000001907349</ele>
        <time>2021-04-08T10:17:59.000Z</time>
      </trkpt>
      <trkpt lat="47.26951" lon="-2.31994">
        <ele>-6.4000000953674</ele>
        <time>2021-04-08T10:18:00.000Z</time>
      </trkpt>
      <trkpt lat="47.26948" lon="-2.3199">
        <ele>-6</ele>
        <time>2021-04-08T10:18:01.000Z</time>
      </trkpt>
      <trkpt lat="47.26944" lon="-2.31987">
        <ele>-5.4000000953674</ele>
        <time>2021-04-08T10:18:02.000Z</time>
      </trkpt>
      <trkpt lat="47.2694" lon="-2.31983">
        <ele>-5</ele>
        <time>2021-04-08T10:18:03.000Z</time>
      </trkpt>
      <trkpt lat="47.26931" lon="-2.31972">
        <ele>-5</ele>
        <time>2021-04-08T10:18:06.000Z</time>
      </trkpt>
      <trkpt lat="47.26926" lon="-2.31964">
        <ele>-4.5999999046326</ele>
        <time>2021-04-08T10:18:08.000Z</time>
      </trkpt>
      <trkpt lat="47.26924" lon="-2.31959">
        <ele>-4.1999998092651</ele>
        <time>2021-04-08T10:18:09.000Z</time>
      </trkpt>
      <trkpt lat="47.26921" lon="-2.31956">
        <ele>-3.7999999523163</ele>
        <time>2021-04-08T10:18:10.000Z</time>
      </trkpt>
      <trkpt lat="47.26919" lon="-2.31953">
        <ele>-3</ele>
        <time>2021-04-08T10:18:11.000Z</time>
      </trkpt>
      <trkpt lat="47.26906" lon="-2.31942">
        <ele>-3</ele>
        <time>2021-04-08T10:18:15.000Z</time>
      </trkpt>
      <trkpt lat="47.26894" lon="-2.31925">
        <ele>-2.5999999046326</ele>
        <time>2021-04-08T10:18:19.000Z</time>
      </trkpt>
      <trkpt lat="47.26891" lon="-2.3192">
        <ele>-2.2000000476837</ele>
        <time>2021-04-08T10:18:20.000Z</time>
      </trkpt>
      <trkpt lat="47.26889" lon="-2.31916">
        <ele>-1.7999999523163</ele>
        <time>2021-04-08T10:18:21.000Z</time>
      </trkpt>
      <trkpt lat="47.26886" lon="-2.31912">
        <ele>-1.3999999761581</ele>
        <time>2021-04-08T10:18:22.000Z</time>
      </trkpt>
      <trkpt lat="47.26884" lon="-2.31908">
        <ele>-1</ele>
        <time>2021-04-08T10:18:23.000Z</time>
      </trkpt>
      <trkpt lat="47.26872" lon="-2.31894">
        <ele>-1</ele>
        <time>2021-04-08T10:18:27.000Z</time>
      </trkpt>
      <trkpt lat="47.26868" lon="-2.31893">
        <ele>-0.60000002384186</ele>
        <time>2021-04-08T10:18:28.000Z</time>
      </trkpt>
      <trkpt lat="47.26864" lon="-2.31892">
        <ele>-0.20000000298023</ele>
        <time>2021-04-08T10:18:29.000Z</time>
      </trkpt>
      <trkpt lat="47.2686" lon="-2.31891">
        <ele>0.20000000298023</ele>
        <time>2021-04-08T10:18:30.000Z</time>
      </trkpt>
      <trkpt lat="47.26856" lon="-2.3189">
        <ele>0.60000002384186</ele>
        <time>2021-04-08T10:18:31.000Z</time>
      </trkpt>
      <trkpt lat="47.26853" lon="-2.31889">
        <ele>1</ele>
        <time>2021-04-08T10:18:32.000Z</time>
      </trkpt>
      <trkpt lat="47.2684" lon="-2.3188">
        <ele>1</ele>
        <time>2021-04-08T10:18:36.000Z</time>
      </trkpt>
      <trkpt lat="47.26838" lon="-2.31876">
        <ele>1</ele>
        <time>2021-04-08T10:18:37.000Z</time>
      </trkpt>
      <trkpt lat="47.26835" lon="-2.31872">
        <ele>1.6000000238419</ele>
        <time>2021-04-08T10:18:38.000Z</time>
      </trkpt>
      <trkpt lat="47.26833" lon="-2.31867">
        <ele>2</ele>
        <time>2021-04-08T10:18:39.000Z</time>
      </trkpt>
      <trkpt lat="47.26832" lon="-2.31863">
        <ele>2.4000000953674</ele>
        <time>2021-04-08T10:18:40.000Z</time>
      </trkpt>
      <trkpt lat="47.2683" lon="-2.31859">
        <ele>2.7999999523163</ele>
        <time>2021-04-08T10:18:41.000Z</time>
      </trkpt>
      <trkpt lat="47.26828" lon="-2.31854">
        <ele>3.2000000476837</ele>
        <time>2021-04-08T10:18:42.000Z</time>
      </trkpt>
      <trkpt lat="47.26824" lon="-2.31845">
        <ele>3.2000000476837</ele>
        <time>2021-04-08T10:18:44.000Z</time>
      </trkpt>
      <trkpt lat="47.2682" lon="-2.31833">
        <ele>3.5999999046326</ele>
        <time>2021-04-08T10:18:47.000Z</time>
      </trkpt>
      <trkpt lat="47.26819" lon="-2.31828">
        <ele>4</ele>
        <time>2021-04-08T10:18:48.000Z</time>
      </trkpt>
      <trkpt lat="47.26817" lon="-2.31824">
        <ele>4.4000000953674</ele>
        <time>2021-04-08T10:18:49.000Z</time>
      </trkpt>
      <trkpt lat="47.26816" lon="-2.31821">
        <ele>4.8000001907349</ele>
        <time>2021-04-08T10:18:50.000Z</time>
      </trkpt>
      <trkpt lat="47.26815" lon="-2.31818">
        <ele>5.1999998092651</ele>
        <time>2021-04-08T10:18:51.000Z</time>
      </trkpt>
      <trkpt lat="47.26812" lon="-2.31806">
        <ele>5.1999998092651</ele>
        <time>2021-04-08T10:18:55.000Z</time>
      </trkpt>
      <trkpt lat="47.2681" lon="-2.31807">
        <ele>5.1999998092651</ele>
        <time>2021-04-08T10:18:56.000Z</time>
      </trkpt>
      <trkpt lat="47.26798" lon="-2.31813">
        <ele>5.1999998092651</ele>
        <time>2021-04-08T10:19:00.000Z</time>
      </trkpt>
      <trkpt lat="47.26771" lon="-2.31832">
        <ele>5.1999998092651</ele>
        <time>2021-04-08T10:19:08.000Z</time>
      </trkpt>
      <trkpt lat="47.26745" lon="-2.31851">
        <ele>5.1999998092651</ele>
        <time>2021-04-08T10:19:15.000Z</time>
      </trkpt>
      <trkpt lat="47.26721" lon="-2.31875">
        <ele>5.5999999046326</ele>
        <time>2021-04-08T10:19:22.000Z</time>
      </trkpt>
      <trkpt lat="47.26717" lon="-2.31879">
        <ele>6</ele>
        <time>2021-04-08T10:19:23.000Z</time>
      </trkpt>
      <trkpt lat="47.26714" lon="-2.31883">
        <ele>6.4000000953674</ele>
        <time>2021-04-08T10:19:24.000Z</time>
      </trkpt>
      <trkpt lat="47.2671" lon="-2.31886">
        <ele>7.1999998092651</ele>
        <time>2021-04-08T10:19:25.000Z</time>
      </trkpt>
      <trkpt lat="47.26683" lon="-2.31915">
        <ele>7.1999998092651</ele>
        <time>2021-04-08T10:19:32.000Z</time>
      </trkpt>
      <trkpt lat="47.26652" lon="-2.31949">
        <ele>7.1999998092651</ele>
        <time>2021-04-08T10:19:40.000Z</time>
      </trkpt>
      <trkpt lat="47.26649" lon="-2.31955">
        <ele>7.1999998092651</ele>
        <time>2021-04-08T10:19:41.000Z</time>
      </trkpt>
      <trkpt lat="47.26644" lon="-2.31982">
        <ele>7.1999998092651</ele>
        <time>2021-04-08T10:19:45.000Z</time>
      </trkpt>
      <trkpt lat="47.26642" lon="-2.32002">
        <ele>7.1999998092651</ele>
        <time>2021-04-08T10:19:48.000Z</time>
      </trkpt>
      <trkpt lat="47.26639" lon="-2.32007">
        <ele>7.1999998092651</ele>
        <time>2021-04-08T10:19:49.000Z</time>
      </trkpt>
      <trkpt lat="47.26636" lon="-2.32011">
        <ele>7.1999998092651</ele>
        <time>2021-04-08T10:19:50.000Z</time>
      </trkpt>
      <trkpt lat="47.26622" lon="-2.32016">
        <ele>7.1999998092651</ele>
        <time>2021-04-08T10:19:53.000Z</time>
      </trkpt>
      <trkpt lat="47.26617" lon="-2.32017">
        <ele>7.1999998092651</ele>
        <time>2021-04-08T10:19:54.000Z</time>
      </trkpt>
      <trkpt lat="47.26596" lon="-2.32023">
        <ele>7.1999998092651</ele>
        <time>2021-04-08T10:19:58.000Z</time>
      </trkpt>
      <trkpt lat="47.26591" lon="-2.32025">
        <ele>7.1999998092651</ele>
        <time>2021-04-08T10:19:59.000Z</time>
      </trkpt>
      <trkpt lat="47.26553" lon="-2.32039">
        <ele>7.1999998092651</ele>
        <time>2021-04-08T10:20:06.000Z</time>
      </trkpt>
      <trkpt lat="47.26546" lon="-2.32039">
        <ele>6.8000001907349</ele>
        <time>2021-04-08T10:20:08.000Z</time>
      </trkpt>
      <trkpt lat="47.26544" lon="-2.32038">
        <ele>6.4000000953674</ele>
        <time>2021-04-08T10:20:09.000Z</time>
      </trkpt>
      <trkpt lat="47.26542" lon="-2.32037">
        <ele>6</ele>
        <time>2021-04-08T10:20:10.000Z</time>
      </trkpt>
      <trkpt lat="47.2654" lon="-2.32037">
        <ele>5.5999999046326</ele>
        <time>2021-04-08T10:20:11.000Z</time>
      </trkpt>
      <trkpt lat="47.26538" lon="-2.32035">
        <ele>5.1999998092651</ele>
        <time>2021-04-08T10:20:12.000Z</time>
      </trkpt>
      <trkpt lat="47.26532" lon="-2.32025">
        <ele>5.1999998092651</ele>
        <time>2021-04-08T10:20:15.000Z</time>
      </trkpt>
      <trkpt lat="47.26524" lon="-2.32011">
        <ele>4.8000001907349</ele>
        <time>2021-04-08T10:20:19.000Z</time>
      </trkpt>
      <trkpt lat="47.26522" lon="-2.32008">
        <ele>4.4000000953674</ele>
        <time>2021-04-08T10:20:20.000Z</time>
      </trkpt>
      <trkpt lat="47.26519" lon="-2.32005">
        <ele>3.7999999523163</ele>
        <time>2021-04-08T10:20:21.000Z</time>
      </trkpt>
      <trkpt lat="47.26516" lon="-2.32004">
        <ele>3.4000000953674</ele>
        <time>2021-04-08T10:20:22.000Z</time>
      </trkpt>
      <trkpt lat="47.26514" lon="-2.32002">
        <ele>3</ele>
        <time>2021-04-08T10:20:23.000Z</time>
      </trkpt>
      <trkpt lat="47.26506" lon="-2.32002">
        <ele>3</ele>
        <time>2021-04-08T10:20:26.000Z</time>
      </trkpt>
      <trkpt lat="47.26502" lon="-2.32002">
        <ele>2.5999999046326</ele>
        <time>2021-04-08T10:20:27.000Z</time>
      </trkpt>
      <trkpt lat="47.26498" lon="-2.32002">
        <ele>2</ele>
        <time>2021-04-08T10:20:28.000Z</time>
      </trkpt>
      <trkpt lat="47.26494" lon="-2.32002">
        <ele>1.6000000238419</ele>
        <time>2021-04-08T10:20:29.000Z</time>
      </trkpt>
      <trkpt lat="47.2649" lon="-2.32003">
        <ele>1.2000000476837</ele>
        <time>2021-04-08T10:20:30.000Z</time>
      </trkpt>
      <trkpt lat="47.26486" lon="-2.32002">
        <ele>0.80000001192093</ele>
        <time>2021-04-08T10:20:31.000Z</time>
      </trkpt>
      <trkpt lat="47.26478" lon="-2.32002">
        <ele>0.80000001192093</ele>
        <time>2021-04-08T10:20:33.000Z</time>
      </trkpt>
      <trkpt lat="47.26469" lon="-2.32002">
        <ele>0.40000000596046</ele>
        <time>2021-04-08T10:20:35.000Z</time>
      </trkpt>
      <trkpt lat="47.26465" lon="-2.32003">
        <ele>12.8</ele>
        <time>2021-04-08T10:20:36.000Z</time>
      </trkpt>
      <trkpt lat="47.26461" lon="-2.32004">
        <ele>-0.40000000596046</ele>
        <time>2021-04-08T10:20:37.000Z</time>
      </trkpt>
      <trkpt lat="47.26457" lon="-2.32002">
        <ele>-0.80000001192093</ele>
        <time>2021-04-08T10:20:38.000Z</time>
      </trkpt>
      <trkpt lat="47.26452" lon="-2.32002">
        <ele>-1.2000000476837</ele>
        <time>2021-04-08T10:20:39.000Z</time>
      </trkpt>
      <trkpt lat="47.26436" lon="-2.32">
        <ele>-1.6000000238419</ele>
        <time>2021-04-08T10:20:42.000Z</time>
      </trkpt>
      <trkpt lat="47.26431" lon="-2.32">
        <ele>-2.2000000476837</ele>
        <time>2021-04-08T10:20:43.000Z</time>
      </trkpt>
      <trkpt lat="47.26425" lon="-2.31999">
        <ele>-2.5999999046326</ele>
        <time>2021-04-08T10:20:44.000Z</time>
      </trkpt>
      <trkpt lat="47.2642" lon="-2.31997">
        <ele>-3</ele>
        <time>2021-04-08T10:20:45.000Z</time>
      </trkpt>
      <trkpt lat="47.26415" lon="-2.31996">
        <ele>-3.4000000953674</ele>
        <time>2021-04-08T10:20:46.000Z</time>
      </trkpt>
      <trkpt lat="47.26409" lon="-2.31995">
        <ele>-3.4000000953674</ele>
        <time>2021-04-08T10:20:47.000Z</time>
      </trkpt>
      <trkpt lat="47.26398" lon="-2.31994">
        <ele>-4</ele>
        <time>2021-04-08T10:20:49.000Z</time>
      </trkpt>
      <trkpt lat="47.26392" lon="-2.31993">
        <ele>-4.4000000953674</ele>
        <time>2021-04-08T10:20:50.000Z</time>
      </trkpt>
      <trkpt lat="47.26387" lon="-2.31993">
        <ele>-5</ele>
        <time>2021-04-08T10:20:51.000Z</time>
      </trkpt>
      <trkpt lat="47.26383" lon="-2.31993">
        <ele>-5.4000000953674</ele>
        <time>2021-04-08T10:20:52.000Z</time>
      </trkpt>
      <trkpt lat="47.26379" lon="-2.31992">
        <ele>-6</ele>
        <time>2021-04-08T10:20:53.000Z</time>
      </trkpt>
      <trkpt lat="47.2637" lon="-2.31988">
        <ele>-6.4000000953674</ele>
        <time>2021-04-08T10:20:55.000Z</time>
      </trkpt>
      <trkpt lat="47.26366" lon="-2.31983">
        <ele>-6.8000001907349</ele>
        <time>2021-04-08T10:20:56.000Z</time>
      </trkpt>
      <trkpt lat="47.26363" lon="-2.31979">
        <ele>-7.1999998092651</ele>
        <time>2021-04-08T10:20:57.000Z</time>
      </trkpt>
      <trkpt lat="47.26361" lon="-2.31974">
        <ele>-7.5999999046326</ele>
        <time>2021-04-08T10:20:58.000Z</time>
      </trkpt>
      <trkpt lat="47.26359" lon="-2.31968">
        <ele>-8</ele>
        <time>2021-04-08T10:20:59.000Z</time>
      </trkpt>
      <trkpt lat="47.26351" lon="-2.31947">
        <ele>-8.6000003814697</ele>
        <time>2021-04-08T10:21:03.000Z</time>
      </trkpt>
      <trkpt lat="47.26347" lon="-2.31944">
        <ele>-9.3999996185303</ele>
        <time>2021-04-08T10:21:04.000Z</time>
      </trkpt>
      <trkpt lat="47.26342" lon="-2.31942">
        <ele>-9.8000001907349</ele>
        <time>2021-04-08T10:21:05.000Z</time>
      </trkpt>
      <trkpt lat="47.26338" lon="-2.3194">
        <ele>-10.199999809265</ele>
        <time>2021-04-08T10:21:06.000Z</time>
      </trkpt>
      <trkpt lat="47.26327" lon="-2.31939">
        <ele>-10.199999809265</ele>
        <time>2021-04-08T10:21:09.000Z</time>
      </trkpt>
      <trkpt lat="47.26321" lon="-2.3194">
        <ele>-10.199999809265</ele>
        <time>2021-04-08T10:21:11.000Z</time>
      </trkpt>
      <trkpt lat="47.26313" lon="-2.31935">
        <ele>-10.199999809265</ele>
        <time>2021-04-08T10:21:14.000Z</time>
      </trkpt>
      <trkpt lat="47.26311" lon="-2.31932">
        <ele>-10.199999809265</ele>
        <time>2021-04-08T10:21:15.000Z</time>
      </trkpt>
      <trkpt lat="47.26306" lon="-2.31907">
        <ele>-10.199999809265</ele>
        <time>2021-04-08T10:21:21.000Z</time>
      </trkpt>
      <trkpt lat="47.26305" lon="-2.31875">
        <ele>-10.199999809265</ele>
        <time>2021-04-08T10:21:27.000Z</time>
      </trkpt>
      <trkpt lat="47.26301" lon="-2.31836">
        <ele>-10.199999809265</ele>
        <time>2021-04-08T10:21:33.000Z</time>
      </trkpt>
      <trkpt lat="47.26304" lon="-2.31798">
        <ele>-10.199999809265</ele>
        <time>2021-04-08T10:21:39.000Z</time>
      </trkpt>
      <trkpt lat="47.26302" lon="-2.31764">
        <ele>-10.199999809265</ele>
        <time>2021-04-08T10:21:44.000Z</time>
      </trkpt>
      <trkpt lat="47.26298" lon="-2.31734">
        <ele>-10.199999809265</ele>
        <time>2021-04-08T10:21:48.000Z</time>
      </trkpt>
      <trkpt lat="47.263" lon="-2.31726">
        <ele>-10.199999809265</ele>
        <time>2021-04-08T10:21:49.000Z</time>
      </trkpt>
      <trkpt lat="47.26309" lon="-2.31711">
        <ele>-10.199999809265</ele>
        <time>2021-04-08T10:21:52.000Z</time>
      </trkpt>
      <trkpt lat="47.26328" lon="-2.31698">
        <ele>-10.199999809265</ele>
        <time>2021-04-08T10:21:57.000Z</time>
      </trkpt>
      <trkpt lat="47.26329" lon="-2.31693">
        <ele>-10.199999809265</ele>
        <time>2021-04-08T10:21:58.000Z</time>
      </trkpt>
      <trkpt lat="47.26331" lon="-2.31689">
        <ele>-10.199999809265</ele>
        <time>2021-04-08T10:21:59.000Z</time>
      </trkpt>
      <trkpt lat="47.26337" lon="-2.31684">
        <ele>-10.199999809265</ele>
        <time>2021-04-08T10:22:01.000Z</time>
      </trkpt>
      <trkpt lat="47.26358" lon="-2.31674">
        <ele>-10.199999809265</ele>
        <time>2021-04-08T10:22:07.000Z</time>
      </trkpt>
      <trkpt lat="47.2636" lon="-2.31673">
        <ele>-9.8000001907349</ele>
        <time>2021-04-08T10:22:08.000Z</time>
      </trkpt>
      <trkpt lat="47.26363" lon="-2.31671">
        <ele>-9.3999996185303</ele>
        <time>2021-04-08T10:22:09.000Z</time>
      </trkpt>
      <trkpt lat="47.26367" lon="-2.3167">
        <ele>-9</ele>
        <time>2021-04-08T10:22:10.000Z</time>
      </trkpt>
      <trkpt lat="47.2637" lon="-2.31668">
        <ele>-8.6000003814697</ele>
        <time>2021-04-08T10:22:11.000Z</time>
      </trkpt>
      <trkpt lat="47.26374" lon="-2.31666">
        <ele>-8.1999998092651</ele>
        <time>2021-04-08T10:22:12.000Z</time>
      </trkpt>
      <trkpt lat="47.26377" lon="-2.31664">
        <ele>-8.1999998092651</ele>
        <time>2021-04-08T10:22:13.000Z</time>
      </trkpt>
      <trkpt lat="47.26397" lon="-2.31654">
        <ele>-8.1999998092651</ele>
        <time>2021-04-08T10:22:19.000Z</time>
      </trkpt>
      <trkpt lat="47.26405" lon="-2.31647">
        <ele>-8.1999998092651</ele>
        <time>2021-04-08T10:22:22.000Z</time>
      </trkpt>
      <trkpt lat="47.26406" lon="-2.31643">
        <ele>-8.1999998092651</ele>
        <time>2021-04-08T10:22:23.000Z</time>
      </trkpt>
      <trkpt lat="47.26407" lon="-2.31628">
        <ele>-8.1999998092651</ele>
        <time>2021-04-08T10:22:26.000Z</time>
      </trkpt>
      <trkpt lat="47.26406" lon="-2.31613">
        <ele>-7.8000001907349</ele>
        <time>2021-04-08T10:22:29.000Z</time>
      </trkpt>
      <trkpt lat="47.26405" lon="-2.31608">
        <ele>-7.4000000953674</ele>
        <time>2021-04-08T10:22:30.000Z</time>
      </trkpt>
      <trkpt lat="47.26405" lon="-2.31603">
        <ele>-7</ele>
        <time>2021-04-08T10:22:31.000Z</time>
      </trkpt>
      <trkpt lat="47.26405" lon="-2.31598">
        <ele>-6.5999999046326</ele>
        <time>2021-04-08T10:22:32.000Z</time>
      </trkpt>
      <trkpt lat="47.26405" lon="-2.31594">
        <ele>-6.1999998092651</ele>
        <time>2021-04-08T10:22:33.000Z</time>
      </trkpt>
      <trkpt lat="47.26405" lon="-2.31583">
        <ele>-6.1999998092651</ele>
        <time>2021-04-08T10:22:35.000Z</time>
      </trkpt>
      <trkpt lat="47.26405" lon="-2.3156">
        <ele>-6.1999998092651</ele>
        <time>2021-04-08T10:22:41.000Z</time>
      </trkpt>
      <trkpt lat="47.26406" lon="-2.3155">
        <ele>-6.1999998092651</ele>
        <time>2021-04-08T10:22:44.000Z</time>
      </trkpt>
      <trkpt lat="47.26408" lon="-2.31549">
        <ele>-6.1999998092651</ele>
        <time>2021-04-08T10:22:45.000Z</time>
      </trkpt>
      <trkpt lat="47.26413" lon="-2.31549">
        <ele>-6.1999998092651</ele>
        <time>2021-04-08T10:22:49.000Z</time>
      </trkpt>
    </trkseg>
  </trk>
</gpx>